<?xml version="1.0" encoding="UTF-8" standalone="no" ?>
<gpx xmlns="http://www.topografix.com/GPX/1/1" xmlns:xsi="http://www.w3.org/2001/XMLSchema-instance" xsi:schemaLocation="http://www.topografix.com/GPX/1/1 http://www.topografix.com/GPX/1/1/gpx.xsd" version="1.1" creator="VisuGPX - https://www.visugpx.com">
  <metadata>
    <name>Tour d'Europe: étape 042</name>
    <desc><![CDATA[Étape 042]]></desc>
  </metadata>
  <trk>
    <name><![CDATA[Tour d'Europe: étape 042]]></name>
    <trkseg>
      <trkpt lat="63.95681" lon="10.2212">
        <ele>53.409703</ele>
        <time>2020-08-09T08:12:26.384Z</time>
      </trkpt>
      <trkpt lat="63.95686" lon="10.22097">
        <ele>53.409703</ele>
        <time>2020-08-09T08:15:19.750Z</time>
      </trkpt>
      <trkpt lat="63.95695" lon="10.22087">
        <ele>53.409703</ele>
        <time>2020-08-09T08:15:25.702Z</time>
      </trkpt>
      <trkpt lat="63.95704" lon="10.22095">
        <ele>53.409703</ele>
        <time>2020-08-09T08:15:29.676Z</time>
      </trkpt>
      <trkpt lat="63.95714" lon="10.22107">
        <ele>53.409703</ele>
        <time>2020-08-09T08:15:33.669Z</time>
      </trkpt>
      <trkpt lat="63.95723" lon="10.22122">
        <ele>53.409703</ele>
        <time>2020-08-09T08:15:37.687Z</time>
      </trkpt>
      <trkpt lat="63.95731" lon="10.22136">
        <ele>53.409703</ele>
        <time>2020-08-09T08:15:40.673Z</time>
      </trkpt>
      <trkpt lat="63.95738" lon="10.22149">
        <ele>53.409703</ele>
        <time>2020-08-09T08:15:43.669Z</time>
      </trkpt>
      <trkpt lat="63.95746" lon="10.22164">
        <ele>53.409703</ele>
        <time>2020-08-09T08:15:46.677Z</time>
      </trkpt>
      <trkpt lat="63.95755" lon="10.22181">
        <ele>53.357138</ele>
        <time>2020-08-09T08:15:49.666Z</time>
      </trkpt>
      <trkpt lat="63.95764" lon="10.22197">
        <ele>53.210233</ele>
        <time>2020-08-09T08:15:52.738Z</time>
      </trkpt>
      <trkpt lat="63.95772" lon="10.22214">
        <ele>53.071845</ele>
        <time>2020-08-09T08:15:55.661Z</time>
      </trkpt>
      <trkpt lat="63.95779" lon="10.22231">
        <ele>52.941537</ele>
        <time>2020-08-09T08:15:58.663Z</time>
      </trkpt>
      <trkpt lat="63.95785" lon="10.22249">
        <ele>52.820074</ele>
        <time>2020-08-09T08:16:01.726Z</time>
      </trkpt>
      <trkpt lat="63.9579" lon="10.22272">
        <ele>52.674034</ele>
        <time>2020-08-09T08:16:05.666Z</time>
      </trkpt>
      <trkpt lat="63.95795" lon="10.2229">
        <ele>52.555847</ele>
        <time>2020-08-09T08:16:08.695Z</time>
      </trkpt>
      <trkpt lat="63.958" lon="10.22311">
        <ele>52.425251</ele>
        <time>2020-08-09T08:16:11.674Z</time>
      </trkpt>
      <trkpt lat="63.95806" lon="10.2233">
        <ele>52.297675</ele>
        <time>2020-08-09T08:16:14.698Z</time>
      </trkpt>
      <trkpt lat="63.95811" lon="10.22349">
        <ele>52.174064</ele>
        <time>2020-08-09T08:16:17.707Z</time>
      </trkpt>
      <trkpt lat="63.95815" lon="10.22368">
        <ele>52.056151</ele>
        <time>2020-08-09T08:16:20.678Z</time>
      </trkpt>
      <trkpt lat="63.95819" lon="10.22387">
        <ele>51.940079</ele>
        <time>2020-08-09T08:16:23.726Z</time>
      </trkpt>
      <trkpt lat="63.95825" lon="10.2241">
        <ele>51.795002</ele>
        <time>2020-08-09T08:16:27.685Z</time>
      </trkpt>
      <trkpt lat="63.9583" lon="10.22432">
        <ele>51.654788</ele>
        <time>2020-08-09T08:16:30.696Z</time>
      </trkpt>
      <trkpt lat="63.95835" lon="10.22451">
        <ele>51.532592</ele>
        <time>2020-08-09T08:16:33.683Z</time>
      </trkpt>
      <trkpt lat="63.9584" lon="10.22471">
        <ele>51.408328</ele>
        <time>2020-08-09T08:16:36.673Z</time>
      </trkpt>
      <trkpt lat="63.95845" lon="10.22488">
        <ele>51.294022</ele>
        <time>2020-08-09T08:16:39.696Z</time>
      </trkpt>
      <trkpt lat="63.9585" lon="10.22511">
        <ele>51.154089</ele>
        <time>2020-08-09T08:16:43.682Z</time>
      </trkpt>
      <trkpt lat="63.95856" lon="10.22534">
        <ele>51.388071</ele>
        <time>2020-08-09T08:16:47.673Z</time>
      </trkpt>
      <trkpt lat="63.95862" lon="10.22552">
        <ele>51.604347</ele>
        <time>2020-08-09T08:16:50.720Z</time>
      </trkpt>
      <trkpt lat="63.95868" lon="10.22569">
        <ele>51.816462</ele>
        <time>2020-08-09T08:16:53.668Z</time>
      </trkpt>
      <trkpt lat="63.95874" lon="10.22587">
        <ele>52.024696</ele>
        <time>2020-08-09T08:16:56.670Z</time>
      </trkpt>
      <trkpt lat="63.95881" lon="10.22609">
        <ele>52.277617</ele>
        <time>2020-08-09T08:17:00.693Z</time>
      </trkpt>
      <trkpt lat="63.95888" lon="10.22628">
        <ele>52.519789</ele>
        <time>2020-08-09T08:17:04.677Z</time>
      </trkpt>
      <trkpt lat="63.95895" lon="10.22645">
        <ele>52.751454</ele>
        <time>2020-08-09T08:17:08.723Z</time>
      </trkpt>
      <trkpt lat="63.95902" lon="10.22661">
        <ele>52.961489</ele>
        <time>2020-08-09T08:17:12.708Z</time>
      </trkpt>
      <trkpt lat="63.9591" lon="10.22676">
        <ele>53.174041</ele>
        <time>2020-08-09T08:17:16.686Z</time>
      </trkpt>
      <trkpt lat="63.95918" lon="10.22692">
        <ele>53.418085</ele>
        <time>2020-08-09T08:17:20.666Z</time>
      </trkpt>
      <trkpt lat="63.95929" lon="10.22692">
        <ele>53.648313</ele>
        <time>2020-08-09T08:17:24.706Z</time>
      </trkpt>
      <trkpt lat="63.95938" lon="10.22676">
        <ele>53.902099</ele>
        <time>2020-08-09T08:17:28.688Z</time>
      </trkpt>
      <trkpt lat="63.95946" lon="10.22665">
        <ele>54.098449</ele>
        <time>2020-08-09T08:17:31.667Z</time>
      </trkpt>
      <trkpt lat="63.95954" lon="10.22652">
        <ele>54.304912</ele>
        <time>2020-08-09T08:17:34.713Z</time>
      </trkpt>
      <trkpt lat="63.95963" lon="10.22638">
        <ele>54.54447</ele>
        <time>2020-08-09T08:17:37.680Z</time>
      </trkpt>
      <trkpt lat="63.95972" lon="10.22623">
        <ele>54.799092</ele>
        <time>2020-08-09T08:17:40.681Z</time>
      </trkpt>
      <trkpt lat="63.95981" lon="10.22607">
        <ele>55.043564</ele>
        <time>2020-08-09T08:17:43.675Z</time>
      </trkpt>
      <trkpt lat="63.95991" lon="10.22592">
        <ele>55.69555</ele>
        <time>2020-08-09T08:17:46.678Z</time>
      </trkpt>
      <trkpt lat="63.96" lon="10.22581">
        <ele>56.272102</ele>
        <time>2020-08-09T08:17:49.683Z</time>
      </trkpt>
      <trkpt lat="63.96009" lon="10.22566">
        <ele>56.941226</ele>
        <time>2020-08-09T08:17:53.688Z</time>
      </trkpt>
      <trkpt lat="63.96019" lon="10.22551">
        <ele>57.630803</ele>
        <time>2020-08-09T08:17:57.704Z</time>
      </trkpt>
      <trkpt lat="63.96028" lon="10.22539">
        <ele>58.181542</ele>
        <time>2020-08-09T08:18:00.675Z</time>
      </trkpt>
      <trkpt lat="63.96037" lon="10.22525">
        <ele>58.834173</ele>
        <time>2020-08-09T08:18:04.719Z</time>
      </trkpt>
      <trkpt lat="63.96047" lon="10.22509">
        <ele>59.518969</ele>
        <time>2020-08-09T08:18:08.713Z</time>
      </trkpt>
      <trkpt lat="63.96055" lon="10.22495">
        <ele>60.086825</ele>
        <time>2020-08-09T08:18:11.696Z</time>
      </trkpt>
      <trkpt lat="63.96062" lon="10.22481">
        <ele>60.630622</ele>
        <time>2020-08-09T08:18:14.690Z</time>
      </trkpt>
      <trkpt lat="63.96068" lon="10.22466">
        <ele>61.155252</ele>
        <time>2020-08-09T08:18:17.669Z</time>
      </trkpt>
      <trkpt lat="63.96077" lon="10.22448">
        <ele>61.835941</ele>
        <time>2020-08-09T08:18:21.716Z</time>
      </trkpt>
      <trkpt lat="63.96087" lon="10.22436">
        <ele>62.47732</ele>
        <time>2020-08-09T08:18:25.676Z</time>
      </trkpt>
      <trkpt lat="63.96096" lon="10.22424">
        <ele>63.073747</ele>
        <time>2020-08-09T08:18:29.675Z</time>
      </trkpt>
      <trkpt lat="63.96104" lon="10.22413">
        <ele>63.593567</ele>
        <time>2020-08-09T08:18:32.717Z</time>
      </trkpt>
      <trkpt lat="63.96112" lon="10.22399">
        <ele>64.178148</ele>
        <time>2020-08-09T08:18:35.674Z</time>
      </trkpt>
      <trkpt lat="63.96121" lon="10.22387">
        <ele>64.771276</ele>
        <time>2020-08-09T08:18:38.706Z</time>
      </trkpt>
      <trkpt lat="63.96131" lon="10.22376">
        <ele>65.305307</ele>
        <time>2020-08-09T08:18:41.675Z</time>
      </trkpt>
      <trkpt lat="63.96141" lon="10.22364">
        <ele>64.942875</ele>
        <time>2020-08-09T08:18:44.691Z</time>
      </trkpt>
      <trkpt lat="63.96149" lon="10.22353">
        <ele>64.626957</ele>
        <time>2020-08-09T08:18:47.700Z</time>
      </trkpt>
      <trkpt lat="63.96158" lon="10.22342">
        <ele>64.290656</ele>
        <time>2020-08-09T08:18:50.704Z</time>
      </trkpt>
      <trkpt lat="63.96169" lon="10.22331">
        <ele>63.916294</ele>
        <time>2020-08-09T08:18:53.698Z</time>
      </trkpt>
      <trkpt lat="63.9618" lon="10.2232">
        <ele>63.526603</ele>
        <time>2020-08-09T08:18:56.666Z</time>
      </trkpt>
      <trkpt lat="63.96191" lon="10.22308">
        <ele>63.144993</ele>
        <time>2020-08-09T08:18:59.694Z</time>
      </trkpt>
      <trkpt lat="63.96201" lon="10.22298">
        <ele>62.777092</ele>
        <time>2020-08-09T08:19:02.717Z</time>
      </trkpt>
      <trkpt lat="63.96212" lon="10.22288">
        <ele>62.408282</ele>
        <time>2020-08-09T08:19:05.671Z</time>
      </trkpt>
      <trkpt lat="63.96222" lon="10.22279">
        <ele>62.045082</ele>
        <time>2020-08-09T08:19:08.675Z</time>
      </trkpt>
      <trkpt lat="63.96233" lon="10.22268">
        <ele>61.677074</ele>
        <time>2020-08-09T08:19:11.681Z</time>
      </trkpt>
      <trkpt lat="63.96243" lon="10.2226">
        <ele>61.322917</ele>
        <time>2020-08-09T08:19:14.691Z</time>
      </trkpt>
      <trkpt lat="63.96254" lon="10.22252">
        <ele>60.962012</ele>
        <time>2020-08-09T08:19:17.701Z</time>
      </trkpt>
      <trkpt lat="63.96263" lon="10.22243">
        <ele>60.620925</ele>
        <time>2020-08-09T08:19:20.663Z</time>
      </trkpt>
      <trkpt lat="63.96274" lon="10.22233">
        <ele>60.248278</ele>
        <time>2020-08-09T08:19:23.701Z</time>
      </trkpt>
      <trkpt lat="63.96285" lon="10.22222">
        <ele>59.868911</ele>
        <time>2020-08-09T08:19:26.682Z</time>
      </trkpt>
      <trkpt lat="63.96296" lon="10.22213">
        <ele>59.534573</ele>
        <time>2020-08-09T08:19:29.690Z</time>
      </trkpt>
      <trkpt lat="63.96306" lon="10.22203">
        <ele>59.492492</ele>
        <time>2020-08-09T08:19:32.682Z</time>
      </trkpt>
      <trkpt lat="63.96315" lon="10.22193">
        <ele>59.452866</ele>
        <time>2020-08-09T08:19:35.736Z</time>
      </trkpt>
      <trkpt lat="63.96324" lon="10.22185">
        <ele>59.416523</ele>
        <time>2020-08-09T08:19:38.683Z</time>
      </trkpt>
      <trkpt lat="63.96332" lon="10.22177">
        <ele>59.379718</ele>
        <time>2020-08-09T08:19:41.663Z</time>
      </trkpt>
      <trkpt lat="63.96341" lon="10.22167">
        <ele>59.342856</ele>
        <time>2020-08-09T08:19:44.661Z</time>
      </trkpt>
      <trkpt lat="63.96349" lon="10.22158">
        <ele>59.307711</ele>
        <time>2020-08-09T08:19:47.677Z</time>
      </trkpt>
      <trkpt lat="63.96358" lon="10.22149">
        <ele>59.27017</ele>
        <time>2020-08-09T08:19:50.673Z</time>
      </trkpt>
      <trkpt lat="63.96367" lon="10.22139">
        <ele>59.231313</ele>
        <time>2020-08-09T08:19:53.685Z</time>
      </trkpt>
      <trkpt lat="63.96376" lon="10.22131">
        <ele>59.193247</ele>
        <time>2020-08-09T08:19:56.682Z</time>
      </trkpt>
      <trkpt lat="63.96386" lon="10.22123">
        <ele>59.155057</ele>
        <time>2020-08-09T08:19:59.691Z</time>
      </trkpt>
      <trkpt lat="63.96395" lon="10.22115">
        <ele>59.116211</ele>
        <time>2020-08-09T08:20:02.723Z</time>
      </trkpt>
      <trkpt lat="63.96404" lon="10.22108">
        <ele>59.080094</ele>
        <time>2020-08-09T08:20:05.713Z</time>
      </trkpt>
      <trkpt lat="63.96413" lon="10.22099">
        <ele>59.041647</ele>
        <time>2020-08-09T08:20:08.682Z</time>
      </trkpt>
      <trkpt lat="63.96422" lon="10.22089">
        <ele>59.002569</ele>
        <time>2020-08-09T08:20:11.680Z</time>
      </trkpt>
      <trkpt lat="63.96431" lon="10.2208">
        <ele>58.967076</ele>
        <time>2020-08-09T08:20:14.664Z</time>
      </trkpt>
      <trkpt lat="63.96439" lon="10.22071">
        <ele>58.930466</ele>
        <time>2020-08-09T08:20:17.700Z</time>
      </trkpt>
      <trkpt lat="63.96448" lon="10.22064">
        <ele>58.895404</ele>
        <time>2020-08-09T08:20:20.713Z</time>
      </trkpt>
      <trkpt lat="63.96459" lon="10.22053">
        <ele>58.849889</ele>
        <time>2020-08-09T08:20:24.716Z</time>
      </trkpt>
      <trkpt lat="63.96469" lon="10.22041">
        <ele>59.154916</ele>
        <time>2020-08-09T08:20:28.723Z</time>
      </trkpt>
      <trkpt lat="63.96478" lon="10.22031">
        <ele>59.459353</ele>
        <time>2020-08-09T08:20:32.695Z</time>
      </trkpt>
      <trkpt lat="63.96487" lon="10.22021">
        <ele>59.747886</ele>
        <time>2020-08-09T08:20:36.713Z</time>
      </trkpt>
      <trkpt lat="63.96495" lon="10.22007">
        <ele>60.053029</ele>
        <time>2020-08-09T08:20:40.676Z</time>
      </trkpt>
      <trkpt lat="63.96504" lon="10.21991">
        <ele>60.381714</ele>
        <time>2020-08-09T08:20:44.673Z</time>
      </trkpt>
      <trkpt lat="63.96513" lon="10.21984">
        <ele>60.664449</ele>
        <time>2020-08-09T08:20:47.691Z</time>
      </trkpt>
      <trkpt lat="63.96523" lon="10.21984">
        <ele>60.957016</ele>
        <time>2020-08-09T08:20:50.676Z</time>
      </trkpt>
      <trkpt lat="63.96532" lon="10.21988">
        <ele>61.246634</ele>
        <time>2020-08-09T08:20:53.708Z</time>
      </trkpt>
      <trkpt lat="63.96541" lon="10.21995">
        <ele>61.52361</ele>
        <time>2020-08-09T08:20:56.700Z</time>
      </trkpt>
      <trkpt lat="63.96551" lon="10.22008">
        <ele>61.849898</ele>
        <time>2020-08-09T08:21:00.676Z</time>
      </trkpt>
      <trkpt lat="63.96559" lon="10.22025">
        <ele>62.178477</ele>
        <time>2020-08-09T08:21:04.693Z</time>
      </trkpt>
      <trkpt lat="63.96567" lon="10.22043">
        <ele>62.515307</ele>
        <time>2020-08-09T08:21:08.678Z</time>
      </trkpt>
      <trkpt lat="63.96573" lon="10.22061">
        <ele>62.798987</ele>
        <time>2020-08-09T08:21:11.721Z</time>
      </trkpt>
      <trkpt lat="63.96579" lon="10.22079">
        <ele>63.103184</ele>
        <time>2020-08-09T08:21:14.717Z</time>
      </trkpt>
      <trkpt lat="63.96586" lon="10.22099">
        <ele>63.421811</ele>
        <time>2020-08-09T08:21:17.677Z</time>
      </trkpt>
      <trkpt lat="63.96591" lon="10.2212">
        <ele>63.734865</ele>
        <time>2020-08-09T08:21:20.692Z</time>
      </trkpt>
      <trkpt lat="63.96595" lon="10.22139">
        <ele>64.008077</ele>
        <time>2020-08-09T08:21:23.696Z</time>
      </trkpt>
      <trkpt lat="63.96598" lon="10.22164">
        <ele>64.106719</ele>
        <time>2020-08-09T08:21:27.677Z</time>
      </trkpt>
      <trkpt lat="63.966" lon="10.22185">
        <ele>64.029414</ele>
        <time>2020-08-09T08:21:30.703Z</time>
      </trkpt>
      <trkpt lat="63.96602" lon="10.22211">
        <ele>63.928615</ele>
        <time>2020-08-09T08:21:33.681Z</time>
      </trkpt>
      <trkpt lat="63.96605" lon="10.2224">
        <ele>63.821635</ele>
        <time>2020-08-09T08:21:36.665Z</time>
      </trkpt>
      <trkpt lat="63.96607" lon="10.22261">
        <ele>63.741672</ele>
        <time>2020-08-09T08:21:38.675Z</time>
      </trkpt>
      <trkpt lat="63.96609" lon="10.22282">
        <ele>63.659492</ele>
        <time>2020-08-09T08:21:40.701Z</time>
      </trkpt>
      <trkpt lat="63.96612" lon="10.22302">
        <ele>63.582688</ele>
        <time>2020-08-09T08:21:42.691Z</time>
      </trkpt>
      <trkpt lat="63.96616" lon="10.22328">
        <ele>63.47965</ele>
        <time>2020-08-09T08:21:45.692Z</time>
      </trkpt>
      <trkpt lat="63.96619" lon="10.22351">
        <ele>63.391477</ele>
        <time>2020-08-09T08:21:48.680Z</time>
      </trkpt>
      <trkpt lat="63.96623" lon="10.2237">
        <ele>63.312713</ele>
        <time>2020-08-09T08:21:52.666Z</time>
      </trkpt>
      <trkpt lat="63.96633" lon="10.22397">
        <ele>63.18499</ele>
        <time>2020-08-09T08:28:08.684Z</time>
      </trkpt>
      <trkpt lat="63.96639" lon="10.22415">
        <ele>63.099753</ele>
        <time>2020-08-09T08:28:11.669Z</time>
      </trkpt>
      <trkpt lat="63.96647" lon="10.22436">
        <ele>62.996469</ele>
        <time>2020-08-09T08:28:14.680Z</time>
      </trkpt>
      <trkpt lat="63.96654" lon="10.2245">
        <ele>62.91883</ele>
        <time>2020-08-09T08:28:16.692Z</time>
      </trkpt>
      <trkpt lat="63.96663" lon="10.22466">
        <ele>62.825178</ele>
        <time>2020-08-09T08:28:18.689Z</time>
      </trkpt>
      <trkpt lat="63.96673" lon="10.2248">
        <ele>62.725136</ele>
        <time>2020-08-09T08:28:20.687Z</time>
      </trkpt>
      <trkpt lat="63.96684" lon="10.22494">
        <ele>62.610431</ele>
        <time>2020-08-09T08:28:22.700Z</time>
      </trkpt>
      <trkpt lat="63.96695" lon="10.22505">
        <ele>62.471842</ele>
        <time>2020-08-09T08:28:24.700Z</time>
      </trkpt>
      <trkpt lat="63.96707" lon="10.22515">
        <ele>62.334058</ele>
        <time>2020-08-09T08:28:26.676Z</time>
      </trkpt>
      <trkpt lat="63.96719" lon="10.22524">
        <ele>62.196587</ele>
        <time>2020-08-09T08:28:28.669Z</time>
      </trkpt>
      <trkpt lat="63.96731" lon="10.22531">
        <ele>62.061137</ele>
        <time>2020-08-09T08:28:30.679Z</time>
      </trkpt>
      <trkpt lat="63.96743" lon="10.22538">
        <ele>61.923255</ele>
        <time>2020-08-09T08:28:32.692Z</time>
      </trkpt>
      <trkpt lat="63.96754" lon="10.22542">
        <ele>61.799848</ele>
        <time>2020-08-09T08:28:34.697Z</time>
      </trkpt>
      <trkpt lat="63.96764" lon="10.22543">
        <ele>61.684822</ele>
        <time>2020-08-09T08:28:36.683Z</time>
      </trkpt>
      <trkpt lat="63.96774" lon="10.22546">
        <ele>61.573754</ele>
        <time>2020-08-09T08:28:38.675Z</time>
      </trkpt>
      <trkpt lat="63.96784" lon="10.22547">
        <ele>61.466581</ele>
        <time>2020-08-09T08:28:40.715Z</time>
      </trkpt>
      <trkpt lat="63.96794" lon="10.22547">
        <ele>61.359539</ele>
        <time>2020-08-09T08:28:42.680Z</time>
      </trkpt>
      <trkpt lat="63.96803" lon="10.22546">
        <ele>61.259062</ele>
        <time>2020-08-09T08:28:44.700Z</time>
      </trkpt>
      <trkpt lat="63.96815" lon="10.22546">
        <ele>61.121081</ele>
        <time>2020-08-09T08:28:47.681Z</time>
      </trkpt>
      <trkpt lat="63.96827" lon="10.22543">
        <ele>60.987092</ele>
        <time>2020-08-09T08:28:50.689Z</time>
      </trkpt>
      <trkpt lat="63.96839" lon="10.22541">
        <ele>60.862907</ele>
        <time>2020-08-09T08:28:53.698Z</time>
      </trkpt>
      <trkpt lat="63.96849" lon="10.22539">
        <ele>60.747811</ele>
        <time>2020-08-09T08:28:56.680Z</time>
      </trkpt>
      <trkpt lat="63.96859" lon="10.22538">
        <ele>60.767504</ele>
        <time>2020-08-09T08:28:59.680Z</time>
      </trkpt>
      <trkpt lat="63.96869" lon="10.22535">
        <ele>61.356617</ele>
        <time>2020-08-09T08:29:02.669Z</time>
      </trkpt>
      <trkpt lat="63.9688" lon="10.22534">
        <ele>62.002647</ele>
        <time>2020-08-09T08:29:06.682Z</time>
      </trkpt>
      <trkpt lat="63.9689" lon="10.22534">
        <ele>62.594903</ele>
        <time>2020-08-09T08:29:10.720Z</time>
      </trkpt>
      <trkpt lat="63.969" lon="10.22533">
        <ele>63.199429</ele>
        <time>2020-08-09T08:29:14.687Z</time>
      </trkpt>
      <trkpt lat="63.96912" lon="10.22529">
        <ele>63.893179</ele>
        <time>2020-08-09T08:29:18.705Z</time>
      </trkpt>
      <trkpt lat="63.96923" lon="10.22526">
        <ele>64.565</ele>
        <time>2020-08-09T08:29:22.702Z</time>
      </trkpt>
      <trkpt lat="63.96935" lon="10.22526">
        <ele>65.221999</ele>
        <time>2020-08-09T08:29:26.699Z</time>
      </trkpt>
      <trkpt lat="63.96945" lon="10.22526">
        <ele>65.831841</ele>
        <time>2020-08-09T08:29:30.708Z</time>
      </trkpt>
      <trkpt lat="63.96957" lon="10.22527">
        <ele>66.512871</ele>
        <time>2020-08-09T08:29:34.695Z</time>
      </trkpt>
      <trkpt lat="63.96966" lon="10.22528">
        <ele>67.076389</ele>
        <time>2020-08-09T08:29:37.743Z</time>
      </trkpt>
      <trkpt lat="63.96976" lon="10.2253">
        <ele>67.623093</ele>
        <time>2020-08-09T08:29:40.689Z</time>
      </trkpt>
      <trkpt lat="63.96986" lon="10.22531">
        <ele>68.234891</ele>
        <time>2020-08-09T08:29:44.720Z</time>
      </trkpt>
      <trkpt lat="63.96997" lon="10.22536">
        <ele>68.902687</ele>
        <time>2020-08-09T08:29:48.687Z</time>
      </trkpt>
      <trkpt lat="63.97008" lon="10.22543">
        <ele>69.559034</ele>
        <time>2020-08-09T08:29:52.718Z</time>
      </trkpt>
      <trkpt lat="63.97018" lon="10.22551">
        <ele>70.196306</ele>
        <time>2020-08-09T08:29:56.686Z</time>
      </trkpt>
      <trkpt lat="63.97029" lon="10.22562">
        <ele>70.862236</ele>
        <time>2020-08-09T08:30:00.676Z</time>
      </trkpt>
      <trkpt lat="63.97038" lon="10.22573">
        <ele>71.390723</ele>
        <time>2020-08-09T08:30:04.700Z</time>
      </trkpt>
      <trkpt lat="63.97047" lon="10.22585">
        <ele>71.804011</ele>
        <time>2020-08-09T08:30:08.686Z</time>
      </trkpt>
      <trkpt lat="63.97055" lon="10.22597">
        <ele>72.169954</ele>
        <time>2020-08-09T08:30:12.675Z</time>
      </trkpt>
      <trkpt lat="63.97063" lon="10.22612">
        <ele>72.562117</ele>
        <time>2020-08-09T08:30:16.702Z</time>
      </trkpt>
      <trkpt lat="63.9707" lon="10.22627">
        <ele>72.940772</ele>
        <time>2020-08-09T08:30:20.678Z</time>
      </trkpt>
      <trkpt lat="63.97078" lon="10.22644">
        <ele>73.34723</ele>
        <time>2020-08-09T08:30:24.716Z</time>
      </trkpt>
      <trkpt lat="63.97086" lon="10.2266">
        <ele>73.747433</ele>
        <time>2020-08-09T08:30:28.697Z</time>
      </trkpt>
      <trkpt lat="63.97093" lon="10.22677">
        <ele>74.143257</ele>
        <time>2020-08-09T08:30:32.681Z</time>
      </trkpt>
      <trkpt lat="63.97101" lon="10.22694">
        <ele>74.558295</ele>
        <time>2020-08-09T08:30:36.692Z</time>
      </trkpt>
      <trkpt lat="63.97109" lon="10.22709">
        <ele>74.960953</ele>
        <time>2020-08-09T08:30:40.716Z</time>
      </trkpt>
      <trkpt lat="63.97117" lon="10.22725">
        <ele>75.373511</ele>
        <time>2020-08-09T08:30:44.676Z</time>
      </trkpt>
      <trkpt lat="63.97126" lon="10.2274">
        <ele>75.799996</ele>
        <time>2020-08-09T08:30:48.719Z</time>
      </trkpt>
      <trkpt lat="63.97134" lon="10.22755">
        <ele>76.19245</ele>
        <time>2020-08-09T08:30:52.673Z</time>
      </trkpt>
      <trkpt lat="63.97141" lon="10.22769">
        <ele>76.554689</ele>
        <time>2020-08-09T08:30:56.694Z</time>
      </trkpt>
      <trkpt lat="63.97149" lon="10.22787">
        <ele>76.983428</ele>
        <time>2020-08-09T08:31:01.724Z</time>
      </trkpt>
      <trkpt lat="63.97157" lon="10.22805">
        <ele>77.403545</ele>
        <time>2020-08-09T08:31:06.675Z</time>
      </trkpt>
      <trkpt lat="63.97164" lon="10.22821">
        <ele>77.798025</ele>
        <time>2020-08-09T08:31:11.693Z</time>
      </trkpt>
      <trkpt lat="63.97172" lon="10.22838">
        <ele>78.302168</ele>
        <time>2020-08-09T08:31:16.668Z</time>
      </trkpt>
      <trkpt lat="63.9718" lon="10.22852">
        <ele>79.023762</ele>
        <time>2020-08-09T08:31:21.699Z</time>
      </trkpt>
      <trkpt lat="63.97187" lon="10.22868">
        <ele>79.740424</ele>
        <time>2020-08-09T08:31:26.694Z</time>
      </trkpt>
      <trkpt lat="63.97195" lon="10.22884">
        <ele>80.475902</ele>
        <time>2020-08-09T08:31:32.687Z</time>
      </trkpt>
      <trkpt lat="63.97203" lon="10.22897">
        <ele>81.20116</ele>
        <time>2020-08-09T08:31:38.680Z</time>
      </trkpt>
      <trkpt lat="63.97211" lon="10.2291">
        <ele>81.899906</ele>
        <time>2020-08-09T08:31:43.718Z</time>
      </trkpt>
      <trkpt lat="63.97218" lon="10.22926">
        <ele>82.588808</ele>
        <time>2020-08-09T08:31:48.672Z</time>
      </trkpt>
      <trkpt lat="63.97224" lon="10.22943">
        <ele>83.259883</ele>
        <time>2020-08-09T08:31:54.685Z</time>
      </trkpt>
      <trkpt lat="63.97231" lon="10.22957">
        <ele>83.964241</ele>
        <time>2020-08-09T08:32:00.675Z</time>
      </trkpt>
      <trkpt lat="63.97238" lon="10.22975">
        <ele>84.695901</ele>
        <time>2020-08-09T08:32:06.684Z</time>
      </trkpt>
      <trkpt lat="63.97246" lon="10.22989">
        <ele>85.415538</ele>
        <time>2020-08-09T08:32:12.703Z</time>
      </trkpt>
      <trkpt lat="63.97253" lon="10.23007">
        <ele>86.16726</ele>
        <time>2020-08-09T08:32:18.705Z</time>
      </trkpt>
      <trkpt lat="63.97261" lon="10.23021">
        <ele>86.869886</ele>
        <time>2020-08-09T08:32:24.678Z</time>
      </trkpt>
      <trkpt lat="63.97269" lon="10.23033">
        <ele>87.561298</ele>
        <time>2020-08-09T08:32:30.676Z</time>
      </trkpt>
      <trkpt lat="63.97275" lon="10.23048">
        <ele>88.204009</ele>
        <time>2020-08-09T08:32:36.687Z</time>
      </trkpt>
      <trkpt lat="63.97282" lon="10.23066">
        <ele>88.921529</ele>
        <time>2020-08-09T08:32:43.687Z</time>
      </trkpt>
      <trkpt lat="63.97287" lon="10.23083">
        <ele>89.622246</ele>
        <time>2020-08-09T08:32:51.674Z</time>
      </trkpt>
      <trkpt lat="63.97294" lon="10.23098">
        <ele>90.300281</ele>
        <time>2020-08-09T08:32:58.692Z</time>
      </trkpt>
      <trkpt lat="63.97301" lon="10.23112">
        <ele>90.942203</ele>
        <time>2020-08-09T08:33:04.700Z</time>
      </trkpt>
      <trkpt lat="63.97308" lon="10.23127">
        <ele>91.610997</ele>
        <time>2020-08-09T08:33:11.708Z</time>
      </trkpt>
      <trkpt lat="63.97315" lon="10.23142">
        <ele>92.283122</ele>
        <time>2020-08-09T08:33:17.684Z</time>
      </trkpt>
      <trkpt lat="63.97321" lon="10.23158">
        <ele>92.929658</ele>
        <time>2020-08-09T08:33:23.682Z</time>
      </trkpt>
      <trkpt lat="63.97327" lon="10.23174">
        <ele>93.601889</ele>
        <time>2020-08-09T08:33:30.690Z</time>
      </trkpt>
      <trkpt lat="63.97335" lon="10.23189">
        <ele>94.329762</ele>
        <time>2020-08-09T08:33:37.705Z</time>
      </trkpt>
      <trkpt lat="63.97342" lon="10.23203">
        <ele>94.960265</ele>
        <time>2020-08-09T08:33:43.684Z</time>
      </trkpt>
      <trkpt lat="63.97347" lon="10.23219">
        <ele>95.599089</ele>
        <time>2020-08-09T08:33:50.709Z</time>
      </trkpt>
      <trkpt lat="63.97353" lon="10.23238">
        <ele>96.305087</ele>
        <time>2020-08-09T08:33:58.693Z</time>
      </trkpt>
      <trkpt lat="63.9736" lon="10.23254">
        <ele>96.997305</ele>
        <time>2020-08-09T08:34:06.669Z</time>
      </trkpt>
      <trkpt lat="63.97368" lon="10.23269">
        <ele>97.719762</ele>
        <time>2020-08-09T08:34:13.691Z</time>
      </trkpt>
      <trkpt lat="63.97374" lon="10.23285">
        <ele>98.387122</ele>
        <time>2020-08-09T08:34:20.674Z</time>
      </trkpt>
      <trkpt lat="63.97382" lon="10.23298">
        <ele>99.034822</ele>
        <time>2020-08-09T08:34:26.720Z</time>
      </trkpt>
      <trkpt lat="63.97389" lon="10.23315">
        <ele>99.757198</ele>
        <time>2020-08-09T08:34:33.697Z</time>
      </trkpt>
      <trkpt lat="63.97397" lon="10.23327">
        <ele>100.4429</ele>
        <time>2020-08-09T08:34:39.726Z</time>
      </trkpt>
      <trkpt lat="63.97405" lon="10.23342">
        <ele>101.183605</ele>
        <time>2020-08-09T08:34:45.695Z</time>
      </trkpt>
      <trkpt lat="63.97412" lon="10.23359">
        <ele>101.892672</ele>
        <time>2020-08-09T08:34:51.719Z</time>
      </trkpt>
      <trkpt lat="63.97419" lon="10.23375">
        <ele>102.613613</ele>
        <time>2020-08-09T08:34:55.713Z</time>
      </trkpt>
      <trkpt lat="63.97426" lon="10.2339">
        <ele>103.292933</ele>
        <time>2020-08-09T08:34:59.709Z</time>
      </trkpt>
      <trkpt lat="63.97434" lon="10.23404">
        <ele>103.437174</ele>
        <time>2020-08-09T08:35:03.700Z</time>
      </trkpt>
      <trkpt lat="63.97441" lon="10.23419">
        <ele>103.19953</ele>
        <time>2020-08-09T08:35:07.696Z</time>
      </trkpt>
      <trkpt lat="63.97449" lon="10.23436">
        <ele>102.944467</ele>
        <time>2020-08-09T08:35:11.696Z</time>
      </trkpt>
      <trkpt lat="63.97458" lon="10.23455">
        <ele>102.651121</ele>
        <time>2020-08-09T08:35:15.675Z</time>
      </trkpt>
      <trkpt lat="63.97466" lon="10.2347">
        <ele>102.401866</ele>
        <time>2020-08-09T08:35:18.682Z</time>
      </trkpt>
      <trkpt lat="63.97474" lon="10.23488">
        <ele>102.122724</ele>
        <time>2020-08-09T08:35:21.703Z</time>
      </trkpt>
      <trkpt lat="63.97484" lon="10.23509">
        <ele>101.807603</ele>
        <time>2020-08-09T08:35:24.689Z</time>
      </trkpt>
      <trkpt lat="63.97491" lon="10.23525">
        <ele>101.563109</ele>
        <time>2020-08-09T08:35:26.676Z</time>
      </trkpt>
      <trkpt lat="63.97499" lon="10.23542">
        <ele>101.306592</ele>
        <time>2020-08-09T08:35:28.713Z</time>
      </trkpt>
      <trkpt lat="63.97507" lon="10.23558">
        <ele>101.050879</ele>
        <time>2020-08-09T08:35:30.709Z</time>
      </trkpt>
      <trkpt lat="63.97514" lon="10.23575">
        <ele>100.79694</ele>
        <time>2020-08-09T08:35:32.721Z</time>
      </trkpt>
      <trkpt lat="63.97522" lon="10.23591">
        <ele>100.541574</ele>
        <time>2020-08-09T08:35:34.678Z</time>
      </trkpt>
      <trkpt lat="63.97531" lon="10.23606">
        <ele>100.279764</ele>
        <time>2020-08-09T08:35:36.695Z</time>
      </trkpt>
      <trkpt lat="63.9754" lon="10.23619">
        <ele>100.028384</ele>
        <time>2020-08-09T08:35:38.683Z</time>
      </trkpt>
      <trkpt lat="63.97547" lon="10.23634">
        <ele>99.796381</ele>
        <time>2020-08-09T08:35:40.706Z</time>
      </trkpt>
      <trkpt lat="63.97553" lon="10.23648">
        <ele>99.581053</ele>
        <time>2020-08-09T08:35:42.699Z</time>
      </trkpt>
      <trkpt lat="63.97564" lon="10.23667">
        <ele>99.265127</ele>
        <time>2020-08-09T08:35:45.724Z</time>
      </trkpt>
      <trkpt lat="63.97573" lon="10.23686">
        <ele>99.173697</ele>
        <time>2020-08-09T08:35:48.685Z</time>
      </trkpt>
      <trkpt lat="63.97583" lon="10.23702">
        <ele>99.095021</ele>
        <time>2020-08-09T08:35:51.675Z</time>
      </trkpt>
      <trkpt lat="63.97593" lon="10.23719">
        <ele>99.014959</ele>
        <time>2020-08-09T08:35:54.686Z</time>
      </trkpt>
      <trkpt lat="63.97602" lon="10.23737">
        <ele>98.933498</ele>
        <time>2020-08-09T08:35:57.672Z</time>
      </trkpt>
      <trkpt lat="63.97612" lon="10.23752">
        <ele>98.857016</ele>
        <time>2020-08-09T08:36:00.693Z</time>
      </trkpt>
      <trkpt lat="63.97621" lon="10.23767">
        <ele>98.785095</ele>
        <time>2020-08-09T08:36:03.673Z</time>
      </trkpt>
      <trkpt lat="63.97629" lon="10.23785">
        <ele>98.712897</ele>
        <time>2020-08-09T08:36:06.725Z</time>
      </trkpt>
      <trkpt lat="63.97637" lon="10.23802">
        <ele>98.639357</ele>
        <time>2020-08-09T08:36:09.702Z</time>
      </trkpt>
      <trkpt lat="63.97645" lon="10.23819">
        <ele>98.568238</ele>
        <time>2020-08-09T08:36:12.717Z</time>
      </trkpt>
      <trkpt lat="63.97653" lon="10.23835">
        <ele>98.500208</ele>
        <time>2020-08-09T08:36:15.678Z</time>
      </trkpt>
      <trkpt lat="63.97661" lon="10.23854">
        <ele>98.42432</ele>
        <time>2020-08-09T08:36:18.676Z</time>
      </trkpt>
      <trkpt lat="63.97669" lon="10.23873">
        <ele>98.348842</ele>
        <time>2020-08-09T08:36:21.680Z</time>
      </trkpt>
      <trkpt lat="63.97676" lon="10.2389">
        <ele>98.2797</ele>
        <time>2020-08-09T08:36:24.687Z</time>
      </trkpt>
      <trkpt lat="63.97683" lon="10.23907">
        <ele>98.212577</ele>
        <time>2020-08-09T08:36:27.708Z</time>
      </trkpt>
      <trkpt lat="63.9769" lon="10.23925">
        <ele>98.144908</ele>
        <time>2020-08-09T08:36:30.688Z</time>
      </trkpt>
      <trkpt lat="63.97696" lon="10.23943">
        <ele>98.079925</ele>
        <time>2020-08-09T08:36:33.696Z</time>
      </trkpt>
      <trkpt lat="63.97702" lon="10.23963">
        <ele>98.175328</ele>
        <time>2020-08-09T08:36:36.679Z</time>
      </trkpt>
      <trkpt lat="63.97708" lon="10.23984">
        <ele>98.27528</ele>
        <time>2020-08-09T08:36:39.669Z</time>
      </trkpt>
      <trkpt lat="63.97714" lon="10.24004">
        <ele>98.375144</ele>
        <time>2020-08-09T08:36:42.706Z</time>
      </trkpt>
      <trkpt lat="63.97721" lon="10.24024">
        <ele>98.478933</ele>
        <time>2020-08-09T08:36:45.719Z</time>
      </trkpt>
      <trkpt lat="63.97727" lon="10.24046">
        <ele>98.584647</ele>
        <time>2020-08-09T08:36:48.693Z</time>
      </trkpt>
      <trkpt lat="63.97733" lon="10.24068">
        <ele>98.688157</ele>
        <time>2020-08-09T08:36:51.709Z</time>
      </trkpt>
      <trkpt lat="63.9774" lon="10.2409">
        <ele>98.797446</ele>
        <time>2020-08-09T08:36:54.734Z</time>
      </trkpt>
      <trkpt lat="63.97746" lon="10.24114">
        <ele>98.910101</ele>
        <time>2020-08-09T08:36:57.675Z</time>
      </trkpt>
      <trkpt lat="63.97753" lon="10.24138">
        <ele>99.026823</ele>
        <time>2020-08-09T08:37:00.703Z</time>
      </trkpt>
      <trkpt lat="63.9776" lon="10.24162">
        <ele>99.145748</ele>
        <time>2020-08-09T08:37:03.694Z</time>
      </trkpt>
      <trkpt lat="63.97765" lon="10.2418">
        <ele>99.228625</ele>
        <time>2020-08-09T08:37:05.666Z</time>
      </trkpt>
      <trkpt lat="63.9777" lon="10.24199">
        <ele>99.319314</ele>
        <time>2020-08-09T08:37:07.690Z</time>
      </trkpt>
      <trkpt lat="63.97775" lon="10.24218">
        <ele>99.411392</ele>
        <time>2020-08-09T08:37:09.691Z</time>
      </trkpt>
      <trkpt lat="63.9778" lon="10.24239">
        <ele>99.505281</ele>
        <time>2020-08-09T08:37:11.681Z</time>
      </trkpt>
      <trkpt lat="63.97785" lon="10.24259">
        <ele>99.598645</ele>
        <time>2020-08-09T08:37:13.707Z</time>
      </trkpt>
      <trkpt lat="63.9779" lon="10.24279">
        <ele>99.695415</ele>
        <time>2020-08-09T08:37:15.675Z</time>
      </trkpt>
      <trkpt lat="63.97796" lon="10.243">
        <ele>99.587322</ele>
        <time>2020-08-09T08:37:17.677Z</time>
      </trkpt>
      <trkpt lat="63.97801" lon="10.24322">
        <ele>99.29431</ele>
        <time>2020-08-09T08:37:19.693Z</time>
      </trkpt>
      <trkpt lat="63.97807" lon="10.24343">
        <ele>98.994176</ele>
        <time>2020-08-09T08:37:21.697Z</time>
      </trkpt>
      <trkpt lat="63.97813" lon="10.24367">
        <ele>98.674809</ele>
        <time>2020-08-09T08:37:23.681Z</time>
      </trkpt>
      <trkpt lat="63.9782" lon="10.2439">
        <ele>98.349027</ele>
        <time>2020-08-09T08:37:25.687Z</time>
      </trkpt>
      <trkpt lat="63.97826" lon="10.24414">
        <ele>98.018841</ele>
        <time>2020-08-09T08:37:27.698Z</time>
      </trkpt>
      <trkpt lat="63.97833" lon="10.24439">
        <ele>97.673805</ele>
        <time>2020-08-09T08:37:29.689Z</time>
      </trkpt>
      <trkpt lat="63.9784" lon="10.24465">
        <ele>97.319733</ele>
        <time>2020-08-09T08:37:31.683Z</time>
      </trkpt>
      <trkpt lat="63.97847" lon="10.2449">
        <ele>96.965698</ele>
        <time>2020-08-09T08:37:33.703Z</time>
      </trkpt>
      <trkpt lat="63.97854" lon="10.24516">
        <ele>96.604235</ele>
        <time>2020-08-09T08:37:35.718Z</time>
      </trkpt>
      <trkpt lat="63.97861" lon="10.24541">
        <ele>96.253135</ele>
        <time>2020-08-09T08:37:37.676Z</time>
      </trkpt>
      <trkpt lat="63.97869" lon="10.24566">
        <ele>95.898121</ele>
        <time>2020-08-09T08:37:39.677Z</time>
      </trkpt>
      <trkpt lat="63.97876" lon="10.24592">
        <ele>95.543592</ele>
        <time>2020-08-09T08:37:41.687Z</time>
      </trkpt>
      <trkpt lat="63.97883" lon="10.24617">
        <ele>95.192139</ele>
        <time>2020-08-09T08:37:43.701Z</time>
      </trkpt>
      <trkpt lat="63.9789" lon="10.24643">
        <ele>94.791753</ele>
        <time>2020-08-09T08:37:45.684Z</time>
      </trkpt>
      <trkpt lat="63.97897" lon="10.2467">
        <ele>94.245365</ele>
        <time>2020-08-09T08:37:47.683Z</time>
      </trkpt>
      <trkpt lat="63.97905" lon="10.24696">
        <ele>93.695375</ele>
        <time>2020-08-09T08:37:49.717Z</time>
      </trkpt>
      <trkpt lat="63.97913" lon="10.24724">
        <ele>93.119058</ele>
        <time>2020-08-09T08:37:51.682Z</time>
      </trkpt>
      <trkpt lat="63.97922" lon="10.2475">
        <ele>92.54609</ele>
        <time>2020-08-09T08:37:53.687Z</time>
      </trkpt>
      <trkpt lat="63.9793" lon="10.24778">
        <ele>91.953544</ele>
        <time>2020-08-09T08:37:55.687Z</time>
      </trkpt>
      <trkpt lat="63.97939" lon="10.24806">
        <ele>91.359074</ele>
        <time>2020-08-09T08:37:57.727Z</time>
      </trkpt>
      <trkpt lat="63.97948" lon="10.24834">
        <ele>90.760356</ele>
        <time>2020-08-09T08:37:59.695Z</time>
      </trkpt>
      <trkpt lat="63.97956" lon="10.24862">
        <ele>90.167301</ele>
        <time>2020-08-09T08:38:01.684Z</time>
      </trkpt>
      <trkpt lat="63.97965" lon="10.2489">
        <ele>89.569134</ele>
        <time>2020-08-09T08:38:03.695Z</time>
      </trkpt>
      <trkpt lat="63.97974" lon="10.24918">
        <ele>88.972872</ele>
        <time>2020-08-09T08:38:05.692Z</time>
      </trkpt>
      <trkpt lat="63.97983" lon="10.24945">
        <ele>88.387083</ele>
        <time>2020-08-09T08:38:07.697Z</time>
      </trkpt>
      <trkpt lat="63.97992" lon="10.24972">
        <ele>87.80875</ele>
        <time>2020-08-09T08:38:09.685Z</time>
      </trkpt>
      <trkpt lat="63.98001" lon="10.24999">
        <ele>87.485243</ele>
        <time>2020-08-09T08:38:11.685Z</time>
      </trkpt>
      <trkpt lat="63.9801" lon="10.25026">
        <ele>87.165527</ele>
        <time>2020-08-09T08:38:13.670Z</time>
      </trkpt>
      <trkpt lat="63.98019" lon="10.25053">
        <ele>86.834252</ele>
        <time>2020-08-09T08:38:15.689Z</time>
      </trkpt>
      <trkpt lat="63.98028" lon="10.25082">
        <ele>86.497846</ele>
        <time>2020-08-09T08:38:17.686Z</time>
      </trkpt>
      <trkpt lat="63.98038" lon="10.25109">
        <ele>86.165643</ele>
        <time>2020-08-09T08:38:19.683Z</time>
      </trkpt>
      <trkpt lat="63.98047" lon="10.25137">
        <ele>85.833063</ele>
        <time>2020-08-09T08:38:21.677Z</time>
      </trkpt>
      <trkpt lat="63.98056" lon="10.25165">
        <ele>85.505147</ele>
        <time>2020-08-09T08:38:23.720Z</time>
      </trkpt>
      <trkpt lat="63.98064" lon="10.25193">
        <ele>85.178377</ele>
        <time>2020-08-09T08:38:25.685Z</time>
      </trkpt>
      <trkpt lat="63.98072" lon="10.25222">
        <ele>84.852745</ele>
        <time>2020-08-09T08:38:27.680Z</time>
      </trkpt>
      <trkpt lat="63.98079" lon="10.25254">
        <ele>84.514658</ele>
        <time>2020-08-09T08:38:29.696Z</time>
      </trkpt>
      <trkpt lat="63.98085" lon="10.25286">
        <ele>84.171705</ele>
        <time>2020-08-09T08:38:31.743Z</time>
      </trkpt>
      <trkpt lat="63.98091" lon="10.2532">
        <ele>83.896413</ele>
        <time>2020-08-09T08:38:33.674Z</time>
      </trkpt>
      <trkpt lat="63.98096" lon="10.25354">
        <ele>83.867676</ele>
        <time>2020-08-09T08:38:35.688Z</time>
      </trkpt>
      <trkpt lat="63.981" lon="10.25388">
        <ele>83.83904</ele>
        <time>2020-08-09T08:38:37.703Z</time>
      </trkpt>
      <trkpt lat="63.98103" lon="10.25422">
        <ele>83.810634</ele>
        <time>2020-08-09T08:38:39.713Z</time>
      </trkpt>
      <trkpt lat="63.98107" lon="10.25456">
        <ele>83.782903</ele>
        <time>2020-08-09T08:38:41.677Z</time>
      </trkpt>
      <trkpt lat="63.98109" lon="10.25489">
        <ele>83.755664</ele>
        <time>2020-08-09T08:38:43.703Z</time>
      </trkpt>
      <trkpt lat="63.98112" lon="10.25521">
        <ele>83.728998</ele>
        <time>2020-08-09T08:38:45.690Z</time>
      </trkpt>
      <trkpt lat="63.98115" lon="10.25553">
        <ele>83.702882</ele>
        <time>2020-08-09T08:38:47.715Z</time>
      </trkpt>
      <trkpt lat="63.98118" lon="10.25583">
        <ele>83.677672</ele>
        <time>2020-08-09T08:38:49.679Z</time>
      </trkpt>
      <trkpt lat="63.9812" lon="10.25613">
        <ele>83.653043</ele>
        <time>2020-08-09T08:38:51.696Z</time>
      </trkpt>
      <trkpt lat="63.98123" lon="10.25641">
        <ele>83.630189</ele>
        <time>2020-08-09T08:38:53.676Z</time>
      </trkpt>
      <trkpt lat="63.98127" lon="10.25667">
        <ele>83.607822</ele>
        <time>2020-08-09T08:38:55.701Z</time>
      </trkpt>
      <trkpt lat="63.98132" lon="10.25691">
        <ele>83.586077</ele>
        <time>2020-08-09T08:38:57.701Z</time>
      </trkpt>
      <trkpt lat="63.98137" lon="10.25714">
        <ele>83.538578</ele>
        <time>2020-08-09T08:38:59.684Z</time>
      </trkpt>
      <trkpt lat="63.98142" lon="10.25736">
        <ele>83.415502</ele>
        <time>2020-08-09T08:39:01.697Z</time>
      </trkpt>
      <trkpt lat="63.98148" lon="10.25757">
        <ele>83.292323</ele>
        <time>2020-08-09T08:39:03.673Z</time>
      </trkpt>
      <trkpt lat="63.98153" lon="10.25779">
        <ele>83.170021</ele>
        <time>2020-08-09T08:39:05.681Z</time>
      </trkpt>
      <trkpt lat="63.98159" lon="10.258">
        <ele>83.044784</ele>
        <time>2020-08-09T08:39:07.705Z</time>
      </trkpt>
      <trkpt lat="63.98163" lon="10.25819">
        <ele>82.935167</ele>
        <time>2020-08-09T08:39:09.692Z</time>
      </trkpt>
      <trkpt lat="63.98168" lon="10.25837">
        <ele>82.833314</ele>
        <time>2020-08-09T08:39:11.684Z</time>
      </trkpt>
      <trkpt lat="63.98174" lon="10.25862">
        <ele>82.687203</ele>
        <time>2020-08-09T08:39:14.704Z</time>
      </trkpt>
      <trkpt lat="63.98182" lon="10.25887">
        <ele>82.537502</ele>
        <time>2020-08-09T08:39:17.675Z</time>
      </trkpt>
      <trkpt lat="63.98188" lon="10.25905">
        <ele>82.429309</ele>
        <time>2020-08-09T08:39:19.768Z</time>
      </trkpt>
      <trkpt lat="63.98193" lon="10.25921">
        <ele>82.324743</ele>
        <time>2020-08-09T08:39:21.676Z</time>
      </trkpt>
      <trkpt lat="63.98202" lon="10.25944">
        <ele>82.174321</ele>
        <time>2020-08-09T08:39:24.706Z</time>
      </trkpt>
      <trkpt lat="63.98207" lon="10.25961">
        <ele>82.071942</ele>
        <time>2020-08-09T08:39:26.693Z</time>
      </trkpt>
      <trkpt lat="63.98213" lon="10.25978">
        <ele>81.965789</ele>
        <time>2020-08-09T08:39:28.680Z</time>
      </trkpt>
      <trkpt lat="63.98218" lon="10.25997">
        <ele>81.858521</ele>
        <time>2020-08-09T08:39:30.704Z</time>
      </trkpt>
      <trkpt lat="63.98223" lon="10.26015">
        <ele>81.751736</ele>
        <time>2020-08-09T08:39:32.681Z</time>
      </trkpt>
      <trkpt lat="63.98228" lon="10.26033">
        <ele>81.646585</ele>
        <time>2020-08-09T08:39:34.688Z</time>
      </trkpt>
      <trkpt lat="63.98232" lon="10.2605">
        <ele>81.544733</ele>
        <time>2020-08-09T08:39:36.722Z</time>
      </trkpt>
      <trkpt lat="63.98239" lon="10.26076">
        <ele>82.176722</ele>
        <time>2020-08-09T08:39:39.715Z</time>
      </trkpt>
      <trkpt lat="63.98245" lon="10.26101">
        <ele>82.83834</ele>
        <time>2020-08-09T08:39:42.742Z</time>
      </trkpt>
      <trkpt lat="63.98252" lon="10.26126">
        <ele>83.511418</ele>
        <time>2020-08-09T08:39:45.679Z</time>
      </trkpt>
      <trkpt lat="63.98258" lon="10.26152">
        <ele>84.191019</ele>
        <time>2020-08-09T08:39:48.697Z</time>
      </trkpt>
      <trkpt lat="63.98265" lon="10.26177">
        <ele>84.84537</ele>
        <time>2020-08-09T08:39:51.687Z</time>
      </trkpt>
      <trkpt lat="63.98271" lon="10.26201">
        <ele>85.499279</ele>
        <time>2020-08-09T08:39:54.691Z</time>
      </trkpt>
      <trkpt lat="63.98278" lon="10.26225">
        <ele>86.174082</ele>
        <time>2020-08-09T08:39:57.691Z</time>
      </trkpt>
      <trkpt lat="63.98284" lon="10.26249">
        <ele>86.800215</ele>
        <time>2020-08-09T08:40:00.686Z</time>
      </trkpt>
      <trkpt lat="63.98291" lon="10.26271">
        <ele>87.412749</ele>
        <time>2020-08-09T08:40:03.695Z</time>
      </trkpt>
      <trkpt lat="63.98297" lon="10.26293">
        <ele>88.008382</ele>
        <time>2020-08-09T08:40:06.692Z</time>
      </trkpt>
      <trkpt lat="63.98303" lon="10.26318">
        <ele>88.648268</ele>
        <time>2020-08-09T08:40:09.698Z</time>
      </trkpt>
      <trkpt lat="63.98309" lon="10.26342">
        <ele>89.316631</ele>
        <time>2020-08-09T08:40:12.686Z</time>
      </trkpt>
      <trkpt lat="63.98316" lon="10.26367">
        <ele>89.983736</ele>
        <time>2020-08-09T08:40:15.674Z</time>
      </trkpt>
      <trkpt lat="63.98323" lon="10.26391">
        <ele>90.644299</ele>
        <time>2020-08-09T08:40:18.704Z</time>
      </trkpt>
      <trkpt lat="63.9833" lon="10.26415">
        <ele>91.123697</ele>
        <time>2020-08-09T08:40:21.697Z</time>
      </trkpt>
      <trkpt lat="63.98336" lon="10.26439">
        <ele>91.476907</ele>
        <time>2020-08-09T08:40:24.717Z</time>
      </trkpt>
      <trkpt lat="63.98343" lon="10.26464">
        <ele>91.836366</ele>
        <time>2020-08-09T08:40:27.697Z</time>
      </trkpt>
      <trkpt lat="63.9835" lon="10.26489">
        <ele>92.206843</ele>
        <time>2020-08-09T08:40:30.677Z</time>
      </trkpt>
      <trkpt lat="63.98357" lon="10.26515">
        <ele>92.566262</ele>
        <time>2020-08-09T08:40:33.667Z</time>
      </trkpt>
      <trkpt lat="63.98363" lon="10.26542">
        <ele>92.932186</ele>
        <time>2020-08-09T08:40:36.700Z</time>
      </trkpt>
      <trkpt lat="63.98369" lon="10.26569">
        <ele>93.307004</ele>
        <time>2020-08-09T08:40:39.699Z</time>
      </trkpt>
      <trkpt lat="63.98375" lon="10.26596">
        <ele>93.682008</ele>
        <time>2020-08-09T08:40:42.683Z</time>
      </trkpt>
      <trkpt lat="63.98381" lon="10.26623">
        <ele>94.04528</ele>
        <time>2020-08-09T08:40:45.693Z</time>
      </trkpt>
      <trkpt lat="63.98385" lon="10.26642">
        <ele>94.299697</ele>
        <time>2020-08-09T08:40:47.680Z</time>
      </trkpt>
      <trkpt lat="63.9839" lon="10.26669">
        <ele>94.669582</ele>
        <time>2020-08-09T08:40:50.691Z</time>
      </trkpt>
      <trkpt lat="63.98394" lon="10.26688">
        <ele>94.919487</ele>
        <time>2020-08-09T08:40:52.708Z</time>
      </trkpt>
      <trkpt lat="63.98397" lon="10.26707">
        <ele>95.179405</ele>
        <time>2020-08-09T08:40:54.678Z</time>
      </trkpt>
      <trkpt lat="63.98401" lon="10.26726">
        <ele>95.433721</ele>
        <time>2020-08-09T08:40:56.668Z</time>
      </trkpt>
      <trkpt lat="63.98405" lon="10.26746">
        <ele>95.700475</ele>
        <time>2020-08-09T08:40:58.681Z</time>
      </trkpt>
      <trkpt lat="63.98409" lon="10.26765">
        <ele>95.961612</ele>
        <time>2020-08-09T08:41:00.695Z</time>
      </trkpt>
      <trkpt lat="63.98413" lon="10.26784">
        <ele>95.726932</ele>
        <time>2020-08-09T08:41:02.673Z</time>
      </trkpt>
      <trkpt lat="63.98417" lon="10.26803">
        <ele>95.495784</ele>
        <time>2020-08-09T08:41:04.686Z</time>
      </trkpt>
      <trkpt lat="63.98422" lon="10.26831">
        <ele>95.161456</ele>
        <time>2020-08-09T08:41:07.700Z</time>
      </trkpt>
      <trkpt lat="63.98428" lon="10.26857">
        <ele>94.829704</ele>
        <time>2020-08-09T08:41:10.676Z</time>
      </trkpt>
      <trkpt lat="63.98434" lon="10.26882">
        <ele>94.505907</ele>
        <time>2020-08-09T08:41:13.684Z</time>
      </trkpt>
      <trkpt lat="63.9844" lon="10.26907">
        <ele>94.190717</ele>
        <time>2020-08-09T08:41:16.686Z</time>
      </trkpt>
      <trkpt lat="63.98447" lon="10.26932">
        <ele>93.866921</ele>
        <time>2020-08-09T08:41:19.695Z</time>
      </trkpt>
      <trkpt lat="63.98451" lon="10.2695">
        <ele>93.633076</ele>
        <time>2020-08-09T08:41:21.684Z</time>
      </trkpt>
      <trkpt lat="63.98456" lon="10.26968">
        <ele>93.401147</ele>
        <time>2020-08-09T08:41:23.681Z</time>
      </trkpt>
      <trkpt lat="63.98461" lon="10.26986">
        <ele>93.171802</ele>
        <time>2020-08-09T08:41:25.692Z</time>
      </trkpt>
      <trkpt lat="63.98466" lon="10.27003">
        <ele>92.940041</ele>
        <time>2020-08-09T08:41:27.672Z</time>
      </trkpt>
      <trkpt lat="63.98471" lon="10.2702">
        <ele>92.70243</ele>
        <time>2020-08-09T08:41:29.681Z</time>
      </trkpt>
      <trkpt lat="63.98476" lon="10.27038">
        <ele>92.471804</ele>
        <time>2020-08-09T08:41:31.687Z</time>
      </trkpt>
      <trkpt lat="63.98483" lon="10.27062">
        <ele>92.139203</ele>
        <time>2020-08-09T08:41:34.685Z</time>
      </trkpt>
      <trkpt lat="63.98492" lon="10.27085">
        <ele>91.802671</ele>
        <time>2020-08-09T08:41:37.687Z</time>
      </trkpt>
      <trkpt lat="63.985" lon="10.27108">
        <ele>91.478599</ele>
        <time>2020-08-09T08:41:40.710Z</time>
      </trkpt>
      <trkpt lat="63.98508" lon="10.2713">
        <ele>91.311998</ele>
        <time>2020-08-09T08:41:43.708Z</time>
      </trkpt>
      <trkpt lat="63.98515" lon="10.27152">
        <ele>91.212681</ele>
        <time>2020-08-09T08:41:46.709Z</time>
      </trkpt>
      <trkpt lat="63.98523" lon="10.27173">
        <ele>91.111741</ele>
        <time>2020-08-09T08:41:49.688Z</time>
      </trkpt>
      <trkpt lat="63.98532" lon="10.27193">
        <ele>91.010425</ele>
        <time>2020-08-09T08:41:52.713Z</time>
      </trkpt>
      <trkpt lat="63.9854" lon="10.27214">
        <ele>90.909978</ele>
        <time>2020-08-09T08:41:55.699Z</time>
      </trkpt>
      <trkpt lat="63.98549" lon="10.27235">
        <ele>90.807103</ele>
        <time>2020-08-09T08:41:58.681Z</time>
      </trkpt>
      <trkpt lat="63.98558" lon="10.27255">
        <ele>90.705328</ele>
        <time>2020-08-09T08:42:01.685Z</time>
      </trkpt>
      <trkpt lat="63.98567" lon="10.27275">
        <ele>90.599253</ele>
        <time>2020-08-09T08:42:04.677Z</time>
      </trkpt>
      <trkpt lat="63.98576" lon="10.27296">
        <ele>90.494732</ele>
        <time>2020-08-09T08:42:07.740Z</time>
      </trkpt>
      <trkpt lat="63.98586" lon="10.27316">
        <ele>90.389144</ele>
        <time>2020-08-09T08:42:10.677Z</time>
      </trkpt>
      <trkpt lat="63.98592" lon="10.27331">
        <ele>90.313705</ele>
        <time>2020-08-09T08:42:12.672Z</time>
      </trkpt>
      <trkpt lat="63.98599" lon="10.27345">
        <ele>90.238098</ele>
        <time>2020-08-09T08:42:14.688Z</time>
      </trkpt>
      <trkpt lat="63.98606" lon="10.2736">
        <ele>90.160158</ele>
        <time>2020-08-09T08:42:16.667Z</time>
      </trkpt>
      <trkpt lat="63.98613" lon="10.27376">
        <ele>90.078023</ele>
        <time>2020-08-09T08:42:18.695Z</time>
      </trkpt>
      <trkpt lat="63.98619" lon="10.27392">
        <ele>90.00026</ele>
        <time>2020-08-09T08:42:20.687Z</time>
      </trkpt>
      <trkpt lat="63.98626" lon="10.27409">
        <ele>89.916512</ele>
        <time>2020-08-09T08:42:22.721Z</time>
      </trkpt>
      <trkpt lat="63.98638" lon="10.27433">
        <ele>89.565537</ele>
        <time>2020-08-09T08:42:25.700Z</time>
      </trkpt>
      <trkpt lat="63.98645" lon="10.27449">
        <ele>89.328452</ele>
        <time>2020-08-09T08:42:27.682Z</time>
      </trkpt>
      <trkpt lat="63.98653" lon="10.27466">
        <ele>89.085952</ele>
        <time>2020-08-09T08:42:29.720Z</time>
      </trkpt>
      <trkpt lat="63.9866" lon="10.27483">
        <ele>88.848868</ele>
        <time>2020-08-09T08:42:31.686Z</time>
      </trkpt>
      <trkpt lat="63.98667" lon="10.275">
        <ele>88.608454</ele>
        <time>2020-08-09T08:42:33.692Z</time>
      </trkpt>
      <trkpt lat="63.98674" lon="10.27518">
        <ele>88.36804</ele>
        <time>2020-08-09T08:42:35.681Z</time>
      </trkpt>
      <trkpt lat="63.98681" lon="10.27534">
        <ele>88.129704</ele>
        <time>2020-08-09T08:42:37.697Z</time>
      </trkpt>
      <trkpt lat="63.98688" lon="10.27552">
        <ele>87.890856</ele>
        <time>2020-08-09T08:42:39.691Z</time>
      </trkpt>
      <trkpt lat="63.98695" lon="10.27571">
        <ele>87.642098</ele>
        <time>2020-08-09T08:42:41.742Z</time>
      </trkpt>
      <trkpt lat="63.98702" lon="10.27589">
        <ele>87.391862</ele>
        <time>2020-08-09T08:42:43.693Z</time>
      </trkpt>
      <trkpt lat="63.9871" lon="10.27608">
        <ele>87.139374</ele>
        <time>2020-08-09T08:42:45.677Z</time>
      </trkpt>
      <trkpt lat="63.98717" lon="10.27626">
        <ele>86.888408</ele>
        <time>2020-08-09T08:42:47.719Z</time>
      </trkpt>
      <trkpt lat="63.98724" lon="10.27644">
        <ele>86.64427</ele>
        <time>2020-08-09T08:42:49.681Z</time>
      </trkpt>
      <trkpt lat="63.98731" lon="10.27662">
        <ele>86.400917</ele>
        <time>2020-08-09T08:42:51.724Z</time>
      </trkpt>
      <trkpt lat="63.98738" lon="10.2768">
        <ele>86.159826</ele>
        <time>2020-08-09T08:42:53.680Z</time>
      </trkpt>
      <trkpt lat="63.98745" lon="10.27698">
        <ele>85.919462</ele>
        <time>2020-08-09T08:42:55.682Z</time>
      </trkpt>
      <trkpt lat="63.98751" lon="10.27716">
        <ele>85.743329</ele>
        <time>2020-08-09T08:42:57.673Z</time>
      </trkpt>
      <trkpt lat="63.98758" lon="10.27734">
        <ele>85.682989</ele>
        <time>2020-08-09T08:42:59.719Z</time>
      </trkpt>
      <trkpt lat="63.98764" lon="10.27752">
        <ele>85.625454</ele>
        <time>2020-08-09T08:43:01.671Z</time>
      </trkpt>
      <trkpt lat="63.98771" lon="10.27769">
        <ele>85.568316</ele>
        <time>2020-08-09T08:43:03.680Z</time>
      </trkpt>
      <trkpt lat="63.98777" lon="10.27787">
        <ele>85.510339</ele>
        <time>2020-08-09T08:43:05.677Z</time>
      </trkpt>
      <trkpt lat="63.98782" lon="10.27805">
        <ele>85.454529</ele>
        <time>2020-08-09T08:43:07.680Z</time>
      </trkpt>
      <trkpt lat="63.98788" lon="10.27824">
        <ele>85.396598</ele>
        <time>2020-08-09T08:43:09.689Z</time>
      </trkpt>
      <trkpt lat="63.98794" lon="10.27844">
        <ele>85.336513</ele>
        <time>2020-08-09T08:43:11.746Z</time>
      </trkpt>
      <trkpt lat="63.988" lon="10.27861">
        <ele>85.277505</ele>
        <time>2020-08-09T08:43:13.679Z</time>
      </trkpt>
      <trkpt lat="63.98807" lon="10.2788">
        <ele>85.21726</ele>
        <time>2020-08-09T08:43:15.690Z</time>
      </trkpt>
      <trkpt lat="63.98812" lon="10.27899">
        <ele>85.158697</ele>
        <time>2020-08-09T08:43:17.680Z</time>
      </trkpt>
      <trkpt lat="63.98818" lon="10.27919">
        <ele>85.098966</ele>
        <time>2020-08-09T08:43:19.678Z</time>
      </trkpt>
      <trkpt lat="63.98824" lon="10.27938">
        <ele>85.040614</ele>
        <time>2020-08-09T08:43:21.682Z</time>
      </trkpt>
      <trkpt lat="63.98829" lon="10.27956">
        <ele>84.984147</ele>
        <time>2020-08-09T08:43:23.689Z</time>
      </trkpt>
      <trkpt lat="63.98834" lon="10.27975">
        <ele>84.928125</ele>
        <time>2020-08-09T08:43:25.697Z</time>
      </trkpt>
      <trkpt lat="63.9884" lon="10.27993">
        <ele>84.87157</ele>
        <time>2020-08-09T08:43:27.696Z</time>
      </trkpt>
      <trkpt lat="63.98845" lon="10.28012">
        <ele>84.81406</ele>
        <time>2020-08-09T08:43:29.692Z</time>
      </trkpt>
      <trkpt lat="63.98851" lon="10.28031">
        <ele>84.757609</ele>
        <time>2020-08-09T08:43:31.683Z</time>
      </trkpt>
      <trkpt lat="63.98856" lon="10.28049">
        <ele>84.790758</ele>
        <time>2020-08-09T08:43:33.674Z</time>
      </trkpt>
      <trkpt lat="63.98861" lon="10.28068">
        <ele>84.988742</ele>
        <time>2020-08-09T08:43:35.727Z</time>
      </trkpt>
      <trkpt lat="63.98866" lon="10.28087">
        <ele>85.192236</ele>
        <time>2020-08-09T08:43:37.667Z</time>
      </trkpt>
      <trkpt lat="63.98871" lon="10.28106">
        <ele>85.391195</ele>
        <time>2020-08-09T08:43:39.687Z</time>
      </trkpt>
      <trkpt lat="63.98877" lon="10.28125">
        <ele>85.59393</ele>
        <time>2020-08-09T08:43:41.730Z</time>
      </trkpt>
      <trkpt lat="63.98882" lon="10.28144">
        <ele>85.793741</ele>
        <time>2020-08-09T08:43:43.674Z</time>
      </trkpt>
      <trkpt lat="63.98887" lon="10.28162">
        <ele>85.988982</ele>
        <time>2020-08-09T08:43:45.705Z</time>
      </trkpt>
      <trkpt lat="63.98893" lon="10.2818">
        <ele>86.189136</ele>
        <time>2020-08-09T08:43:47.679Z</time>
      </trkpt>
      <trkpt lat="63.98898" lon="10.28199">
        <ele>86.395216</ele>
        <time>2020-08-09T08:43:49.697Z</time>
      </trkpt>
      <trkpt lat="63.98903" lon="10.28218">
        <ele>86.596435</ele>
        <time>2020-08-09T08:43:51.703Z</time>
      </trkpt>
      <trkpt lat="63.98909" lon="10.28238">
        <ele>86.805904</ele>
        <time>2020-08-09T08:43:53.688Z</time>
      </trkpt>
      <trkpt lat="63.98914" lon="10.28257">
        <ele>87.006789</ele>
        <time>2020-08-09T08:43:55.667Z</time>
      </trkpt>
      <trkpt lat="63.98919" lon="10.28276">
        <ele>87.202471</ele>
        <time>2020-08-09T08:43:57.689Z</time>
      </trkpt>
      <trkpt lat="63.98924" lon="10.28294">
        <ele>87.40218</ele>
        <time>2020-08-09T08:43:59.684Z</time>
      </trkpt>
      <trkpt lat="63.98929" lon="10.28312">
        <ele>87.59297</ele>
        <time>2020-08-09T08:44:01.694Z</time>
      </trkpt>
      <trkpt lat="63.98934" lon="10.2833">
        <ele>87.778446</ele>
        <time>2020-08-09T08:44:03.678Z</time>
      </trkpt>
      <trkpt lat="63.98941" lon="10.28356">
        <ele>88.049604</ele>
        <time>2020-08-09T08:44:06.693Z</time>
      </trkpt>
      <trkpt lat="63.98947" lon="10.28381">
        <ele>88.305896</ele>
        <time>2020-08-09T08:44:09.714Z</time>
      </trkpt>
      <trkpt lat="63.98952" lon="10.28403">
        <ele>88.689559</ele>
        <time>2020-08-09T08:44:12.691Z</time>
      </trkpt>
      <trkpt lat="63.98958" lon="10.28424">
        <ele>89.157575</ele>
        <time>2020-08-09T08:44:15.696Z</time>
      </trkpt>
      <trkpt lat="63.98963" lon="10.28443">
        <ele>89.591827</ele>
        <time>2020-08-09T08:44:18.684Z</time>
      </trkpt>
      <trkpt lat="63.98969" lon="10.28466">
        <ele>90.103189</ele>
        <time>2020-08-09T08:44:22.678Z</time>
      </trkpt>
      <trkpt lat="63.98973" lon="10.28487">
        <ele>90.559875</ele>
        <time>2020-08-09T08:44:26.719Z</time>
      </trkpt>
      <trkpt lat="63.98978" lon="10.28506">
        <ele>90.976982</ele>
        <time>2020-08-09T08:44:30.708Z</time>
      </trkpt>
      <trkpt lat="63.98983" lon="10.28526">
        <ele>91.418314</ele>
        <time>2020-08-09T08:44:35.687Z</time>
      </trkpt>
      <trkpt lat="63.98989" lon="10.28545">
        <ele>91.867064</ele>
        <time>2020-08-09T08:44:40.716Z</time>
      </trkpt>
      <trkpt lat="63.98993" lon="10.28567">
        <ele>92.339974</ele>
        <time>2020-08-09T08:44:45.702Z</time>
      </trkpt>
      <trkpt lat="63.98998" lon="10.28585">
        <ele>92.73471</ele>
        <time>2020-08-09T08:44:49.697Z</time>
      </trkpt>
      <trkpt lat="63.99004" lon="10.28604">
        <ele>93.175296</ele>
        <time>2020-08-09T08:44:53.717Z</time>
      </trkpt>
      <trkpt lat="63.99009" lon="10.28624">
        <ele>93.628962</ele>
        <time>2020-08-09T08:44:57.735Z</time>
      </trkpt>
      <trkpt lat="63.99015" lon="10.28644">
        <ele>94.106703</ele>
        <time>2020-08-09T08:45:01.673Z</time>
      </trkpt>
      <trkpt lat="63.9902" lon="10.28666">
        <ele>94.584792</ele>
        <time>2020-08-09T08:45:05.691Z</time>
      </trkpt>
      <trkpt lat="63.99024" lon="10.28685">
        <ele>94.99712</ele>
        <time>2020-08-09T08:45:08.722Z</time>
      </trkpt>
      <trkpt lat="63.99029" lon="10.28707">
        <ele>95.466152</ele>
        <time>2020-08-09T08:45:11.691Z</time>
      </trkpt>
      <trkpt lat="63.99035" lon="10.28731">
        <ele>95.994232</ele>
        <time>2020-08-09T08:45:14.685Z</time>
      </trkpt>
      <trkpt lat="63.99041" lon="10.28758">
        <ele>95.97262</ele>
        <time>2020-08-09T08:45:17.696Z</time>
      </trkpt>
      <trkpt lat="63.99046" lon="10.28778">
        <ele>95.422578</ele>
        <time>2020-08-09T08:45:19.698Z</time>
      </trkpt>
      <trkpt lat="63.99051" lon="10.28799">
        <ele>94.818489</ele>
        <time>2020-08-09T08:45:21.694Z</time>
      </trkpt>
      <trkpt lat="63.99057" lon="10.28823">
        <ele>94.138861</ele>
        <time>2020-08-09T08:45:23.697Z</time>
      </trkpt>
      <trkpt lat="63.99063" lon="10.2885">
        <ele>93.401135</ele>
        <time>2020-08-09T08:45:25.701Z</time>
      </trkpt>
      <trkpt lat="63.9907" lon="10.28878">
        <ele>92.60032</ele>
        <time>2020-08-09T08:45:27.703Z</time>
      </trkpt>
      <trkpt lat="63.99078" lon="10.28908">
        <ele>91.723269</ele>
        <time>2020-08-09T08:45:29.711Z</time>
      </trkpt>
      <trkpt lat="63.99086" lon="10.28941">
        <ele>90.804652</ele>
        <time>2020-08-09T08:45:31.684Z</time>
      </trkpt>
      <trkpt lat="63.99094" lon="10.28975">
        <ele>89.831157</ele>
        <time>2020-08-09T08:45:33.684Z</time>
      </trkpt>
      <trkpt lat="63.99103" lon="10.2901">
        <ele>88.832079</ele>
        <time>2020-08-09T08:45:35.718Z</time>
      </trkpt>
      <trkpt lat="63.99112" lon="10.29045">
        <ele>87.836656</ele>
        <time>2020-08-09T08:45:37.688Z</time>
      </trkpt>
      <trkpt lat="63.99116" lon="10.29063">
        <ele>87.329682</ele>
        <time>2020-08-09T08:45:38.724Z</time>
      </trkpt>
      <trkpt lat="63.99125" lon="10.29098">
        <ele>86.322854</ele>
        <time>2020-08-09T08:45:40.680Z</time>
      </trkpt>
      <trkpt lat="63.99134" lon="10.29133">
        <ele>86.141112</ele>
        <time>2020-08-09T08:45:42.703Z</time>
      </trkpt>
      <trkpt lat="63.99142" lon="10.29167">
        <ele>86.119806</ele>
        <time>2020-08-09T08:45:44.679Z</time>
      </trkpt>
      <trkpt lat="63.9915" lon="10.29198">
        <ele>86.100174</ele>
        <time>2020-08-09T08:45:46.699Z</time>
      </trkpt>
      <trkpt lat="63.99157" lon="10.29226">
        <ele>86.081833</ele>
        <time>2020-08-09T08:45:48.685Z</time>
      </trkpt>
      <trkpt lat="63.99165" lon="10.29253">
        <ele>86.064764</ele>
        <time>2020-08-09T08:45:50.691Z</time>
      </trkpt>
      <trkpt lat="63.99171" lon="10.29277">
        <ele>86.049114</ele>
        <time>2020-08-09T08:45:52.672Z</time>
      </trkpt>
      <trkpt lat="63.99177" lon="10.29298">
        <ele>86.035344</ele>
        <time>2020-08-09T08:45:54.681Z</time>
      </trkpt>
      <trkpt lat="63.99182" lon="10.29317">
        <ele>86.023492</ele>
        <time>2020-08-09T08:45:56.717Z</time>
      </trkpt>
      <trkpt lat="63.9919" lon="10.29341">
        <ele>86.007061</ele>
        <time>2020-08-09T08:45:59.715Z</time>
      </trkpt>
      <trkpt lat="63.99198" lon="10.29364">
        <ele>85.991161</ele>
        <time>2020-08-09T08:46:02.677Z</time>
      </trkpt>
      <trkpt lat="63.99205" lon="10.29384">
        <ele>85.976744</ele>
        <time>2020-08-09T08:46:05.681Z</time>
      </trkpt>
      <trkpt lat="63.99211" lon="10.29403">
        <ele>85.964005</ele>
        <time>2020-08-09T08:46:08.703Z</time>
      </trkpt>
      <trkpt lat="63.99218" lon="10.29419">
        <ele>85.952067</ele>
        <time>2020-08-09T08:46:11.685Z</time>
      </trkpt>
      <trkpt lat="63.99225" lon="10.2944">
        <ele>85.937187</ele>
        <time>2020-08-09T08:46:15.683Z</time>
      </trkpt>
      <trkpt lat="63.99231" lon="10.29455">
        <ele>86.245484</ele>
        <time>2020-08-09T08:46:18.694Z</time>
      </trkpt>
      <trkpt lat="63.99239" lon="10.29474">
        <ele>86.736611</ele>
        <time>2020-08-09T08:46:22.680Z</time>
      </trkpt>
      <trkpt lat="63.99246" lon="10.29488">
        <ele>87.133349</ele>
        <time>2020-08-09T08:46:25.687Z</time>
      </trkpt>
      <trkpt lat="63.99255" lon="10.29505">
        <ele>87.629146</ele>
        <time>2020-08-09T08:46:29.680Z</time>
      </trkpt>
      <trkpt lat="63.99264" lon="10.29523">
        <ele>88.133309</ele>
        <time>2020-08-09T08:46:33.684Z</time>
      </trkpt>
      <trkpt lat="63.99273" lon="10.29539">
        <ele>88.610539</ele>
        <time>2020-08-09T08:46:37.697Z</time>
      </trkpt>
      <trkpt lat="63.99281" lon="10.29557">
        <ele>89.08686</ele>
        <time>2020-08-09T08:46:41.696Z</time>
      </trkpt>
      <trkpt lat="63.99289" lon="10.29572">
        <ele>89.550007</ele>
        <time>2020-08-09T08:46:45.679Z</time>
      </trkpt>
      <trkpt lat="63.99298" lon="10.29588">
        <ele>90.025495</ele>
        <time>2020-08-09T08:46:49.673Z</time>
      </trkpt>
      <trkpt lat="63.99307" lon="10.29601">
        <ele>90.485276</ele>
        <time>2020-08-09T08:46:53.726Z</time>
      </trkpt>
      <trkpt lat="63.99318" lon="10.29613">
        <ele>90.99461</ele>
        <time>2020-08-09T08:46:57.721Z</time>
      </trkpt>
      <trkpt lat="63.99326" lon="10.29623">
        <ele>91.391111</ele>
        <time>2020-08-09T08:47:00.705Z</time>
      </trkpt>
      <trkpt lat="63.99334" lon="10.29634">
        <ele>91.793174</ele>
        <time>2020-08-09T08:47:03.726Z</time>
      </trkpt>
      <trkpt lat="63.99343" lon="10.29645">
        <ele>92.221317</ele>
        <time>2020-08-09T08:47:06.681Z</time>
      </trkpt>
      <trkpt lat="63.99351" lon="10.29656">
        <ele>92.623415</ele>
        <time>2020-08-09T08:47:09.688Z</time>
      </trkpt>
      <trkpt lat="63.99359" lon="10.29665">
        <ele>93.022151</ele>
        <time>2020-08-09T08:47:12.688Z</time>
      </trkpt>
      <trkpt lat="63.99367" lon="10.29675">
        <ele>93.419191</ele>
        <time>2020-08-09T08:47:15.684Z</time>
      </trkpt>
      <trkpt lat="63.99376" lon="10.29685">
        <ele>93.661369</ele>
        <time>2020-08-09T08:47:18.664Z</time>
      </trkpt>
      <trkpt lat="63.99385" lon="10.29695">
        <ele>93.734736</ele>
        <time>2020-08-09T08:47:21.706Z</time>
      </trkpt>
      <trkpt lat="63.99393" lon="10.29705">
        <ele>93.810528</ele>
        <time>2020-08-09T08:47:24.675Z</time>
      </trkpt>
      <trkpt lat="63.99402" lon="10.29715">
        <ele>93.883358</ele>
        <time>2020-08-09T08:47:27.677Z</time>
      </trkpt>
      <trkpt lat="63.99411" lon="10.29724">
        <ele>93.959631</ele>
        <time>2020-08-09T08:47:30.708Z</time>
      </trkpt>
      <trkpt lat="63.99419" lon="10.29733">
        <ele>94.029804</ele>
        <time>2020-08-09T08:47:33.700Z</time>
      </trkpt>
      <trkpt lat="63.99429" lon="10.29746">
        <ele>94.118017</ele>
        <time>2020-08-09T08:47:37.713Z</time>
      </trkpt>
      <trkpt lat="63.99439" lon="10.29759">
        <ele>94.202736</ele>
        <time>2020-08-09T08:47:41.739Z</time>
      </trkpt>
      <trkpt lat="63.99449" lon="10.29772">
        <ele>94.29127</ele>
        <time>2020-08-09T08:47:45.710Z</time>
      </trkpt>
      <trkpt lat="63.99459" lon="10.29786">
        <ele>94.382316</ele>
        <time>2020-08-09T08:47:49.668Z</time>
      </trkpt>
      <trkpt lat="63.99468" lon="10.29802">
        <ele>94.47179</ele>
        <time>2020-08-09T08:47:53.685Z</time>
      </trkpt>
      <trkpt lat="63.99477" lon="10.29815">
        <ele>94.551408</ele>
        <time>2020-08-09T08:47:57.713Z</time>
      </trkpt>
      <trkpt lat="63.99486" lon="10.29828">
        <ele>94.636787</ele>
        <time>2020-08-09T08:48:01.681Z</time>
      </trkpt>
      <trkpt lat="63.99496" lon="10.29843">
        <ele>94.723367</ele>
        <time>2020-08-09T08:48:05.707Z</time>
      </trkpt>
      <trkpt lat="63.99505" lon="10.29859">
        <ele>94.815479</ele>
        <time>2020-08-09T08:48:09.691Z</time>
      </trkpt>
      <trkpt lat="63.99514" lon="10.29876">
        <ele>94.902395</ele>
        <time>2020-08-09T08:48:13.696Z</time>
      </trkpt>
      <trkpt lat="63.99523" lon="10.29893">
        <ele>94.992283</ele>
        <time>2020-08-09T08:48:17.676Z</time>
      </trkpt>
      <trkpt lat="63.99533" lon="10.29907">
        <ele>95.102347</ele>
        <time>2020-08-09T08:48:21.680Z</time>
      </trkpt>
      <trkpt lat="63.9954" lon="10.29921">
        <ele>95.190153</ele>
        <time>2020-08-09T08:48:24.723Z</time>
      </trkpt>
      <trkpt lat="63.99546" lon="10.29937">
        <ele>95.277006</ele>
        <time>2020-08-09T08:48:27.695Z</time>
      </trkpt>
      <trkpt lat="63.99553" lon="10.29952">
        <ele>95.366694</ele>
        <time>2020-08-09T08:48:30.667Z</time>
      </trkpt>
      <trkpt lat="63.99559" lon="10.29969">
        <ele>95.455749</ele>
        <time>2020-08-09T08:48:33.682Z</time>
      </trkpt>
      <trkpt lat="63.99564" lon="10.29986">
        <ele>95.542098</ele>
        <time>2020-08-09T08:48:36.688Z</time>
      </trkpt>
      <trkpt lat="63.9957" lon="10.30003">
        <ele>95.627898</ele>
        <time>2020-08-09T08:48:39.675Z</time>
      </trkpt>
      <trkpt lat="63.99575" lon="10.3002">
        <ele>95.715058</ele>
        <time>2020-08-09T08:48:42.689Z</time>
      </trkpt>
      <trkpt lat="63.99581" lon="10.30044">
        <ele>95.830141</ele>
        <time>2020-08-09T08:48:46.686Z</time>
      </trkpt>
      <trkpt lat="63.99585" lon="10.30063">
        <ele>95.917183</ele>
        <time>2020-08-09T08:48:49.678Z</time>
      </trkpt>
      <trkpt lat="63.9959" lon="10.30081">
        <ele>96.004143</ele>
        <time>2020-08-09T08:48:52.680Z</time>
      </trkpt>
      <trkpt lat="63.99593" lon="10.30101">
        <ele>96.093668</ele>
        <time>2020-08-09T08:48:55.688Z</time>
      </trkpt>
      <trkpt lat="63.99598" lon="10.30121">
        <ele>96.186563</ele>
        <time>2020-08-09T08:48:58.675Z</time>
      </trkpt>
      <trkpt lat="63.996" lon="10.30142">
        <ele>96.27663</ele>
        <time>2020-08-09T08:49:01.681Z</time>
      </trkpt>
      <trkpt lat="63.99603" lon="10.30163">
        <ele>96.368282</ele>
        <time>2020-08-09T08:49:04.702Z</time>
      </trkpt>
      <trkpt lat="63.99607" lon="10.30185">
        <ele>96.466512</ele>
        <time>2020-08-09T08:49:07.709Z</time>
      </trkpt>
      <trkpt lat="63.99611" lon="10.3021">
        <ele>96.573865</ele>
        <time>2020-08-09T08:49:10.682Z</time>
      </trkpt>
      <trkpt lat="63.99613" lon="10.30238">
        <ele>96.693956</ele>
        <time>2020-08-09T08:49:13.716Z</time>
      </trkpt>
      <trkpt lat="63.99615" lon="10.30259">
        <ele>96.37442</ele>
        <time>2020-08-09T08:49:15.696Z</time>
      </trkpt>
      <trkpt lat="63.99617" lon="10.3028">
        <ele>96.007668</ele>
        <time>2020-08-09T08:49:17.668Z</time>
      </trkpt>
      <trkpt lat="63.99618" lon="10.30302">
        <ele>95.633724</ele>
        <time>2020-08-09T08:49:19.675Z</time>
      </trkpt>
      <trkpt lat="63.9962" lon="10.30324">
        <ele>95.249003</ele>
        <time>2020-08-09T08:49:21.676Z</time>
      </trkpt>
      <trkpt lat="63.99623" lon="10.30347">
        <ele>94.847356</ele>
        <time>2020-08-09T08:49:23.703Z</time>
      </trkpt>
      <trkpt lat="63.99624" lon="10.3037">
        <ele>94.439736</ele>
        <time>2020-08-09T08:49:25.700Z</time>
      </trkpt>
      <trkpt lat="63.99624" lon="10.30396">
        <ele>94.002664</ele>
        <time>2020-08-09T08:49:27.685Z</time>
      </trkpt>
      <trkpt lat="63.99627" lon="10.30425">
        <ele>93.496504</ele>
        <time>2020-08-09T08:49:29.680Z</time>
      </trkpt>
      <trkpt lat="63.99629" lon="10.30457">
        <ele>92.95498</ele>
        <time>2020-08-09T08:49:31.696Z</time>
      </trkpt>
      <trkpt lat="63.99632" lon="10.3049">
        <ele>92.368782</ele>
        <time>2020-08-09T08:49:33.671Z</time>
      </trkpt>
      <trkpt lat="63.99636" lon="10.30526">
        <ele>91.736308</ele>
        <time>2020-08-09T08:49:35.705Z</time>
      </trkpt>
      <trkpt lat="63.99642" lon="10.30564">
        <ele>91.05354</ele>
        <time>2020-08-09T08:49:37.683Z</time>
      </trkpt>
      <trkpt lat="63.99645" lon="10.30583">
        <ele>90.699094</ele>
        <time>2020-08-09T08:49:38.728Z</time>
      </trkpt>
      <trkpt lat="63.99649" lon="10.30602">
        <ele>90.331929</ele>
        <time>2020-08-09T08:49:39.709Z</time>
      </trkpt>
      <trkpt lat="63.99654" lon="10.30623">
        <ele>89.94564</ele>
        <time>2020-08-09T08:49:40.683Z</time>
      </trkpt>
      <trkpt lat="63.99659" lon="10.30643">
        <ele>89.449961</ele>
        <time>2020-08-09T08:49:41.676Z</time>
      </trkpt>
      <trkpt lat="63.99664" lon="10.30664">
        <ele>88.792581</ele>
        <time>2020-08-09T08:49:42.716Z</time>
      </trkpt>
      <trkpt lat="63.99669" lon="10.30685">
        <ele>88.1232</ele>
        <time>2020-08-09T08:49:43.698Z</time>
      </trkpt>
      <trkpt lat="63.99674" lon="10.30708">
        <ele>87.439716</ele>
        <time>2020-08-09T08:49:44.676Z</time>
      </trkpt>
      <trkpt lat="63.99679" lon="10.3073">
        <ele>86.763366</ele>
        <time>2020-08-09T08:49:45.681Z</time>
      </trkpt>
      <trkpt lat="63.99684" lon="10.30752">
        <ele>86.079319</ele>
        <time>2020-08-09T08:49:46.693Z</time>
      </trkpt>
      <trkpt lat="63.99689" lon="10.30775">
        <ele>85.387143</ele>
        <time>2020-08-09T08:49:47.684Z</time>
      </trkpt>
      <trkpt lat="63.99694" lon="10.30797">
        <ele>84.695733</ele>
        <time>2020-08-09T08:49:48.677Z</time>
      </trkpt>
      <trkpt lat="63.99698" lon="10.3082">
        <ele>84.002133</ele>
        <time>2020-08-09T08:49:49.702Z</time>
      </trkpt>
      <trkpt lat="63.99703" lon="10.30843">
        <ele>83.303029</ele>
        <time>2020-08-09T08:49:50.680Z</time>
      </trkpt>
      <trkpt lat="63.99708" lon="10.30865">
        <ele>82.610857</ele>
        <time>2020-08-09T08:49:51.699Z</time>
      </trkpt>
      <trkpt lat="63.99713" lon="10.30888">
        <ele>81.922426</ele>
        <time>2020-08-09T08:49:52.707Z</time>
      </trkpt>
      <trkpt lat="63.99718" lon="10.3091">
        <ele>81.251543</ele>
        <time>2020-08-09T08:49:53.708Z</time>
      </trkpt>
      <trkpt lat="63.99722" lon="10.30932">
        <ele>80.598207</ele>
        <time>2020-08-09T08:49:54.692Z</time>
      </trkpt>
      <trkpt lat="63.99727" lon="10.30952">
        <ele>79.959347</ele>
        <time>2020-08-09T08:49:55.720Z</time>
      </trkpt>
      <trkpt lat="63.99731" lon="10.30972">
        <ele>79.342879</ele>
        <time>2020-08-09T08:49:56.676Z</time>
      </trkpt>
      <trkpt lat="63.99736" lon="10.30992">
        <ele>78.744623</ele>
        <time>2020-08-09T08:49:57.681Z</time>
      </trkpt>
      <trkpt lat="63.9974" lon="10.31011">
        <ele>78.501926</ele>
        <time>2020-08-09T08:49:58.676Z</time>
      </trkpt>
      <trkpt lat="63.99744" lon="10.3103">
        <ele>78.592329</ele>
        <time>2020-08-09T08:49:59.689Z</time>
      </trkpt>
      <trkpt lat="63.99748" lon="10.31048">
        <ele>78.681377</ele>
        <time>2020-08-09T08:50:00.692Z</time>
      </trkpt>
      <trkpt lat="63.99756" lon="10.31083">
        <ele>78.853643</ele>
        <time>2020-08-09T08:50:02.692Z</time>
      </trkpt>
      <trkpt lat="63.99764" lon="10.31117">
        <ele>79.017021</ele>
        <time>2020-08-09T08:50:04.721Z</time>
      </trkpt>
      <trkpt lat="63.99772" lon="10.31149">
        <ele>79.17606</ele>
        <time>2020-08-09T08:50:06.718Z</time>
      </trkpt>
      <trkpt lat="63.99779" lon="10.3118">
        <ele>79.328402</ele>
        <time>2020-08-09T08:50:08.707Z</time>
      </trkpt>
      <trkpt lat="63.99787" lon="10.31209">
        <ele>79.471659</ele>
        <time>2020-08-09T08:50:10.694Z</time>
      </trkpt>
      <trkpt lat="63.99794" lon="10.31236">
        <ele>79.608447</ele>
        <time>2020-08-09T08:50:12.702Z</time>
      </trkpt>
      <trkpt lat="63.99801" lon="10.31261">
        <ele>79.737096</ele>
        <time>2020-08-09T08:50:14.679Z</time>
      </trkpt>
      <trkpt lat="63.99807" lon="10.31286">
        <ele>79.860046</ele>
        <time>2020-08-09T08:50:16.691Z</time>
      </trkpt>
      <trkpt lat="63.99814" lon="10.3131">
        <ele>79.978421</ele>
        <time>2020-08-09T08:50:18.711Z</time>
      </trkpt>
      <trkpt lat="63.9982" lon="10.31331">
        <ele>80.091564</ele>
        <time>2020-08-09T08:50:20.697Z</time>
      </trkpt>
      <trkpt lat="63.99827" lon="10.31351">
        <ele>80.199145</ele>
        <time>2020-08-09T08:50:22.681Z</time>
      </trkpt>
      <trkpt lat="63.99833" lon="10.31371">
        <ele>80.343823</ele>
        <time>2020-08-09T08:50:24.701Z</time>
      </trkpt>
      <trkpt lat="63.99839" lon="10.3139">
        <ele>80.494457</ele>
        <time>2020-08-09T08:50:26.715Z</time>
      </trkpt>
      <trkpt lat="63.99846" lon="10.31408">
        <ele>80.642157</ele>
        <time>2020-08-09T08:50:28.718Z</time>
      </trkpt>
      <trkpt lat="63.99854" lon="10.31425">
        <ele>80.796789</ele>
        <time>2020-08-09T08:50:30.721Z</time>
      </trkpt>
      <trkpt lat="63.99861" lon="10.31442">
        <ele>80.949803</ele>
        <time>2020-08-09T08:50:32.701Z</time>
      </trkpt>
      <trkpt lat="63.99869" lon="10.31459">
        <ele>81.10516</ele>
        <time>2020-08-09T08:50:34.682Z</time>
      </trkpt>
      <trkpt lat="63.99877" lon="10.31474">
        <ele>81.253171</ele>
        <time>2020-08-09T08:50:36.677Z</time>
      </trkpt>
      <trkpt lat="63.99885" lon="10.31488">
        <ele>81.39302</ele>
        <time>2020-08-09T08:50:38.679Z</time>
      </trkpt>
      <trkpt lat="63.99893" lon="10.31501">
        <ele>81.529105</ele>
        <time>2020-08-09T08:50:40.672Z</time>
      </trkpt>
      <trkpt lat="63.999" lon="10.31514">
        <ele>81.659848</ele>
        <time>2020-08-09T08:50:42.679Z</time>
      </trkpt>
      <trkpt lat="63.99907" lon="10.31526">
        <ele>81.791688</ele>
        <time>2020-08-09T08:50:44.687Z</time>
      </trkpt>
      <trkpt lat="63.99917" lon="10.31544">
        <ele>81.979542</ele>
        <time>2020-08-09T08:50:47.719Z</time>
      </trkpt>
      <trkpt lat="63.99928" lon="10.31563">
        <ele>82.166677</ele>
        <time>2020-08-09T08:50:50.712Z</time>
      </trkpt>
      <trkpt lat="63.99938" lon="10.31583">
        <ele>82.356422</ele>
        <time>2020-08-09T08:50:53.685Z</time>
      </trkpt>
      <trkpt lat="63.99947" lon="10.31601">
        <ele>82.540604</ele>
        <time>2020-08-09T08:50:56.677Z</time>
      </trkpt>
      <trkpt lat="63.99957" lon="10.31619">
        <ele>82.722407</ele>
        <time>2020-08-09T08:50:59.740Z</time>
      </trkpt>
      <trkpt lat="63.99966" lon="10.31638">
        <ele>82.882745</ele>
        <time>2020-08-09T08:51:02.699Z</time>
      </trkpt>
      <trkpt lat="63.99976" lon="10.31658">
        <ele>83.036732</ele>
        <time>2020-08-09T08:51:05.708Z</time>
      </trkpt>
      <trkpt lat="63.99985" lon="10.31678">
        <ele>83.188192</ele>
        <time>2020-08-09T08:51:08.667Z</time>
      </trkpt>
      <trkpt lat="63.99994" lon="10.31699">
        <ele>83.336762</ele>
        <time>2020-08-09T08:51:11.678Z</time>
      </trkpt>
      <trkpt lat="64.00002" lon="10.31719">
        <ele>83.480839</ele>
        <time>2020-08-09T08:51:14.689Z</time>
      </trkpt>
      <trkpt lat="64.0001" lon="10.31738">
        <ele>83.621833</ele>
        <time>2020-08-09T08:51:17.716Z</time>
      </trkpt>
      <trkpt lat="64.00018" lon="10.31758">
        <ele>83.760391</ele>
        <time>2020-08-09T08:51:20.676Z</time>
      </trkpt>
      <trkpt lat="64.00026" lon="10.31777">
        <ele>83.898239</ele>
        <time>2020-08-09T08:51:23.704Z</time>
      </trkpt>
      <trkpt lat="64.00034" lon="10.31797">
        <ele>84.032845</ele>
        <time>2020-08-09T08:51:26.695Z</time>
      </trkpt>
      <trkpt lat="64.00041" lon="10.31818">
        <ele>84.174686</ele>
        <time>2020-08-09T08:51:29.693Z</time>
      </trkpt>
      <trkpt lat="64.00048" lon="10.31841">
        <ele>84.321926</ele>
        <time>2020-08-09T08:51:32.673Z</time>
      </trkpt>
      <trkpt lat="64.00057" lon="10.31863">
        <ele>84.471804</ele>
        <time>2020-08-09T08:51:35.697Z</time>
      </trkpt>
      <trkpt lat="64.00065" lon="10.31886">
        <ele>84.62367</ele>
        <time>2020-08-09T08:51:38.730Z</time>
      </trkpt>
      <trkpt lat="64.00073" lon="10.31908">
        <ele>84.777062</ele>
        <time>2020-08-09T08:51:41.691Z</time>
      </trkpt>
      <trkpt lat="64.00081" lon="10.31928">
        <ele>84.915719</ele>
        <time>2020-08-09T08:51:44.674Z</time>
      </trkpt>
      <trkpt lat="64.00088" lon="10.31949">
        <ele>85.175012</ele>
        <time>2020-08-09T08:51:47.713Z</time>
      </trkpt>
      <trkpt lat="64.00095" lon="10.31971">
        <ele>85.452175</ele>
        <time>2020-08-09T08:51:50.716Z</time>
      </trkpt>
      <trkpt lat="64.00102" lon="10.31993">
        <ele>85.731817</ele>
        <time>2020-08-09T08:51:53.681Z</time>
      </trkpt>
      <trkpt lat="64.00108" lon="10.32016">
        <ele>86.015907</ele>
        <time>2020-08-09T08:51:56.705Z</time>
      </trkpt>
      <trkpt lat="64.00114" lon="10.3204">
        <ele>86.301421</ele>
        <time>2020-08-09T08:51:59.733Z</time>
      </trkpt>
      <trkpt lat="64.00121" lon="10.32064">
        <ele>86.599826</ele>
        <time>2020-08-09T08:52:02.713Z</time>
      </trkpt>
      <trkpt lat="64.00127" lon="10.32088">
        <ele>86.896743</ele>
        <time>2020-08-09T08:52:05.700Z</time>
      </trkpt>
      <trkpt lat="64.00132" lon="10.32111">
        <ele>87.164029</ele>
        <time>2020-08-09T08:52:08.708Z</time>
      </trkpt>
      <trkpt lat="64.00138" lon="10.32133">
        <ele>87.428707</ele>
        <time>2020-08-09T08:52:11.699Z</time>
      </trkpt>
      <trkpt lat="64.00144" lon="10.32156">
        <ele>87.709256</ele>
        <time>2020-08-09T08:52:14.687Z</time>
      </trkpt>
      <trkpt lat="64.0015" lon="10.32179">
        <ele>87.987235</ele>
        <time>2020-08-09T08:52:17.694Z</time>
      </trkpt>
      <trkpt lat="64.00155" lon="10.32201">
        <ele>88.254986</ele>
        <time>2020-08-09T08:52:20.690Z</time>
      </trkpt>
      <trkpt lat="64.00161" lon="10.32224">
        <ele>88.532058</ele>
        <time>2020-08-09T08:52:23.693Z</time>
      </trkpt>
      <trkpt lat="64.00167" lon="10.32248">
        <ele>88.825959</ele>
        <time>2020-08-09T08:52:26.690Z</time>
      </trkpt>
      <trkpt lat="64.00174" lon="10.32273">
        <ele>89.12964</ele>
        <time>2020-08-09T08:52:29.724Z</time>
      </trkpt>
      <trkpt lat="64.00182" lon="10.32296">
        <ele>89.298001</ele>
        <time>2020-08-09T08:52:32.727Z</time>
      </trkpt>
      <trkpt lat="64.00189" lon="10.32321">
        <ele>89.404718</ele>
        <time>2020-08-09T08:52:35.688Z</time>
      </trkpt>
      <trkpt lat="64.00197" lon="10.32346">
        <ele>89.51416</ele>
        <time>2020-08-09T08:52:38.681Z</time>
      </trkpt>
      <trkpt lat="64.00203" lon="10.32362">
        <ele>89.587894</ele>
        <time>2020-08-09T08:52:40.682Z</time>
      </trkpt>
      <trkpt lat="64.00208" lon="10.3238">
        <ele>89.667175</ele>
        <time>2020-08-09T08:52:42.683Z</time>
      </trkpt>
      <trkpt lat="64.00214" lon="10.32399">
        <ele>89.751002</ele>
        <time>2020-08-09T08:52:44.692Z</time>
      </trkpt>
      <trkpt lat="64.0022" lon="10.32419">
        <ele>89.836597</ele>
        <time>2020-08-09T08:52:46.671Z</time>
      </trkpt>
      <trkpt lat="64.00227" lon="10.32438">
        <ele>89.925265</ele>
        <time>2020-08-09T08:52:48.671Z</time>
      </trkpt>
      <trkpt lat="64.00234" lon="10.32458">
        <ele>90.015932</ele>
        <time>2020-08-09T08:52:50.729Z</time>
      </trkpt>
      <trkpt lat="64.00241" lon="10.32477">
        <ele>90.1074</ele>
        <time>2020-08-09T08:52:52.692Z</time>
      </trkpt>
      <trkpt lat="64.00248" lon="10.32497">
        <ele>90.197784</ele>
        <time>2020-08-09T08:52:54.687Z</time>
      </trkpt>
      <trkpt lat="64.00254" lon="10.32518">
        <ele>90.288946</ele>
        <time>2020-08-09T08:52:56.687Z</time>
      </trkpt>
      <trkpt lat="64.00261" lon="10.32538">
        <ele>90.377707</ele>
        <time>2020-08-09T08:52:58.701Z</time>
      </trkpt>
      <trkpt lat="64.00267" lon="10.32558">
        <ele>90.466374</ele>
        <time>2020-08-09T08:53:00.682Z</time>
      </trkpt>
      <trkpt lat="64.00274" lon="10.32579">
        <ele>90.560814</ele>
        <time>2020-08-09T08:53:02.716Z</time>
      </trkpt>
      <trkpt lat="64.00281" lon="10.326">
        <ele>90.655541</ele>
        <time>2020-08-09T08:53:04.717Z</time>
      </trkpt>
      <trkpt lat="64.00288" lon="10.3262">
        <ele>90.619776</ele>
        <time>2020-08-09T08:53:06.706Z</time>
      </trkpt>
      <trkpt lat="64.00296" lon="10.32642">
        <ele>90.479228</ele>
        <time>2020-08-09T08:53:08.679Z</time>
      </trkpt>
      <trkpt lat="64.00303" lon="10.32664">
        <ele>90.335491</ele>
        <time>2020-08-09T08:53:10.717Z</time>
      </trkpt>
      <trkpt lat="64.00311" lon="10.32684">
        <ele>90.193763</ele>
        <time>2020-08-09T08:53:12.689Z</time>
      </trkpt>
      <trkpt lat="64.0032" lon="10.32707">
        <ele>90.043176</ele>
        <time>2020-08-09T08:53:14.673Z</time>
      </trkpt>
      <trkpt lat="64.00327" lon="10.3273">
        <ele>89.895177</ele>
        <time>2020-08-09T08:53:16.723Z</time>
      </trkpt>
      <trkpt lat="64.00335" lon="10.32752">
        <ele>89.749749</ele>
        <time>2020-08-09T08:53:18.671Z</time>
      </trkpt>
      <trkpt lat="64.00342" lon="10.32774">
        <ele>89.610936</ele>
        <time>2020-08-09T08:53:20.676Z</time>
      </trkpt>
      <trkpt lat="64.00349" lon="10.32795">
        <ele>89.475237</ele>
        <time>2020-08-09T08:53:22.688Z</time>
      </trkpt>
      <trkpt lat="64.00356" lon="10.32816">
        <ele>89.339953</ele>
        <time>2020-08-09T08:53:24.723Z</time>
      </trkpt>
      <trkpt lat="64.00362" lon="10.32837">
        <ele>89.207549</ele>
        <time>2020-08-09T08:53:26.715Z</time>
      </trkpt>
      <trkpt lat="64.00368" lon="10.32859">
        <ele>89.076014</ele>
        <time>2020-08-09T08:53:28.684Z</time>
      </trkpt>
      <trkpt lat="64.00374" lon="10.3288">
        <ele>88.949249</ele>
        <time>2020-08-09T08:53:30.684Z</time>
      </trkpt>
      <trkpt lat="64.00379" lon="10.32899">
        <ele>88.831699</ele>
        <time>2020-08-09T08:53:32.682Z</time>
      </trkpt>
      <trkpt lat="64.00385" lon="10.32918">
        <ele>88.713299</ele>
        <time>2020-08-09T08:53:34.703Z</time>
      </trkpt>
      <trkpt lat="64.0039" lon="10.32936">
        <ele>88.603845</ele>
        <time>2020-08-09T08:53:36.684Z</time>
      </trkpt>
      <trkpt lat="64.00396" lon="10.32954">
        <ele>88.644347</ele>
        <time>2020-08-09T08:53:38.699Z</time>
      </trkpt>
      <trkpt lat="64.00401" lon="10.32971">
        <ele>88.705761</ele>
        <time>2020-08-09T08:53:40.676Z</time>
      </trkpt>
      <trkpt lat="64.00406" lon="10.32988">
        <ele>88.76614</ele>
        <time>2020-08-09T08:53:42.695Z</time>
      </trkpt>
      <trkpt lat="64.00413" lon="10.33013">
        <ele>88.851736</ele>
        <time>2020-08-09T08:53:45.691Z</time>
      </trkpt>
      <trkpt lat="64.00419" lon="10.33038">
        <ele>88.93464</ele>
        <time>2020-08-09T08:53:48.704Z</time>
      </trkpt>
      <trkpt lat="64.00425" lon="10.33064">
        <ele>89.020997</ele>
        <time>2020-08-09T08:53:51.700Z</time>
      </trkpt>
      <trkpt lat="64.00431" lon="10.33088">
        <ele>89.101214</ele>
        <time>2020-08-09T08:53:54.693Z</time>
      </trkpt>
      <trkpt lat="64.00437" lon="10.33112">
        <ele>89.181401</ele>
        <time>2020-08-09T08:53:57.702Z</time>
      </trkpt>
      <trkpt lat="64.00443" lon="10.33135">
        <ele>89.261364</ele>
        <time>2020-08-09T08:54:00.688Z</time>
      </trkpt>
      <trkpt lat="64.0045" lon="10.33156">
        <ele>89.336371</ele>
        <time>2020-08-09T08:54:03.700Z</time>
      </trkpt>
      <trkpt lat="64.00456" lon="10.33176">
        <ele>89.409897</ele>
        <time>2020-08-09T08:54:06.696Z</time>
      </trkpt>
      <trkpt lat="64.00462" lon="10.33198">
        <ele>89.483411</ele>
        <time>2020-08-09T08:54:09.719Z</time>
      </trkpt>
      <trkpt lat="64.00467" lon="10.33218">
        <ele>89.551858</ele>
        <time>2020-08-09T08:54:12.699Z</time>
      </trkpt>
      <trkpt lat="64.00472" lon="10.33239">
        <ele>89.619272</ele>
        <time>2020-08-09T08:54:15.680Z</time>
      </trkpt>
      <trkpt lat="64.00477" lon="10.3326">
        <ele>89.689253</ele>
        <time>2020-08-09T08:54:18.695Z</time>
      </trkpt>
      <trkpt lat="64.00482" lon="10.33281">
        <ele>89.759534</ele>
        <time>2020-08-09T08:54:21.688Z</time>
      </trkpt>
      <trkpt lat="64.00488" lon="10.33301">
        <ele>89.838537</ele>
        <time>2020-08-09T08:54:24.672Z</time>
      </trkpt>
      <trkpt lat="64.00494" lon="10.3332">
        <ele>89.921858</ele>
        <time>2020-08-09T08:54:27.683Z</time>
      </trkpt>
      <trkpt lat="64.00501" lon="10.33339">
        <ele>90.007854</ele>
        <time>2020-08-09T08:54:30.695Z</time>
      </trkpt>
      <trkpt lat="64.00507" lon="10.33357">
        <ele>90.091736</ele>
        <time>2020-08-09T08:54:33.675Z</time>
      </trkpt>
      <trkpt lat="64.00514" lon="10.33374">
        <ele>90.171814</ele>
        <time>2020-08-09T08:54:36.673Z</time>
      </trkpt>
      <trkpt lat="64.00521" lon="10.3339">
        <ele>90.25433</ele>
        <time>2020-08-09T08:54:39.696Z</time>
      </trkpt>
      <trkpt lat="64.00529" lon="10.33405">
        <ele>90.334821</ele>
        <time>2020-08-09T08:54:42.686Z</time>
      </trkpt>
      <trkpt lat="64.00536" lon="10.33419">
        <ele>90.409957</ele>
        <time>2020-08-09T08:54:45.709Z</time>
      </trkpt>
      <trkpt lat="64.00543" lon="10.33432">
        <ele>90.483258</ele>
        <time>2020-08-09T08:54:48.695Z</time>
      </trkpt>
      <trkpt lat="64.00551" lon="10.3345">
        <ele>90.574372</ele>
        <time>2020-08-09T08:54:52.691Z</time>
      </trkpt>
      <trkpt lat="64.0056" lon="10.33467">
        <ele>90.666934</ele>
        <time>2020-08-09T08:54:56.685Z</time>
      </trkpt>
      <trkpt lat="64.00569" lon="10.33482">
        <ele>90.761861</ele>
        <time>2020-08-09T08:55:00.681Z</time>
      </trkpt>
      <trkpt lat="64.00579" lon="10.33498">
        <ele>90.856946</ele>
        <time>2020-08-09T08:55:04.690Z</time>
      </trkpt>
      <trkpt lat="64.00587" lon="10.33513">
        <ele>90.941755</ele>
        <time>2020-08-09T08:55:08.684Z</time>
      </trkpt>
      <trkpt lat="64.00595" lon="10.33526">
        <ele>91.02195</ele>
        <time>2020-08-09T08:55:12.675Z</time>
      </trkpt>
      <trkpt lat="64.00604" lon="10.3354">
        <ele>91.106814</ele>
        <time>2020-08-09T08:55:16.681Z</time>
      </trkpt>
      <trkpt lat="64.00612" lon="10.33552">
        <ele>91.188439</ele>
        <time>2020-08-09T08:55:20.678Z</time>
      </trkpt>
      <trkpt lat="64.00621" lon="10.33565">
        <ele>91.519768</ele>
        <time>2020-08-09T08:55:24.725Z</time>
      </trkpt>
      <trkpt lat="64.0063" lon="10.33579">
        <ele>92.291495</ele>
        <time>2020-08-09T08:55:28.695Z</time>
      </trkpt>
      <trkpt lat="64.00637" lon="10.33591">
        <ele>92.961897</ele>
        <time>2020-08-09T08:55:32.703Z</time>
      </trkpt>
      <trkpt lat="64.00644" lon="10.33605">
        <ele>93.620213</ele>
        <time>2020-08-09T08:55:36.694Z</time>
      </trkpt>
      <trkpt lat="64.00652" lon="10.33619">
        <ele>94.289295</ele>
        <time>2020-08-09T08:55:40.692Z</time>
      </trkpt>
      <trkpt lat="64.0066" lon="10.33635">
        <ele>95.042814</ele>
        <time>2020-08-09T08:55:45.683Z</time>
      </trkpt>
      <trkpt lat="64.00668" lon="10.33651">
        <ele>95.797509</ele>
        <time>2020-08-09T08:55:50.687Z</time>
      </trkpt>
      <trkpt lat="64.00675" lon="10.33665">
        <ele>96.482975</ele>
        <time>2020-08-09T08:55:55.689Z</time>
      </trkpt>
      <trkpt lat="64.00682" lon="10.33681">
        <ele>97.205393</ele>
        <time>2020-08-09T08:56:01.697Z</time>
      </trkpt>
      <trkpt lat="64.00689" lon="10.33698">
        <ele>97.922117</ele>
        <time>2020-08-09T08:56:07.682Z</time>
      </trkpt>
      <trkpt lat="64.00695" lon="10.33713">
        <ele>98.56277</ele>
        <time>2020-08-09T08:56:13.700Z</time>
      </trkpt>
      <trkpt lat="64.00702" lon="10.3373">
        <ele>99.255308</ele>
        <time>2020-08-09T08:56:19.677Z</time>
      </trkpt>
      <trkpt lat="64.00707" lon="10.33747">
        <ele>99.910604</ele>
        <time>2020-08-09T08:56:25.715Z</time>
      </trkpt>
      <trkpt lat="64.00712" lon="10.33764">
        <ele>100.565325</ele>
        <time>2020-08-09T08:56:31.694Z</time>
      </trkpt>
      <trkpt lat="64.00718" lon="10.33784">
        <ele>101.285663</ele>
        <time>2020-08-09T08:56:38.686Z</time>
      </trkpt>
      <trkpt lat="64.00723" lon="10.33803">
        <ele>101.966362</ele>
        <time>2020-08-09T08:56:45.700Z</time>
      </trkpt>
      <trkpt lat="64.00727" lon="10.33822">
        <ele>102.647478</ele>
        <time>2020-08-09T08:56:52.723Z</time>
      </trkpt>
      <trkpt lat="64.00731" lon="10.33842">
        <ele>103.32533</ele>
        <time>2020-08-09T08:56:59.688Z</time>
      </trkpt>
      <trkpt lat="64.00735" lon="10.33862">
        <ele>104.011569</ele>
        <time>2020-08-09T08:57:06.680Z</time>
      </trkpt>
      <trkpt lat="64.00741" lon="10.33882">
        <ele>104.908148</ele>
        <time>2020-08-09T08:57:13.681Z</time>
      </trkpt>
      <trkpt lat="64.00746" lon="10.33901">
        <ele>105.808152</ele>
        <time>2020-08-09T08:57:21.677Z</time>
      </trkpt>
      <trkpt lat="64.00752" lon="10.33917">
        <ele>106.638892</ele>
        <time>2020-08-09T08:57:28.699Z</time>
      </trkpt>
      <trkpt lat="64.00757" lon="10.33934">
        <ele>107.436443</ele>
        <time>2020-08-09T08:57:35.694Z</time>
      </trkpt>
      <trkpt lat="64.00763" lon="10.33951">
        <ele>108.228462</ele>
        <time>2020-08-09T08:57:41.681Z</time>
      </trkpt>
      <trkpt lat="64.00768" lon="10.33969">
        <ele>109.103818</ele>
        <time>2020-08-09T08:57:48.676Z</time>
      </trkpt>
      <trkpt lat="64.00773" lon="10.33987">
        <ele>109.937042</ele>
        <time>2020-08-09T08:57:55.723Z</time>
      </trkpt>
      <trkpt lat="64.00779" lon="10.34007">
        <ele>110.87086</ele>
        <time>2020-08-09T08:58:02.703Z</time>
      </trkpt>
      <trkpt lat="64.00784" lon="10.34026">
        <ele>111.751449</ele>
        <time>2020-08-09T08:58:09.706Z</time>
      </trkpt>
      <trkpt lat="64.0079" lon="10.34045">
        <ele>112.625137</ele>
        <time>2020-08-09T08:58:17.675Z</time>
      </trkpt>
      <trkpt lat="64.00796" lon="10.3406">
        <ele>113.433285</ele>
        <time>2020-08-09T08:58:23.693Z</time>
      </trkpt>
      <trkpt lat="64.00802" lon="10.34075">
        <ele>114.225807</ele>
        <time>2020-08-09T08:58:29.724Z</time>
      </trkpt>
      <trkpt lat="64.00808" lon="10.34092">
        <ele>115.029342</ele>
        <time>2020-08-09T08:58:35.686Z</time>
      </trkpt>
      <trkpt lat="64.00813" lon="10.34108">
        <ele>115.836408</ele>
        <time>2020-08-09T08:58:41.724Z</time>
      </trkpt>
      <trkpt lat="64.00821" lon="10.34123">
        <ele>116.740448</ele>
        <time>2020-08-09T08:58:48.675Z</time>
      </trkpt>
      <trkpt lat="64.00827" lon="10.34139">
        <ele>117.567663</ele>
        <time>2020-08-09T08:58:54.703Z</time>
      </trkpt>
      <trkpt lat="64.00835" lon="10.34154">
        <ele>118.461415</ele>
        <time>2020-08-09T08:59:01.683Z</time>
      </trkpt>
      <trkpt lat="64.00842" lon="10.34171">
        <ele>119.364876</ele>
        <time>2020-08-09T08:59:08.695Z</time>
      </trkpt>
      <trkpt lat="64.00849" lon="10.3419">
        <ele>120.131502</ele>
        <time>2020-08-09T08:59:15.686Z</time>
      </trkpt>
      <trkpt lat="64.00856" lon="10.34205">
        <ele>120.577802</ele>
        <time>2020-08-09T08:59:21.680Z</time>
      </trkpt>
      <trkpt lat="64.00862" lon="10.34221">
        <ele>121.007443</ele>
        <time>2020-08-09T08:59:27.683Z</time>
      </trkpt>
      <trkpt lat="64.00869" lon="10.34237">
        <ele>121.433923</ele>
        <time>2020-08-09T08:59:33.698Z</time>
      </trkpt>
      <trkpt lat="64.00875" lon="10.34255">
        <ele>121.881648</ele>
        <time>2020-08-09T08:59:39.698Z</time>
      </trkpt>
      <trkpt lat="64.00883" lon="10.34269">
        <ele>122.35779</ele>
        <time>2020-08-09T08:59:45.701Z</time>
      </trkpt>
      <trkpt lat="64.00892" lon="10.34283">
        <ele>122.83479</ele>
        <time>2020-08-09T08:59:51.679Z</time>
      </trkpt>
      <trkpt lat="64.00899" lon="10.34295">
        <ele>123.237912</ele>
        <time>2020-08-09T08:59:55.696Z</time>
      </trkpt>
      <trkpt lat="64.00907" lon="10.34307">
        <ele>123.652375</ele>
        <time>2020-08-09T08:59:59.712Z</time>
      </trkpt>
      <trkpt lat="64.00914" lon="10.3432">
        <ele>124.087839</ele>
        <time>2020-08-09T09:00:03.668Z</time>
      </trkpt>
      <trkpt lat="64.00923" lon="10.34335">
        <ele>124.5735</ele>
        <time>2020-08-09T09:00:07.678Z</time>
      </trkpt>
      <trkpt lat="64.00931" lon="10.34349">
        <ele>125.020943</ele>
        <time>2020-08-09T09:00:11.728Z</time>
      </trkpt>
      <trkpt lat="64.0094" lon="10.34366">
        <ele>125.536547</ele>
        <time>2020-08-09T09:00:15.675Z</time>
      </trkpt>
      <trkpt lat="64.00947" lon="10.34382">
        <ele>125.999462</ele>
        <time>2020-08-09T09:00:19.715Z</time>
      </trkpt>
      <trkpt lat="64.00955" lon="10.34399">
        <ele>126.474699</ele>
        <time>2020-08-09T09:00:23.699Z</time>
      </trkpt>
      <trkpt lat="64.00963" lon="10.34414">
        <ele>126.96155</ele>
        <time>2020-08-09T09:00:27.686Z</time>
      </trkpt>
      <trkpt lat="64.00972" lon="10.3443">
        <ele>127.481893</ele>
        <time>2020-08-09T09:00:31.711Z</time>
      </trkpt>
      <trkpt lat="64.0098" lon="10.34446">
        <ele>127.958761</ele>
        <time>2020-08-09T09:00:35.680Z</time>
      </trkpt>
      <trkpt lat="64.00989" lon="10.34461">
        <ele>128.232323</ele>
        <time>2020-08-09T09:00:39.708Z</time>
      </trkpt>
      <trkpt lat="64.00998" lon="10.34475">
        <ele>128.437081</ele>
        <time>2020-08-09T09:00:43.681Z</time>
      </trkpt>
      <trkpt lat="64.01006" lon="10.34489">
        <ele>128.633527</ele>
        <time>2020-08-09T09:00:47.693Z</time>
      </trkpt>
      <trkpt lat="64.01014" lon="10.34505">
        <ele>128.839677</ele>
        <time>2020-08-09T09:00:51.689Z</time>
      </trkpt>
      <trkpt lat="64.01021" lon="10.34519">
        <ele>129.024827</ele>
        <time>2020-08-09T09:00:55.689Z</time>
      </trkpt>
      <trkpt lat="64.01028" lon="10.34534">
        <ele>129.201606</ele>
        <time>2020-08-09T09:00:59.680Z</time>
      </trkpt>
      <trkpt lat="64.01034" lon="10.34548">
        <ele>129.379121</ele>
        <time>2020-08-09T09:01:03.690Z</time>
      </trkpt>
      <trkpt lat="64.01041" lon="10.34563">
        <ele>129.56119</ele>
        <time>2020-08-09T09:01:07.696Z</time>
      </trkpt>
      <trkpt lat="64.01048" lon="10.34582">
        <ele>129.777131</ele>
        <time>2020-08-09T09:01:12.720Z</time>
      </trkpt>
      <trkpt lat="64.01055" lon="10.346">
        <ele>129.977726</ele>
        <time>2020-08-09T09:01:17.696Z</time>
      </trkpt>
      <trkpt lat="64.01062" lon="10.34616">
        <ele>130.168996</ele>
        <time>2020-08-09T09:01:22.682Z</time>
      </trkpt>
      <trkpt lat="64.01068" lon="10.34631">
        <ele>130.350502</ele>
        <time>2020-08-09T09:01:28.681Z</time>
      </trkpt>
      <trkpt lat="64.01075" lon="10.34649">
        <ele>130.547382</ele>
        <time>2020-08-09T09:01:35.672Z</time>
      </trkpt>
      <trkpt lat="64.0108" lon="10.34666">
        <ele>130.726179</ele>
        <time>2020-08-09T09:01:41.679Z</time>
      </trkpt>
      <trkpt lat="64.01086" lon="10.34683">
        <ele>130.906503</ele>
        <time>2020-08-09T09:01:47.701Z</time>
      </trkpt>
      <trkpt lat="64.01092" lon="10.34701">
        <ele>131.103356</ele>
        <time>2020-08-09T09:01:54.704Z</time>
      </trkpt>
      <trkpt lat="64.01098" lon="10.34717">
        <ele>131.27838</ele>
        <time>2020-08-09T09:02:00.745Z</time>
      </trkpt>
      <trkpt lat="64.01102" lon="10.34736">
        <ele>131.455786</ele>
        <time>2020-08-09T09:02:06.700Z</time>
      </trkpt>
      <trkpt lat="64.01108" lon="10.34753">
        <ele>131.900431</ele>
        <time>2020-08-09T09:02:13.680Z</time>
      </trkpt>
      <trkpt lat="64.01114" lon="10.3477">
        <ele>132.546028</ele>
        <time>2020-08-09T09:02:19.686Z</time>
      </trkpt>
      <trkpt lat="64.01121" lon="10.34786">
        <ele>133.221282</ele>
        <time>2020-08-09T09:02:25.679Z</time>
      </trkpt>
      <trkpt lat="64.01126" lon="10.34804">
        <ele>133.899902</ele>
        <time>2020-08-09T09:02:32.725Z</time>
      </trkpt>
      <trkpt lat="64.01132" lon="10.34822">
        <ele>134.580525</ele>
        <time>2020-08-09T09:02:39.697Z</time>
      </trkpt>
      <trkpt lat="64.01136" lon="10.34841">
        <ele>135.222909</ele>
        <time>2020-08-09T09:02:46.681Z</time>
      </trkpt>
      <trkpt lat="64.01141" lon="10.3486">
        <ele>135.889263</ele>
        <time>2020-08-09T09:02:53.684Z</time>
      </trkpt>
      <trkpt lat="64.01146" lon="10.34878">
        <ele>136.512225</ele>
        <time>2020-08-09T09:03:00.684Z</time>
      </trkpt>
      <trkpt lat="64.01154" lon="10.34894">
        <ele>137.233626</ele>
        <time>2020-08-09T09:03:07.677Z</time>
      </trkpt>
      <trkpt lat="64.0116" lon="10.34911">
        <ele>137.899814</ele>
        <time>2020-08-09T09:03:13.684Z</time>
      </trkpt>
      <trkpt lat="64.01165" lon="10.34928">
        <ele>138.537826</ele>
        <time>2020-08-09T09:03:19.677Z</time>
      </trkpt>
      <trkpt lat="64.01171" lon="10.34945">
        <ele>139.206629</ele>
        <time>2020-08-09T09:03:26.687Z</time>
      </trkpt>
      <trkpt lat="64.01177" lon="10.34965">
        <ele>139.91384</ele>
        <time>2020-08-09T09:03:33.684Z</time>
      </trkpt>
      <trkpt lat="64.01182" lon="10.34984">
        <ele>140.592452</ele>
        <time>2020-08-09T09:03:40.687Z</time>
      </trkpt>
      <trkpt lat="64.01189" lon="10.35">
        <ele>141.278592</ele>
        <time>2020-08-09T09:03:47.694Z</time>
      </trkpt>
      <trkpt lat="64.01197" lon="10.35014">
        <ele>141.974018</ele>
        <time>2020-08-09T09:03:53.709Z</time>
      </trkpt>
      <trkpt lat="64.01203" lon="10.35031">
        <ele>142.622833</ele>
        <time>2020-08-09T09:03:59.703Z</time>
      </trkpt>
      <trkpt lat="64.01209" lon="10.35047">
        <ele>143.272934</ele>
        <time>2020-08-09T09:04:05.698Z</time>
      </trkpt>
      <trkpt lat="64.01216" lon="10.35062">
        <ele>143.93586</ele>
        <time>2020-08-09T09:04:12.694Z</time>
      </trkpt>
      <trkpt lat="64.01223" lon="10.35079">
        <ele>144.370293</ele>
        <time>2020-08-09T09:04:19.675Z</time>
      </trkpt>
      <trkpt lat="64.0123" lon="10.35098">
        <ele>144.802148</ele>
        <time>2020-08-09T09:04:26.706Z</time>
      </trkpt>
      <trkpt lat="64.01236" lon="10.35113">
        <ele>145.196083</ele>
        <time>2020-08-09T09:04:32.692Z</time>
      </trkpt>
      <trkpt lat="64.01243" lon="10.35127">
        <ele>145.573077</ele>
        <time>2020-08-09T09:04:38.700Z</time>
      </trkpt>
      <trkpt lat="64.0125" lon="10.35142">
        <ele>145.964764</ele>
        <time>2020-08-09T09:04:44.679Z</time>
      </trkpt>
      <trkpt lat="64.01256" lon="10.35159">
        <ele>146.354276</ele>
        <time>2020-08-09T09:04:51.695Z</time>
      </trkpt>
      <trkpt lat="64.01263" lon="10.35173">
        <ele>146.744745</ele>
        <time>2020-08-09T09:04:58.677Z</time>
      </trkpt>
      <trkpt lat="64.0127" lon="10.3519">
        <ele>147.171415</ele>
        <time>2020-08-09T09:05:05.700Z</time>
      </trkpt>
      <trkpt lat="64.01276" lon="10.35205">
        <ele>147.55532</ele>
        <time>2020-08-09T09:05:11.698Z</time>
      </trkpt>
      <trkpt lat="64.01283" lon="10.3522">
        <ele>147.944133</ele>
        <time>2020-08-09T09:05:17.674Z</time>
      </trkpt>
      <trkpt lat="64.01291" lon="10.35234">
        <ele>148.356567</ele>
        <time>2020-08-09T09:05:23.689Z</time>
      </trkpt>
      <trkpt lat="64.01299" lon="10.35248">
        <ele>148.771263</ele>
        <time>2020-08-09T09:05:29.680Z</time>
      </trkpt>
      <trkpt lat="64.01306" lon="10.35261">
        <ele>149.158357</ele>
        <time>2020-08-09T09:05:35.697Z</time>
      </trkpt>
      <trkpt lat="64.01313" lon="10.35277">
        <ele>149.557802</ele>
        <time>2020-08-09T09:05:41.696Z</time>
      </trkpt>
      <trkpt lat="64.0132" lon="10.35294">
        <ele>149.983973</ele>
        <time>2020-08-09T09:05:48.688Z</time>
      </trkpt>
      <trkpt lat="64.01327" lon="10.35306">
        <ele>150.36339</ele>
        <time>2020-08-09T09:05:55.696Z</time>
      </trkpt>
      <trkpt lat="64.01336" lon="10.35319">
        <ele>150.791644</ele>
        <time>2020-08-09T09:06:01.700Z</time>
      </trkpt>
      <trkpt lat="64.01343" lon="10.35334">
        <ele>151.187704</ele>
        <time>2020-08-09T09:06:07.700Z</time>
      </trkpt>
      <trkpt lat="64.0135" lon="10.3535">
        <ele>151.684589</ele>
        <time>2020-08-09T09:06:13.683Z</time>
      </trkpt>
      <trkpt lat="64.01358" lon="10.35366">
        <ele>152.273504</ele>
        <time>2020-08-09T09:06:19.676Z</time>
      </trkpt>
      <trkpt lat="64.01365" lon="10.35382">
        <ele>152.778692</ele>
        <time>2020-08-09T09:06:24.696Z</time>
      </trkpt>
      <trkpt lat="64.01371" lon="10.354">
        <ele>153.333865</ele>
        <time>2020-08-09T09:06:30.684Z</time>
      </trkpt>
      <trkpt lat="64.01376" lon="10.35416">
        <ele>153.833779</ele>
        <time>2020-08-09T09:06:35.692Z</time>
      </trkpt>
      <trkpt lat="64.01384" lon="10.3543">
        <ele>154.353203</ele>
        <time>2020-08-09T09:06:40.717Z</time>
      </trkpt>
      <trkpt lat="64.01391" lon="10.35446">
        <ele>154.929929</ele>
        <time>2020-08-09T09:06:46.674Z</time>
      </trkpt>
      <trkpt lat="64.01398" lon="10.3546">
        <ele>155.424856</ele>
        <time>2020-08-09T09:06:51.684Z</time>
      </trkpt>
      <trkpt lat="64.01405" lon="10.35478">
        <ele>156.016995</ele>
        <time>2020-08-09T09:06:57.689Z</time>
      </trkpt>
      <trkpt lat="64.01411" lon="10.35494">
        <ele>156.522007</ele>
        <time>2020-08-09T09:07:02.700Z</time>
      </trkpt>
      <trkpt lat="64.01419" lon="10.3551">
        <ele>157.106831</ele>
        <time>2020-08-09T09:07:08.689Z</time>
      </trkpt>
      <trkpt lat="64.01426" lon="10.35527">
        <ele>157.657136</ele>
        <time>2020-08-09T09:07:14.690Z</time>
      </trkpt>
      <trkpt lat="64.01432" lon="10.35545">
        <ele>158.185093</ele>
        <time>2020-08-09T09:07:20.679Z</time>
      </trkpt>
      <trkpt lat="64.01439" lon="10.35562">
        <ele>158.773738</ele>
        <time>2020-08-09T09:07:26.710Z</time>
      </trkpt>
      <trkpt lat="64.01445" lon="10.35579">
        <ele>159.290707</ele>
        <time>2020-08-09T09:07:31.696Z</time>
      </trkpt>
      <trkpt lat="64.01451" lon="10.35597">
        <ele>159.826603</ele>
        <time>2020-08-09T09:07:36.692Z</time>
      </trkpt>
      <trkpt lat="64.01457" lon="10.35613">
        <ele>160.33161</ele>
        <time>2020-08-09T09:07:41.680Z</time>
      </trkpt>
      <trkpt lat="64.01464" lon="10.35627">
        <ele>160.843639</ele>
        <time>2020-08-09T09:07:46.679Z</time>
      </trkpt>
      <trkpt lat="64.0147" lon="10.35646">
        <ele>161.343863</ele>
        <time>2020-08-09T09:07:52.688Z</time>
      </trkpt>
      <trkpt lat="64.01476" lon="10.35666">
        <ele>161.552521</ele>
        <time>2020-08-09T09:07:58.698Z</time>
      </trkpt>
      <trkpt lat="64.01481" lon="10.35684">
        <ele>161.731518</ele>
        <time>2020-08-09T09:08:03.675Z</time>
      </trkpt>
      <trkpt lat="64.01486" lon="10.357">
        <ele>161.913459</ele>
        <time>2020-08-09T09:08:08.681Z</time>
      </trkpt>
      <trkpt lat="64.01493" lon="10.3572">
        <ele>162.127862</ele>
        <time>2020-08-09T09:08:14.699Z</time>
      </trkpt>
      <trkpt lat="64.01499" lon="10.35736">
        <ele>162.311874</ele>
        <time>2020-08-09T09:08:19.680Z</time>
      </trkpt>
      <trkpt lat="64.01504" lon="10.35753">
        <ele>162.496156</ele>
        <time>2020-08-09T09:08:24.678Z</time>
      </trkpt>
      <trkpt lat="64.0151" lon="10.3577">
        <ele>162.683441</ele>
        <time>2020-08-09T09:08:29.678Z</time>
      </trkpt>
      <trkpt lat="64.01516" lon="10.35786">
        <ele>162.870902</ele>
        <time>2020-08-09T09:08:34.677Z</time>
      </trkpt>
      <trkpt lat="64.01522" lon="10.35804">
        <ele>163.062618</ele>
        <time>2020-08-09T09:08:39.727Z</time>
      </trkpt>
      <trkpt lat="64.01528" lon="10.35824">
        <ele>163.267296</ele>
        <time>2020-08-09T09:08:45.683Z</time>
      </trkpt>
      <trkpt lat="64.01534" lon="10.35844">
        <ele>163.482623</ele>
        <time>2020-08-09T09:08:51.684Z</time>
      </trkpt>
      <trkpt lat="64.01539" lon="10.35862">
        <ele>163.667139</ele>
        <time>2020-08-09T09:08:56.683Z</time>
      </trkpt>
      <trkpt lat="64.01545" lon="10.35882">
        <ele>163.878725</ele>
        <time>2020-08-09T09:09:01.727Z</time>
      </trkpt>
      <trkpt lat="64.01551" lon="10.359">
        <ele>164.072762</ele>
        <time>2020-08-09T09:09:05.689Z</time>
      </trkpt>
      <trkpt lat="64.01557" lon="10.35918">
        <ele>164.267041</ele>
        <time>2020-08-09T09:09:09.743Z</time>
      </trkpt>
      <trkpt lat="64.01563" lon="10.35935">
        <ele>164.464296</ele>
        <time>2020-08-09T09:09:13.706Z</time>
      </trkpt>
      <trkpt lat="64.0157" lon="10.35954">
        <ele>164.682448</ele>
        <time>2020-08-09T09:09:18.689Z</time>
      </trkpt>
      <trkpt lat="64.01575" lon="10.35973">
        <ele>164.870202</ele>
        <time>2020-08-09T09:09:22.684Z</time>
      </trkpt>
      <trkpt lat="64.01582" lon="10.35992">
        <ele>165.067081</ele>
        <time>2020-08-09T09:09:26.678Z</time>
      </trkpt>
      <trkpt lat="64.01589" lon="10.36012">
        <ele>165.267218</ele>
        <time>2020-08-09T09:09:30.673Z</time>
      </trkpt>
      <trkpt lat="64.01595" lon="10.36033">
        <ele>165.466136</ele>
        <time>2020-08-09T09:09:34.680Z</time>
      </trkpt>
      <trkpt lat="64.01602" lon="10.36054">
        <ele>165.670062</ele>
        <time>2020-08-09T09:09:38.679Z</time>
      </trkpt>
      <trkpt lat="64.01608" lon="10.36075">
        <ele>165.873341</ele>
        <time>2020-08-09T09:09:42.677Z</time>
      </trkpt>
      <trkpt lat="64.01614" lon="10.36091">
        <ele>166.036474</ele>
        <time>2020-08-09T09:09:45.688Z</time>
      </trkpt>
      <trkpt lat="64.01621" lon="10.36113">
        <ele>166.249477</ele>
        <time>2020-08-09T09:09:49.700Z</time>
      </trkpt>
      <trkpt lat="64.01629" lon="10.36132">
        <ele>166.461166</ele>
        <time>2020-08-09T09:09:53.677Z</time>
      </trkpt>
      <trkpt lat="64.01637" lon="10.36153">
        <ele>166.675219</ele>
        <time>2020-08-09T09:09:57.692Z</time>
      </trkpt>
      <trkpt lat="64.01642" lon="10.3617">
        <ele>166.842677</ele>
        <time>2020-08-09T09:10:00.687Z</time>
      </trkpt>
      <trkpt lat="64.01648" lon="10.36187">
        <ele>167.009438</ele>
        <time>2020-08-09T09:10:03.683Z</time>
      </trkpt>
      <trkpt lat="64.01653" lon="10.36205">
        <ele>167.181499</ele>
        <time>2020-08-09T09:10:06.699Z</time>
      </trkpt>
      <trkpt lat="64.0166" lon="10.36222">
        <ele>167.363469</ele>
        <time>2020-08-09T09:10:09.756Z</time>
      </trkpt>
      <trkpt lat="64.01666" lon="10.3624">
        <ele>167.534254</ele>
        <time>2020-08-09T09:10:12.695Z</time>
      </trkpt>
      <trkpt lat="64.01672" lon="10.3626">
        <ele>167.737711</ele>
        <time>2020-08-09T09:10:16.701Z</time>
      </trkpt>
      <trkpt lat="64.01678" lon="10.36277">
        <ele>167.90207</ele>
        <time>2020-08-09T09:10:19.706Z</time>
      </trkpt>
      <trkpt lat="64.01684" lon="10.36295">
        <ele>168.076052</ele>
        <time>2020-08-09T09:10:22.676Z</time>
      </trkpt>
      <trkpt lat="64.0169" lon="10.36313">
        <ele>168.14944</ele>
        <time>2020-08-09T09:10:25.700Z</time>
      </trkpt>
      <trkpt lat="64.01696" lon="10.36331">
        <ele>168.199436</ele>
        <time>2020-08-09T09:10:28.685Z</time>
      </trkpt>
      <trkpt lat="64.01702" lon="10.36349">
        <ele>168.250593</ele>
        <time>2020-08-09T09:10:31.697Z</time>
      </trkpt>
      <trkpt lat="64.01707" lon="10.36368">
        <ele>168.301816</ele>
        <time>2020-08-09T09:10:34.708Z</time>
      </trkpt>
      <trkpt lat="64.01713" lon="10.36386">
        <ele>168.352253</ele>
        <time>2020-08-09T09:10:37.680Z</time>
      </trkpt>
      <trkpt lat="64.0172" lon="10.36404">
        <ele>168.404109</ele>
        <time>2020-08-09T09:10:40.680Z</time>
      </trkpt>
      <trkpt lat="64.01726" lon="10.36422">
        <ele>168.455615</ele>
        <time>2020-08-09T09:10:43.695Z</time>
      </trkpt>
      <trkpt lat="64.01733" lon="10.36441">
        <ele>168.510432</ele>
        <time>2020-08-09T09:10:46.714Z</time>
      </trkpt>
      <trkpt lat="64.0174" lon="10.36461">
        <ele>168.566187</ele>
        <time>2020-08-09T09:10:49.699Z</time>
      </trkpt>
      <trkpt lat="64.01746" lon="10.36478">
        <ele>168.61685</ele>
        <time>2020-08-09T09:10:52.701Z</time>
      </trkpt>
      <trkpt lat="64.01753" lon="10.36497">
        <ele>168.670827</ele>
        <time>2020-08-09T09:10:55.724Z</time>
      </trkpt>
      <trkpt lat="64.01759" lon="10.36516">
        <ele>168.724873</ele>
        <time>2020-08-09T09:10:58.716Z</time>
      </trkpt>
      <trkpt lat="64.01765" lon="10.36536">
        <ele>168.778214</ele>
        <time>2020-08-09T09:11:01.679Z</time>
      </trkpt>
      <trkpt lat="64.0177" lon="10.36554">
        <ele>168.82754</ele>
        <time>2020-08-09T09:11:04.689Z</time>
      </trkpt>
      <trkpt lat="64.01775" lon="10.36573">
        <ele>168.875223</ele>
        <time>2020-08-09T09:11:07.725Z</time>
      </trkpt>
      <trkpt lat="64.01781" lon="10.36592">
        <ele>168.928187</ele>
        <time>2020-08-09T09:11:10.689Z</time>
      </trkpt>
      <trkpt lat="64.01787" lon="10.36611">
        <ele>168.981815</ele>
        <time>2020-08-09T09:11:13.692Z</time>
      </trkpt>
      <trkpt lat="64.01794" lon="10.36631">
        <ele>169.011151</ele>
        <time>2020-08-09T09:11:16.675Z</time>
      </trkpt>
      <trkpt lat="64.01801" lon="10.3665">
        <ele>168.947555</ele>
        <time>2020-08-09T09:11:19.716Z</time>
      </trkpt>
      <trkpt lat="64.01808" lon="10.3667">
        <ele>168.88535</ele>
        <time>2020-08-09T09:11:22.696Z</time>
      </trkpt>
      <trkpt lat="64.01815" lon="10.36691">
        <ele>168.819817</ele>
        <time>2020-08-09T09:11:25.694Z</time>
      </trkpt>
      <trkpt lat="64.01821" lon="10.36713">
        <ele>168.756361</ele>
        <time>2020-08-09T09:11:28.697Z</time>
      </trkpt>
      <trkpt lat="64.01827" lon="10.36734">
        <ele>168.694783</ele>
        <time>2020-08-09T09:11:31.687Z</time>
      </trkpt>
      <trkpt lat="64.01832" lon="10.36756">
        <ele>168.633057</ele>
        <time>2020-08-09T09:11:34.683Z</time>
      </trkpt>
      <trkpt lat="64.01837" lon="10.3678">
        <ele>168.567755</ele>
        <time>2020-08-09T09:11:37.722Z</time>
      </trkpt>
      <trkpt lat="64.01842" lon="10.36806">
        <ele>168.499348</ele>
        <time>2020-08-09T09:11:40.708Z</time>
      </trkpt>
      <trkpt lat="64.01846" lon="10.36825">
        <ele>168.447185</ele>
        <time>2020-08-09T09:11:42.734Z</time>
      </trkpt>
      <trkpt lat="64.0185" lon="10.36847">
        <ele>168.387788</ele>
        <time>2020-08-09T09:11:44.703Z</time>
      </trkpt>
      <trkpt lat="64.01854" lon="10.36869">
        <ele>168.329905</ele>
        <time>2020-08-09T09:11:46.699Z</time>
      </trkpt>
      <trkpt lat="64.01857" lon="10.36893">
        <ele>168.266797</ele>
        <time>2020-08-09T09:11:48.691Z</time>
      </trkpt>
      <trkpt lat="64.0186" lon="10.36919">
        <ele>168.199336</ele>
        <time>2020-08-09T09:11:50.680Z</time>
      </trkpt>
      <trkpt lat="64.01863" lon="10.36948">
        <ele>168.12708</ele>
        <time>2020-08-09T09:11:52.704Z</time>
      </trkpt>
      <trkpt lat="64.01865" lon="10.3698">
        <ele>168.047243</ele>
        <time>2020-08-09T09:11:54.688Z</time>
      </trkpt>
      <trkpt lat="64.01868" lon="10.37016">
        <ele>167.560811</ele>
        <time>2020-08-09T09:11:56.697Z</time>
      </trkpt>
      <trkpt lat="64.0187" lon="10.37057">
        <ele>166.757362</ele>
        <time>2020-08-09T09:11:58.720Z</time>
      </trkpt>
      <trkpt lat="64.01872" lon="10.37078">
        <ele>166.324863</ele>
        <time>2020-08-09T09:11:59.673Z</time>
      </trkpt>
      <trkpt lat="64.01874" lon="10.37101">
        <ele>165.870425</ele>
        <time>2020-08-09T09:12:00.709Z</time>
      </trkpt>
      <trkpt lat="64.01876" lon="10.37124">
        <ele>165.401525</ele>
        <time>2020-08-09T09:12:01.690Z</time>
      </trkpt>
      <trkpt lat="64.01879" lon="10.37147">
        <ele>164.917262</ele>
        <time>2020-08-09T09:12:02.715Z</time>
      </trkpt>
      <trkpt lat="64.01883" lon="10.3717">
        <ele>164.426494</ele>
        <time>2020-08-09T09:12:03.713Z</time>
      </trkpt>
      <trkpt lat="64.01888" lon="10.37193">
        <ele>163.919278</ele>
        <time>2020-08-09T09:12:04.725Z</time>
      </trkpt>
      <trkpt lat="64.01894" lon="10.37216">
        <ele>163.386687</ele>
        <time>2020-08-09T09:12:05.695Z</time>
      </trkpt>
      <trkpt lat="64.01901" lon="10.37239">
        <ele>162.834529</ele>
        <time>2020-08-09T09:12:06.709Z</time>
      </trkpt>
      <trkpt lat="64.01909" lon="10.37261">
        <ele>162.260028</ele>
        <time>2020-08-09T09:12:07.686Z</time>
      </trkpt>
      <trkpt lat="64.01918" lon="10.37283">
        <ele>161.667743</ele>
        <time>2020-08-09T09:12:08.686Z</time>
      </trkpt>
      <trkpt lat="64.01928" lon="10.37304">
        <ele>161.066306</ele>
        <time>2020-08-09T09:12:09.689Z</time>
      </trkpt>
      <trkpt lat="64.01938" lon="10.37324">
        <ele>160.443735</ele>
        <time>2020-08-09T09:12:10.707Z</time>
      </trkpt>
      <trkpt lat="64.0195" lon="10.37342">
        <ele>159.782617</ele>
        <time>2020-08-09T09:12:11.711Z</time>
      </trkpt>
      <trkpt lat="64.01961" lon="10.37358">
        <ele>158.731317</ele>
        <time>2020-08-09T09:12:12.731Z</time>
      </trkpt>
      <trkpt lat="64.01974" lon="10.37373">
        <ele>157.651286</ele>
        <time>2020-08-09T09:12:13.726Z</time>
      </trkpt>
      <trkpt lat="64.01986" lon="10.37388">
        <ele>156.569156</ele>
        <time>2020-08-09T09:12:14.709Z</time>
      </trkpt>
      <trkpt lat="64.01999" lon="10.37402">
        <ele>155.48534</ele>
        <time>2020-08-09T09:12:15.682Z</time>
      </trkpt>
      <trkpt lat="64.02012" lon="10.37416">
        <ele>154.367989</ele>
        <time>2020-08-09T09:12:16.704Z</time>
      </trkpt>
      <trkpt lat="64.02026" lon="10.37432">
        <ele>153.182101</ele>
        <time>2020-08-09T09:12:17.728Z</time>
      </trkpt>
      <trkpt lat="64.0204" lon="10.37448">
        <ele>151.978925</ele>
        <time>2020-08-09T09:12:18.711Z</time>
      </trkpt>
      <trkpt lat="64.02054" lon="10.37464">
        <ele>150.776495</ele>
        <time>2020-08-09T09:12:19.717Z</time>
      </trkpt>
      <trkpt lat="64.02068" lon="10.3748">
        <ele>149.590079</ele>
        <time>2020-08-09T09:12:20.699Z</time>
      </trkpt>
      <trkpt lat="64.02081" lon="10.37494">
        <ele>148.429604</ele>
        <time>2020-08-09T09:12:21.687Z</time>
      </trkpt>
      <trkpt lat="64.02095" lon="10.37508">
        <ele>147.283118</ele>
        <time>2020-08-09T09:12:22.716Z</time>
      </trkpt>
      <trkpt lat="64.02109" lon="10.37523">
        <ele>146.133688</ele>
        <time>2020-08-09T09:12:23.682Z</time>
      </trkpt>
      <trkpt lat="64.02121" lon="10.37539">
        <ele>144.825289</ele>
        <time>2020-08-09T09:12:24.690Z</time>
      </trkpt>
      <trkpt lat="64.02134" lon="10.37556">
        <ele>143.545111</ele>
        <time>2020-08-09T09:12:25.726Z</time>
      </trkpt>
      <trkpt lat="64.02146" lon="10.37574">
        <ele>142.241175</ele>
        <time>2020-08-09T09:12:26.698Z</time>
      </trkpt>
      <trkpt lat="64.02157" lon="10.37594">
        <ele>140.935686</ele>
        <time>2020-08-09T09:12:27.688Z</time>
      </trkpt>
      <trkpt lat="64.02169" lon="10.37616">
        <ele>139.59961</ele>
        <time>2020-08-09T09:12:28.683Z</time>
      </trkpt>
      <trkpt lat="64.02179" lon="10.37639">
        <ele>138.254786</ele>
        <time>2020-08-09T09:12:29.698Z</time>
      </trkpt>
      <trkpt lat="64.02189" lon="10.37664">
        <ele>136.93898</ele>
        <time>2020-08-09T09:12:30.679Z</time>
      </trkpt>
      <trkpt lat="64.02198" lon="10.3769">
        <ele>135.648566</ele>
        <time>2020-08-09T09:12:31.716Z</time>
      </trkpt>
      <trkpt lat="64.02206" lon="10.37715">
        <ele>134.420581</ele>
        <time>2020-08-09T09:12:32.687Z</time>
      </trkpt>
      <trkpt lat="64.02213" lon="10.37742">
        <ele>133.172551</ele>
        <time>2020-08-09T09:12:33.690Z</time>
      </trkpt>
      <trkpt lat="64.02218" lon="10.37769">
        <ele>132.018778</ele>
        <time>2020-08-09T09:12:34.685Z</time>
      </trkpt>
      <trkpt lat="64.02223" lon="10.37793">
        <ele>130.976909</ele>
        <time>2020-08-09T09:12:35.685Z</time>
      </trkpt>
      <trkpt lat="64.02229" lon="10.37815">
        <ele>129.965454</ele>
        <time>2020-08-09T09:12:36.716Z</time>
      </trkpt>
      <trkpt lat="64.02234" lon="10.37836">
        <ele>129.86863</ele>
        <time>2020-08-09T09:12:37.690Z</time>
      </trkpt>
      <trkpt lat="64.0224" lon="10.37854">
        <ele>129.90398</ele>
        <time>2020-08-09T09:12:38.708Z</time>
      </trkpt>
      <trkpt lat="64.02249" lon="10.37885">
        <ele>129.963873</ele>
        <time>2020-08-09T09:12:40.674Z</time>
      </trkpt>
      <trkpt lat="64.02257" lon="10.3791">
        <ele>130.01293</ele>
        <time>2020-08-09T09:12:42.679Z</time>
      </trkpt>
      <trkpt lat="64.02265" lon="10.37928">
        <ele>130.053412</ele>
        <time>2020-08-09T09:12:44.696Z</time>
      </trkpt>
      <trkpt lat="64.02271" lon="10.37943">
        <ele>130.087536</ele>
        <time>2020-08-09T09:12:46.685Z</time>
      </trkpt>
      <trkpt lat="64.0228" lon="10.37959">
        <ele>130.12667</ele>
        <time>2020-08-09T09:12:49.692Z</time>
      </trkpt>
      <trkpt lat="64.02289" lon="10.37975">
        <ele>130.168716</ele>
        <time>2020-08-09T09:12:53.689Z</time>
      </trkpt>
      <trkpt lat="64.02296" lon="10.37988">
        <ele>130.202648</ele>
        <time>2020-08-09T09:12:57.707Z</time>
      </trkpt>
      <trkpt lat="64.02305" lon="10.38">
        <ele>130.239712</ele>
        <time>2020-08-09T09:13:02.704Z</time>
      </trkpt>
      <trkpt lat="64.02313" lon="10.38014">
        <ele>130.275867</ele>
        <time>2020-08-09T09:13:07.702Z</time>
      </trkpt>
      <trkpt lat="64.02321" lon="10.38028">
        <ele>130.314239</ele>
        <time>2020-08-09T09:13:13.716Z</time>
      </trkpt>
      <trkpt lat="64.02329" lon="10.38042">
        <ele>130.350008</ele>
        <time>2020-08-09T09:13:19.684Z</time>
      </trkpt>
      <trkpt lat="64.02336" lon="10.38055">
        <ele>130.382871</ele>
        <time>2020-08-09T09:13:24.756Z</time>
      </trkpt>
      <trkpt lat="64.02343" lon="10.3807">
        <ele>130.41898</ele>
        <time>2020-08-09T09:13:30.686Z</time>
      </trkpt>
      <trkpt lat="64.02351" lon="10.38084">
        <ele>130.454848</ele>
        <time>2020-08-09T09:13:36.723Z</time>
      </trkpt>
      <trkpt lat="64.02358" lon="10.38096">
        <ele>130.488684</ele>
        <time>2020-08-09T09:13:42.691Z</time>
      </trkpt>
      <trkpt lat="64.02365" lon="10.38112">
        <ele>130.975815</ele>
        <time>2020-08-09T09:13:48.703Z</time>
      </trkpt>
      <trkpt lat="64.02373" lon="10.38128">
        <ele>131.555608</ele>
        <time>2020-08-09T09:13:54.686Z</time>
      </trkpt>
      <trkpt lat="64.02381" lon="10.38143">
        <ele>132.139924</ele>
        <time>2020-08-09T09:14:00.722Z</time>
      </trkpt>
      <trkpt lat="64.02389" lon="10.38159">
        <ele>132.701133</ele>
        <time>2020-08-09T09:14:06.697Z</time>
      </trkpt>
      <trkpt lat="64.02396" lon="10.38175">
        <ele>133.257777</ele>
        <time>2020-08-09T09:14:12.683Z</time>
      </trkpt>
      <trkpt lat="64.02405" lon="10.3819">
        <ele>133.836337</ele>
        <time>2020-08-09T09:14:18.731Z</time>
      </trkpt>
      <trkpt lat="64.02411" lon="10.38209">
        <ele>134.40076</ele>
        <time>2020-08-09T09:14:24.705Z</time>
      </trkpt>
      <trkpt lat="64.02417" lon="10.38229">
        <ele>134.982078</ele>
        <time>2020-08-09T09:14:30.707Z</time>
      </trkpt>
      <trkpt lat="64.02423" lon="10.38246">
        <ele>135.493276</ele>
        <time>2020-08-09T09:14:35.698Z</time>
      </trkpt>
      <trkpt lat="64.02429" lon="10.38263">
        <ele>136.041147</ele>
        <time>2020-08-09T09:14:40.680Z</time>
      </trkpt>
      <trkpt lat="64.02436" lon="10.38283">
        <ele>136.643803</ele>
        <time>2020-08-09T09:14:45.691Z</time>
      </trkpt>
      <trkpt lat="64.02442" lon="10.383">
        <ele>137.163245</ele>
        <time>2020-08-09T09:14:49.695Z</time>
      </trkpt>
      <trkpt lat="64.02449" lon="10.38316">
        <ele>137.686635</ele>
        <time>2020-08-09T09:14:53.705Z</time>
      </trkpt>
      <trkpt lat="64.02456" lon="10.38331">
        <ele>138.234094</ele>
        <time>2020-08-09T09:14:57.716Z</time>
      </trkpt>
      <trkpt lat="64.02464" lon="10.38349">
        <ele>138.818701</ele>
        <time>2020-08-09T09:15:01.717Z</time>
      </trkpt>
      <trkpt lat="64.02472" lon="10.38366">
        <ele>139.441844</ele>
        <time>2020-08-09T09:15:05.708Z</time>
      </trkpt>
      <trkpt lat="64.0248" lon="10.38386">
        <ele>140.074332</ele>
        <time>2020-08-09T09:15:09.693Z</time>
      </trkpt>
      <trkpt lat="64.02487" lon="10.38405">
        <ele>140.372491</ele>
        <time>2020-08-09T09:15:13.706Z</time>
      </trkpt>
      <trkpt lat="64.02494" lon="10.38426">
        <ele>140.496958</ele>
        <time>2020-08-09T09:15:17.683Z</time>
      </trkpt>
      <trkpt lat="64.02501" lon="10.38447">
        <ele>140.624915</ele>
        <time>2020-08-09T09:15:21.699Z</time>
      </trkpt>
      <trkpt lat="64.02507" lon="10.38464">
        <ele>140.729935</ele>
        <time>2020-08-09T09:15:24.692Z</time>
      </trkpt>
      <trkpt lat="64.02513" lon="10.3848">
        <ele>140.831652</ele>
        <time>2020-08-09T09:15:27.695Z</time>
      </trkpt>
      <trkpt lat="64.0252" lon="10.38497">
        <ele>140.940202</ele>
        <time>2020-08-09T09:15:30.746Z</time>
      </trkpt>
      <trkpt lat="64.02526" lon="10.38515">
        <ele>141.049298</ele>
        <time>2020-08-09T09:15:33.689Z</time>
      </trkpt>
      <trkpt lat="64.02532" lon="10.38534">
        <ele>141.162499</ele>
        <time>2020-08-09T09:15:36.688Z</time>
      </trkpt>
      <trkpt lat="64.02538" lon="10.38553">
        <ele>141.275484</ele>
        <time>2020-08-09T09:15:39.709Z</time>
      </trkpt>
      <trkpt lat="64.02543" lon="10.38572">
        <ele>141.384848</ele>
        <time>2020-08-09T09:15:42.697Z</time>
      </trkpt>
      <trkpt lat="64.02549" lon="10.3859">
        <ele>141.493256</ele>
        <time>2020-08-09T09:15:45.718Z</time>
      </trkpt>
      <trkpt lat="64.02554" lon="10.38608">
        <ele>141.598386</ele>
        <time>2020-08-09T09:15:48.720Z</time>
      </trkpt>
      <trkpt lat="64.02559" lon="10.38626">
        <ele>141.696894</ele>
        <time>2020-08-09T09:15:51.696Z</time>
      </trkpt>
      <trkpt lat="64.02564" lon="10.38644">
        <ele>141.798387</ele>
        <time>2020-08-09T09:15:54.680Z</time>
      </trkpt>
      <trkpt lat="64.02567" lon="10.38663">
        <ele>141.899285</ele>
        <time>2020-08-09T09:15:57.726Z</time>
      </trkpt>
      <trkpt lat="64.02571" lon="10.38684">
        <ele>142.005912</ele>
        <time>2020-08-09T09:16:00.696Z</time>
      </trkpt>
      <trkpt lat="64.02575" lon="10.38704">
        <ele>142.110453</ele>
        <time>2020-08-09T09:16:03.671Z</time>
      </trkpt>
      <trkpt lat="64.02579" lon="10.38725">
        <ele>142.220163</ele>
        <time>2020-08-09T09:16:06.676Z</time>
      </trkpt>
      <trkpt lat="64.02582" lon="10.38746">
        <ele>142.344069</ele>
        <time>2020-08-09T09:16:09.706Z</time>
      </trkpt>
      <trkpt lat="64.02586" lon="10.38766">
        <ele>142.47811</ele>
        <time>2020-08-09T09:16:12.679Z</time>
      </trkpt>
      <trkpt lat="64.02591" lon="10.38786">
        <ele>142.609509</ele>
        <time>2020-08-09T09:16:15.685Z</time>
      </trkpt>
      <trkpt lat="64.02595" lon="10.38805">
        <ele>142.73538</ele>
        <time>2020-08-09T09:16:18.695Z</time>
      </trkpt>
      <trkpt lat="64.026" lon="10.38824">
        <ele>142.868194</ele>
        <time>2020-08-09T09:16:21.709Z</time>
      </trkpt>
      <trkpt lat="64.02604" lon="10.38844">
        <ele>142.999658</ele>
        <time>2020-08-09T09:16:24.709Z</time>
      </trkpt>
      <trkpt lat="64.02608" lon="10.38862">
        <ele>143.125007</ele>
        <time>2020-08-09T09:16:27.682Z</time>
      </trkpt>
      <trkpt lat="64.02613" lon="10.38882">
        <ele>143.25426</ele>
        <time>2020-08-09T09:16:30.696Z</time>
      </trkpt>
      <trkpt lat="64.02618" lon="10.38905">
        <ele>143.414331</ele>
        <time>2020-08-09T09:16:34.669Z</time>
      </trkpt>
      <trkpt lat="64.02624" lon="10.38928">
        <ele>143.570722</ele>
        <time>2020-08-09T09:16:38.711Z</time>
      </trkpt>
      <trkpt lat="64.02629" lon="10.3895">
        <ele>143.722184</ele>
        <time>2020-08-09T09:16:42.680Z</time>
      </trkpt>
      <trkpt lat="64.02634" lon="10.38967">
        <ele>143.844734</ele>
        <time>2020-08-09T09:16:45.717Z</time>
      </trkpt>
      <trkpt lat="64.0264" lon="10.38985">
        <ele>143.972796</ele>
        <time>2020-08-09T09:16:48.705Z</time>
      </trkpt>
      <trkpt lat="64.02647" lon="10.39006">
        <ele>144.134444</ele>
        <time>2020-08-09T09:16:52.687Z</time>
      </trkpt>
      <trkpt lat="64.02654" lon="10.39026">
        <ele>144.288151</ele>
        <time>2020-08-09T09:16:56.745Z</time>
      </trkpt>
      <trkpt lat="64.02661" lon="10.39046">
        <ele>144.445029</ele>
        <time>2020-08-09T09:17:00.712Z</time>
      </trkpt>
      <trkpt lat="64.02669" lon="10.39066">
        <ele>144.599581</ele>
        <time>2020-08-09T09:17:04.686Z</time>
      </trkpt>
      <trkpt lat="64.02677" lon="10.39084">
        <ele>144.81628</ele>
        <time>2020-08-09T09:17:08.680Z</time>
      </trkpt>
      <trkpt lat="64.02685" lon="10.39102">
        <ele>145.293684</ele>
        <time>2020-08-09T09:17:12.704Z</time>
      </trkpt>
      <trkpt lat="64.02692" lon="10.39118">
        <ele>145.736601</ele>
        <time>2020-08-09T09:17:16.689Z</time>
      </trkpt>
      <trkpt lat="64.02699" lon="10.39135">
        <ele>146.155788</ele>
        <time>2020-08-09T09:17:20.719Z</time>
      </trkpt>
      <trkpt lat="64.02705" lon="10.39151">
        <ele>146.569516</ele>
        <time>2020-08-09T09:17:24.696Z</time>
      </trkpt>
      <trkpt lat="64.02712" lon="10.39167">
        <ele>146.987629</ele>
        <time>2020-08-09T09:17:28.683Z</time>
      </trkpt>
      <trkpt lat="64.02719" lon="10.39182">
        <ele>147.385964</ele>
        <time>2020-08-09T09:17:32.730Z</time>
      </trkpt>
      <trkpt lat="64.02725" lon="10.39198">
        <ele>147.791152</ele>
        <time>2020-08-09T09:17:36.680Z</time>
      </trkpt>
      <trkpt lat="64.02732" lon="10.39214">
        <ele>148.202147</ele>
        <time>2020-08-09T09:17:40.678Z</time>
      </trkpt>
      <trkpt lat="64.02738" lon="10.39229">
        <ele>148.592394</ele>
        <time>2020-08-09T09:17:44.678Z</time>
      </trkpt>
      <trkpt lat="64.02746" lon="10.39248">
        <ele>149.066441</ele>
        <time>2020-08-09T09:17:49.695Z</time>
      </trkpt>
      <trkpt lat="64.02753" lon="10.39265">
        <ele>149.506741</ele>
        <time>2020-08-09T09:17:54.676Z</time>
      </trkpt>
      <trkpt lat="64.02759" lon="10.3928">
        <ele>149.903424</ele>
        <time>2020-08-09T09:17:58.711Z</time>
      </trkpt>
      <trkpt lat="64.02765" lon="10.39296">
        <ele>150.286062</ele>
        <time>2020-08-09T09:18:02.687Z</time>
      </trkpt>
      <trkpt lat="64.02772" lon="10.39313">
        <ele>150.731247</ele>
        <time>2020-08-09T09:18:07.669Z</time>
      </trkpt>
      <trkpt lat="64.02779" lon="10.39332">
        <ele>151.203986</ele>
        <time>2020-08-09T09:18:12.673Z</time>
      </trkpt>
      <trkpt lat="64.02786" lon="10.39348">
        <ele>151.611587</ele>
        <time>2020-08-09T09:18:16.676Z</time>
      </trkpt>
      <trkpt lat="64.02795" lon="10.39364">
        <ele>152.083113</ele>
        <time>2020-08-09T09:18:21.705Z</time>
      </trkpt>
      <trkpt lat="64.02802" lon="10.39382">
        <ele>152.507323</ele>
        <time>2020-08-09T09:18:26.707Z</time>
      </trkpt>
      <trkpt lat="64.02808" lon="10.39398">
        <ele>152.788455</ele>
        <time>2020-08-09T09:18:30.707Z</time>
      </trkpt>
      <trkpt lat="64.02814" lon="10.39413">
        <ele>153.066596</ele>
        <time>2020-08-09T09:18:34.683Z</time>
      </trkpt>
      <trkpt lat="64.0282" lon="10.39429">
        <ele>153.339721</ele>
        <time>2020-08-09T09:18:38.685Z</time>
      </trkpt>
      <trkpt lat="64.02828" lon="10.39446">
        <ele>153.6673</ele>
        <time>2020-08-09T09:18:43.684Z</time>
      </trkpt>
      <trkpt lat="64.02834" lon="10.39463">
        <ele>153.952523</ele>
        <time>2020-08-09T09:18:47.697Z</time>
      </trkpt>
      <trkpt lat="64.02841" lon="10.39481">
        <ele>154.289982</ele>
        <time>2020-08-09T09:18:52.683Z</time>
      </trkpt>
      <trkpt lat="64.02847" lon="10.39497">
        <ele>154.565094</ele>
        <time>2020-08-09T09:18:56.705Z</time>
      </trkpt>
      <trkpt lat="64.02854" lon="10.39514">
        <ele>154.873335</ele>
        <time>2020-08-09T09:19:01.722Z</time>
      </trkpt>
      <trkpt lat="64.0286" lon="10.39533">
        <ele>155.185141</ele>
        <time>2020-08-09T09:19:06.701Z</time>
      </trkpt>
      <trkpt lat="64.02867" lon="10.39553">
        <ele>155.517557</ele>
        <time>2020-08-09T09:19:11.697Z</time>
      </trkpt>
      <trkpt lat="64.02872" lon="10.39569">
        <ele>155.800151</ele>
        <time>2020-08-09T09:19:15.705Z</time>
      </trkpt>
      <trkpt lat="64.02879" lon="10.39588">
        <ele>156.130525</ele>
        <time>2020-08-09T09:19:20.686Z</time>
      </trkpt>
      <trkpt lat="64.02886" lon="10.39603">
        <ele>156.411955</ele>
        <time>2020-08-09T09:19:24.707Z</time>
      </trkpt>
      <trkpt lat="64.02893" lon="10.39623">
        <ele>156.74552</ele>
        <time>2020-08-09T09:19:29.700Z</time>
      </trkpt>
      <trkpt lat="64.02898" lon="10.39639">
        <ele>157.021217</ele>
        <time>2020-08-09T09:19:33.695Z</time>
      </trkpt>
      <trkpt lat="64.02904" lon="10.39656">
        <ele>157.310951</ele>
        <time>2020-08-09T09:19:37.676Z</time>
      </trkpt>
      <trkpt lat="64.02909" lon="10.39673">
        <ele>157.585528</ele>
        <time>2020-08-09T09:19:41.675Z</time>
      </trkpt>
      <trkpt lat="64.02915" lon="10.39689">
        <ele>157.860693</ele>
        <time>2020-08-09T09:19:45.701Z</time>
      </trkpt>
      <trkpt lat="64.02922" lon="10.39705">
        <ele>157.694244</ele>
        <time>2020-08-09T09:19:49.698Z</time>
      </trkpt>
      <trkpt lat="64.02929" lon="10.39724">
        <ele>157.468604</ele>
        <time>2020-08-09T09:19:53.674Z</time>
      </trkpt>
      <trkpt lat="64.02937" lon="10.39745">
        <ele>157.230139</ele>
        <time>2020-08-09T09:19:57.690Z</time>
      </trkpt>
      <trkpt lat="64.02945" lon="10.39765">
        <ele>156.990393</ele>
        <time>2020-08-09T09:20:01.678Z</time>
      </trkpt>
      <trkpt lat="64.0295" lon="10.39781">
        <ele>156.804879</ele>
        <time>2020-08-09T09:20:04.679Z</time>
      </trkpt>
      <trkpt lat="64.02957" lon="10.39799">
        <ele>156.604627</ele>
        <time>2020-08-09T09:20:07.675Z</time>
      </trkpt>
      <trkpt lat="64.02963" lon="10.39819">
        <ele>156.377705</ele>
        <time>2020-08-09T09:20:10.685Z</time>
      </trkpt>
      <trkpt lat="64.0297" lon="10.39839">
        <ele>156.155572</ele>
        <time>2020-08-09T09:20:13.768Z</time>
      </trkpt>
      <trkpt lat="64.02977" lon="10.3986">
        <ele>155.925789</ele>
        <time>2020-08-09T09:20:16.678Z</time>
      </trkpt>
      <trkpt lat="64.02984" lon="10.3988">
        <ele>155.689227</ele>
        <time>2020-08-09T09:20:19.719Z</time>
      </trkpt>
      <trkpt lat="64.02992" lon="10.399">
        <ele>155.448126</ele>
        <time>2020-08-09T09:20:22.709Z</time>
      </trkpt>
      <trkpt lat="64.03" lon="10.39922">
        <ele>155.190908</ele>
        <time>2020-08-09T09:20:25.711Z</time>
      </trkpt>
      <trkpt lat="64.03008" lon="10.39942">
        <ele>154.949681</ele>
        <time>2020-08-09T09:20:28.687Z</time>
      </trkpt>
      <trkpt lat="64.03015" lon="10.39962">
        <ele>154.719311</ele>
        <time>2020-08-09T09:20:31.731Z</time>
      </trkpt>
      <trkpt lat="64.03023" lon="10.39982">
        <ele>154.477538</ele>
        <time>2020-08-09T09:20:34.697Z</time>
      </trkpt>
      <trkpt lat="64.0303" lon="10.40005">
        <ele>154.225633</ele>
        <time>2020-08-09T09:20:37.696Z</time>
      </trkpt>
      <trkpt lat="64.03039" lon="10.40028">
        <ele>153.686174</ele>
        <time>2020-08-09T09:20:40.703Z</time>
      </trkpt>
      <trkpt lat="64.03044" lon="10.40044">
        <ele>153.308586</ele>
        <time>2020-08-09T09:20:42.718Z</time>
      </trkpt>
      <trkpt lat="64.0305" lon="10.40061">
        <ele>152.906584</ele>
        <time>2020-08-09T09:20:44.721Z</time>
      </trkpt>
      <trkpt lat="64.03057" lon="10.40079">
        <ele>152.47976</ele>
        <time>2020-08-09T09:20:46.720Z</time>
      </trkpt>
      <trkpt lat="64.03064" lon="10.40098">
        <ele>152.008362</ele>
        <time>2020-08-09T09:20:48.736Z</time>
      </trkpt>
      <trkpt lat="64.03072" lon="10.40119">
        <ele>151.509508</ele>
        <time>2020-08-09T09:20:50.706Z</time>
      </trkpt>
      <trkpt lat="64.0308" lon="10.40142">
        <ele>150.956603</ele>
        <time>2020-08-09T09:20:52.685Z</time>
      </trkpt>
      <trkpt lat="64.0309" lon="10.40167">
        <ele>150.333036</ele>
        <time>2020-08-09T09:20:54.688Z</time>
      </trkpt>
      <trkpt lat="64.03101" lon="10.40195">
        <ele>149.655402</ele>
        <time>2020-08-09T09:20:56.706Z</time>
      </trkpt>
      <trkpt lat="64.03112" lon="10.40225">
        <ele>148.916818</ele>
        <time>2020-08-09T09:20:58.707Z</time>
      </trkpt>
      <trkpt lat="64.03118" lon="10.40242">
        <ele>148.51906</ele>
        <time>2020-08-09T09:20:59.718Z</time>
      </trkpt>
      <trkpt lat="64.03124" lon="10.40259">
        <ele>148.10743</ele>
        <time>2020-08-09T09:21:00.688Z</time>
      </trkpt>
      <trkpt lat="64.03131" lon="10.40276">
        <ele>147.683337</ele>
        <time>2020-08-09T09:21:01.703Z</time>
      </trkpt>
      <trkpt lat="64.03137" lon="10.40295">
        <ele>147.246441</ele>
        <time>2020-08-09T09:21:02.715Z</time>
      </trkpt>
      <trkpt lat="64.03144" lon="10.40314">
        <ele>146.79853</ele>
        <time>2020-08-09T09:21:03.694Z</time>
      </trkpt>
      <trkpt lat="64.03151" lon="10.40333">
        <ele>146.37745</ele>
        <time>2020-08-09T09:21:04.685Z</time>
      </trkpt>
      <trkpt lat="64.03158" lon="10.40353">
        <ele>145.968351</ele>
        <time>2020-08-09T09:21:05.698Z</time>
      </trkpt>
      <trkpt lat="64.03165" lon="10.40373">
        <ele>145.549507</ele>
        <time>2020-08-09T09:21:06.700Z</time>
      </trkpt>
      <trkpt lat="64.03173" lon="10.40394">
        <ele>145.124638</ele>
        <time>2020-08-09T09:21:07.712Z</time>
      </trkpt>
      <trkpt lat="64.0318" lon="10.40415">
        <ele>144.692685</ele>
        <time>2020-08-09T09:21:08.703Z</time>
      </trkpt>
      <trkpt lat="64.03188" lon="10.40436">
        <ele>144.266755</ele>
        <time>2020-08-09T09:21:09.687Z</time>
      </trkpt>
      <trkpt lat="64.03195" lon="10.40456">
        <ele>143.840826</ele>
        <time>2020-08-09T09:21:10.729Z</time>
      </trkpt>
      <trkpt lat="64.03203" lon="10.40477">
        <ele>143.412573</ele>
        <time>2020-08-09T09:21:11.679Z</time>
      </trkpt>
      <trkpt lat="64.0321" lon="10.40497">
        <ele>142.985634</ele>
        <time>2020-08-09T09:21:12.683Z</time>
      </trkpt>
      <trkpt lat="64.03218" lon="10.40517">
        <ele>142.564712</ele>
        <time>2020-08-09T09:21:13.707Z</time>
      </trkpt>
      <trkpt lat="64.03225" lon="10.40537">
        <ele>142.142613</ele>
        <time>2020-08-09T09:21:14.703Z</time>
      </trkpt>
      <trkpt lat="64.03233" lon="10.40557">
        <ele>141.721693</ele>
        <time>2020-08-09T09:21:15.705Z</time>
      </trkpt>
      <trkpt lat="64.0324" lon="10.40577">
        <ele>141.305609</ele>
        <time>2020-08-09T09:21:16.689Z</time>
      </trkpt>
      <trkpt lat="64.03248" lon="10.40595">
        <ele>140.900327</ele>
        <time>2020-08-09T09:21:17.705Z</time>
      </trkpt>
      <trkpt lat="64.03255" lon="10.40613">
        <ele>140.517916</ele>
        <time>2020-08-09T09:21:18.689Z</time>
      </trkpt>
      <trkpt lat="64.03261" lon="10.40631">
        <ele>140.153525</ele>
        <time>2020-08-09T09:21:19.683Z</time>
      </trkpt>
      <trkpt lat="64.03267" lon="10.40647">
        <ele>140.507483</ele>
        <time>2020-08-09T09:21:20.675Z</time>
      </trkpt>
      <trkpt lat="64.03274" lon="10.40663">
        <ele>141.022486</ele>
        <time>2020-08-09T09:21:21.683Z</time>
      </trkpt>
      <trkpt lat="64.03286" lon="10.40692">
        <ele>141.957705</ele>
        <time>2020-08-09T09:21:23.712Z</time>
      </trkpt>
      <trkpt lat="64.03297" lon="10.40716">
        <ele>142.790277</ele>
        <time>2020-08-09T09:21:25.671Z</time>
      </trkpt>
      <trkpt lat="64.03306" lon="10.40738">
        <ele>143.514989</ele>
        <time>2020-08-09T09:21:27.692Z</time>
      </trkpt>
      <trkpt lat="64.03314" lon="10.40758">
        <ele>144.136989</ele>
        <time>2020-08-09T09:21:29.711Z</time>
      </trkpt>
      <trkpt lat="64.0332" lon="10.40773">
        <ele>144.62527</ele>
        <time>2020-08-09T09:21:31.701Z</time>
      </trkpt>
      <trkpt lat="64.03327" lon="10.4079">
        <ele>145.198081</ele>
        <time>2020-08-09T09:21:34.692Z</time>
      </trkpt>
      <trkpt lat="64.03334" lon="10.40808">
        <ele>145.768189</ele>
        <time>2020-08-09T09:21:39.694Z</time>
      </trkpt>
      <trkpt lat="64.03341" lon="10.40822">
        <ele>146.262797</ele>
        <time>2020-08-09T09:21:45.683Z</time>
      </trkpt>
      <trkpt lat="64.03347" lon="10.4084">
        <ele>146.815047</ele>
        <time>2020-08-09T09:21:51.689Z</time>
      </trkpt>
      <trkpt lat="64.03355" lon="10.40857">
        <ele>147.382023</ele>
        <time>2020-08-09T09:21:58.676Z</time>
      </trkpt>
      <trkpt lat="64.03362" lon="10.40871">
        <ele>147.900706</ele>
        <time>2020-08-09T09:22:04.701Z</time>
      </trkpt>
      <trkpt lat="64.03369" lon="10.40887">
        <ele>148.416002</ele>
        <time>2020-08-09T09:22:10.696Z</time>
      </trkpt>
      <trkpt lat="64.03375" lon="10.40903">
        <ele>148.928918</ele>
        <time>2020-08-09T09:22:16.696Z</time>
      </trkpt>
      <trkpt lat="64.03382" lon="10.40918">
        <ele>149.457866</ele>
        <time>2020-08-09T09:22:23.716Z</time>
      </trkpt>
      <trkpt lat="64.03389" lon="10.40934">
        <ele>150.071719</ele>
        <time>2020-08-09T09:22:29.700Z</time>
      </trkpt>
      <trkpt lat="64.03395" lon="10.40949">
        <ele>150.804261</ele>
        <time>2020-08-09T09:22:35.697Z</time>
      </trkpt>
      <trkpt lat="64.03401" lon="10.40965">
        <ele>151.566797</ele>
        <time>2020-08-09T09:22:41.688Z</time>
      </trkpt>
      <trkpt lat="64.03407" lon="10.40983">
        <ele>152.345553</ele>
        <time>2020-08-09T09:22:47.706Z</time>
      </trkpt>
      <trkpt lat="64.03413" lon="10.40998">
        <ele>153.091542</ele>
        <time>2020-08-09T09:22:53.680Z</time>
      </trkpt>
      <trkpt lat="64.0342" lon="10.41013">
        <ele>153.873935</ele>
        <time>2020-08-09T09:22:59.693Z</time>
      </trkpt>
      <trkpt lat="64.03426" lon="10.4103">
        <ele>154.663444</ele>
        <time>2020-08-09T09:23:05.720Z</time>
      </trkpt>
      <trkpt lat="64.03432" lon="10.41047">
        <ele>155.433535</ele>
        <time>2020-08-09T09:23:11.679Z</time>
      </trkpt>
      <trkpt lat="64.03438" lon="10.41063">
        <ele>156.176828</ele>
        <time>2020-08-09T09:23:17.715Z</time>
      </trkpt>
      <trkpt lat="64.03443" lon="10.4108">
        <ele>156.945429</ele>
        <time>2020-08-09T09:23:23.676Z</time>
      </trkpt>
      <trkpt lat="64.03451" lon="10.41096">
        <ele>157.773569</ele>
        <time>2020-08-09T09:23:30.685Z</time>
      </trkpt>
      <trkpt lat="64.03457" lon="10.41112">
        <ele>158.54913</ele>
        <time>2020-08-09T09:23:36.687Z</time>
      </trkpt>
      <trkpt lat="64.03463" lon="10.41131">
        <ele>159.410021</ele>
        <time>2020-08-09T09:23:43.688Z</time>
      </trkpt>
      <trkpt lat="64.0347" lon="10.41146">
        <ele>160.166165</ele>
        <time>2020-08-09T09:23:49.695Z</time>
      </trkpt>
      <trkpt lat="64.03476" lon="10.41164">
        <ele>160.963237</ele>
        <time>2020-08-09T09:23:56.691Z</time>
      </trkpt>
      <trkpt lat="64.03481" lon="10.41181">
        <ele>161.693301</ele>
        <time>2020-08-09T09:24:02.681Z</time>
      </trkpt>
      <trkpt lat="64.03487" lon="10.41198">
        <ele>162.487497</ele>
        <time>2020-08-09T09:24:09.676Z</time>
      </trkpt>
      <trkpt lat="64.03494" lon="10.41215">
        <ele>163.317602</ele>
        <time>2020-08-09T09:24:16.679Z</time>
      </trkpt>
      <trkpt lat="64.03499" lon="10.41232">
        <ele>164.081177</ele>
        <time>2020-08-09T09:24:23.685Z</time>
      </trkpt>
      <trkpt lat="64.03505" lon="10.41249">
        <ele>164.668518</ele>
        <time>2020-08-09T09:24:29.674Z</time>
      </trkpt>
      <trkpt lat="64.03511" lon="10.41265">
        <ele>164.990144</ele>
        <time>2020-08-09T09:24:36.684Z</time>
      </trkpt>
      <trkpt lat="64.03518" lon="10.41284">
        <ele>165.333871</ele>
        <time>2020-08-09T09:24:44.709Z</time>
      </trkpt>
      <trkpt lat="64.03524" lon="10.41301">
        <ele>165.664416</ele>
        <time>2020-08-09T09:24:51.687Z</time>
      </trkpt>
      <trkpt lat="64.03531" lon="10.41316">
        <ele>166.001981</ele>
        <time>2020-08-09T09:24:58.684Z</time>
      </trkpt>
      <trkpt lat="64.03537" lon="10.41333">
        <ele>166.318281</ele>
        <time>2020-08-09T09:25:04.694Z</time>
      </trkpt>
      <trkpt lat="64.03544" lon="10.4135">
        <ele>166.656601</ele>
        <time>2020-08-09T09:25:10.700Z</time>
      </trkpt>
      <trkpt lat="64.03551" lon="10.41366">
        <ele>166.99864</ele>
        <time>2020-08-09T09:25:16.678Z</time>
      </trkpt>
      <trkpt lat="64.03558" lon="10.41384">
        <ele>167.345019</ele>
        <time>2020-08-09T09:25:22.697Z</time>
      </trkpt>
      <trkpt lat="64.03564" lon="10.414">
        <ele>167.651081</ele>
        <time>2020-08-09T09:25:28.696Z</time>
      </trkpt>
      <trkpt lat="64.03571" lon="10.41417">
        <ele>167.999382</ele>
        <time>2020-08-09T09:25:34.689Z</time>
      </trkpt>
      <trkpt lat="64.03577" lon="10.41432">
        <ele>168.303303</ele>
        <time>2020-08-09T09:25:39.705Z</time>
      </trkpt>
      <trkpt lat="64.03583" lon="10.41451">
        <ele>168.649681</ele>
        <time>2020-08-09T09:25:44.706Z</time>
      </trkpt>
      <trkpt lat="64.03589" lon="10.41467">
        <ele>168.966866</ele>
        <time>2020-08-09T09:25:48.714Z</time>
      </trkpt>
      <trkpt lat="64.03595" lon="10.41483">
        <ele>169.272926</ele>
        <time>2020-08-09T09:25:52.697Z</time>
      </trkpt>
      <trkpt lat="64.03602" lon="10.41498">
        <ele>169.601858</ele>
        <time>2020-08-09T09:25:56.689Z</time>
      </trkpt>
      <trkpt lat="64.0361" lon="10.41514">
        <ele>169.942468</ele>
        <time>2020-08-09T09:26:00.709Z</time>
      </trkpt>
      <trkpt lat="64.03617" lon="10.41532">
        <ele>170.304738</ele>
        <time>2020-08-09T09:26:04.687Z</time>
      </trkpt>
      <trkpt lat="64.03625" lon="10.4155">
        <ele>170.559138</ele>
        <time>2020-08-09T09:26:08.680Z</time>
      </trkpt>
      <trkpt lat="64.03633" lon="10.41565">
        <ele>170.367218</ele>
        <time>2020-08-09T09:26:11.697Z</time>
      </trkpt>
      <trkpt lat="64.0364" lon="10.41583">
        <ele>170.176377</ele>
        <time>2020-08-09T09:26:14.686Z</time>
      </trkpt>
      <trkpt lat="64.03647" lon="10.41602">
        <ele>169.968793</ele>
        <time>2020-08-09T09:26:17.695Z</time>
      </trkpt>
      <trkpt lat="64.03656" lon="10.41622">
        <ele>169.732487</ele>
        <time>2020-08-09T09:26:20.691Z</time>
      </trkpt>
      <trkpt lat="64.03665" lon="10.41643">
        <ele>169.491654</ele>
        <time>2020-08-09T09:26:23.706Z</time>
      </trkpt>
      <trkpt lat="64.03673" lon="10.41666">
        <ele>169.242578</ele>
        <time>2020-08-09T09:26:26.695Z</time>
      </trkpt>
      <trkpt lat="64.0368" lon="10.41682">
        <ele>169.068479</ele>
        <time>2020-08-09T09:26:28.689Z</time>
      </trkpt>
      <trkpt lat="64.03686" lon="10.41698">
        <ele>168.884251</ele>
        <time>2020-08-09T09:26:30.691Z</time>
      </trkpt>
      <trkpt lat="64.03693" lon="10.41715">
        <ele>168.690173</ele>
        <time>2020-08-09T09:26:32.702Z</time>
      </trkpt>
      <trkpt lat="64.037" lon="10.41732">
        <ele>168.50176</ele>
        <time>2020-08-09T09:26:34.702Z</time>
      </trkpt>
      <trkpt lat="64.03707" lon="10.41751">
        <ele>168.299756</ele>
        <time>2020-08-09T09:26:36.693Z</time>
      </trkpt>
      <trkpt lat="64.03714" lon="10.41769">
        <ele>168.098362</ele>
        <time>2020-08-09T09:26:38.686Z</time>
      </trkpt>
      <trkpt lat="64.03721" lon="10.41787">
        <ele>167.89575</ele>
        <time>2020-08-09T09:26:40.695Z</time>
      </trkpt>
      <trkpt lat="64.03728" lon="10.41807">
        <ele>167.692378</ele>
        <time>2020-08-09T09:26:42.701Z</time>
      </trkpt>
      <trkpt lat="64.03735" lon="10.41826">
        <ele>167.482799</ele>
        <time>2020-08-09T09:26:44.684Z</time>
      </trkpt>
      <trkpt lat="64.03742" lon="10.41846">
        <ele>167.275563</ele>
        <time>2020-08-09T09:26:46.724Z</time>
      </trkpt>
      <trkpt lat="64.03749" lon="10.41866">
        <ele>167.256791</ele>
        <time>2020-08-09T09:26:48.698Z</time>
      </trkpt>
      <trkpt lat="64.03756" lon="10.41885">
        <ele>167.304412</ele>
        <time>2020-08-09T09:26:50.730Z</time>
      </trkpt>
      <trkpt lat="64.03764" lon="10.41904">
        <ele>167.351749</ele>
        <time>2020-08-09T09:26:52.692Z</time>
      </trkpt>
      <trkpt lat="64.03771" lon="10.41922">
        <ele>167.397556</ele>
        <time>2020-08-09T09:26:54.700Z</time>
      </trkpt>
      <trkpt lat="64.03778" lon="10.41939">
        <ele>167.442145</ele>
        <time>2020-08-09T09:26:56.680Z</time>
      </trkpt>
      <trkpt lat="64.03785" lon="10.41955">
        <ele>167.485765</ele>
        <time>2020-08-09T09:26:58.698Z</time>
      </trkpt>
      <trkpt lat="64.03792" lon="10.41971">
        <ele>167.526644</ele>
        <time>2020-08-09T09:27:00.697Z</time>
      </trkpt>
      <trkpt lat="64.03801" lon="10.41994">
        <ele>167.58458</ele>
        <time>2020-08-09T09:27:03.679Z</time>
      </trkpt>
      <trkpt lat="64.03807" lon="10.4201">
        <ele>167.625133</ele>
        <time>2020-08-09T09:27:05.699Z</time>
      </trkpt>
      <trkpt lat="64.03813" lon="10.42026">
        <ele>167.664982</ele>
        <time>2020-08-09T09:27:07.736Z</time>
      </trkpt>
      <trkpt lat="64.03822" lon="10.42048">
        <ele>167.719807</ele>
        <time>2020-08-09T09:27:10.687Z</time>
      </trkpt>
      <trkpt lat="64.0383" lon="10.42068">
        <ele>167.770963</ele>
        <time>2020-08-09T09:27:13.700Z</time>
      </trkpt>
      <trkpt lat="64.03837" lon="10.42087">
        <ele>167.817029</ele>
        <time>2020-08-09T09:27:16.679Z</time>
      </trkpt>
      <trkpt lat="64.03843" lon="10.42104">
        <ele>167.859146</ele>
        <time>2020-08-09T09:27:19.693Z</time>
      </trkpt>
      <trkpt lat="64.03849" lon="10.4212">
        <ele>167.898427</ele>
        <time>2020-08-09T09:27:22.706Z</time>
      </trkpt>
      <trkpt lat="64.03857" lon="10.4214">
        <ele>167.948314</ele>
        <time>2020-08-09T09:27:26.687Z</time>
      </trkpt>
      <trkpt lat="64.03864" lon="10.42158">
        <ele>167.996557</ele>
        <time>2020-08-09T09:27:30.696Z</time>
      </trkpt>
      <trkpt lat="64.03871" lon="10.42176">
        <ele>168.370202</ele>
        <time>2020-08-09T09:27:35.700Z</time>
      </trkpt>
      <trkpt lat="64.03877" lon="10.42191">
        <ele>168.678478</ele>
        <time>2020-08-09T09:27:39.681Z</time>
      </trkpt>
      <trkpt lat="64.03884" lon="10.42209">
        <ele>169.027694</ele>
        <time>2020-08-09T09:27:44.703Z</time>
      </trkpt>
      <trkpt lat="64.03891" lon="10.42227">
        <ele>169.381421</ele>
        <time>2020-08-09T09:27:49.723Z</time>
      </trkpt>
      <trkpt lat="64.03898" lon="10.42245">
        <ele>169.734852</ele>
        <time>2020-08-09T09:27:54.681Z</time>
      </trkpt>
      <trkpt lat="64.03904" lon="10.42262">
        <ele>170.06711</ele>
        <time>2020-08-09T09:27:59.688Z</time>
      </trkpt>
      <trkpt lat="64.03911" lon="10.4228">
        <ele>170.409774</ele>
        <time>2020-08-09T09:28:04.722Z</time>
      </trkpt>
      <trkpt lat="64.03917" lon="10.42297">
        <ele>170.738001</ele>
        <time>2020-08-09T09:28:09.726Z</time>
      </trkpt>
      <trkpt lat="64.03924" lon="10.42315">
        <ele>171.097039</ele>
        <time>2020-08-09T09:28:14.706Z</time>
      </trkpt>
      <trkpt lat="64.03931" lon="10.42333">
        <ele>171.458284</ele>
        <time>2020-08-09T09:28:19.723Z</time>
      </trkpt>
      <trkpt lat="64.03937" lon="10.4235">
        <ele>171.764163</ele>
        <time>2020-08-09T09:28:23.691Z</time>
      </trkpt>
      <trkpt lat="64.03943" lon="10.42366">
        <ele>172.090841</ele>
        <time>2020-08-09T09:28:27.696Z</time>
      </trkpt>
      <trkpt lat="64.0395" lon="10.42382">
        <ele>172.425337</ele>
        <time>2020-08-09T09:28:31.687Z</time>
      </trkpt>
      <trkpt lat="64.03957" lon="10.42399">
        <ele>172.772081</ele>
        <time>2020-08-09T09:28:35.687Z</time>
      </trkpt>
      <trkpt lat="64.03965" lon="10.4242">
        <ele>173.179021</ele>
        <time>2020-08-09T09:28:39.682Z</time>
      </trkpt>
      <trkpt lat="64.03971" lon="10.42437">
        <ele>173.501319</ele>
        <time>2020-08-09T09:28:42.700Z</time>
      </trkpt>
      <trkpt lat="64.03977" lon="10.42455">
        <ele>173.846984</ele>
        <time>2020-08-09T09:28:45.683Z</time>
      </trkpt>
      <trkpt lat="64.03985" lon="10.42473">
        <ele>174.006561</ele>
        <time>2020-08-09T09:28:48.693Z</time>
      </trkpt>
      <trkpt lat="64.03993" lon="10.42492">
        <ele>173.781538</ele>
        <time>2020-08-09T09:28:51.702Z</time>
      </trkpt>
      <trkpt lat="64.04001" lon="10.42512">
        <ele>173.542435</ele>
        <time>2020-08-09T09:28:54.702Z</time>
      </trkpt>
      <trkpt lat="64.0401" lon="10.42533">
        <ele>173.292271</ele>
        <time>2020-08-09T09:28:57.730Z</time>
      </trkpt>
      <trkpt lat="64.0402" lon="10.42554">
        <ele>173.035736</ele>
        <time>2020-08-09T09:29:00.701Z</time>
      </trkpt>
      <trkpt lat="64.04026" lon="10.42569">
        <ele>172.851338</ele>
        <time>2020-08-09T09:29:02.707Z</time>
      </trkpt>
      <trkpt lat="64.04033" lon="10.42585">
        <ele>172.665378</ele>
        <time>2020-08-09T09:29:04.686Z</time>
      </trkpt>
      <trkpt lat="64.0404" lon="10.42599">
        <ele>172.480089</ele>
        <time>2020-08-09T09:29:06.689Z</time>
      </trkpt>
      <trkpt lat="64.04048" lon="10.42614">
        <ele>172.284658</ele>
        <time>2020-08-09T09:29:08.717Z</time>
      </trkpt>
      <trkpt lat="64.04056" lon="10.42628">
        <ele>172.094763</ele>
        <time>2020-08-09T09:29:10.713Z</time>
      </trkpt>
      <trkpt lat="64.04063" lon="10.42643">
        <ele>171.902577</ele>
        <time>2020-08-09T09:29:12.682Z</time>
      </trkpt>
      <trkpt lat="64.04071" lon="10.42657">
        <ele>171.707353</ele>
        <time>2020-08-09T09:29:14.686Z</time>
      </trkpt>
      <trkpt lat="64.04079" lon="10.42672">
        <ele>171.506893</ele>
        <time>2020-08-09T09:29:16.706Z</time>
      </trkpt>
      <trkpt lat="64.04087" lon="10.42686">
        <ele>171.309632</ele>
        <time>2020-08-09T09:29:18.715Z</time>
      </trkpt>
      <trkpt lat="64.04096" lon="10.42699">
        <ele>171.112248</ele>
        <time>2020-08-09T09:29:20.684Z</time>
      </trkpt>
      <trkpt lat="64.04104" lon="10.42714">
        <ele>170.902023</ele>
        <time>2020-08-09T09:29:22.720Z</time>
      </trkpt>
      <trkpt lat="64.04113" lon="10.42727">
        <ele>170.694727</ele>
        <time>2020-08-09T09:29:24.675Z</time>
      </trkpt>
      <trkpt lat="64.04122" lon="10.42741">
        <ele>170.605511</ele>
        <time>2020-08-09T09:29:26.727Z</time>
      </trkpt>
      <trkpt lat="64.04132" lon="10.42754">
        <ele>170.640449</ele>
        <time>2020-08-09T09:29:28.722Z</time>
      </trkpt>
      <trkpt lat="64.04141" lon="10.42767">
        <ele>170.676214</ele>
        <time>2020-08-09T09:29:30.683Z</time>
      </trkpt>
      <trkpt lat="64.04151" lon="10.4278">
        <ele>170.713235</ele>
        <time>2020-08-09T09:29:32.705Z</time>
      </trkpt>
      <trkpt lat="64.0416" lon="10.42793">
        <ele>170.749</ele>
        <time>2020-08-09T09:29:34.688Z</time>
      </trkpt>
      <trkpt lat="64.04169" lon="10.42806">
        <ele>170.783929</ele>
        <time>2020-08-09T09:29:36.720Z</time>
      </trkpt>
      <trkpt lat="64.04178" lon="10.4282">
        <ele>170.817629</ele>
        <time>2020-08-09T09:29:38.698Z</time>
      </trkpt>
      <trkpt lat="64.04187" lon="10.42832">
        <ele>170.850474</ele>
        <time>2020-08-09T09:29:40.695Z</time>
      </trkpt>
      <trkpt lat="64.04195" lon="10.42845">
        <ele>170.883443</ele>
        <time>2020-08-09T09:29:42.701Z</time>
      </trkpt>
      <trkpt lat="64.04204" lon="10.42856">
        <ele>170.916048</ele>
        <time>2020-08-09T09:29:44.689Z</time>
      </trkpt>
      <trkpt lat="64.04213" lon="10.42868">
        <ele>170.947953</ele>
        <time>2020-08-09T09:29:46.716Z</time>
      </trkpt>
      <trkpt lat="64.04221" lon="10.4288">
        <ele>170.979875</ele>
        <time>2020-08-09T09:29:48.679Z</time>
      </trkpt>
      <trkpt lat="64.04229" lon="10.42893">
        <ele>171.011319</ele>
        <time>2020-08-09T09:29:50.695Z</time>
      </trkpt>
      <trkpt lat="64.04237" lon="10.42905">
        <ele>171.043967</ele>
        <time>2020-08-09T09:29:52.685Z</time>
      </trkpt>
      <trkpt lat="64.04246" lon="10.42918">
        <ele>171.076389</ele>
        <time>2020-08-09T09:29:54.687Z</time>
      </trkpt>
      <trkpt lat="64.04254" lon="10.42931">
        <ele>171.108095</ele>
        <time>2020-08-09T09:29:56.696Z</time>
      </trkpt>
      <trkpt lat="64.04262" lon="10.42945">
        <ele>171.140217</ele>
        <time>2020-08-09T09:29:58.676Z</time>
      </trkpt>
      <trkpt lat="64.0427" lon="10.42957">
        <ele>171.204663</ele>
        <time>2020-08-09T09:30:00.682Z</time>
      </trkpt>
      <trkpt lat="64.04277" lon="10.4297">
        <ele>171.493999</ele>
        <time>2020-08-09T09:30:02.689Z</time>
      </trkpt>
      <trkpt lat="64.04288" lon="10.42989">
        <ele>171.92177</ele>
        <time>2020-08-09T09:30:05.687Z</time>
      </trkpt>
      <trkpt lat="64.04298" lon="10.43008">
        <ele>172.33814</ele>
        <time>2020-08-09T09:30:08.701Z</time>
      </trkpt>
      <trkpt lat="64.04308" lon="10.43024">
        <ele>172.73772</ele>
        <time>2020-08-09T09:30:11.721Z</time>
      </trkpt>
      <trkpt lat="64.04317" lon="10.4304">
        <ele>173.093829</ele>
        <time>2020-08-09T09:30:14.734Z</time>
      </trkpt>
      <trkpt lat="64.04325" lon="10.43056">
        <ele>173.417864</ele>
        <time>2020-08-09T09:30:17.697Z</time>
      </trkpt>
      <trkpt lat="64.04332" lon="10.43071">
        <ele>173.738601</ele>
        <time>2020-08-09T09:30:20.683Z</time>
      </trkpt>
      <trkpt lat="64.04339" lon="10.43086">
        <ele>174.051356</ele>
        <time>2020-08-09T09:30:23.701Z</time>
      </trkpt>
      <trkpt lat="64.04346" lon="10.43101">
        <ele>174.33804</ele>
        <time>2020-08-09T09:30:26.683Z</time>
      </trkpt>
      <trkpt lat="64.04354" lon="10.43119">
        <ele>174.691286</ele>
        <time>2020-08-09T09:30:30.703Z</time>
      </trkpt>
      <trkpt lat="64.04362" lon="10.43135">
        <ele>175.039757</ele>
        <time>2020-08-09T09:30:34.688Z</time>
      </trkpt>
      <trkpt lat="64.04369" lon="10.43152">
        <ele>175.358318</ele>
        <time>2020-08-09T09:30:38.706Z</time>
      </trkpt>
      <trkpt lat="64.04376" lon="10.4317">
        <ele>175.688294</ele>
        <time>2020-08-09T09:30:42.675Z</time>
      </trkpt>
      <trkpt lat="64.04382" lon="10.43187">
        <ele>176.003607</ele>
        <time>2020-08-09T09:30:46.711Z</time>
      </trkpt>
      <trkpt lat="64.04388" lon="10.43203">
        <ele>176.30953</ele>
        <time>2020-08-09T09:30:50.695Z</time>
      </trkpt>
      <trkpt lat="64.04395" lon="10.43221">
        <ele>176.641604</ele>
        <time>2020-08-09T09:30:55.699Z</time>
      </trkpt>
      <trkpt lat="64.04402" lon="10.4324">
        <ele>177.056287</ele>
        <time>2020-08-09T09:31:00.695Z</time>
      </trkpt>
      <trkpt lat="64.04408" lon="10.4326">
        <ele>177.687624</ele>
        <time>2020-08-09T09:31:05.683Z</time>
      </trkpt>
      <trkpt lat="64.04414" lon="10.43279">
        <ele>178.278115</ele>
        <time>2020-08-09T09:31:10.698Z</time>
      </trkpt>
      <trkpt lat="64.0442" lon="10.43296">
        <ele>178.843199</ele>
        <time>2020-08-09T09:31:15.731Z</time>
      </trkpt>
      <trkpt lat="64.04427" lon="10.43312">
        <ele>179.396433</ele>
        <time>2020-08-09T09:31:20.690Z</time>
      </trkpt>
      <trkpt lat="64.04433" lon="10.43327">
        <ele>179.942325</ele>
        <time>2020-08-09T09:31:25.724Z</time>
      </trkpt>
      <trkpt lat="64.04439" lon="10.43346">
        <ele>180.554561</ele>
        <time>2020-08-09T09:31:31.689Z</time>
      </trkpt>
      <trkpt lat="64.04445" lon="10.43361">
        <ele>181.0826</ele>
        <time>2020-08-09T09:31:36.676Z</time>
      </trkpt>
      <trkpt lat="64.04452" lon="10.43376">
        <ele>181.62108</ele>
        <time>2020-08-09T09:31:41.707Z</time>
      </trkpt>
      <trkpt lat="64.04458" lon="10.43392">
        <ele>182.178256</ele>
        <time>2020-08-09T09:31:46.702Z</time>
      </trkpt>
      <trkpt lat="64.04465" lon="10.43408">
        <ele>182.741554</ele>
        <time>2020-08-09T09:31:51.705Z</time>
      </trkpt>
      <trkpt lat="64.04472" lon="10.43425">
        <ele>183.33377</ele>
        <time>2020-08-09T09:31:57.753Z</time>
      </trkpt>
      <trkpt lat="64.04478" lon="10.43441">
        <ele>183.885014</ele>
        <time>2020-08-09T09:32:02.700Z</time>
      </trkpt>
      <trkpt lat="64.04484" lon="10.43457">
        <ele>184.414991</ele>
        <time>2020-08-09T09:32:07.693Z</time>
      </trkpt>
      <trkpt lat="64.0449" lon="10.43476">
        <ele>185.029251</ele>
        <time>2020-08-09T09:32:13.694Z</time>
      </trkpt>
      <trkpt lat="64.04496" lon="10.43493">
        <ele>185.604737</ele>
        <time>2020-08-09T09:32:19.724Z</time>
      </trkpt>
      <trkpt lat="64.04503" lon="10.43512">
        <ele>186.237626</ele>
        <time>2020-08-09T09:32:25.703Z</time>
      </trkpt>
      <trkpt lat="64.04509" lon="10.43528">
        <ele>186.785377</ele>
        <time>2020-08-09T09:32:30.677Z</time>
      </trkpt>
      <trkpt lat="64.04517" lon="10.43542">
        <ele>187.380338</ele>
        <time>2020-08-09T09:32:35.684Z</time>
      </trkpt>
      <trkpt lat="64.04524" lon="10.43557">
        <ele>187.60947</ele>
        <time>2020-08-09T09:32:40.688Z</time>
      </trkpt>
      <trkpt lat="64.0453" lon="10.43574">
        <ele>187.793441</ele>
        <time>2020-08-09T09:32:45.707Z</time>
      </trkpt>
      <trkpt lat="64.04537" lon="10.4359">
        <ele>187.976251</ele>
        <time>2020-08-09T09:32:50.693Z</time>
      </trkpt>
      <trkpt lat="64.04543" lon="10.43607">
        <ele>188.158336</ele>
        <time>2020-08-09T09:32:55.693Z</time>
      </trkpt>
      <trkpt lat="64.04549" lon="10.43623">
        <ele>188.337962</ele>
        <time>2020-08-09T09:33:00.702Z</time>
      </trkpt>
      <trkpt lat="64.04556" lon="10.43639">
        <ele>188.522786</ele>
        <time>2020-08-09T09:33:05.715Z</time>
      </trkpt>
      <trkpt lat="64.04563" lon="10.43658">
        <ele>188.72607</ele>
        <time>2020-08-09T09:33:11.697Z</time>
      </trkpt>
      <trkpt lat="64.04569" lon="10.43674">
        <ele>188.900679</ele>
        <time>2020-08-09T09:33:16.687Z</time>
      </trkpt>
      <trkpt lat="64.04576" lon="10.43692">
        <ele>189.096101</ele>
        <time>2020-08-09T09:33:21.684Z</time>
      </trkpt>
      <trkpt lat="64.04583" lon="10.43712">
        <ele>189.306495</ele>
        <time>2020-08-09T09:33:26.724Z</time>
      </trkpt>
      <trkpt lat="64.0459" lon="10.43732">
        <ele>189.519775</ele>
        <time>2020-08-09T09:33:31.715Z</time>
      </trkpt>
      <trkpt lat="64.04596" lon="10.43747">
        <ele>189.691263</ele>
        <time>2020-08-09T09:33:35.694Z</time>
      </trkpt>
      <trkpt lat="64.04602" lon="10.43764">
        <ele>189.873973</ele>
        <time>2020-08-09T09:33:39.701Z</time>
      </trkpt>
      <trkpt lat="64.04609" lon="10.43784">
        <ele>190.087381</ele>
        <time>2020-08-09T09:33:43.683Z</time>
      </trkpt>
      <trkpt lat="64.04615" lon="10.438">
        <ele>190.260123</ele>
        <time>2020-08-09T09:33:46.709Z</time>
      </trkpt>
      <trkpt lat="64.04621" lon="10.43815">
        <ele>190.430356</ele>
        <time>2020-08-09T09:33:49.680Z</time>
      </trkpt>
      <trkpt lat="64.04628" lon="10.43832">
        <ele>190.622581</ele>
        <time>2020-08-09T09:33:52.715Z</time>
      </trkpt>
      <trkpt lat="64.04636" lon="10.43849">
        <ele>190.822616</ele>
        <time>2020-08-09T09:33:55.709Z</time>
      </trkpt>
      <trkpt lat="64.04643" lon="10.43867">
        <ele>190.366801</ele>
        <time>2020-08-09T09:33:58.725Z</time>
      </trkpt>
      <trkpt lat="64.04651" lon="10.43887">
        <ele>189.702293</ele>
        <time>2020-08-09T09:34:01.712Z</time>
      </trkpt>
      <trkpt lat="64.0466" lon="10.43908">
        <ele>189.006395</ele>
        <time>2020-08-09T09:34:04.709Z</time>
      </trkpt>
      <trkpt lat="64.04669" lon="10.4393">
        <ele>188.267466</ele>
        <time>2020-08-09T09:34:07.687Z</time>
      </trkpt>
      <trkpt lat="64.04677" lon="10.43947">
        <ele>187.712078</ele>
        <time>2020-08-09T09:34:09.715Z</time>
      </trkpt>
      <trkpt lat="64.04685" lon="10.43963">
        <ele>187.112435</ele>
        <time>2020-08-09T09:34:11.689Z</time>
      </trkpt>
      <trkpt lat="64.04693" lon="10.43981">
        <ele>186.479484</ele>
        <time>2020-08-09T09:34:13.686Z</time>
      </trkpt>
      <trkpt lat="64.04703" lon="10.43999">
        <ele>185.810643</ele>
        <time>2020-08-09T09:34:15.697Z</time>
      </trkpt>
      <trkpt lat="64.04712" lon="10.44017">
        <ele>185.118252</ele>
        <time>2020-08-09T09:34:17.688Z</time>
      </trkpt>
      <trkpt lat="64.04723" lon="10.44037">
        <ele>184.352908</ele>
        <time>2020-08-09T09:34:19.701Z</time>
      </trkpt>
      <trkpt lat="64.04735" lon="10.44058">
        <ele>183.53799</ele>
        <time>2020-08-09T09:34:21.709Z</time>
      </trkpt>
      <trkpt lat="64.04747" lon="10.4408">
        <ele>182.658903</ele>
        <time>2020-08-09T09:34:23.685Z</time>
      </trkpt>
      <trkpt lat="64.04761" lon="10.44105">
        <ele>181.729986</ele>
        <time>2020-08-09T09:34:25.691Z</time>
      </trkpt>
      <trkpt lat="64.04774" lon="10.44131">
        <ele>180.784889</ele>
        <time>2020-08-09T09:34:27.719Z</time>
      </trkpt>
      <trkpt lat="64.04787" lon="10.44159">
        <ele>179.851531</ele>
        <time>2020-08-09T09:34:29.686Z</time>
      </trkpt>
      <trkpt lat="64.04794" lon="10.44173">
        <ele>179.378353</ele>
        <time>2020-08-09T09:34:30.704Z</time>
      </trkpt>
      <trkpt lat="64.048" lon="10.44187">
        <ele>178.904246</ele>
        <time>2020-08-09T09:34:31.740Z</time>
      </trkpt>
      <trkpt lat="64.04807" lon="10.44203">
        <ele>178.429455</ele>
        <time>2020-08-09T09:34:32.702Z</time>
      </trkpt>
      <trkpt lat="64.04813" lon="10.44218">
        <ele>177.96206</ele>
        <time>2020-08-09T09:34:33.685Z</time>
      </trkpt>
      <trkpt lat="64.04819" lon="10.44234">
        <ele>177.48949</ele>
        <time>2020-08-09T09:34:34.705Z</time>
      </trkpt>
      <trkpt lat="64.0483" lon="10.44266">
        <ele>176.568988</ele>
        <time>2020-08-09T09:34:36.720Z</time>
      </trkpt>
      <trkpt lat="64.04841" lon="10.44297">
        <ele>175.666057</ele>
        <time>2020-08-09T09:34:38.685Z</time>
      </trkpt>
      <trkpt lat="64.04852" lon="10.44328">
        <ele>174.760823</ele>
        <time>2020-08-09T09:34:40.715Z</time>
      </trkpt>
      <trkpt lat="64.04863" lon="10.44359">
        <ele>173.86441</ele>
        <time>2020-08-09T09:34:42.706Z</time>
      </trkpt>
      <trkpt lat="64.04874" lon="10.44389">
        <ele>172.970337</ele>
        <time>2020-08-09T09:34:44.704Z</time>
      </trkpt>
      <trkpt lat="64.04886" lon="10.44416">
        <ele>172.116118</ele>
        <time>2020-08-09T09:34:46.720Z</time>
      </trkpt>
      <trkpt lat="64.04898" lon="10.4444">
        <ele>171.549302</ele>
        <time>2020-08-09T09:34:48.691Z</time>
      </trkpt>
      <trkpt lat="64.04911" lon="10.44461">
        <ele>171.263085</ele>
        <time>2020-08-09T09:34:50.692Z</time>
      </trkpt>
      <trkpt lat="64.04924" lon="10.4448">
        <ele>170.996979</ele>
        <time>2020-08-09T09:34:52.716Z</time>
      </trkpt>
      <trkpt lat="64.04938" lon="10.44499">
        <ele>170.711062</ele>
        <time>2020-08-09T09:34:54.724Z</time>
      </trkpt>
      <trkpt lat="64.04952" lon="10.44519">
        <ele>170.412007</ele>
        <time>2020-08-09T09:34:56.700Z</time>
      </trkpt>
      <trkpt lat="64.04967" lon="10.44534">
        <ele>170.11653</ele>
        <time>2020-08-09T09:34:58.703Z</time>
      </trkpt>
      <trkpt lat="64.04983" lon="10.44542">
        <ele>169.830656</ele>
        <time>2020-08-09T09:35:00.707Z</time>
      </trkpt>
      <trkpt lat="64.04999" lon="10.44549">
        <ele>169.535377</ele>
        <time>2020-08-09T09:35:02.698Z</time>
      </trkpt>
      <trkpt lat="64.05016" lon="10.44554">
        <ele>169.241863</ele>
        <time>2020-08-09T09:35:04.691Z</time>
      </trkpt>
      <trkpt lat="64.05031" lon="10.44557">
        <ele>168.963711</ele>
        <time>2020-08-09T09:35:06.696Z</time>
      </trkpt>
      <trkpt lat="64.05046" lon="10.4456">
        <ele>168.70569</ele>
        <time>2020-08-09T09:35:08.721Z</time>
      </trkpt>
      <trkpt lat="64.05059" lon="10.44561">
        <ele>168.57796</ele>
        <time>2020-08-09T09:35:10.703Z</time>
      </trkpt>
      <trkpt lat="64.0507" lon="10.44563">
        <ele>169.195447</ele>
        <time>2020-08-09T09:35:12.693Z</time>
      </trkpt>
      <trkpt lat="64.0508" lon="10.44563">
        <ele>169.761995</ele>
        <time>2020-08-09T09:35:14.710Z</time>
      </trkpt>
      <trkpt lat="64.05089" lon="10.44565">
        <ele>170.284652</ele>
        <time>2020-08-09T09:35:16.721Z</time>
      </trkpt>
      <trkpt lat="64.05099" lon="10.44567">
        <ele>170.801897</ele>
        <time>2020-08-09T09:35:18.692Z</time>
      </trkpt>
      <trkpt lat="64.05111" lon="10.4457">
        <ele>171.51288</ele>
        <time>2020-08-09T09:35:21.686Z</time>
      </trkpt>
      <trkpt lat="64.05122" lon="10.44575">
        <ele>172.135646</ele>
        <time>2020-08-09T09:35:24.763Z</time>
      </trkpt>
      <trkpt lat="64.05131" lon="10.44579">
        <ele>172.663081</ele>
        <time>2020-08-09T09:35:27.728Z</time>
      </trkpt>
      <trkpt lat="64.05142" lon="10.44584">
        <ele>173.252384</ele>
        <time>2020-08-09T09:35:31.722Z</time>
      </trkpt>
      <trkpt lat="64.05152" lon="10.44592">
        <ele>173.864491</ele>
        <time>2020-08-09T09:35:35.705Z</time>
      </trkpt>
      <trkpt lat="64.05161" lon="10.44598">
        <ele>174.405058</ele>
        <time>2020-08-09T09:35:39.688Z</time>
      </trkpt>
      <trkpt lat="64.05171" lon="10.44606">
        <ele>175.00272</ele>
        <time>2020-08-09T09:35:44.685Z</time>
      </trkpt>
      <trkpt lat="64.05181" lon="10.44616">
        <ele>175.616623</ele>
        <time>2020-08-09T09:35:49.701Z</time>
      </trkpt>
      <trkpt lat="64.05191" lon="10.44626">
        <ele>176.185708</ele>
        <time>2020-08-09T09:35:53.686Z</time>
      </trkpt>
      <trkpt lat="64.052" lon="10.44635">
        <ele>176.780578</ele>
        <time>2020-08-09T09:35:57.725Z</time>
      </trkpt>
      <trkpt lat="64.0521" lon="10.44645">
        <ele>177.364889</ele>
        <time>2020-08-09T09:36:01.687Z</time>
      </trkpt>
      <trkpt lat="64.05219" lon="10.44657">
        <ele>177.95276</ele>
        <time>2020-08-09T09:36:05.726Z</time>
      </trkpt>
      <trkpt lat="64.05228" lon="10.44669">
        <ele>178.518657</ele>
        <time>2020-08-09T09:36:09.697Z</time>
      </trkpt>
      <trkpt lat="64.05237" lon="10.44683">
        <ele>178.572058</ele>
        <time>2020-08-09T09:36:13.700Z</time>
      </trkpt>
      <trkpt lat="64.05246" lon="10.44697">
        <ele>178.560184</ele>
        <time>2020-08-09T09:36:17.705Z</time>
      </trkpt>
      <trkpt lat="64.05254" lon="10.44714">
        <ele>178.547868</ele>
        <time>2020-08-09T09:36:21.685Z</time>
      </trkpt>
      <trkpt lat="64.05263" lon="10.44729">
        <ele>178.535974</ele>
        <time>2020-08-09T09:36:25.689Z</time>
      </trkpt>
      <trkpt lat="64.05272" lon="10.44745">
        <ele>178.523557</ele>
        <time>2020-08-09T09:36:29.691Z</time>
      </trkpt>
      <trkpt lat="64.05282" lon="10.4476">
        <ele>178.51015</ele>
        <time>2020-08-09T09:36:33.687Z</time>
      </trkpt>
      <trkpt lat="64.05289" lon="10.44774">
        <ele>178.500039</ele>
        <time>2020-08-09T09:36:36.691Z</time>
      </trkpt>
      <trkpt lat="64.05297" lon="10.44788">
        <ele>178.4891</ele>
        <time>2020-08-09T09:36:39.686Z</time>
      </trkpt>
      <trkpt lat="64.05305" lon="10.44802">
        <ele>178.47844</ele>
        <time>2020-08-09T09:36:42.696Z</time>
      </trkpt>
      <trkpt lat="64.05312" lon="10.44814">
        <ele>178.468331</ele>
        <time>2020-08-09T09:36:45.700Z</time>
      </trkpt>
      <trkpt lat="64.05321" lon="10.44829">
        <ele>178.456958</ele>
        <time>2020-08-09T09:36:48.682Z</time>
      </trkpt>
      <trkpt lat="64.05328" lon="10.44841">
        <ele>178.446887</ele>
        <time>2020-08-09T09:36:51.696Z</time>
      </trkpt>
      <trkpt lat="64.05337" lon="10.44855">
        <ele>178.43528</ele>
        <time>2020-08-09T09:36:54.699Z</time>
      </trkpt>
      <trkpt lat="64.05345" lon="10.4487">
        <ele>178.423531</ele>
        <time>2020-08-09T09:36:57.682Z</time>
      </trkpt>
      <trkpt lat="64.05353" lon="10.44885">
        <ele>178.411983</ele>
        <time>2020-08-09T09:37:00.722Z</time>
      </trkpt>
      <trkpt lat="64.05362" lon="10.44901">
        <ele>178.399683</ele>
        <time>2020-08-09T09:37:03.689Z</time>
      </trkpt>
      <trkpt lat="64.05372" lon="10.44918">
        <ele>178.386632</ele>
        <time>2020-08-09T09:37:06.690Z</time>
      </trkpt>
      <trkpt lat="64.05382" lon="10.44935">
        <ele>178.321082</ele>
        <time>2020-08-09T09:37:09.691Z</time>
      </trkpt>
      <trkpt lat="64.0539" lon="10.44948">
        <ele>178.273897</ele>
        <time>2020-08-09T09:37:11.717Z</time>
      </trkpt>
      <trkpt lat="64.05398" lon="10.44961">
        <ele>178.224699</ele>
        <time>2020-08-09T09:37:13.714Z</time>
      </trkpt>
      <trkpt lat="64.05406" lon="10.44974">
        <ele>178.174696</ele>
        <time>2020-08-09T09:37:15.694Z</time>
      </trkpt>
      <trkpt lat="64.05414" lon="10.44988">
        <ele>178.123889</ele>
        <time>2020-08-09T09:37:17.682Z</time>
      </trkpt>
      <trkpt lat="64.05422" lon="10.45002">
        <ele>178.073071</ele>
        <time>2020-08-09T09:37:19.689Z</time>
      </trkpt>
      <trkpt lat="64.0543" lon="10.45015">
        <ele>178.021017</ele>
        <time>2020-08-09T09:37:21.685Z</time>
      </trkpt>
      <trkpt lat="64.05438" lon="10.45028">
        <ele>177.970429</ele>
        <time>2020-08-09T09:37:23.703Z</time>
      </trkpt>
      <trkpt lat="64.05447" lon="10.45041">
        <ele>177.919171</ele>
        <time>2020-08-09T09:37:25.693Z</time>
      </trkpt>
      <trkpt lat="64.05455" lon="10.45054">
        <ele>177.867871</ele>
        <time>2020-08-09T09:37:27.684Z</time>
      </trkpt>
      <trkpt lat="64.05464" lon="10.45068">
        <ele>177.815109</ele>
        <time>2020-08-09T09:37:29.699Z</time>
      </trkpt>
      <trkpt lat="64.05472" lon="10.4508">
        <ele>177.762899</ele>
        <time>2020-08-09T09:37:31.718Z</time>
      </trkpt>
      <trkpt lat="64.0548" lon="10.45092">
        <ele>177.713897</ele>
        <time>2020-08-09T09:37:33.694Z</time>
      </trkpt>
      <trkpt lat="64.05488" lon="10.45104">
        <ele>177.665391</ele>
        <time>2020-08-09T09:37:35.723Z</time>
      </trkpt>
      <trkpt lat="64.05496" lon="10.45115">
        <ele>177.618727</ele>
        <time>2020-08-09T09:37:37.713Z</time>
      </trkpt>
      <trkpt lat="64.05504" lon="10.45125">
        <ele>177.572952</ele>
        <time>2020-08-09T09:37:39.718Z</time>
      </trkpt>
      <trkpt lat="64.05516" lon="10.4514">
        <ele>177.506492</ele>
        <time>2020-08-09T09:37:42.695Z</time>
      </trkpt>
      <trkpt lat="64.05526" lon="10.45154">
        <ele>177.540915</ele>
        <time>2020-08-09T09:37:45.716Z</time>
      </trkpt>
      <trkpt lat="64.05537" lon="10.45168">
        <ele>177.665829</ele>
        <time>2020-08-09T09:37:48.700Z</time>
      </trkpt>
      <trkpt lat="64.05546" lon="10.4518">
        <ele>177.779672</ele>
        <time>2020-08-09T09:37:51.683Z</time>
      </trkpt>
      <trkpt lat="64.05555" lon="10.45191">
        <ele>177.881242</ele>
        <time>2020-08-09T09:37:54.699Z</time>
      </trkpt>
      <trkpt lat="64.05563" lon="10.45202">
        <ele>177.979463</ele>
        <time>2020-08-09T09:37:57.707Z</time>
      </trkpt>
      <trkpt lat="64.05571" lon="10.45213">
        <ele>178.081033</ele>
        <time>2020-08-09T09:38:00.717Z</time>
      </trkpt>
      <trkpt lat="64.05582" lon="10.45225">
        <ele>178.205607</ele>
        <time>2020-08-09T09:38:04.694Z</time>
      </trkpt>
      <trkpt lat="64.05592" lon="10.45239">
        <ele>178.325774</ele>
        <time>2020-08-09T09:38:08.707Z</time>
      </trkpt>
      <trkpt lat="64.05601" lon="10.45251">
        <ele>178.438899</ele>
        <time>2020-08-09T09:38:12.695Z</time>
      </trkpt>
      <trkpt lat="64.0561" lon="10.45263">
        <ele>178.54711</ele>
        <time>2020-08-09T09:38:16.684Z</time>
      </trkpt>
      <trkpt lat="64.05619" lon="10.45275">
        <ele>178.657327</ele>
        <time>2020-08-09T09:38:20.698Z</time>
      </trkpt>
      <trkpt lat="64.05628" lon="10.45286">
        <ele>178.762971</ele>
        <time>2020-08-09T09:38:24.704Z</time>
      </trkpt>
      <trkpt lat="64.05638" lon="10.45299">
        <ele>178.884064</ele>
        <time>2020-08-09T09:38:29.692Z</time>
      </trkpt>
      <trkpt lat="64.05648" lon="10.45312">
        <ele>178.999471</ele>
        <time>2020-08-09T09:38:33.686Z</time>
      </trkpt>
      <trkpt lat="64.05657" lon="10.45323">
        <ele>179.103981</ele>
        <time>2020-08-09T09:38:37.715Z</time>
      </trkpt>
      <trkpt lat="64.05666" lon="10.45335">
        <ele>179.216471</ele>
        <time>2020-08-09T09:38:42.683Z</time>
      </trkpt>
      <trkpt lat="64.05676" lon="10.45347">
        <ele>179.330747</ele>
        <time>2020-08-09T09:38:47.718Z</time>
      </trkpt>
      <trkpt lat="64.05685" lon="10.4536">
        <ele>179.696356</ele>
        <time>2020-08-09T09:38:52.727Z</time>
      </trkpt>
      <trkpt lat="64.05693" lon="10.45369">
        <ele>180.045427</ele>
        <time>2020-08-09T09:38:56.708Z</time>
      </trkpt>
      <trkpt lat="64.05701" lon="10.4538">
        <ele>180.397262</ele>
        <time>2020-08-09T09:39:00.701Z</time>
      </trkpt>
      <trkpt lat="64.05709" lon="10.4539">
        <ele>180.754371</ele>
        <time>2020-08-09T09:39:04.727Z</time>
      </trkpt>
      <trkpt lat="64.05717" lon="10.45399">
        <ele>181.108065</ele>
        <time>2020-08-09T09:39:08.688Z</time>
      </trkpt>
      <trkpt lat="64.05727" lon="10.4541">
        <ele>181.507208</ele>
        <time>2020-08-09T09:39:13.698Z</time>
      </trkpt>
      <trkpt lat="64.05735" lon="10.4542">
        <ele>181.86697</ele>
        <time>2020-08-09T09:39:17.686Z</time>
      </trkpt>
      <trkpt lat="64.05745" lon="10.45431">
        <ele>182.301692</ele>
        <time>2020-08-09T09:39:22.699Z</time>
      </trkpt>
      <trkpt lat="64.05754" lon="10.45442">
        <ele>182.688222</ele>
        <time>2020-08-09T09:39:27.718Z</time>
      </trkpt>
      <trkpt lat="64.05763" lon="10.45452">
        <ele>183.073686</ele>
        <time>2020-08-09T09:39:32.684Z</time>
      </trkpt>
      <trkpt lat="64.05772" lon="10.45462">
        <ele>183.461908</ele>
        <time>2020-08-09T09:39:37.698Z</time>
      </trkpt>
      <trkpt lat="64.05781" lon="10.45471">
        <ele>183.829801</ele>
        <time>2020-08-09T09:39:42.736Z</time>
      </trkpt>
      <trkpt lat="64.05789" lon="10.45481">
        <ele>184.210325</ele>
        <time>2020-08-09T09:39:47.680Z</time>
      </trkpt>
      <trkpt lat="64.05798" lon="10.4549">
        <ele>184.570857</ele>
        <time>2020-08-09T09:39:52.684Z</time>
      </trkpt>
      <trkpt lat="64.05807" lon="10.45501">
        <ele>184.954335</ele>
        <time>2020-08-09T09:39:57.706Z</time>
      </trkpt>
      <trkpt lat="64.05816" lon="10.4551">
        <ele>185.353764</ele>
        <time>2020-08-09T09:40:02.697Z</time>
      </trkpt>
      <trkpt lat="64.05826" lon="10.45521">
        <ele>185.786887</ele>
        <time>2020-08-09T09:40:07.701Z</time>
      </trkpt>
      <trkpt lat="64.05835" lon="10.4553">
        <ele>186.151917</ele>
        <time>2020-08-09T09:40:11.701Z</time>
      </trkpt>
      <trkpt lat="64.05844" lon="10.4554">
        <ele>186.523811</ele>
        <time>2020-08-09T09:40:16.698Z</time>
      </trkpt>
      <trkpt lat="64.05853" lon="10.45549">
        <ele>186.886518</ele>
        <time>2020-08-09T09:40:21.689Z</time>
      </trkpt>
      <trkpt lat="64.05861" lon="10.45557">
        <ele>187.223213</ele>
        <time>2020-08-09T09:40:26.709Z</time>
      </trkpt>
      <trkpt lat="64.05869" lon="10.45566">
        <ele>187.562934</ele>
        <time>2020-08-09T09:40:30.682Z</time>
      </trkpt>
      <trkpt lat="64.05878" lon="10.45576">
        <ele>187.941385</ele>
        <time>2020-08-09T09:40:34.704Z</time>
      </trkpt>
      <trkpt lat="64.05888" lon="10.45586">
        <ele>188.337297</ele>
        <time>2020-08-09T09:40:39.703Z</time>
      </trkpt>
      <trkpt lat="64.05896" lon="10.45596">
        <ele>188.688039</ele>
        <time>2020-08-09T09:40:43.708Z</time>
      </trkpt>
      <trkpt lat="64.05906" lon="10.45608">
        <ele>189.105669</ele>
        <time>2020-08-09T09:40:48.702Z</time>
      </trkpt>
      <trkpt lat="64.05916" lon="10.45618">
        <ele>189.507666</ele>
        <time>2020-08-09T09:40:53.737Z</time>
      </trkpt>
      <trkpt lat="64.05924" lon="10.45627">
        <ele>189.844037</ele>
        <time>2020-08-09T09:40:57.688Z</time>
      </trkpt>
      <trkpt lat="64.05933" lon="10.45636">
        <ele>190.190477</ele>
        <time>2020-08-09T09:41:01.682Z</time>
      </trkpt>
      <trkpt lat="64.05941" lon="10.45645">
        <ele>190.534851</ele>
        <time>2020-08-09T09:41:05.688Z</time>
      </trkpt>
      <trkpt lat="64.05951" lon="10.45656">
        <ele>190.94916</ele>
        <time>2020-08-09T09:41:10.703Z</time>
      </trkpt>
      <trkpt lat="64.0596" lon="10.45666">
        <ele>191.308761</ele>
        <time>2020-08-09T09:41:14.732Z</time>
      </trkpt>
      <trkpt lat="64.05969" lon="10.45676">
        <ele>191.686489</ele>
        <time>2020-08-09T09:41:18.683Z</time>
      </trkpt>
      <trkpt lat="64.05978" lon="10.45686">
        <ele>192.075604</ele>
        <time>2020-08-09T09:41:22.713Z</time>
      </trkpt>
      <trkpt lat="64.05987" lon="10.45697">
        <ele>192.460039</ele>
        <time>2020-08-09T09:41:26.692Z</time>
      </trkpt>
      <trkpt lat="64.05997" lon="10.45706">
        <ele>192.845086</ele>
        <time>2020-08-09T09:41:30.693Z</time>
      </trkpt>
      <trkpt lat="64.06007" lon="10.45716">
        <ele>193.080606</ele>
        <time>2020-08-09T09:41:34.714Z</time>
      </trkpt>
      <trkpt lat="64.06017" lon="10.45727">
        <ele>193.221324</ele>
        <time>2020-08-09T09:41:38.698Z</time>
      </trkpt>
      <trkpt lat="64.06027" lon="10.45737">
        <ele>193.357506</ele>
        <time>2020-08-09T09:41:42.712Z</time>
      </trkpt>
      <trkpt lat="64.06037" lon="10.45748">
        <ele>193.492092</ele>
        <time>2020-08-09T09:41:46.745Z</time>
      </trkpt>
      <trkpt lat="64.06046" lon="10.45759">
        <ele>193.622525</ele>
        <time>2020-08-09T09:41:50.721Z</time>
      </trkpt>
      <trkpt lat="64.06056" lon="10.4577">
        <ele>193.761477</ele>
        <time>2020-08-09T09:41:54.697Z</time>
      </trkpt>
      <trkpt lat="64.06066" lon="10.45782">
        <ele>193.900672</ele>
        <time>2020-08-09T09:41:58.715Z</time>
      </trkpt>
      <trkpt lat="64.06076" lon="10.45792">
        <ele>194.035308</ele>
        <time>2020-08-09T09:42:02.704Z</time>
      </trkpt>
      <trkpt lat="64.06085" lon="10.45802">
        <ele>194.166051</ele>
        <time>2020-08-09T09:42:06.704Z</time>
      </trkpt>
      <trkpt lat="64.06095" lon="10.45812">
        <ele>194.296559</ele>
        <time>2020-08-09T09:42:10.689Z</time>
      </trkpt>
      <trkpt lat="64.06105" lon="10.45823">
        <ele>194.436153</ele>
        <time>2020-08-09T09:42:14.709Z</time>
      </trkpt>
      <trkpt lat="64.06115" lon="10.45834">
        <ele>194.56915</ele>
        <time>2020-08-09T09:42:18.700Z</time>
      </trkpt>
      <trkpt lat="64.06124" lon="10.45844">
        <ele>194.698113</ele>
        <time>2020-08-09T09:42:22.697Z</time>
      </trkpt>
      <trkpt lat="64.06133" lon="10.45854">
        <ele>194.818449</ele>
        <time>2020-08-09T09:42:25.706Z</time>
      </trkpt>
      <trkpt lat="64.06143" lon="10.45865">
        <ele>194.967986</ele>
        <time>2020-08-09T09:42:29.686Z</time>
      </trkpt>
      <trkpt lat="64.06154" lon="10.45877">
        <ele>195.118216</ele>
        <time>2020-08-09T09:42:33.707Z</time>
      </trkpt>
      <trkpt lat="64.06165" lon="10.45887">
        <ele>195.28301</ele>
        <time>2020-08-09T09:42:37.696Z</time>
      </trkpt>
      <trkpt lat="64.06175" lon="10.45898">
        <ele>195.641217</ele>
        <time>2020-08-09T09:42:41.706Z</time>
      </trkpt>
      <trkpt lat="64.06184" lon="10.45908">
        <ele>195.968723</ele>
        <time>2020-08-09T09:42:45.699Z</time>
      </trkpt>
      <trkpt lat="64.06193" lon="10.45916">
        <ele>196.252654</ele>
        <time>2020-08-09T09:42:49.702Z</time>
      </trkpt>
      <trkpt lat="64.06202" lon="10.45927">
        <ele>196.588942</ele>
        <time>2020-08-09T09:42:53.699Z</time>
      </trkpt>
      <trkpt lat="64.06212" lon="10.45939">
        <ele>196.92822</ele>
        <time>2020-08-09T09:42:57.687Z</time>
      </trkpt>
      <trkpt lat="64.06222" lon="10.45951">
        <ele>197.276593</ele>
        <time>2020-08-09T09:43:01.697Z</time>
      </trkpt>
      <trkpt lat="64.06232" lon="10.45962">
        <ele>197.636118</ele>
        <time>2020-08-09T09:43:05.729Z</time>
      </trkpt>
      <trkpt lat="64.06242" lon="10.45973">
        <ele>197.971791</ele>
        <time>2020-08-09T09:43:09.708Z</time>
      </trkpt>
      <trkpt lat="64.06251" lon="10.45984">
        <ele>198.306853</ele>
        <time>2020-08-09T09:43:13.702Z</time>
      </trkpt>
      <trkpt lat="64.06261" lon="10.45995">
        <ele>198.644717</ele>
        <time>2020-08-09T09:43:17.698Z</time>
      </trkpt>
      <trkpt lat="64.0627" lon="10.46006">
        <ele>198.953528</ele>
        <time>2020-08-09T09:43:21.685Z</time>
      </trkpt>
      <trkpt lat="64.06279" lon="10.46015">
        <ele>199.269089</ele>
        <time>2020-08-09T09:43:25.698Z</time>
      </trkpt>
      <trkpt lat="64.06287" lon="10.46024">
        <ele>199.549426</ele>
        <time>2020-08-09T09:43:29.681Z</time>
      </trkpt>
      <trkpt lat="64.06296" lon="10.46035">
        <ele>199.870856</ele>
        <time>2020-08-09T09:43:34.695Z</time>
      </trkpt>
      <trkpt lat="64.06305" lon="10.46045">
        <ele>200.180848</ele>
        <time>2020-08-09T09:43:39.717Z</time>
      </trkpt>
      <trkpt lat="64.06315" lon="10.46056">
        <ele>200.518376</ele>
        <time>2020-08-09T09:43:44.687Z</time>
      </trkpt>
      <trkpt lat="64.06324" lon="10.46066">
        <ele>200.831776</ele>
        <time>2020-08-09T09:43:49.698Z</time>
      </trkpt>
      <trkpt lat="64.06332" lon="10.46076">
        <ele>201.061393</ele>
        <time>2020-08-09T09:43:53.687Z</time>
      </trkpt>
      <trkpt lat="64.0634" lon="10.46088">
        <ele>201.304792</ele>
        <time>2020-08-09T09:43:58.708Z</time>
      </trkpt>
      <trkpt lat="64.06349" lon="10.461">
        <ele>201.554884</ele>
        <time>2020-08-09T09:44:04.695Z</time>
      </trkpt>
      <trkpt lat="64.06357" lon="10.46111">
        <ele>201.776508</ele>
        <time>2020-08-09T09:44:09.748Z</time>
      </trkpt>
      <trkpt lat="64.06365" lon="10.46122">
        <ele>202.005632</ele>
        <time>2020-08-09T09:44:14.733Z</time>
      </trkpt>
      <trkpt lat="64.06374" lon="10.46134">
        <ele>202.260189</ele>
        <time>2020-08-09T09:44:19.702Z</time>
      </trkpt>
      <trkpt lat="64.06382" lon="10.46145">
        <ele>202.499405</ele>
        <time>2020-08-09T09:44:24.723Z</time>
      </trkpt>
      <trkpt lat="64.06391" lon="10.46157">
        <ele>202.750421</ele>
        <time>2020-08-09T09:44:29.716Z</time>
      </trkpt>
      <trkpt lat="64.064" lon="10.46169">
        <ele>203.003949</ele>
        <time>2020-08-09T09:44:34.698Z</time>
      </trkpt>
      <trkpt lat="64.0641" lon="10.46181">
        <ele>203.277307</ele>
        <time>2020-08-09T09:44:39.699Z</time>
      </trkpt>
      <trkpt lat="64.06418" lon="10.46193">
        <ele>203.508095</ele>
        <time>2020-08-09T09:44:43.700Z</time>
      </trkpt>
      <trkpt lat="64.06426" lon="10.46206">
        <ele>203.752627</ele>
        <time>2020-08-09T09:44:47.696Z</time>
      </trkpt>
      <trkpt lat="64.06434" lon="10.4622">
        <ele>204.005803</ele>
        <time>2020-08-09T09:44:51.707Z</time>
      </trkpt>
      <trkpt lat="64.06443" lon="10.46234">
        <ele>204.273166</ele>
        <time>2020-08-09T09:44:55.707Z</time>
      </trkpt>
      <trkpt lat="64.06452" lon="10.46247">
        <ele>204.539351</ele>
        <time>2020-08-09T09:44:59.692Z</time>
      </trkpt>
      <trkpt lat="64.06461" lon="10.46261">
        <ele>204.799221</ele>
        <time>2020-08-09T09:45:03.683Z</time>
      </trkpt>
      <trkpt lat="64.06471" lon="10.46276">
        <ele>205.081521</ele>
        <time>2020-08-09T09:45:07.698Z</time>
      </trkpt>
      <trkpt lat="64.0648" lon="10.4629">
        <ele>205.281262</ele>
        <time>2020-08-09T09:45:11.680Z</time>
      </trkpt>
      <trkpt lat="64.0649" lon="10.46305">
        <ele>205.327202</ele>
        <time>2020-08-09T09:45:15.686Z</time>
      </trkpt>
      <trkpt lat="64.06497" lon="10.46317">
        <ele>205.364001</ele>
        <time>2020-08-09T09:45:18.703Z</time>
      </trkpt>
      <trkpt lat="64.06505" lon="10.46328">
        <ele>205.401277</ele>
        <time>2020-08-09T09:45:21.681Z</time>
      </trkpt>
      <trkpt lat="64.06513" lon="10.4634">
        <ele>205.438745</ele>
        <time>2020-08-09T09:45:24.688Z</time>
      </trkpt>
      <trkpt lat="64.06521" lon="10.46352">
        <ele>205.475975</ele>
        <time>2020-08-09T09:45:27.697Z</time>
      </trkpt>
      <trkpt lat="64.06529" lon="10.46362">
        <ele>205.514245</ele>
        <time>2020-08-09T09:45:30.684Z</time>
      </trkpt>
      <trkpt lat="64.06539" lon="10.46379">
        <ele>205.562918</ele>
        <time>2020-08-09T09:45:34.714Z</time>
      </trkpt>
      <trkpt lat="64.06546" lon="10.46392">
        <ele>205.599974</ele>
        <time>2020-08-09T09:45:37.705Z</time>
      </trkpt>
      <trkpt lat="64.06553" lon="10.46403">
        <ele>205.636209</ele>
        <time>2020-08-09T09:45:40.703Z</time>
      </trkpt>
      <trkpt lat="64.06562" lon="10.46416">
        <ele>205.678721</ele>
        <time>2020-08-09T09:45:44.709Z</time>
      </trkpt>
      <trkpt lat="64.06572" lon="10.46431">
        <ele>205.725796</ele>
        <time>2020-08-09T09:45:48.706Z</time>
      </trkpt>
      <trkpt lat="64.0658" lon="10.46443">
        <ele>205.762262</ele>
        <time>2020-08-09T09:45:51.685Z</time>
      </trkpt>
      <trkpt lat="64.06589" lon="10.46458">
        <ele>205.809295</ele>
        <time>2020-08-09T09:45:55.688Z</time>
      </trkpt>
      <trkpt lat="64.06597" lon="10.4647">
        <ele>205.845631</ele>
        <time>2020-08-09T09:45:58.688Z</time>
      </trkpt>
      <trkpt lat="64.06604" lon="10.46482">
        <ele>205.883488</ele>
        <time>2020-08-09T09:46:01.723Z</time>
      </trkpt>
      <trkpt lat="64.06612" lon="10.46494">
        <ele>205.919481</ele>
        <time>2020-08-09T09:46:04.712Z</time>
      </trkpt>
      <trkpt lat="64.06621" lon="10.46508">
        <ele>205.965259</ele>
        <time>2020-08-09T09:46:08.701Z</time>
      </trkpt>
      <trkpt lat="64.0663" lon="10.46524">
        <ele>206.153869</ele>
        <time>2020-08-09T09:46:12.691Z</time>
      </trkpt>
      <trkpt lat="64.06639" lon="10.46538">
        <ele>206.45991</ele>
        <time>2020-08-09T09:46:16.716Z</time>
      </trkpt>
      <trkpt lat="64.06648" lon="10.46553">
        <ele>206.783381</ele>
        <time>2020-08-09T09:46:20.694Z</time>
      </trkpt>
      <trkpt lat="64.06658" lon="10.46568">
        <ele>207.107022</ele>
        <time>2020-08-09T09:46:24.696Z</time>
      </trkpt>
      <trkpt lat="64.06666" lon="10.46582">
        <ele>207.412335</ele>
        <time>2020-08-09T09:46:28.688Z</time>
      </trkpt>
      <trkpt lat="64.06675" lon="10.46595">
        <ele>207.719097</ele>
        <time>2020-08-09T09:46:33.689Z</time>
      </trkpt>
      <trkpt lat="64.06684" lon="10.46611">
        <ele>208.040167</ele>
        <time>2020-08-09T09:46:36.701Z</time>
      </trkpt>
      <trkpt lat="64.06693" lon="10.46625">
        <ele>208.351786</ele>
        <time>2020-08-09T09:46:40.694Z</time>
      </trkpt>
      <trkpt lat="64.06701" lon="10.46638">
        <ele>208.624567</ele>
        <time>2020-08-09T09:46:44.752Z</time>
      </trkpt>
      <trkpt lat="64.06709" lon="10.46651">
        <ele>208.914643</ele>
        <time>2020-08-09T09:46:48.727Z</time>
      </trkpt>
      <trkpt lat="64.06718" lon="10.46665">
        <ele>209.214021</ele>
        <time>2020-08-09T09:46:52.685Z</time>
      </trkpt>
      <trkpt lat="64.06726" lon="10.46678">
        <ele>209.495968</ele>
        <time>2020-08-09T09:46:56.685Z</time>
      </trkpt>
      <trkpt lat="64.06734" lon="10.46693">
        <ele>209.7981</ele>
        <time>2020-08-09T09:47:00.707Z</time>
      </trkpt>
      <trkpt lat="64.06742" lon="10.46707">
        <ele>210.082819</ele>
        <time>2020-08-09T09:47:04.717Z</time>
      </trkpt>
      <trkpt lat="64.0675" lon="10.4672">
        <ele>210.357699</ele>
        <time>2020-08-09T09:47:08.724Z</time>
      </trkpt>
      <trkpt lat="64.06757" lon="10.46734">
        <ele>210.639037</ele>
        <time>2020-08-09T09:47:12.688Z</time>
      </trkpt>
      <trkpt lat="64.06765" lon="10.46749">
        <ele>210.921186</ele>
        <time>2020-08-09T09:47:16.716Z</time>
      </trkpt>
      <trkpt lat="64.06772" lon="10.46764">
        <ele>211.145361</ele>
        <time>2020-08-09T09:47:20.707Z</time>
      </trkpt>
      <trkpt lat="64.06779" lon="10.46779">
        <ele>211.217231</ele>
        <time>2020-08-09T09:47:24.699Z</time>
      </trkpt>
      <trkpt lat="64.06787" lon="10.46795">
        <ele>211.295006</ele>
        <time>2020-08-09T09:47:28.696Z</time>
      </trkpt>
      <trkpt lat="64.06794" lon="10.46809">
        <ele>211.362852</ele>
        <time>2020-08-09T09:47:32.699Z</time>
      </trkpt>
      <trkpt lat="64.06801" lon="10.46825">
        <ele>211.436175</ele>
        <time>2020-08-09T09:47:36.705Z</time>
      </trkpt>
      <trkpt lat="64.06808" lon="10.46839">
        <ele>211.508518</ele>
        <time>2020-08-09T09:47:40.719Z</time>
      </trkpt>
      <trkpt lat="64.06816" lon="10.46857">
        <ele>211.586903</ele>
        <time>2020-08-09T09:47:44.705Z</time>
      </trkpt>
      <trkpt lat="64.06822" lon="10.46873">
        <ele>211.659469</ele>
        <time>2020-08-09T09:47:48.691Z</time>
      </trkpt>
      <trkpt lat="64.0683" lon="10.46889">
        <ele>211.734366</ele>
        <time>2020-08-09T09:47:52.698Z</time>
      </trkpt>
      <trkpt lat="64.06836" lon="10.46907">
        <ele>211.810259</ele>
        <time>2020-08-09T09:47:56.732Z</time>
      </trkpt>
      <trkpt lat="64.06843" lon="10.46924">
        <ele>211.88723</ele>
        <time>2020-08-09T09:48:00.696Z</time>
      </trkpt>
      <trkpt lat="64.06851" lon="10.46941">
        <ele>211.964201</ele>
        <time>2020-08-09T09:48:04.692Z</time>
      </trkpt>
      <trkpt lat="64.06859" lon="10.4696">
        <ele>212.051438</ele>
        <time>2020-08-09T09:48:08.740Z</time>
      </trkpt>
      <trkpt lat="64.06865" lon="10.46976">
        <ele>212.120501</ele>
        <time>2020-08-09T09:48:11.703Z</time>
      </trkpt>
      <trkpt lat="64.06873" lon="10.46995">
        <ele>212.209238</ele>
        <time>2020-08-09T09:48:15.701Z</time>
      </trkpt>
      <trkpt lat="64.0688" lon="10.47011">
        <ele>212.281286</ele>
        <time>2020-08-09T09:48:18.719Z</time>
      </trkpt>
      <trkpt lat="64.06887" lon="10.47027">
        <ele>212.352792</ele>
        <time>2020-08-09T09:48:21.710Z</time>
      </trkpt>
      <trkpt lat="64.06894" lon="10.47046">
        <ele>212.434402</ele>
        <time>2020-08-09T09:48:24.703Z</time>
      </trkpt>
      <trkpt lat="64.06902" lon="10.47064">
        <ele>212.244703</ele>
        <time>2020-08-09T09:48:27.758Z</time>
      </trkpt>
      <trkpt lat="64.06911" lon="10.47084">
        <ele>211.873409</ele>
        <time>2020-08-09T09:48:30.707Z</time>
      </trkpt>
      <trkpt lat="64.0692" lon="10.47106">
        <ele>211.467074</ele>
        <time>2020-08-09T09:48:33.695Z</time>
      </trkpt>
      <trkpt lat="64.06927" lon="10.47122">
        <ele>211.164696</ele>
        <time>2020-08-09T09:48:35.702Z</time>
      </trkpt>
      <trkpt lat="64.06935" lon="10.4714">
        <ele>210.827267</ele>
        <time>2020-08-09T09:48:37.699Z</time>
      </trkpt>
      <trkpt lat="64.06943" lon="10.47159">
        <ele>210.475376</ele>
        <time>2020-08-09T09:48:39.703Z</time>
      </trkpt>
      <trkpt lat="64.06953" lon="10.47178">
        <ele>210.091946</ele>
        <time>2020-08-09T09:48:41.713Z</time>
      </trkpt>
      <trkpt lat="64.06963" lon="10.47199">
        <ele>209.679065</ele>
        <time>2020-08-09T09:48:43.700Z</time>
      </trkpt>
      <trkpt lat="64.06974" lon="10.4722">
        <ele>209.231513</ele>
        <time>2020-08-09T09:48:45.699Z</time>
      </trkpt>
      <trkpt lat="64.06987" lon="10.47243">
        <ele>208.735565</ele>
        <time>2020-08-09T09:48:47.701Z</time>
      </trkpt>
      <trkpt lat="64.06995" lon="10.47256">
        <ele>208.461965</ele>
        <time>2020-08-09T09:48:48.704Z</time>
      </trkpt>
      <trkpt lat="64.07002" lon="10.47268">
        <ele>208.189166</ele>
        <time>2020-08-09T09:48:49.694Z</time>
      </trkpt>
      <trkpt lat="64.0701" lon="10.47282">
        <ele>207.893163</ele>
        <time>2020-08-09T09:48:50.699Z</time>
      </trkpt>
      <trkpt lat="64.07017" lon="10.47296">
        <ele>207.593204</ele>
        <time>2020-08-09T09:48:51.740Z</time>
      </trkpt>
      <trkpt lat="64.07026" lon="10.4731">
        <ele>207.279642</ele>
        <time>2020-08-09T09:48:52.715Z</time>
      </trkpt>
      <trkpt lat="64.07034" lon="10.47324">
        <ele>206.935061</ele>
        <time>2020-08-09T09:48:53.694Z</time>
      </trkpt>
      <trkpt lat="64.07043" lon="10.47338">
        <ele>206.457639</ele>
        <time>2020-08-09T09:48:54.739Z</time>
      </trkpt>
      <trkpt lat="64.07053" lon="10.47353">
        <ele>205.975904</ele>
        <time>2020-08-09T09:48:55.697Z</time>
      </trkpt>
      <trkpt lat="64.07062" lon="10.47366">
        <ele>205.505831</ele>
        <time>2020-08-09T09:48:56.692Z</time>
      </trkpt>
      <trkpt lat="64.07071" lon="10.47379">
        <ele>205.032483</ele>
        <time>2020-08-09T09:48:57.697Z</time>
      </trkpt>
      <trkpt lat="64.07081" lon="10.47392">
        <ele>204.543324</ele>
        <time>2020-08-09T09:48:58.700Z</time>
      </trkpt>
      <trkpt lat="64.0709" lon="10.47404">
        <ele>204.060681</ele>
        <time>2020-08-09T09:48:59.697Z</time>
      </trkpt>
      <trkpt lat="64.071" lon="10.47417">
        <ele>203.584729</ele>
        <time>2020-08-09T09:49:00.725Z</time>
      </trkpt>
      <trkpt lat="64.0711" lon="10.47429">
        <ele>203.101287</ele>
        <time>2020-08-09T09:49:01.695Z</time>
      </trkpt>
      <trkpt lat="64.0712" lon="10.47441">
        <ele>202.622199</ele>
        <time>2020-08-09T09:49:02.703Z</time>
      </trkpt>
      <trkpt lat="64.07129" lon="10.47452">
        <ele>202.169323</ele>
        <time>2020-08-09T09:49:03.703Z</time>
      </trkpt>
      <trkpt lat="64.07138" lon="10.47463">
        <ele>201.717656</ele>
        <time>2020-08-09T09:49:04.712Z</time>
      </trkpt>
      <trkpt lat="64.07147" lon="10.47473">
        <ele>201.284528</ele>
        <time>2020-08-09T09:49:05.728Z</time>
      </trkpt>
      <trkpt lat="64.07164" lon="10.47493">
        <ele>200.47837</ele>
        <time>2020-08-09T09:49:07.700Z</time>
      </trkpt>
      <trkpt lat="64.07179" lon="10.47511">
        <ele>199.71803</ele>
        <time>2020-08-09T09:49:09.719Z</time>
      </trkpt>
      <trkpt lat="64.07194" lon="10.47529">
        <ele>199.378991</ele>
        <time>2020-08-09T09:49:11.699Z</time>
      </trkpt>
      <trkpt lat="64.07207" lon="10.47544">
        <ele>199.762723</ele>
        <time>2020-08-09T09:49:13.680Z</time>
      </trkpt>
      <trkpt lat="64.07219" lon="10.4756">
        <ele>200.119049</ele>
        <time>2020-08-09T09:49:15.689Z</time>
      </trkpt>
      <trkpt lat="64.0723" lon="10.47574">
        <ele>200.44266</ele>
        <time>2020-08-09T09:49:17.691Z</time>
      </trkpt>
      <trkpt lat="64.0724" lon="10.47586">
        <ele>200.720352</ele>
        <time>2020-08-09T09:49:19.696Z</time>
      </trkpt>
      <trkpt lat="64.07248" lon="10.47598">
        <ele>200.975527</ele>
        <time>2020-08-09T09:49:21.723Z</time>
      </trkpt>
      <trkpt lat="64.07259" lon="10.47614">
        <ele>201.306234</ele>
        <time>2020-08-09T09:49:24.722Z</time>
      </trkpt>
      <trkpt lat="64.07267" lon="10.47627">
        <ele>201.557394</ele>
        <time>2020-08-09T09:49:27.715Z</time>
      </trkpt>
      <trkpt lat="64.07275" lon="10.4764">
        <ele>201.803377</ele>
        <time>2020-08-09T09:49:31.695Z</time>
      </trkpt>
      <trkpt lat="64.07282" lon="10.47653">
        <ele>202.039961</ele>
        <time>2020-08-09T09:49:36.689Z</time>
      </trkpt>
      <trkpt lat="64.07291" lon="10.47668">
        <ele>202.317043</ele>
        <time>2020-08-09T09:49:40.715Z</time>
      </trkpt>
      <trkpt lat="64.07298" lon="10.47681">
        <ele>202.552227</ele>
        <time>2020-08-09T09:49:43.698Z</time>
      </trkpt>
      <trkpt lat="64.07306" lon="10.47695">
        <ele>202.791492</ele>
        <time>2020-08-09T09:49:46.700Z</time>
      </trkpt>
      <trkpt lat="64.07313" lon="10.47707">
        <ele>203.029997</ele>
        <time>2020-08-09T09:49:49.718Z</time>
      </trkpt>
      <trkpt lat="64.0732" lon="10.47721">
        <ele>203.264484</ele>
        <time>2020-08-09T09:49:52.709Z</time>
      </trkpt>
      <trkpt lat="64.07328" lon="10.47733">
        <ele>203.49559</ele>
        <time>2020-08-09T09:49:55.719Z</time>
      </trkpt>
      <trkpt lat="64.07337" lon="10.4775">
        <ele>203.79087</ele>
        <time>2020-08-09T09:49:59.689Z</time>
      </trkpt>
      <trkpt lat="64.07344" lon="10.47762">
        <ele>204.015373</ele>
        <time>2020-08-09T09:50:02.707Z</time>
      </trkpt>
      <trkpt lat="64.07353" lon="10.47777">
        <ele>204.287752</ele>
        <time>2020-08-09T09:50:06.699Z</time>
      </trkpt>
      <trkpt lat="64.07362" lon="10.47793">
        <ele>204.577148</ele>
        <time>2020-08-09T09:50:10.719Z</time>
      </trkpt>
      <trkpt lat="64.07372" lon="10.47808">
        <ele>204.858143</ele>
        <time>2020-08-09T09:50:14.699Z</time>
      </trkpt>
      <trkpt lat="64.07381" lon="10.47824">
        <ele>205.140948</ele>
        <time>2020-08-09T09:50:18.683Z</time>
      </trkpt>
      <trkpt lat="64.07389" lon="10.4784">
        <ele>205.41265</ele>
        <time>2020-08-09T09:50:22.701Z</time>
      </trkpt>
      <trkpt lat="64.07398" lon="10.47854">
        <ele>205.677812</ele>
        <time>2020-08-09T09:50:26.708Z</time>
      </trkpt>
      <trkpt lat="64.07407" lon="10.4787">
        <ele>205.961321</ele>
        <time>2020-08-09T09:50:30.687Z</time>
      </trkpt>
      <trkpt lat="64.07415" lon="10.47883">
        <ele>206.192521</ele>
        <time>2020-08-09T09:50:33.720Z</time>
      </trkpt>
      <trkpt lat="64.07423" lon="10.47898">
        <ele>206.46295</ele>
        <time>2020-08-09T09:50:37.705Z</time>
      </trkpt>
      <trkpt lat="64.07432" lon="10.47913">
        <ele>206.72876</ele>
        <time>2020-08-09T09:50:41.724Z</time>
      </trkpt>
      <trkpt lat="64.07441" lon="10.47928">
        <ele>206.993925</ele>
        <time>2020-08-09T09:50:45.695Z</time>
      </trkpt>
      <trkpt lat="64.07449" lon="10.47944">
        <ele>207.260417</ele>
        <time>2020-08-09T09:50:49.695Z</time>
      </trkpt>
      <trkpt lat="64.07458" lon="10.4796">
        <ele>207.545853</ele>
        <time>2020-08-09T09:50:53.715Z</time>
      </trkpt>
      <trkpt lat="64.07467" lon="10.47976">
        <ele>207.825393</ele>
        <time>2020-08-09T09:50:57.700Z</time>
      </trkpt>
      <trkpt lat="64.07476" lon="10.47991">
        <ele>208.092551</ele>
        <time>2020-08-09T09:51:01.687Z</time>
      </trkpt>
      <trkpt lat="64.07485" lon="10.48007">
        <ele>208.378997</ele>
        <time>2020-08-09T09:51:05.726Z</time>
      </trkpt>
      <trkpt lat="64.07493" lon="10.48022">
        <ele>208.651352</ele>
        <time>2020-08-09T09:51:09.706Z</time>
      </trkpt>
      <trkpt lat="64.07502" lon="10.48037">
        <ele>208.922451</ele>
        <time>2020-08-09T09:51:13.715Z</time>
      </trkpt>
      <trkpt lat="64.0751" lon="10.4805">
        <ele>209.171395</ele>
        <time>2020-08-09T09:51:17.700Z</time>
      </trkpt>
      <trkpt lat="64.07518" lon="10.48064">
        <ele>209.41834</ele>
        <time>2020-08-09T09:51:21.707Z</time>
      </trkpt>
      <trkpt lat="64.07526" lon="10.48079">
        <ele>209.680373</ele>
        <time>2020-08-09T09:51:25.695Z</time>
      </trkpt>
      <trkpt lat="64.07534" lon="10.48096">
        <ele>209.958456</ele>
        <time>2020-08-09T09:51:29.700Z</time>
      </trkpt>
      <trkpt lat="64.07542" lon="10.48112">
        <ele>210.234618</ele>
        <time>2020-08-09T09:51:33.709Z</time>
      </trkpt>
      <trkpt lat="64.0755" lon="10.48127">
        <ele>210.491871</ele>
        <time>2020-08-09T09:51:37.731Z</time>
      </trkpt>
      <trkpt lat="64.07558" lon="10.48143">
        <ele>210.763494</ele>
        <time>2020-08-09T09:51:41.722Z</time>
      </trkpt>
      <trkpt lat="64.07566" lon="10.48159">
        <ele>211.026515</ele>
        <time>2020-08-09T09:51:45.679Z</time>
      </trkpt>
      <trkpt lat="64.07574" lon="10.48174">
        <ele>211.285192</ele>
        <time>2020-08-09T09:51:49.719Z</time>
      </trkpt>
      <trkpt lat="64.07582" lon="10.48192">
        <ele>211.568749</ele>
        <time>2020-08-09T09:51:53.701Z</time>
      </trkpt>
      <trkpt lat="64.07589" lon="10.48209">
        <ele>211.826821</ele>
        <time>2020-08-09T09:51:57.686Z</time>
      </trkpt>
      <trkpt lat="64.07596" lon="10.48224">
        <ele>212.06546</ele>
        <time>2020-08-09T09:52:01.691Z</time>
      </trkpt>
      <trkpt lat="64.07603" lon="10.48242">
        <ele>212.33909</ele>
        <time>2020-08-09T09:52:05.690Z</time>
      </trkpt>
      <trkpt lat="64.07611" lon="10.48258">
        <ele>212.601704</ele>
        <time>2020-08-09T09:52:09.694Z</time>
      </trkpt>
      <trkpt lat="64.07617" lon="10.48273">
        <ele>212.832719</ele>
        <time>2020-08-09T09:52:13.709Z</time>
      </trkpt>
      <trkpt lat="64.07624" lon="10.48291">
        <ele>213.125395</ele>
        <time>2020-08-09T09:52:17.701Z</time>
      </trkpt>
      <trkpt lat="64.07631" lon="10.48308">
        <ele>213.400696</ele>
        <time>2020-08-09T09:52:21.704Z</time>
      </trkpt>
      <trkpt lat="64.07637" lon="10.48325">
        <ele>213.676003</ele>
        <time>2020-08-09T09:52:25.712Z</time>
      </trkpt>
      <trkpt lat="64.07644" lon="10.48342">
        <ele>213.950705</ele>
        <time>2020-08-09T09:52:29.702Z</time>
      </trkpt>
      <trkpt lat="64.07651" lon="10.48357">
        <ele>214.20627</ele>
        <time>2020-08-09T09:52:33.689Z</time>
      </trkpt>
      <trkpt lat="64.07658" lon="10.48374">
        <ele>214.499071</ele>
        <time>2020-08-09T09:52:37.712Z</time>
      </trkpt>
      <trkpt lat="64.07665" lon="10.48391">
        <ele>214.779167</ele>
        <time>2020-08-09T09:52:41.684Z</time>
      </trkpt>
      <trkpt lat="64.07671" lon="10.48407">
        <ele>215.031832</ele>
        <time>2020-08-09T09:52:45.723Z</time>
      </trkpt>
      <trkpt lat="64.07678" lon="10.48423">
        <ele>215.310031</ele>
        <time>2020-08-09T09:52:49.705Z</time>
      </trkpt>
      <trkpt lat="64.07685" lon="10.48441">
        <ele>215.598304</ele>
        <time>2020-08-09T09:52:53.695Z</time>
      </trkpt>
      <trkpt lat="64.07692" lon="10.48458">
        <ele>215.874538</ele>
        <time>2020-08-09T09:52:57.705Z</time>
      </trkpt>
      <trkpt lat="64.07699" lon="10.48476">
        <ele>216.173522</ele>
        <time>2020-08-09T09:53:01.729Z</time>
      </trkpt>
      <trkpt lat="64.07706" lon="10.48491">
        <ele>216.445646</ele>
        <time>2020-08-09T09:53:05.699Z</time>
      </trkpt>
      <trkpt lat="64.07714" lon="10.4851">
        <ele>216.755177</ele>
        <time>2020-08-09T09:53:10.723Z</time>
      </trkpt>
      <trkpt lat="64.07721" lon="10.48526">
        <ele>217.032022</ele>
        <time>2020-08-09T09:53:14.685Z</time>
      </trkpt>
      <trkpt lat="64.0773" lon="10.48542">
        <ele>217.33272</ele>
        <time>2020-08-09T09:53:18.700Z</time>
      </trkpt>
      <trkpt lat="64.07737" lon="10.48556">
        <ele>217.588949</ele>
        <time>2020-08-09T09:53:22.737Z</time>
      </trkpt>
      <trkpt lat="64.07746" lon="10.48575">
        <ele>217.767628</ele>
        <time>2020-08-09T09:53:26.687Z</time>
      </trkpt>
      <trkpt lat="64.07753" lon="10.48589">
        <ele>217.775943</ele>
        <time>2020-08-09T09:53:29.708Z</time>
      </trkpt>
      <trkpt lat="64.0776" lon="10.48602">
        <ele>217.784187</ele>
        <time>2020-08-09T09:53:32.756Z</time>
      </trkpt>
      <trkpt lat="64.07769" lon="10.48618">
        <ele>217.794422</ele>
        <time>2020-08-09T09:53:36.686Z</time>
      </trkpt>
      <trkpt lat="64.07777" lon="10.48632">
        <ele>217.802782</ele>
        <time>2020-08-09T09:53:39.685Z</time>
      </trkpt>
      <trkpt lat="64.07787" lon="10.48647">
        <ele>217.813062</ele>
        <time>2020-08-09T09:53:43.755Z</time>
      </trkpt>
      <trkpt lat="64.07794" lon="10.48659">
        <ele>217.820993</ele>
        <time>2020-08-09T09:53:46.684Z</time>
      </trkpt>
      <trkpt lat="64.07802" lon="10.48671">
        <ele>217.829032</ele>
        <time>2020-08-09T09:53:49.719Z</time>
      </trkpt>
      <trkpt lat="64.0781" lon="10.48683">
        <ele>217.837287</ele>
        <time>2020-08-09T09:53:52.678Z</time>
      </trkpt>
      <trkpt lat="64.07818" lon="10.48696">
        <ele>217.84601</ele>
        <time>2020-08-09T09:53:55.747Z</time>
      </trkpt>
      <trkpt lat="64.07825" lon="10.48708">
        <ele>217.854233</ele>
        <time>2020-08-09T09:53:58.685Z</time>
      </trkpt>
      <trkpt lat="64.07834" lon="10.48723">
        <ele>217.863681</ele>
        <time>2020-08-09T09:54:01.727Z</time>
      </trkpt>
      <trkpt lat="64.07841" lon="10.48736">
        <ele>217.871763</ele>
        <time>2020-08-09T09:54:04.696Z</time>
      </trkpt>
      <trkpt lat="64.07849" lon="10.4875">
        <ele>217.880159</ele>
        <time>2020-08-09T09:54:07.697Z</time>
      </trkpt>
      <trkpt lat="64.07856" lon="10.48766">
        <ele>217.888744</ele>
        <time>2020-08-09T09:54:10.700Z</time>
      </trkpt>
      <trkpt lat="64.07863" lon="10.48782">
        <ele>217.897808</ele>
        <time>2020-08-09T09:54:13.687Z</time>
      </trkpt>
      <trkpt lat="64.0787" lon="10.48799">
        <ele>217.906639</ele>
        <time>2020-08-09T09:54:16.702Z</time>
      </trkpt>
      <trkpt lat="64.07877" lon="10.48816">
        <ele>217.915064</ele>
        <time>2020-08-09T09:54:19.716Z</time>
      </trkpt>
      <trkpt lat="64.07883" lon="10.48832">
        <ele>218.026924</ele>
        <time>2020-08-09T09:54:22.696Z</time>
      </trkpt>
      <trkpt lat="64.07888" lon="10.48848">
        <ele>218.287007</ele>
        <time>2020-08-09T09:54:25.709Z</time>
      </trkpt>
      <trkpt lat="64.07895" lon="10.4887">
        <ele>218.607262</ele>
        <time>2020-08-09T09:54:29.681Z</time>
      </trkpt>
      <trkpt lat="64.07901" lon="10.48891">
        <ele>218.914622</ele>
        <time>2020-08-09T09:54:33.685Z</time>
      </trkpt>
      <trkpt lat="64.07906" lon="10.4891">
        <ele>219.191782</ele>
        <time>2020-08-09T09:54:36.714Z</time>
      </trkpt>
      <trkpt lat="64.07912" lon="10.48934">
        <ele>219.527731</ele>
        <time>2020-08-09T09:54:40.701Z</time>
      </trkpt>
      <trkpt lat="64.07916" lon="10.48953">
        <ele>219.797423</ele>
        <time>2020-08-09T09:54:43.727Z</time>
      </trkpt>
      <trkpt lat="64.07921" lon="10.48973">
        <ele>220.0693</ele>
        <time>2020-08-09T09:54:46.695Z</time>
      </trkpt>
      <trkpt lat="64.07925" lon="10.48991">
        <ele>220.32405</ele>
        <time>2020-08-09T09:54:49.707Z</time>
      </trkpt>
      <trkpt lat="64.07929" lon="10.49011">
        <ele>220.598306</ele>
        <time>2020-08-09T09:54:52.694Z</time>
      </trkpt>
      <trkpt lat="64.07934" lon="10.49029">
        <ele>220.855335</ele>
        <time>2020-08-09T09:54:55.717Z</time>
      </trkpt>
      <trkpt lat="64.07939" lon="10.49047">
        <ele>221.114164</ele>
        <time>2020-08-09T09:54:58.689Z</time>
      </trkpt>
      <trkpt lat="64.07943" lon="10.49066">
        <ele>221.371662</ele>
        <time>2020-08-09T09:55:01.703Z</time>
      </trkpt>
      <trkpt lat="64.07948" lon="10.49089">
        <ele>221.688211</ele>
        <time>2020-08-09T09:55:05.707Z</time>
      </trkpt>
      <trkpt lat="64.07953" lon="10.49113">
        <ele>222.011748</ele>
        <time>2020-08-09T09:55:09.716Z</time>
      </trkpt>
      <trkpt lat="64.07959" lon="10.49135">
        <ele>222.333818</ele>
        <time>2020-08-09T09:55:13.701Z</time>
      </trkpt>
      <trkpt lat="64.07964" lon="10.49159">
        <ele>222.66793</ele>
        <time>2020-08-09T09:55:17.688Z</time>
      </trkpt>
      <trkpt lat="64.07969" lon="10.49177">
        <ele>222.929153</ele>
        <time>2020-08-09T09:55:20.705Z</time>
      </trkpt>
      <trkpt lat="64.07975" lon="10.49195">
        <ele>223.066523</ele>
        <time>2020-08-09T09:55:23.747Z</time>
      </trkpt>
      <trkpt lat="64.07981" lon="10.49211">
        <ele>223.171694</ele>
        <time>2020-08-09T09:55:26.688Z</time>
      </trkpt>
      <trkpt lat="64.07989" lon="10.49233">
        <ele>223.313635</ele>
        <time>2020-08-09T09:55:30.682Z</time>
      </trkpt>
      <trkpt lat="64.07995" lon="10.4925">
        <ele>223.424354</ele>
        <time>2020-08-09T09:55:33.709Z</time>
      </trkpt>
      <trkpt lat="64.08001" lon="10.49267">
        <ele>223.536177</ele>
        <time>2020-08-09T09:55:36.719Z</time>
      </trkpt>
      <trkpt lat="64.08009" lon="10.49286">
        <ele>223.669915</ele>
        <time>2020-08-09T09:55:40.676Z</time>
      </trkpt>
      <trkpt lat="64.08018" lon="10.49305">
        <ele>223.804598</ele>
        <time>2020-08-09T09:55:44.703Z</time>
      </trkpt>
      <trkpt lat="64.08025" lon="10.4932">
        <ele>223.912297</ele>
        <time>2020-08-09T09:55:47.718Z</time>
      </trkpt>
      <trkpt lat="64.08032" lon="10.49334">
        <ele>224.017809</ele>
        <time>2020-08-09T09:55:50.683Z</time>
      </trkpt>
      <trkpt lat="64.08039" lon="10.49347">
        <ele>224.125268</ele>
        <time>2020-08-09T09:55:53.695Z</time>
      </trkpt>
      <trkpt lat="64.08046" lon="10.4936">
        <ele>224.232008</ele>
        <time>2020-08-09T09:55:56.688Z</time>
      </trkpt>
      <trkpt lat="64.08053" lon="10.49373">
        <ele>224.335715</ele>
        <time>2020-08-09T09:55:59.687Z</time>
      </trkpt>
      <trkpt lat="64.08063" lon="10.49389">
        <ele>224.471077</ele>
        <time>2020-08-09T09:56:03.719Z</time>
      </trkpt>
      <trkpt lat="64.08071" lon="10.494">
        <ele>224.581831</ele>
        <time>2020-08-09T09:56:06.691Z</time>
      </trkpt>
      <trkpt lat="64.08081" lon="10.49413">
        <ele>224.705541</ele>
        <time>2020-08-09T09:56:09.703Z</time>
      </trkpt>
      <trkpt lat="64.08089" lon="10.49424">
        <ele>224.812547</ele>
        <time>2020-08-09T09:56:12.684Z</time>
      </trkpt>
      <trkpt lat="64.08097" lon="10.49434">
        <ele>224.92354</ele>
        <time>2020-08-09T09:56:16.689Z</time>
      </trkpt>
      <trkpt lat="64.08107" lon="10.49446">
        <ele>225.035931</ele>
        <time>2020-08-09T09:56:20.727Z</time>
      </trkpt>
      <trkpt lat="64.08115" lon="10.4946">
        <ele>225.047044</ele>
        <time>2020-08-09T09:56:25.706Z</time>
      </trkpt>
      <trkpt lat="64.08168" lon="10.49512">
        <ele>225.114129</ele>
        <time>2020-08-09T10:04:11.745Z</time>
      </trkpt>
      <trkpt lat="64.08178" lon="10.49511">
        <ele>225.125961</ele>
        <time>2020-08-09T10:04:14.726Z</time>
      </trkpt>
      <trkpt lat="64.08187" lon="10.49516">
        <ele>225.1367</ele>
        <time>2020-08-09T10:04:18.693Z</time>
      </trkpt>
      <trkpt lat="64.08197" lon="10.4952">
        <ele>225.148144</ele>
        <time>2020-08-09T10:04:22.694Z</time>
      </trkpt>
      <trkpt lat="64.08206" lon="10.49524">
        <ele>225.159395</ele>
        <time>2020-08-09T10:04:26.690Z</time>
      </trkpt>
      <trkpt lat="64.08217" lon="10.49526">
        <ele>225.172193</ele>
        <time>2020-08-09T10:04:31.692Z</time>
      </trkpt>
      <trkpt lat="64.08227" lon="10.49528">
        <ele>225.183378</ele>
        <time>2020-08-09T10:04:35.721Z</time>
      </trkpt>
      <trkpt lat="64.08236" lon="10.49531">
        <ele>225.194202</ele>
        <time>2020-08-09T10:04:39.677Z</time>
      </trkpt>
      <trkpt lat="64.08245" lon="10.49533">
        <ele>225.204938</ele>
        <time>2020-08-09T10:04:43.742Z</time>
      </trkpt>
      <trkpt lat="64.08256" lon="10.49537">
        <ele>225.217687</ele>
        <time>2020-08-09T10:04:48.699Z</time>
      </trkpt>
      <trkpt lat="64.08267" lon="10.49536">
        <ele>225.229733</ele>
        <time>2020-08-09T10:04:53.707Z</time>
      </trkpt>
      <trkpt lat="64.08277" lon="10.49535">
        <ele>225.242028</ele>
        <time>2020-08-09T10:04:58.701Z</time>
      </trkpt>
      <trkpt lat="64.08288" lon="10.49536">
        <ele>225.424063</ele>
        <time>2020-08-09T10:05:03.683Z</time>
      </trkpt>
      <trkpt lat="64.08299" lon="10.49535">
        <ele>225.621328</ele>
        <time>2020-08-09T10:05:08.710Z</time>
      </trkpt>
      <trkpt lat="64.08309" lon="10.49532">
        <ele>225.799706</ele>
        <time>2020-08-09T10:05:12.709Z</time>
      </trkpt>
      <trkpt lat="64.0832" lon="10.49529">
        <ele>225.993089</ele>
        <time>2020-08-09T10:05:16.681Z</time>
      </trkpt>
      <trkpt lat="64.0833" lon="10.49527">
        <ele>226.169352</ele>
        <time>2020-08-09T10:05:20.692Z</time>
      </trkpt>
      <trkpt lat="64.08339" lon="10.49527">
        <ele>226.330864</ele>
        <time>2020-08-09T10:05:24.725Z</time>
      </trkpt>
      <trkpt lat="64.08348" lon="10.49525">
        <ele>226.493045</ele>
        <time>2020-08-09T10:05:28.696Z</time>
      </trkpt>
      <trkpt lat="64.08357" lon="10.49523">
        <ele>226.657065</ele>
        <time>2020-08-09T10:05:32.748Z</time>
      </trkpt>
      <trkpt lat="64.08367" lon="10.49524">
        <ele>226.831014</ele>
        <time>2020-08-09T10:05:37.695Z</time>
      </trkpt>
      <trkpt lat="64.08377" lon="10.49525">
        <ele>227.007217</ele>
        <time>2020-08-09T10:05:42.707Z</time>
      </trkpt>
      <trkpt lat="64.08387" lon="10.49529">
        <ele>227.188882</ele>
        <time>2020-08-09T10:05:47.710Z</time>
      </trkpt>
      <trkpt lat="64.08397" lon="10.49532">
        <ele>227.36769</ele>
        <time>2020-08-09T10:05:52.701Z</time>
      </trkpt>
      <trkpt lat="64.08407" lon="10.49535">
        <ele>227.54993</ele>
        <time>2020-08-09T10:05:57.706Z</time>
      </trkpt>
      <trkpt lat="64.08417" lon="10.49538">
        <ele>227.725738</ele>
        <time>2020-08-09T10:06:02.721Z</time>
      </trkpt>
      <trkpt lat="64.08427" lon="10.49544">
        <ele>227.91668</ele>
        <time>2020-08-09T10:06:07.684Z</time>
      </trkpt>
      <trkpt lat="64.08436" lon="10.49551">
        <ele>228.080332</ele>
        <time>2020-08-09T10:06:11.702Z</time>
      </trkpt>
      <trkpt lat="64.08445" lon="10.49558">
        <ele>228.254093</ele>
        <time>2020-08-09T10:06:16.688Z</time>
      </trkpt>
      <trkpt lat="64.08455" lon="10.49565">
        <ele>228.431037</ele>
        <time>2020-08-09T10:06:21.699Z</time>
      </trkpt>
      <trkpt lat="64.08464" lon="10.49573">
        <ele>228.910602</ele>
        <time>2020-08-09T10:06:26.691Z</time>
      </trkpt>
      <trkpt lat="64.08473" lon="10.49582">
        <ele>229.378778</ele>
        <time>2020-08-09T10:06:31.704Z</time>
      </trkpt>
      <trkpt lat="64.08482" lon="10.49591">
        <ele>229.861312</ele>
        <time>2020-08-09T10:06:36.679Z</time>
      </trkpt>
      <trkpt lat="64.08492" lon="10.496">
        <ele>230.359867</ele>
        <time>2020-08-09T10:06:41.689Z</time>
      </trkpt>
      <trkpt lat="64.08501" lon="10.4961">
        <ele>230.830122</ele>
        <time>2020-08-09T10:06:46.689Z</time>
      </trkpt>
      <trkpt lat="64.08509" lon="10.4962">
        <ele>231.306478</ele>
        <time>2020-08-09T10:06:51.704Z</time>
      </trkpt>
      <trkpt lat="64.08517" lon="10.49631">
        <ele>231.754318</ele>
        <time>2020-08-09T10:06:56.699Z</time>
      </trkpt>
      <trkpt lat="64.08525" lon="10.49644">
        <ele>232.227311</ele>
        <time>2020-08-09T10:07:01.702Z</time>
      </trkpt>
      <trkpt lat="64.08533" lon="10.49655">
        <ele>232.680963</ele>
        <time>2020-08-09T10:07:06.723Z</time>
      </trkpt>
      <trkpt lat="64.08543" lon="10.49668">
        <ele>233.210587</ele>
        <time>2020-08-09T10:07:12.699Z</time>
      </trkpt>
      <trkpt lat="64.0855" lon="10.49679">
        <ele>233.646913</ele>
        <time>2020-08-09T10:07:17.722Z</time>
      </trkpt>
      <trkpt lat="64.08559" lon="10.49693">
        <ele>234.15494</ele>
        <time>2020-08-09T10:07:23.701Z</time>
      </trkpt>
      <trkpt lat="64.08567" lon="10.49706">
        <ele>234.63189</ele>
        <time>2020-08-09T10:07:29.688Z</time>
      </trkpt>
      <trkpt lat="64.08576" lon="10.49718">
        <ele>235.123154</ele>
        <time>2020-08-09T10:07:35.747Z</time>
      </trkpt>
      <trkpt lat="64.08584" lon="10.4973">
        <ele>235.611932</ele>
        <time>2020-08-09T10:07:41.720Z</time>
      </trkpt>
      <trkpt lat="64.08593" lon="10.49746">
        <ele>236.125961</ele>
        <time>2020-08-09T10:07:47.706Z</time>
      </trkpt>
      <trkpt lat="64.086" lon="10.49758">
        <ele>236.568251</ele>
        <time>2020-08-09T10:07:52.723Z</time>
      </trkpt>
      <trkpt lat="64.08607" lon="10.49771">
        <ele>237.014393</ele>
        <time>2020-08-09T10:07:57.743Z</time>
      </trkpt>
      <trkpt lat="64.08614" lon="10.49786">
        <ele>237.604036</ele>
        <time>2020-08-09T10:08:02.720Z</time>
      </trkpt>
      <trkpt lat="64.08621" lon="10.49799">
        <ele>238.238636</ele>
        <time>2020-08-09T10:08:07.682Z</time>
      </trkpt>
      <trkpt lat="64.08629" lon="10.49812">
        <ele>238.878538</ele>
        <time>2020-08-09T10:08:12.697Z</time>
      </trkpt>
      <trkpt lat="64.08636" lon="10.49827">
        <ele>239.526818</ele>
        <time>2020-08-09T10:08:17.707Z</time>
      </trkpt>
      <trkpt lat="64.08643" lon="10.49841">
        <ele>240.166719</ele>
        <time>2020-08-09T10:08:22.721Z</time>
      </trkpt>
      <trkpt lat="64.0865" lon="10.49855">
        <ele>240.80105</ele>
        <time>2020-08-09T10:08:27.718Z</time>
      </trkpt>
      <trkpt lat="64.08658" lon="10.4987">
        <ele>241.506149</ele>
        <time>2020-08-09T10:08:33.706Z</time>
      </trkpt>
      <trkpt lat="64.08666" lon="10.49887">
        <ele>242.249444</ele>
        <time>2020-08-09T10:08:39.707Z</time>
      </trkpt>
      <trkpt lat="64.08672" lon="10.49903">
        <ele>242.872334</ele>
        <time>2020-08-09T10:08:44.688Z</time>
      </trkpt>
      <trkpt lat="64.08678" lon="10.49919">
        <ele>243.485932</ele>
        <time>2020-08-09T10:08:49.684Z</time>
      </trkpt>
      <trkpt lat="64.08685" lon="10.49937">
        <ele>244.200219</ele>
        <time>2020-08-09T10:08:55.706Z</time>
      </trkpt>
      <trkpt lat="64.08691" lon="10.49956">
        <ele>244.886387</ele>
        <time>2020-08-09T10:09:01.690Z</time>
      </trkpt>
      <trkpt lat="64.08698" lon="10.49972">
        <ele>245.552505</ele>
        <time>2020-08-09T10:09:07.717Z</time>
      </trkpt>
      <trkpt lat="64.08704" lon="10.49989">
        <ele>246.212175</ele>
        <time>2020-08-09T10:09:14.686Z</time>
      </trkpt>
      <trkpt lat="64.0871" lon="10.50006">
        <ele>246.877446</ele>
        <time>2020-08-09T10:09:22.695Z</time>
      </trkpt>
      <trkpt lat="64.08716" lon="10.50022">
        <ele>247.48769</ele>
        <time>2020-08-09T10:09:29.751Z</time>
      </trkpt>
      <trkpt lat="64.08722" lon="10.50038">
        <ele>248.117162</ele>
        <time>2020-08-09T10:09:36.686Z</time>
      </trkpt>
      <trkpt lat="64.08728" lon="10.50055">
        <ele>248.766686</ele>
        <time>2020-08-09T10:09:43.701Z</time>
      </trkpt>
      <trkpt lat="64.08734" lon="10.50072">
        <ele>249.390487</ele>
        <time>2020-08-09T10:09:50.733Z</time>
      </trkpt>
      <trkpt lat="64.08739" lon="10.50091">
        <ele>250.093136</ele>
        <time>2020-08-09T10:09:57.718Z</time>
      </trkpt>
      <trkpt lat="64.08745" lon="10.5011">
        <ele>250.819188</ele>
        <time>2020-08-09T10:10:05.687Z</time>
      </trkpt>
      <trkpt lat="64.0875" lon="10.50127">
        <ele>251.458885</ele>
        <time>2020-08-09T10:10:12.701Z</time>
      </trkpt>
      <trkpt lat="64.08756" lon="10.50145">
        <ele>252.154947</ele>
        <time>2020-08-09T10:10:20.701Z</time>
      </trkpt>
      <trkpt lat="64.08762" lon="10.50162">
        <ele>252.805287</ele>
        <time>2020-08-09T10:10:27.738Z</time>
      </trkpt>
      <trkpt lat="64.08768" lon="10.50179">
        <ele>253.49735</ele>
        <time>2020-08-09T10:10:34.698Z</time>
      </trkpt>
      <trkpt lat="64.08774" lon="10.50197">
        <ele>254.189215</ele>
        <time>2020-08-09T10:10:41.687Z</time>
      </trkpt>
      <trkpt lat="64.08779" lon="10.50216">
        <ele>254.877873</ele>
        <time>2020-08-09T10:10:49.699Z</time>
      </trkpt>
      <trkpt lat="64.08785" lon="10.50233">
        <ele>255.542695</ele>
        <time>2020-08-09T10:10:57.698Z</time>
      </trkpt>
      <trkpt lat="64.08791" lon="10.5025">
        <ele>256.199672</ele>
        <time>2020-08-09T10:11:05.702Z</time>
      </trkpt>
      <trkpt lat="64.08796" lon="10.50268">
        <ele>256.877716</ele>
        <time>2020-08-09T10:11:14.707Z</time>
      </trkpt>
      <trkpt lat="64.08801" lon="10.50287">
        <ele>257.562181</ele>
        <time>2020-08-09T10:11:22.685Z</time>
      </trkpt>
      <trkpt lat="64.08807" lon="10.50302">
        <ele>258.212823</ele>
        <time>2020-08-09T10:11:29.725Z</time>
      </trkpt>
      <trkpt lat="64.08814" lon="10.50319">
        <ele>258.897737</ele>
        <time>2020-08-09T10:11:37.707Z</time>
      </trkpt>
      <trkpt lat="64.08821" lon="10.50335">
        <ele>259.606475</ele>
        <time>2020-08-09T10:11:45.697Z</time>
      </trkpt>
      <trkpt lat="64.08828" lon="10.50348">
        <ele>260.260857</ele>
        <time>2020-08-09T10:11:52.711Z</time>
      </trkpt>
      <trkpt lat="64.08836" lon="10.50361">
        <ele>260.958193</ele>
        <time>2020-08-09T10:11:59.718Z</time>
      </trkpt>
      <trkpt lat="64.08844" lon="10.50374">
        <ele>261.612521</ele>
        <time>2020-08-09T10:12:06.702Z</time>
      </trkpt>
      <trkpt lat="64.08851" lon="10.50388">
        <ele>262.165019</ele>
        <time>2020-08-09T10:12:14.685Z</time>
      </trkpt>
      <trkpt lat="64.0886" lon="10.50401">
        <ele>262.56107</ele>
        <time>2020-08-09T10:12:22.696Z</time>
      </trkpt>
      <trkpt lat="64.08868" lon="10.50412">
        <ele>262.925534</ele>
        <time>2020-08-09T10:12:29.696Z</time>
      </trkpt>
      <trkpt lat="64.08875" lon="10.50427">
        <ele>263.289409</ele>
        <time>2020-08-09T10:12:38.715Z</time>
      </trkpt>
      <trkpt lat="64.08883" lon="10.50439">
        <ele>263.671121</ele>
        <time>2020-08-09T10:12:46.691Z</time>
      </trkpt>
      <trkpt lat="64.08891" lon="10.5045">
        <ele>264.048978</ele>
        <time>2020-08-09T10:12:53.694Z</time>
      </trkpt>
      <trkpt lat="64.089" lon="10.50458">
        <ele>264.407243</ele>
        <time>2020-08-09T10:12:59.685Z</time>
      </trkpt>
      <trkpt lat="64.08909" lon="10.50468">
        <ele>264.778806</ele>
        <time>2020-08-09T10:13:06.682Z</time>
      </trkpt>
      <trkpt lat="64.08918" lon="10.50473">
        <ele>265.151794</ele>
        <time>2020-08-09T10:13:13.715Z</time>
      </trkpt>
      <trkpt lat="64.08927" lon="10.50478">
        <ele>265.50185</ele>
        <time>2020-08-09T10:13:20.695Z</time>
      </trkpt>
      <trkpt lat="64.08936" lon="10.50485">
        <ele>265.895923</ele>
        <time>2020-08-09T10:13:27.695Z</time>
      </trkpt>
      <trkpt lat="64.08946" lon="10.50492">
        <ele>266.287025</ele>
        <time>2020-08-09T10:13:34.699Z</time>
      </trkpt>
      <trkpt lat="64.08956" lon="10.50498">
        <ele>266.6651</ele>
        <time>2020-08-09T10:13:40.690Z</time>
      </trkpt>
      <trkpt lat="64.08965" lon="10.50503">
        <ele>267.056337</ele>
        <time>2020-08-09T10:13:46.693Z</time>
      </trkpt>
      <trkpt lat="64.08975" lon="10.50508">
        <ele>267.430153</ele>
        <time>2020-08-09T10:13:51.689Z</time>
      </trkpt>
      <trkpt lat="64.08984" lon="10.50514">
        <ele>267.793844</ele>
        <time>2020-08-09T10:13:56.708Z</time>
      </trkpt>
      <trkpt lat="64.08994" lon="10.50516">
        <ele>268.185848</ele>
        <time>2020-08-09T10:14:02.700Z</time>
      </trkpt>
      <trkpt lat="64.09004" lon="10.5052">
        <ele>268.578665</ele>
        <time>2020-08-09T10:14:08.692Z</time>
      </trkpt>
      <trkpt lat="64.09013" lon="10.50524">
        <ele>268.946484</ele>
        <time>2020-08-09T10:14:13.743Z</time>
      </trkpt>
      <trkpt lat="64.09023" lon="10.50531">
        <ele>269.035936</ele>
        <time>2020-08-09T10:14:18.696Z</time>
      </trkpt>
      <trkpt lat="64.09034" lon="10.50539">
        <ele>269.10719</ele>
        <time>2020-08-09T10:14:23.698Z</time>
      </trkpt>
      <trkpt lat="64.09044" lon="10.50547">
        <ele>269.177097</ele>
        <time>2020-08-09T10:14:28.684Z</time>
      </trkpt>
      <trkpt lat="64.09054" lon="10.50555">
        <ele>269.249491</ele>
        <time>2020-08-09T10:14:33.695Z</time>
      </trkpt>
      <trkpt lat="64.09063" lon="10.50562">
        <ele>269.310472</ele>
        <time>2020-08-09T10:14:37.688Z</time>
      </trkpt>
      <trkpt lat="64.09073" lon="10.50574">
        <ele>269.383498</ele>
        <time>2020-08-09T10:14:42.698Z</time>
      </trkpt>
      <trkpt lat="64.09082" lon="10.50584">
        <ele>269.445547</ele>
        <time>2020-08-09T10:14:46.684Z</time>
      </trkpt>
      <trkpt lat="64.0909" lon="10.50595">
        <ele>269.508847</ele>
        <time>2020-08-09T10:14:50.706Z</time>
      </trkpt>
      <trkpt lat="64.09098" lon="10.50606">
        <ele>269.569</ele>
        <time>2020-08-09T10:14:54.688Z</time>
      </trkpt>
      <trkpt lat="64.09105" lon="10.50619">
        <ele>269.627976</ele>
        <time>2020-08-09T10:14:58.693Z</time>
      </trkpt>
      <trkpt lat="64.09112" lon="10.50634">
        <ele>269.693345</ele>
        <time>2020-08-09T10:15:02.686Z</time>
      </trkpt>
      <trkpt lat="64.09119" lon="10.50649">
        <ele>269.755051</ele>
        <time>2020-08-09T10:15:06.703Z</time>
      </trkpt>
      <trkpt lat="64.09126" lon="10.50664">
        <ele>269.817149</ele>
        <time>2020-08-09T10:15:10.714Z</time>
      </trkpt>
      <trkpt lat="64.09134" lon="10.50679">
        <ele>269.883315</ele>
        <time>2020-08-09T10:15:14.751Z</time>
      </trkpt>
      <trkpt lat="64.09141" lon="10.50696">
        <ele>269.951793</ele>
        <time>2020-08-09T10:15:18.725Z</time>
      </trkpt>
      <trkpt lat="64.09149" lon="10.50712">
        <ele>270.018613</ele>
        <time>2020-08-09T10:15:22.704Z</time>
      </trkpt>
      <trkpt lat="64.09156" lon="10.50729">
        <ele>270.084638</ele>
        <time>2020-08-09T10:15:26.690Z</time>
      </trkpt>
      <trkpt lat="64.09163" lon="10.50746">
        <ele>270.182686</ele>
        <time>2020-08-09T10:15:30.685Z</time>
      </trkpt>
      <trkpt lat="64.0917" lon="10.50763">
        <ele>270.489874</ele>
        <time>2020-08-09T10:15:34.702Z</time>
      </trkpt>
      <trkpt lat="64.09178" lon="10.5078">
        <ele>270.810715</ele>
        <time>2020-08-09T10:15:38.684Z</time>
      </trkpt>
      <trkpt lat="64.09186" lon="10.50797">
        <ele>271.13548</ele>
        <time>2020-08-09T10:15:42.696Z</time>
      </trkpt>
      <trkpt lat="64.09194" lon="10.50812">
        <ele>271.450235</ele>
        <time>2020-08-09T10:15:46.712Z</time>
      </trkpt>
      <trkpt lat="64.09201" lon="10.50829">
        <ele>271.76615</ele>
        <time>2020-08-09T10:15:50.706Z</time>
      </trkpt>
      <trkpt lat="64.09208" lon="10.50843">
        <ele>272.056978</ele>
        <time>2020-08-09T10:15:54.724Z</time>
      </trkpt>
      <trkpt lat="64.09216" lon="10.50858">
        <ele>272.365203</ele>
        <time>2020-08-09T10:15:58.700Z</time>
      </trkpt>
      <trkpt lat="64.09224" lon="10.50872">
        <ele>272.654092</ele>
        <time>2020-08-09T10:16:02.705Z</time>
      </trkpt>
      <trkpt lat="64.09232" lon="10.50885">
        <ele>272.953757</ele>
        <time>2020-08-09T10:16:06.709Z</time>
      </trkpt>
      <trkpt lat="64.09241" lon="10.50899">
        <ele>273.281304</ele>
        <time>2020-08-09T10:16:10.689Z</time>
      </trkpt>
      <trkpt lat="64.09249" lon="10.5091">
        <ele>273.570869</ele>
        <time>2020-08-09T10:16:14.717Z</time>
      </trkpt>
      <trkpt lat="64.09257" lon="10.5092">
        <ele>273.844744</ele>
        <time>2020-08-09T10:16:18.707Z</time>
      </trkpt>
      <trkpt lat="64.09265" lon="10.50932">
        <ele>274.143525</ele>
        <time>2020-08-09T10:16:23.693Z</time>
      </trkpt>
      <trkpt lat="64.09274" lon="10.50942">
        <ele>274.437183</ele>
        <time>2020-08-09T10:16:28.681Z</time>
      </trkpt>
      <trkpt lat="64.09283" lon="10.5095">
        <ele>274.731022</ele>
        <time>2020-08-09T10:16:33.680Z</time>
      </trkpt>
      <trkpt lat="64.09292" lon="10.50958">
        <ele>275.024395</ele>
        <time>2020-08-09T10:16:38.716Z</time>
      </trkpt>
      <trkpt lat="64.09302" lon="10.50966">
        <ele>275.342257</ele>
        <time>2020-08-09T10:16:44.695Z</time>
      </trkpt>
      <trkpt lat="64.09311" lon="10.50975">
        <ele>275.575802</ele>
        <time>2020-08-09T10:16:50.697Z</time>
      </trkpt>
      <trkpt lat="64.09321" lon="10.5098">
        <ele>275.57891</ele>
        <time>2020-08-09T10:16:57.708Z</time>
      </trkpt>
      <trkpt lat="64.0933" lon="10.50985">
        <ele>275.581703</ele>
        <time>2020-08-09T10:17:02.696Z</time>
      </trkpt>
      <trkpt lat="64.09339" lon="10.50988">
        <ele>275.584514</ele>
        <time>2020-08-09T10:17:07.692Z</time>
      </trkpt>
      <trkpt lat="64.09349" lon="10.50992">
        <ele>275.587701</ele>
        <time>2020-08-09T10:17:13.692Z</time>
      </trkpt>
      <trkpt lat="64.09359" lon="10.50996">
        <ele>275.590814</ele>
        <time>2020-08-09T10:17:19.697Z</time>
      </trkpt>
      <trkpt lat="64.09369" lon="10.50998">
        <ele>275.593708</ele>
        <time>2020-08-09T10:17:24.704Z</time>
      </trkpt>
      <trkpt lat="64.09379" lon="10.51002">
        <ele>275.596896</ele>
        <time>2020-08-09T10:17:30.702Z</time>
      </trkpt>
      <trkpt lat="64.09389" lon="10.51002">
        <ele>275.599926</ele>
        <time>2020-08-09T10:17:35.715Z</time>
      </trkpt>
      <trkpt lat="64.094" lon="10.51001">
        <ele>275.603261</ele>
        <time>2020-08-09T10:17:41.688Z</time>
      </trkpt>
      <trkpt lat="64.0941" lon="10.51">
        <ele>275.606233</ele>
        <time>2020-08-09T10:17:46.699Z</time>
      </trkpt>
      <trkpt lat="64.09421" lon="10.50999">
        <ele>275.609452</ele>
        <time>2020-08-09T10:17:51.729Z</time>
      </trkpt>
      <trkpt lat="64.0943" lon="10.50994">
        <ele>275.612481</ele>
        <time>2020-08-09T10:17:56.756Z</time>
      </trkpt>
      <trkpt lat="64.0944" lon="10.50988">
        <ele>275.615522</ele>
        <time>2020-08-09T10:18:00.692Z</time>
      </trkpt>
      <trkpt lat="64.0945" lon="10.50979">
        <ele>275.618712</ele>
        <time>2020-08-09T10:18:04.702Z</time>
      </trkpt>
      <trkpt lat="64.0946" lon="10.50974">
        <ele>275.621875</ele>
        <time>2020-08-09T10:18:08.701Z</time>
      </trkpt>
      <trkpt lat="64.09469" lon="10.5097">
        <ele>275.624758</ele>
        <time>2020-08-09T10:18:12.704Z</time>
      </trkpt>
      <trkpt lat="64.0948" lon="10.50963">
        <ele>275.628047</ele>
        <time>2020-08-09T10:18:16.685Z</time>
      </trkpt>
      <trkpt lat="64.09491" lon="10.50957">
        <ele>275.717028</ele>
        <time>2020-08-09T10:18:20.699Z</time>
      </trkpt>
      <trkpt lat="64.09503" lon="10.50952">
        <ele>275.90042</ele>
        <time>2020-08-09T10:18:24.696Z</time>
      </trkpt>
      <trkpt lat="64.09512" lon="10.50947">
        <ele>276.050598</ele>
        <time>2020-08-09T10:18:27.735Z</time>
      </trkpt>
      <trkpt lat="64.09522" lon="10.50943">
        <ele>276.201281</ele>
        <time>2020-08-09T10:18:30.685Z</time>
      </trkpt>
      <trkpt lat="64.09531" lon="10.50939">
        <ele>276.342194</ele>
        <time>2020-08-09T10:18:33.726Z</time>
      </trkpt>
      <trkpt lat="64.0954" lon="10.50937">
        <ele>276.479333</ele>
        <time>2020-08-09T10:18:36.705Z</time>
      </trkpt>
      <trkpt lat="64.09549" lon="10.50933">
        <ele>276.616095</ele>
        <time>2020-08-09T10:18:39.707Z</time>
      </trkpt>
      <trkpt lat="64.09558" lon="10.50933">
        <ele>276.75704</ele>
        <time>2020-08-09T10:18:42.695Z</time>
      </trkpt>
      <trkpt lat="64.09567" lon="10.50933">
        <ele>276.900983</ele>
        <time>2020-08-09T10:18:45.703Z</time>
      </trkpt>
      <trkpt lat="64.09578" lon="10.50934">
        <ele>277.057443</ele>
        <time>2020-08-09T10:18:48.707Z</time>
      </trkpt>
      <trkpt lat="64.09588" lon="10.50934">
        <ele>277.212091</ele>
        <time>2020-08-09T10:18:51.732Z</time>
      </trkpt>
      <trkpt lat="64.09598" lon="10.50935">
        <ele>277.376036</ele>
        <time>2020-08-09T10:18:54.706Z</time>
      </trkpt>
      <trkpt lat="64.09609" lon="10.50937">
        <ele>277.543234</ele>
        <time>2020-08-09T10:18:57.700Z</time>
      </trkpt>
      <trkpt lat="64.0962" lon="10.50938">
        <ele>277.708764</ele>
        <time>2020-08-09T10:19:00.698Z</time>
      </trkpt>
      <trkpt lat="64.09631" lon="10.50942">
        <ele>277.874878</ele>
        <time>2020-08-09T10:19:03.692Z</time>
      </trkpt>
      <trkpt lat="64.09642" lon="10.50946">
        <ele>278.047367</ele>
        <time>2020-08-09T10:19:06.683Z</time>
      </trkpt>
      <trkpt lat="64.09653" lon="10.50952">
        <ele>278.21991</ele>
        <time>2020-08-09T10:19:09.704Z</time>
      </trkpt>
      <trkpt lat="64.09663" lon="10.50959">
        <ele>278.382203</ele>
        <time>2020-08-09T10:19:12.771Z</time>
      </trkpt>
      <trkpt lat="64.09674" lon="10.50965">
        <ele>278.204988</ele>
        <time>2020-08-09T10:19:15.712Z</time>
      </trkpt>
      <trkpt lat="64.09684" lon="10.50973">
        <ele>278.027677</ele>
        <time>2020-08-09T10:19:18.717Z</time>
      </trkpt>
      <trkpt lat="64.09693" lon="10.50982">
        <ele>277.855007</ele>
        <time>2020-08-09T10:19:21.684Z</time>
      </trkpt>
      <trkpt lat="64.09704" lon="10.50994">
        <ele>277.666983</ele>
        <time>2020-08-09T10:19:24.700Z</time>
      </trkpt>
      <trkpt lat="64.09712" lon="10.51009">
        <ele>277.490449</ele>
        <time>2020-08-09T10:19:27.713Z</time>
      </trkpt>
      <trkpt lat="64.0972" lon="10.51027">
        <ele>277.308975</ele>
        <time>2020-08-09T10:19:30.720Z</time>
      </trkpt>
      <trkpt lat="64.09727" lon="10.51047">
        <ele>277.116551</ele>
        <time>2020-08-09T10:19:33.739Z</time>
      </trkpt>
      <trkpt lat="64.09735" lon="10.51068">
        <ele>276.917037</ele>
        <time>2020-08-09T10:19:36.712Z</time>
      </trkpt>
      <trkpt lat="64.09742" lon="10.5109">
        <ele>276.71572</ele>
        <time>2020-08-09T10:19:39.696Z</time>
      </trkpt>
      <trkpt lat="64.09748" lon="10.51112">
        <ele>276.539208</ele>
        <time>2020-08-09T10:19:42.695Z</time>
      </trkpt>
      <trkpt lat="64.09752" lon="10.51131">
        <ele>276.377975</ele>
        <time>2020-08-09T10:19:45.718Z</time>
      </trkpt>
      <trkpt lat="64.09756" lon="10.51151">
        <ele>276.220505</ele>
        <time>2020-08-09T10:19:48.706Z</time>
      </trkpt>
      <trkpt lat="64.09759" lon="10.51172">
        <ele>276.068505</ele>
        <time>2020-08-09T10:19:51.736Z</time>
      </trkpt>
      <trkpt lat="64.09761" lon="10.51197">
        <ele>275.879372</ele>
        <time>2020-08-09T10:19:55.704Z</time>
      </trkpt>
      <trkpt lat="64.09761" lon="10.51224">
        <ele>275.69052</ele>
        <time>2020-08-09T10:19:59.714Z</time>
      </trkpt>
      <trkpt lat="64.09762" lon="10.51249">
        <ele>275.507875</ele>
        <time>2020-08-09T10:20:03.719Z</time>
      </trkpt>
      <trkpt lat="64.09761" lon="10.51273">
        <ele>275.51843</ele>
        <time>2020-08-09T10:20:07.710Z</time>
      </trkpt>
      <trkpt lat="64.0976" lon="10.51297">
        <ele>275.764107</ele>
        <time>2020-08-09T10:20:11.766Z</time>
      </trkpt>
      <trkpt lat="64.09758" lon="10.51321">
        <ele>276.01065</ele>
        <time>2020-08-09T10:20:15.703Z</time>
      </trkpt>
      <trkpt lat="64.09754" lon="10.51343">
        <ele>276.248795</ele>
        <time>2020-08-09T10:20:19.707Z</time>
      </trkpt>
      <trkpt lat="64.09751" lon="10.51364">
        <ele>276.469697</ele>
        <time>2020-08-09T10:20:23.699Z</time>
      </trkpt>
      <trkpt lat="64.09747" lon="10.51386">
        <ele>276.71158</ele>
        <time>2020-08-09T10:20:28.701Z</time>
      </trkpt>
      <trkpt lat="64.09742" lon="10.51405">
        <ele>276.933301</ele>
        <time>2020-08-09T10:20:33.725Z</time>
      </trkpt>
      <trkpt lat="64.09737" lon="10.51422">
        <ele>277.140616</ele>
        <time>2020-08-09T10:20:38.725Z</time>
      </trkpt>
      <trkpt lat="64.09731" lon="10.51442">
        <ele>277.382876</ele>
        <time>2020-08-09T10:20:44.712Z</time>
      </trkpt>
      <trkpt lat="64.09725" lon="10.51462">
        <ele>277.624219</ele>
        <time>2020-08-09T10:20:50.699Z</time>
      </trkpt>
      <trkpt lat="64.09719" lon="10.51479">
        <ele>277.844294</ele>
        <time>2020-08-09T10:20:55.720Z</time>
      </trkpt>
      <trkpt lat="64.09713" lon="10.51498">
        <ele>278.078991</ele>
        <time>2020-08-09T10:21:01.741Z</time>
      </trkpt>
      <trkpt lat="64.09706" lon="10.51516">
        <ele>278.321001</ele>
        <time>2020-08-09T10:21:07.755Z</time>
      </trkpt>
      <trkpt lat="64.097" lon="10.51531">
        <ele>278.53762</ele>
        <time>2020-08-09T10:21:12.702Z</time>
      </trkpt>
      <trkpt lat="64.09694" lon="10.51547">
        <ele>278.745493</ele>
        <time>2020-08-09T10:21:17.698Z</time>
      </trkpt>
      <trkpt lat="64.09688" lon="10.51564">
        <ele>278.967051</ele>
        <time>2020-08-09T10:21:23.701Z</time>
      </trkpt>
      <trkpt lat="64.09682" lon="10.51583">
        <ele>279.208396</ele>
        <time>2020-08-09T10:21:29.735Z</time>
      </trkpt>
      <trkpt lat="64.09676" lon="10.51601">
        <ele>279.429207</ele>
        <time>2020-08-09T10:21:34.692Z</time>
      </trkpt>
      <trkpt lat="64.0967" lon="10.51616">
        <ele>279.808144</ele>
        <time>2020-08-09T10:21:39.710Z</time>
      </trkpt>
      <trkpt lat="64.09663" lon="10.5163">
        <ele>280.442828</ele>
        <time>2020-08-09T10:21:44.717Z</time>
      </trkpt>
      <trkpt lat="64.09656" lon="10.51647">
        <ele>281.142343</ele>
        <time>2020-08-09T10:21:50.693Z</time>
      </trkpt>
      <trkpt lat="64.0965" lon="10.51665">
        <ele>281.883642</ele>
        <time>2020-08-09T10:21:56.708Z</time>
      </trkpt>
      <trkpt lat="64.09643" lon="10.51682">
        <ele>282.559938</ele>
        <time>2020-08-09T10:22:01.698Z</time>
      </trkpt>
      <trkpt lat="64.09637" lon="10.51699">
        <ele>283.252455</ele>
        <time>2020-08-09T10:22:06.695Z</time>
      </trkpt>
      <trkpt lat="64.0963" lon="10.51718">
        <ele>284.010405</ele>
        <time>2020-08-09T10:22:12.695Z</time>
      </trkpt>
      <trkpt lat="64.09625" lon="10.51735">
        <ele>284.667429</ele>
        <time>2020-08-09T10:22:17.741Z</time>
      </trkpt>
      <trkpt lat="64.09619" lon="10.51751">
        <ele>285.306105</ele>
        <time>2020-08-09T10:22:22.723Z</time>
      </trkpt>
      <trkpt lat="64.09614" lon="10.5177">
        <ele>286.005731</ele>
        <time>2020-08-09T10:22:28.700Z</time>
      </trkpt>
      <trkpt lat="64.09608" lon="10.51788">
        <ele>286.683276</ele>
        <time>2020-08-09T10:22:34.704Z</time>
      </trkpt>
      <trkpt lat="64.09603" lon="10.51807">
        <ele>287.388003</ele>
        <time>2020-08-09T10:22:40.693Z</time>
      </trkpt>
      <trkpt lat="64.09598" lon="10.51827">
        <ele>288.084876</ele>
        <time>2020-08-09T10:22:46.715Z</time>
      </trkpt>
      <trkpt lat="64.09593" lon="10.51848">
        <ele>288.818994</ele>
        <time>2020-08-09T10:22:52.722Z</time>
      </trkpt>
      <trkpt lat="64.09588" lon="10.51869">
        <ele>289.563309</ele>
        <time>2020-08-09T10:22:58.687Z</time>
      </trkpt>
      <trkpt lat="64.09584" lon="10.5189">
        <ele>290.250477</ele>
        <time>2020-08-09T10:23:04.735Z</time>
      </trkpt>
      <trkpt lat="64.09581" lon="10.51912">
        <ele>290.989485</ele>
        <time>2020-08-09T10:23:10.720Z</time>
      </trkpt>
      <trkpt lat="64.09578" lon="10.51935">
        <ele>291.708916</ele>
        <time>2020-08-09T10:23:16.695Z</time>
      </trkpt>
      <trkpt lat="64.09576" lon="10.51958">
        <ele>292.396869</ele>
        <time>2020-08-09T10:23:22.707Z</time>
      </trkpt>
      <trkpt lat="64.09574" lon="10.51981">
        <ele>292.970452</ele>
        <time>2020-08-09T10:23:28.742Z</time>
      </trkpt>
      <trkpt lat="64.09571" lon="10.52004">
        <ele>293.558196</ele>
        <time>2020-08-09T10:23:34.707Z</time>
      </trkpt>
      <trkpt lat="64.09571" lon="10.52029">
        <ele>294.151348</ele>
        <time>2020-08-09T10:23:40.688Z</time>
      </trkpt>
      <trkpt lat="64.09571" lon="10.52051">
        <ele>294.686831</ele>
        <time>2020-08-09T10:23:45.709Z</time>
      </trkpt>
      <trkpt lat="64.09571" lon="10.52074">
        <ele>295.232918</ele>
        <time>2020-08-09T10:23:50.683Z</time>
      </trkpt>
      <trkpt lat="64.09572" lon="10.52094">
        <ele>295.73515</ele>
        <time>2020-08-09T10:23:55.701Z</time>
      </trkpt>
      <trkpt lat="64.09573" lon="10.52117">
        <ele>296.297122</ele>
        <time>2020-08-09T10:24:01.708Z</time>
      </trkpt>
      <trkpt lat="64.09574" lon="10.52138">
        <ele>296.809846</ele>
        <time>2020-08-09T10:24:06.709Z</time>
      </trkpt>
      <trkpt lat="64.09576" lon="10.5216">
        <ele>297.330683</ele>
        <time>2020-08-09T10:24:11.706Z</time>
      </trkpt>
      <trkpt lat="64.09577" lon="10.52182">
        <ele>297.868135</ele>
        <time>2020-08-09T10:24:16.695Z</time>
      </trkpt>
      <trkpt lat="64.0958" lon="10.52202">
        <ele>298.399315</ele>
        <time>2020-08-09T10:24:21.692Z</time>
      </trkpt>
      <trkpt lat="64.09586" lon="10.52222">
        <ele>298.950326</ele>
        <time>2020-08-09T10:24:26.700Z</time>
      </trkpt>
      <trkpt lat="64.0959" lon="10.52242">
        <ele>299.498672</ele>
        <time>2020-08-09T10:24:31.712Z</time>
      </trkpt>
      <trkpt lat="64.09594" lon="10.52262">
        <ele>300.049198</ele>
        <time>2020-08-09T10:24:36.699Z</time>
      </trkpt>
      <trkpt lat="64.096" lon="10.52282">
        <ele>300.628592</ele>
        <time>2020-08-09T10:24:42.707Z</time>
      </trkpt>
      <trkpt lat="64.09606" lon="10.52302">
        <ele>301.20604</ele>
        <time>2020-08-09T10:24:48.721Z</time>
      </trkpt>
      <trkpt lat="64.09611" lon="10.5232">
        <ele>301.727295</ele>
        <time>2020-08-09T10:24:53.703Z</time>
      </trkpt>
      <trkpt lat="64.09617" lon="10.52336">
        <ele>302.225048</ele>
        <time>2020-08-09T10:24:58.724Z</time>
      </trkpt>
      <trkpt lat="64.09623" lon="10.52351">
        <ele>302.458332</ele>
        <time>2020-08-09T10:25:03.711Z</time>
      </trkpt>
      <trkpt lat="64.0963" lon="10.52368">
        <ele>302.703087</ele>
        <time>2020-08-09T10:25:08.701Z</time>
      </trkpt>
      <trkpt lat="64.09638" lon="10.52384">
        <ele>302.964082</ele>
        <time>2020-08-09T10:25:14.716Z</time>
      </trkpt>
      <trkpt lat="64.09646" lon="10.52397">
        <ele>303.192861</ele>
        <time>2020-08-09T10:25:19.701Z</time>
      </trkpt>
      <trkpt lat="64.09653" lon="10.52411">
        <ele>303.415692</ele>
        <time>2020-08-09T10:25:24.716Z</time>
      </trkpt>
      <trkpt lat="64.0966" lon="10.52424">
        <ele>303.651398</ele>
        <time>2020-08-09T10:25:29.699Z</time>
      </trkpt>
      <trkpt lat="64.0967" lon="10.52438">
        <ele>303.921936</ele>
        <time>2020-08-09T10:25:34.699Z</time>
      </trkpt>
      <trkpt lat="64.09679" lon="10.5245">
        <ele>304.181204</ele>
        <time>2020-08-09T10:25:39.701Z</time>
      </trkpt>
      <trkpt lat="64.09687" lon="10.52462">
        <ele>304.422468</ele>
        <time>2020-08-09T10:25:44.692Z</time>
      </trkpt>
      <trkpt lat="64.09696" lon="10.52475">
        <ele>304.668211</ele>
        <time>2020-08-09T10:25:50.693Z</time>
      </trkpt>
      <trkpt lat="64.09704" lon="10.52485">
        <ele>304.902029</ele>
        <time>2020-08-09T10:25:55.707Z</time>
      </trkpt>
      <trkpt lat="64.09712" lon="10.52496">
        <ele>305.140621</ele>
        <time>2020-08-09T10:26:00.693Z</time>
      </trkpt>
      <trkpt lat="64.0972" lon="10.52507">
        <ele>305.368109</ele>
        <time>2020-08-09T10:26:05.716Z</time>
      </trkpt>
      <trkpt lat="64.0973" lon="10.52517">
        <ele>305.62006</ele>
        <time>2020-08-09T10:26:10.704Z</time>
      </trkpt>
      <trkpt lat="64.09738" lon="10.52526">
        <ele>305.848062</ele>
        <time>2020-08-09T10:26:15.703Z</time>
      </trkpt>
      <trkpt lat="64.09746" lon="10.52537">
        <ele>306.067563</ele>
        <time>2020-08-09T10:26:20.692Z</time>
      </trkpt>
      <trkpt lat="64.09755" lon="10.52547">
        <ele>306.313911</ele>
        <time>2020-08-09T10:26:25.702Z</time>
      </trkpt>
      <trkpt lat="64.09764" lon="10.52559">
        <ele>306.573215</ele>
        <time>2020-08-09T10:26:31.699Z</time>
      </trkpt>
      <trkpt lat="64.09773" lon="10.52569">
        <ele>306.917856</ele>
        <time>2020-08-09T10:26:36.703Z</time>
      </trkpt>
      <trkpt lat="64.09782" lon="10.5258">
        <ele>307.323766</ele>
        <time>2020-08-09T10:26:41.684Z</time>
      </trkpt>
      <trkpt lat="64.0979" lon="10.52591">
        <ele>307.69225</ele>
        <time>2020-08-09T10:26:46.713Z</time>
      </trkpt>
      <trkpt lat="64.09798" lon="10.52601">
        <ele>308.058466</ele>
        <time>2020-08-09T10:26:51.727Z</time>
      </trkpt>
      <trkpt lat="64.09808" lon="10.52611">
        <ele>308.459203</ele>
        <time>2020-08-09T10:26:56.680Z</time>
      </trkpt>
      <trkpt lat="64.09816" lon="10.52621">
        <ele>308.84202</ele>
        <time>2020-08-09T10:27:01.704Z</time>
      </trkpt>
      <trkpt lat="64.09825" lon="10.52631">
        <ele>309.227982</ele>
        <time>2020-08-09T10:27:06.721Z</time>
      </trkpt>
      <trkpt lat="64.09834" lon="10.52641">
        <ele>309.613622</ele>
        <time>2020-08-09T10:27:11.702Z</time>
      </trkpt>
      <trkpt lat="64.09843" lon="10.52652">
        <ele>310.004323</ele>
        <time>2020-08-09T10:27:16.696Z</time>
      </trkpt>
      <trkpt lat="64.09852" lon="10.52664">
        <ele>310.431387</ele>
        <time>2020-08-09T10:27:21.736Z</time>
      </trkpt>
      <trkpt lat="64.09862" lon="10.52676">
        <ele>310.849242</ele>
        <time>2020-08-09T10:27:26.689Z</time>
      </trkpt>
      <trkpt lat="64.09871" lon="10.52686">
        <ele>311.237758</ele>
        <time>2020-08-09T10:27:31.697Z</time>
      </trkpt>
      <trkpt lat="64.09879" lon="10.52698">
        <ele>311.624291</ele>
        <time>2020-08-09T10:27:36.733Z</time>
      </trkpt>
      <trkpt lat="64.09887" lon="10.52708">
        <ele>312.002109</ele>
        <time>2020-08-09T10:27:41.700Z</time>
      </trkpt>
      <trkpt lat="64.09896" lon="10.52719">
        <ele>312.384174</ele>
        <time>2020-08-09T10:27:46.728Z</time>
      </trkpt>
      <trkpt lat="64.09906" lon="10.5273">
        <ele>312.81329</ele>
        <time>2020-08-09T10:27:51.687Z</time>
      </trkpt>
      <trkpt lat="64.09915" lon="10.5274">
        <ele>313.199249</ele>
        <time>2020-08-09T10:27:56.691Z</time>
      </trkpt>
      <trkpt lat="64.09923" lon="10.52751">
        <ele>313.583068</ele>
        <time>2020-08-09T10:28:01.688Z</time>
      </trkpt>
      <trkpt lat="64.09932" lon="10.52762">
        <ele>313.667491</ele>
        <time>2020-08-09T10:28:06.701Z</time>
      </trkpt>
      <trkpt lat="64.09941" lon="10.52772">
        <ele>313.67037</ele>
        <time>2020-08-09T10:28:11.696Z</time>
      </trkpt>
      <trkpt lat="64.0995" lon="10.52782">
        <ele>313.67334</ele>
        <time>2020-08-09T10:28:16.684Z</time>
      </trkpt>
      <trkpt lat="64.0996" lon="10.52794">
        <ele>313.676512</ele>
        <time>2020-08-09T10:28:21.683Z</time>
      </trkpt>
      <trkpt lat="64.09969" lon="10.52804">
        <ele>313.679457</ele>
        <time>2020-08-09T10:28:26.724Z</time>
      </trkpt>
      <trkpt lat="64.09979" lon="10.52816">
        <ele>313.682621</ele>
        <time>2020-08-09T10:28:31.697Z</time>
      </trkpt>
      <trkpt lat="64.09989" lon="10.52827">
        <ele>313.685708</ele>
        <time>2020-08-09T10:28:36.698Z</time>
      </trkpt>
      <trkpt lat="64.09997" lon="10.52837">
        <ele>313.688342</ele>
        <time>2020-08-09T10:28:40.718Z</time>
      </trkpt>
      <trkpt lat="64.10005" lon="10.52848">
        <ele>313.691206</ele>
        <time>2020-08-09T10:28:44.704Z</time>
      </trkpt>
      <trkpt lat="64.10015" lon="10.52862">
        <ele>313.694468</ele>
        <time>2020-08-09T10:28:48.714Z</time>
      </trkpt>
      <trkpt lat="64.10024" lon="10.52872">
        <ele>313.697316</ele>
        <time>2020-08-09T10:28:51.697Z</time>
      </trkpt>
      <trkpt lat="64.10033" lon="10.52882">
        <ele>313.700286</ele>
        <time>2020-08-09T10:28:54.707Z</time>
      </trkpt>
      <trkpt lat="64.10043" lon="10.52893">
        <ele>313.703502</ele>
        <time>2020-08-09T10:28:57.733Z</time>
      </trkpt>
      <trkpt lat="64.10054" lon="10.52905">
        <ele>313.706908</ele>
        <time>2020-08-09T10:29:00.742Z</time>
      </trkpt>
      <trkpt lat="64.10066" lon="10.52919">
        <ele>313.710773</ele>
        <time>2020-08-09T10:29:03.706Z</time>
      </trkpt>
      <trkpt lat="64.10075" lon="10.52929">
        <ele>313.713597</ele>
        <time>2020-08-09T10:29:05.700Z</time>
      </trkpt>
      <trkpt lat="64.10084" lon="10.5294">
        <ele>313.716605</ele>
        <time>2020-08-09T10:29:07.733Z</time>
      </trkpt>
      <trkpt lat="64.10094" lon="10.52952">
        <ele>313.237608</ele>
        <time>2020-08-09T10:29:09.708Z</time>
      </trkpt>
      <trkpt lat="64.10105" lon="10.52966">
        <ele>312.653674</ele>
        <time>2020-08-09T10:29:11.695Z</time>
      </trkpt>
      <trkpt lat="64.10117" lon="10.52981">
        <ele>312.008918</ele>
        <time>2020-08-09T10:29:13.688Z</time>
      </trkpt>
      <trkpt lat="64.1013" lon="10.52996">
        <ele>311.32087</ele>
        <time>2020-08-09T10:29:15.690Z</time>
      </trkpt>
      <trkpt lat="64.10145" lon="10.53013">
        <ele>310.566059</ele>
        <time>2020-08-09T10:29:17.718Z</time>
      </trkpt>
      <trkpt lat="64.1016" lon="10.53032">
        <ele>309.750121</ele>
        <time>2020-08-09T10:29:19.717Z</time>
      </trkpt>
      <trkpt lat="64.10176" lon="10.53051">
        <ele>308.920505</ele>
        <time>2020-08-09T10:29:21.718Z</time>
      </trkpt>
      <trkpt lat="64.10184" lon="10.53061">
        <ele>308.497916</ele>
        <time>2020-08-09T10:29:22.718Z</time>
      </trkpt>
      <trkpt lat="64.10192" lon="10.5307">
        <ele>308.071179</ele>
        <time>2020-08-09T10:29:23.692Z</time>
      </trkpt>
      <trkpt lat="64.102" lon="10.5308">
        <ele>307.640282</ele>
        <time>2020-08-09T10:29:24.723Z</time>
      </trkpt>
      <trkpt lat="64.10208" lon="10.5309">
        <ele>307.203355</ele>
        <time>2020-08-09T10:29:25.696Z</time>
      </trkpt>
      <trkpt lat="64.10217" lon="10.531">
        <ele>306.751144</ele>
        <time>2020-08-09T10:29:26.695Z</time>
      </trkpt>
      <trkpt lat="64.10226" lon="10.5311">
        <ele>306.299861</ele>
        <time>2020-08-09T10:29:27.700Z</time>
      </trkpt>
      <trkpt lat="64.10234" lon="10.5312">
        <ele>305.84577</ele>
        <time>2020-08-09T10:29:28.719Z</time>
      </trkpt>
      <trkpt lat="64.10243" lon="10.5313">
        <ele>305.397718</ele>
        <time>2020-08-09T10:29:29.735Z</time>
      </trkpt>
      <trkpt lat="64.10251" lon="10.53141">
        <ele>304.960158</ele>
        <time>2020-08-09T10:29:30.726Z</time>
      </trkpt>
      <trkpt lat="64.10259" lon="10.53152">
        <ele>304.523485</ele>
        <time>2020-08-09T10:29:31.727Z</time>
      </trkpt>
      <trkpt lat="64.10268" lon="10.53163">
        <ele>304.086812</ele>
        <time>2020-08-09T10:29:32.724Z</time>
      </trkpt>
      <trkpt lat="64.10276" lon="10.53173">
        <ele>303.646148</ele>
        <time>2020-08-09T10:29:33.730Z</time>
      </trkpt>
      <trkpt lat="64.10285" lon="10.53184">
        <ele>303.206149</ele>
        <time>2020-08-09T10:29:34.734Z</time>
      </trkpt>
      <trkpt lat="64.10293" lon="10.53194">
        <ele>302.770179</ele>
        <time>2020-08-09T10:29:35.684Z</time>
      </trkpt>
      <trkpt lat="64.10301" lon="10.53204">
        <ele>302.346233</ele>
        <time>2020-08-09T10:29:36.692Z</time>
      </trkpt>
      <trkpt lat="64.1031" lon="10.53215">
        <ele>301.912534</ele>
        <time>2020-08-09T10:29:37.687Z</time>
      </trkpt>
      <trkpt lat="64.10318" lon="10.53226">
        <ele>301.479811</ele>
        <time>2020-08-09T10:29:38.709Z</time>
      </trkpt>
      <trkpt lat="64.10326" lon="10.53236">
        <ele>301.049978</ele>
        <time>2020-08-09T10:29:39.759Z</time>
      </trkpt>
      <trkpt lat="64.10335" lon="10.53246">
        <ele>300.627913</ele>
        <time>2020-08-09T10:29:40.701Z</time>
      </trkpt>
      <trkpt lat="64.10343" lon="10.53256">
        <ele>300.19872</ele>
        <time>2020-08-09T10:29:41.728Z</time>
      </trkpt>
      <trkpt lat="64.10351" lon="10.53266">
        <ele>299.770432</ele>
        <time>2020-08-09T10:29:42.705Z</time>
      </trkpt>
      <trkpt lat="64.1036" lon="10.53276">
        <ele>299.344353</ele>
        <time>2020-08-09T10:29:43.762Z</time>
      </trkpt>
      <trkpt lat="64.10368" lon="10.53286">
        <ele>298.912404</ele>
        <time>2020-08-09T10:29:44.745Z</time>
      </trkpt>
      <trkpt lat="64.10376" lon="10.53296">
        <ele>298.484116</ele>
        <time>2020-08-09T10:29:45.736Z</time>
      </trkpt>
      <trkpt lat="64.10385" lon="10.53305">
        <ele>298.060241</ele>
        <time>2020-08-09T10:29:46.710Z</time>
      </trkpt>
      <trkpt lat="64.10393" lon="10.53314">
        <ele>297.643642</ele>
        <time>2020-08-09T10:29:47.696Z</time>
      </trkpt>
      <trkpt lat="64.10401" lon="10.53324">
        <ele>297.231463</ele>
        <time>2020-08-09T10:29:48.695Z</time>
      </trkpt>
      <trkpt lat="64.10409" lon="10.53334">
        <ele>297.319005</ele>
        <time>2020-08-09T10:29:49.709Z</time>
      </trkpt>
      <trkpt lat="64.10417" lon="10.53343">
        <ele>297.565076</ele>
        <time>2020-08-09T10:29:50.690Z</time>
      </trkpt>
      <trkpt lat="64.10432" lon="10.53362">
        <ele>298.049341</ele>
        <time>2020-08-09T10:29:52.718Z</time>
      </trkpt>
      <trkpt lat="64.10447" lon="10.5338">
        <ele>298.494614</ele>
        <time>2020-08-09T10:29:54.696Z</time>
      </trkpt>
      <trkpt lat="64.1046" lon="10.53396">
        <ele>298.908182</ele>
        <time>2020-08-09T10:29:56.696Z</time>
      </trkpt>
      <trkpt lat="64.10472" lon="10.5341">
        <ele>299.29105</ele>
        <time>2020-08-09T10:29:58.715Z</time>
      </trkpt>
      <trkpt lat="64.10483" lon="10.53423">
        <ele>299.631861</ele>
        <time>2020-08-09T10:30:00.692Z</time>
      </trkpt>
      <trkpt lat="64.10493" lon="10.53435">
        <ele>299.923329</ele>
        <time>2020-08-09T10:30:02.699Z</time>
      </trkpt>
      <trkpt lat="64.10501" lon="10.53445">
        <ele>300.175835</ele>
        <time>2020-08-09T10:30:04.692Z</time>
      </trkpt>
      <trkpt lat="64.1051" lon="10.53457">
        <ele>300.477385</ele>
        <time>2020-08-09T10:30:07.700Z</time>
      </trkpt>
      <trkpt lat="64.10519" lon="10.53467">
        <ele>300.745164</ele>
        <time>2020-08-09T10:30:10.716Z</time>
      </trkpt>
      <trkpt lat="64.10528" lon="10.53477">
        <ele>301.015249</ele>
        <time>2020-08-09T10:30:14.716Z</time>
      </trkpt>
      <trkpt lat="64.10536" lon="10.53486">
        <ele>301.282521</ele>
        <time>2020-08-09T10:30:19.693Z</time>
      </trkpt>
      <trkpt lat="64.10545" lon="10.53497">
        <ele>301.558422</ele>
        <time>2020-08-09T10:30:24.700Z</time>
      </trkpt>
      <trkpt lat="64.10554" lon="10.53508">
        <ele>301.831901</ele>
        <time>2020-08-09T10:30:29.693Z</time>
      </trkpt>
      <trkpt lat="64.10562" lon="10.53518">
        <ele>302.096892</ele>
        <time>2020-08-09T10:30:34.687Z</time>
      </trkpt>
      <trkpt lat="64.10571" lon="10.53529">
        <ele>302.475858</ele>
        <time>2020-08-09T10:30:39.713Z</time>
      </trkpt>
      <trkpt lat="64.1058" lon="10.53541">
        <ele>302.864623</ele>
        <time>2020-08-09T10:30:44.704Z</time>
      </trkpt>
      <trkpt lat="64.1059" lon="10.53552">
        <ele>303.265779</ele>
        <time>2020-08-09T10:30:49.688Z</time>
      </trkpt>
      <trkpt lat="64.10599" lon="10.53563">
        <ele>303.647486</ele>
        <time>2020-08-09T10:30:54.705Z</time>
      </trkpt>
      <trkpt lat="64.10607" lon="10.53575">
        <ele>304.031488</ele>
        <time>2020-08-09T10:30:59.705Z</time>
      </trkpt>
      <trkpt lat="64.10616" lon="10.53585">
        <ele>304.391946</ele>
        <time>2020-08-09T10:31:04.709Z</time>
      </trkpt>
      <trkpt lat="64.10625" lon="10.53597">
        <ele>304.78069</ele>
        <time>2020-08-09T10:31:09.698Z</time>
      </trkpt>
      <trkpt lat="64.10634" lon="10.53609">
        <ele>305.19476</ele>
        <time>2020-08-09T10:31:14.698Z</time>
      </trkpt>
      <trkpt lat="64.10643" lon="10.5362">
        <ele>305.560659</ele>
        <time>2020-08-09T10:31:18.727Z</time>
      </trkpt>
      <trkpt lat="64.10652" lon="10.53632">
        <ele>305.9478</ele>
        <time>2020-08-09T10:31:22.726Z</time>
      </trkpt>
      <trkpt lat="64.10663" lon="10.53644">
        <ele>306.400691</ele>
        <time>2020-08-09T10:31:26.696Z</time>
      </trkpt>
      <trkpt lat="64.10671" lon="10.53655">
        <ele>306.780597</ele>
        <time>2020-08-09T10:31:29.701Z</time>
      </trkpt>
      <trkpt lat="64.10681" lon="10.53666">
        <ele>307.18393</ele>
        <time>2020-08-09T10:31:32.707Z</time>
      </trkpt>
      <trkpt lat="64.10692" lon="10.53678">
        <ele>307.62757</ele>
        <time>2020-08-09T10:31:35.699Z</time>
      </trkpt>
      <trkpt lat="64.107" lon="10.53687">
        <ele>307.965277</ele>
        <time>2020-08-09T10:31:37.707Z</time>
      </trkpt>
      <trkpt lat="64.10709" lon="10.53698">
        <ele>308.342882</ele>
        <time>2020-08-09T10:31:39.692Z</time>
      </trkpt>
      <trkpt lat="64.10718" lon="10.53708">
        <ele>308.738008</ele>
        <time>2020-08-09T10:31:41.727Z</time>
      </trkpt>
      <trkpt lat="64.10728" lon="10.5372">
        <ele>308.579764</ele>
        <time>2020-08-09T10:31:43.710Z</time>
      </trkpt>
      <trkpt lat="64.10738" lon="10.53732">
        <ele>308.142124</ele>
        <time>2020-08-09T10:31:45.695Z</time>
      </trkpt>
      <trkpt lat="64.10749" lon="10.53744">
        <ele>307.682504</ele>
        <time>2020-08-09T10:31:47.693Z</time>
      </trkpt>
      <trkpt lat="64.10761" lon="10.53759">
        <ele>307.194027</ele>
        <time>2020-08-09T10:31:49.715Z</time>
      </trkpt>
      <trkpt lat="64.10773" lon="10.53773">
        <ele>306.695744</ele>
        <time>2020-08-09T10:31:51.697Z</time>
      </trkpt>
      <trkpt lat="64.10785" lon="10.53788">
        <ele>306.189701</ele>
        <time>2020-08-09T10:31:53.696Z</time>
      </trkpt>
      <trkpt lat="64.10798" lon="10.53802">
        <ele>305.676085</ele>
        <time>2020-08-09T10:31:55.688Z</time>
      </trkpt>
      <trkpt lat="64.1081" lon="10.53816">
        <ele>305.173409</ele>
        <time>2020-08-09T10:31:57.701Z</time>
      </trkpt>
      <trkpt lat="64.10821" lon="10.5383">
        <ele>304.688948</ele>
        <time>2020-08-09T10:31:59.700Z</time>
      </trkpt>
      <trkpt lat="64.10833" lon="10.53844">
        <ele>304.224552</ele>
        <time>2020-08-09T10:32:01.688Z</time>
      </trkpt>
      <trkpt lat="64.10843" lon="10.53857">
        <ele>303.786696</ele>
        <time>2020-08-09T10:32:03.724Z</time>
      </trkpt>
      <trkpt lat="64.10853" lon="10.53869">
        <ele>303.375312</ele>
        <time>2020-08-09T10:32:05.691Z</time>
      </trkpt>
      <trkpt lat="64.10862" lon="10.53881">
        <ele>302.987888</ele>
        <time>2020-08-09T10:32:07.714Z</time>
      </trkpt>
      <trkpt lat="64.1087" lon="10.53892">
        <ele>302.626069</ele>
        <time>2020-08-09T10:32:09.692Z</time>
      </trkpt>
      <trkpt lat="64.10879" lon="10.53903">
        <ele>302.26991</ele>
        <time>2020-08-09T10:32:11.693Z</time>
      </trkpt>
      <trkpt lat="64.10887" lon="10.53913">
        <ele>302.229607</ele>
        <time>2020-08-09T10:32:13.696Z</time>
      </trkpt>
      <trkpt lat="64.10895" lon="10.53924">
        <ele>302.234031</ele>
        <time>2020-08-09T10:32:15.686Z</time>
      </trkpt>
      <trkpt lat="64.10906" lon="10.53939">
        <ele>302.240405</ele>
        <time>2020-08-09T10:32:18.708Z</time>
      </trkpt>
      <trkpt lat="64.10918" lon="10.53953">
        <ele>302.246675</ele>
        <time>2020-08-09T10:32:21.694Z</time>
      </trkpt>
      <trkpt lat="64.10929" lon="10.53968">
        <ele>302.253049</ele>
        <time>2020-08-09T10:32:24.709Z</time>
      </trkpt>
      <trkpt lat="64.1094" lon="10.53981">
        <ele>302.259121</ele>
        <time>2020-08-09T10:32:27.707Z</time>
      </trkpt>
      <trkpt lat="64.10951" lon="10.53994">
        <ele>302.264897</ele>
        <time>2020-08-09T10:32:30.726Z</time>
      </trkpt>
      <trkpt lat="64.10961" lon="10.54006">
        <ele>302.270533</ele>
        <time>2020-08-09T10:32:33.728Z</time>
      </trkpt>
      <trkpt lat="64.10971" lon="10.54018">
        <ele>302.275955</ele>
        <time>2020-08-09T10:32:36.700Z</time>
      </trkpt>
      <trkpt lat="64.10981" lon="10.5403">
        <ele>302.28128</ele>
        <time>2020-08-09T10:32:39.707Z</time>
      </trkpt>
      <trkpt lat="64.10991" lon="10.54042">
        <ele>302.286916</ele>
        <time>2020-08-09T10:32:42.685Z</time>
      </trkpt>
      <trkpt lat="64.11002" lon="10.54055">
        <ele>302.292701</ele>
        <time>2020-08-09T10:32:45.703Z</time>
      </trkpt>
      <trkpt lat="64.11013" lon="10.54067">
        <ele>302.29862</ele>
        <time>2020-08-09T10:32:48.699Z</time>
      </trkpt>
      <trkpt lat="64.11024" lon="10.54082">
        <ele>302.304995</ele>
        <time>2020-08-09T10:32:51.699Z</time>
      </trkpt>
      <trkpt lat="64.11033" lon="10.54091">
        <ele>302.30954</ele>
        <time>2020-08-09T10:32:53.701Z</time>
      </trkpt>
      <trkpt lat="64.11041" lon="10.54102">
        <ele>302.244691</ele>
        <time>2020-08-09T10:32:55.699Z</time>
      </trkpt>
      <trkpt lat="64.11049" lon="10.54113">
        <ele>302.014219</ele>
        <time>2020-08-09T10:32:57.720Z</time>
      </trkpt>
      <trkpt lat="64.11058" lon="10.54125">
        <ele>301.777115</ele>
        <time>2020-08-09T10:32:59.701Z</time>
      </trkpt>
      <trkpt lat="64.11067" lon="10.54136">
        <ele>301.525078</ele>
        <time>2020-08-09T10:33:01.750Z</time>
      </trkpt>
      <trkpt lat="64.11077" lon="10.54149">
        <ele>301.266416</ele>
        <time>2020-08-09T10:33:03.708Z</time>
      </trkpt>
      <trkpt lat="64.11087" lon="10.54164">
        <ele>300.989333</ele>
        <time>2020-08-09T10:33:05.695Z</time>
      </trkpt>
      <trkpt lat="64.11097" lon="10.5418">
        <ele>300.701398</ele>
        <time>2020-08-09T10:33:07.717Z</time>
      </trkpt>
      <trkpt lat="64.11107" lon="10.54196">
        <ele>300.403105</ele>
        <time>2020-08-09T10:33:09.721Z</time>
      </trkpt>
      <trkpt lat="64.11118" lon="10.54212">
        <ele>300.091528</ele>
        <time>2020-08-09T10:33:11.710Z</time>
      </trkpt>
      <trkpt lat="64.1113" lon="10.54229">
        <ele>299.75993</ele>
        <time>2020-08-09T10:33:13.720Z</time>
      </trkpt>
      <trkpt lat="64.11143" lon="10.54245">
        <ele>299.416824</ele>
        <time>2020-08-09T10:33:15.699Z</time>
      </trkpt>
      <trkpt lat="64.11156" lon="10.54263">
        <ele>299.055702</ele>
        <time>2020-08-09T10:33:17.697Z</time>
      </trkpt>
      <trkpt lat="64.11169" lon="10.54282">
        <ele>298.687707</ele>
        <time>2020-08-09T10:33:19.735Z</time>
      </trkpt>
      <trkpt lat="64.11182" lon="10.54301">
        <ele>298.324979</ele>
        <time>2020-08-09T10:33:21.683Z</time>
      </trkpt>
      <trkpt lat="64.11195" lon="10.5432">
        <ele>298.042334</ele>
        <time>2020-08-09T10:33:23.722Z</time>
      </trkpt>
      <trkpt lat="64.11208" lon="10.54338">
        <ele>297.960685</ele>
        <time>2020-08-09T10:33:25.726Z</time>
      </trkpt>
      <trkpt lat="64.1122" lon="10.54356">
        <ele>297.883124</ele>
        <time>2020-08-09T10:33:27.729Z</time>
      </trkpt>
      <trkpt lat="64.11232" lon="10.54372">
        <ele>297.80886</ele>
        <time>2020-08-09T10:33:29.694Z</time>
      </trkpt>
      <trkpt lat="64.11243" lon="10.54388">
        <ele>297.737892</ele>
        <time>2020-08-09T10:33:31.713Z</time>
      </trkpt>
      <trkpt lat="64.11253" lon="10.54404">
        <ele>297.671205</ele>
        <time>2020-08-09T10:33:33.704Z</time>
      </trkpt>
      <trkpt lat="64.11263" lon="10.54419">
        <ele>297.606713</ele>
        <time>2020-08-09T10:33:35.701Z</time>
      </trkpt>
      <trkpt lat="64.11273" lon="10.54434">
        <ele>297.542742</ele>
        <time>2020-08-09T10:33:37.695Z</time>
      </trkpt>
      <trkpt lat="64.11283" lon="10.54448">
        <ele>297.478759</ele>
        <time>2020-08-09T10:33:39.688Z</time>
      </trkpt>
      <trkpt lat="64.11293" lon="10.54461">
        <ele>297.416634</ele>
        <time>2020-08-09T10:33:41.692Z</time>
      </trkpt>
      <trkpt lat="64.11303" lon="10.54475">
        <ele>297.356091</ele>
        <time>2020-08-09T10:33:43.689Z</time>
      </trkpt>
      <trkpt lat="64.11312" lon="10.54488">
        <ele>297.297473</ele>
        <time>2020-08-09T10:33:45.699Z</time>
      </trkpt>
      <trkpt lat="64.1132" lon="10.54501">
        <ele>297.241135</ele>
        <time>2020-08-09T10:33:47.732Z</time>
      </trkpt>
      <trkpt lat="64.11329" lon="10.54514">
        <ele>297.185379</ele>
        <time>2020-08-09T10:33:49.711Z</time>
      </trkpt>
      <trkpt lat="64.11338" lon="10.54527">
        <ele>297.129255</ele>
        <time>2020-08-09T10:33:51.721Z</time>
      </trkpt>
      <trkpt lat="64.11347" lon="10.54539">
        <ele>297.086272</ele>
        <time>2020-08-09T10:33:53.694Z</time>
      </trkpt>
      <trkpt lat="64.11355" lon="10.5455">
        <ele>297.06712</ele>
        <time>2020-08-09T10:33:55.740Z</time>
      </trkpt>
      <trkpt lat="64.11363" lon="10.54563">
        <ele>297.047997</ele>
        <time>2020-08-09T10:33:57.706Z</time>
      </trkpt>
      <trkpt lat="64.11372" lon="10.54574">
        <ele>297.029192</ele>
        <time>2020-08-09T10:33:59.747Z</time>
      </trkpt>
      <trkpt lat="64.1138" lon="10.54585">
        <ele>297.010052</ele>
        <time>2020-08-09T10:34:01.715Z</time>
      </trkpt>
      <trkpt lat="64.11388" lon="10.54596">
        <ele>296.991337</ele>
        <time>2020-08-09T10:34:03.697Z</time>
      </trkpt>
      <trkpt lat="64.11397" lon="10.54606">
        <ele>296.972002</ele>
        <time>2020-08-09T10:34:05.689Z</time>
      </trkpt>
      <trkpt lat="64.11406" lon="10.54616">
        <ele>296.953149</ele>
        <time>2020-08-09T10:34:07.706Z</time>
      </trkpt>
      <trkpt lat="64.11414" lon="10.54627">
        <ele>296.934731</ele>
        <time>2020-08-09T10:34:09.705Z</time>
      </trkpt>
      <trkpt lat="64.11422" lon="10.54637">
        <ele>296.916132</ele>
        <time>2020-08-09T10:34:11.755Z</time>
      </trkpt>
      <trkpt lat="64.11432" lon="10.54646">
        <ele>296.896125</ele>
        <time>2020-08-09T10:34:13.701Z</time>
      </trkpt>
      <trkpt lat="64.11441" lon="10.54654">
        <ele>296.876038</ele>
        <time>2020-08-09T10:34:15.697Z</time>
      </trkpt>
      <trkpt lat="64.11451" lon="10.54663">
        <ele>296.854973</ele>
        <time>2020-08-09T10:34:17.719Z</time>
      </trkpt>
      <trkpt lat="64.11462" lon="10.54669">
        <ele>296.833313</ele>
        <time>2020-08-09T10:34:19.725Z</time>
      </trkpt>
      <trkpt lat="64.11473" lon="10.54674">
        <ele>296.811376</ele>
        <time>2020-08-09T10:34:21.707Z</time>
      </trkpt>
      <trkpt lat="64.11485" lon="10.54678">
        <ele>296.787577</ele>
        <time>2020-08-09T10:34:23.713Z</time>
      </trkpt>
      <trkpt lat="64.11497" lon="10.54682">
        <ele>296.763245</ele>
        <time>2020-08-09T10:34:25.711Z</time>
      </trkpt>
      <trkpt lat="64.11511" lon="10.54684">
        <ele>296.671858</ele>
        <time>2020-08-09T10:34:27.712Z</time>
      </trkpt>
      <trkpt lat="64.11524" lon="10.54686">
        <ele>296.195308</ele>
        <time>2020-08-09T10:34:29.696Z</time>
      </trkpt>
      <trkpt lat="64.11538" lon="10.54686">
        <ele>295.683573</ele>
        <time>2020-08-09T10:34:31.689Z</time>
      </trkpt>
      <trkpt lat="64.11553" lon="10.54683">
        <ele>295.152569</ele>
        <time>2020-08-09T10:34:33.709Z</time>
      </trkpt>
      <trkpt lat="64.11569" lon="10.54679">
        <ele>294.587671</ele>
        <time>2020-08-09T10:34:35.704Z</time>
      </trkpt>
      <trkpt lat="64.11585" lon="10.54673">
        <ele>294.006504</ele>
        <time>2020-08-09T10:34:37.692Z</time>
      </trkpt>
      <trkpt lat="64.11601" lon="10.54665">
        <ele>293.408411</ele>
        <time>2020-08-09T10:34:39.706Z</time>
      </trkpt>
      <trkpt lat="64.11618" lon="10.54657">
        <ele>292.781296</ele>
        <time>2020-08-09T10:34:41.685Z</time>
      </trkpt>
      <trkpt lat="64.11627" lon="10.54652">
        <ele>292.454134</ele>
        <time>2020-08-09T10:34:42.701Z</time>
      </trkpt>
      <trkpt lat="64.11636" lon="10.54647">
        <ele>292.122765</ele>
        <time>2020-08-09T10:34:43.724Z</time>
      </trkpt>
      <trkpt lat="64.11645" lon="10.54642">
        <ele>291.788278</ele>
        <time>2020-08-09T10:34:44.744Z</time>
      </trkpt>
      <trkpt lat="64.11654" lon="10.54637">
        <ele>291.447168</ele>
        <time>2020-08-09T10:34:45.757Z</time>
      </trkpt>
      <trkpt lat="64.11664" lon="10.54632">
        <ele>291.101516</ele>
        <time>2020-08-09T10:34:46.702Z</time>
      </trkpt>
      <trkpt lat="64.11673" lon="10.54627">
        <ele>290.756222</ele>
        <time>2020-08-09T10:34:47.705Z</time>
      </trkpt>
      <trkpt lat="64.11683" lon="10.54622">
        <ele>290.402884</ele>
        <time>2020-08-09T10:34:48.708Z</time>
      </trkpt>
      <trkpt lat="64.11692" lon="10.54617">
        <ele>290.007442</ele>
        <time>2020-08-09T10:34:49.712Z</time>
      </trkpt>
      <trkpt lat="64.11702" lon="10.54613">
        <ele>289.582144</ele>
        <time>2020-08-09T10:34:50.706Z</time>
      </trkpt>
      <trkpt lat="64.11712" lon="10.54608">
        <ele>289.160721</ele>
        <time>2020-08-09T10:34:51.745Z</time>
      </trkpt>
      <trkpt lat="64.11721" lon="10.54604">
        <ele>288.734708</ele>
        <time>2020-08-09T10:34:52.717Z</time>
      </trkpt>
      <trkpt lat="64.11731" lon="10.546">
        <ele>288.3074</ele>
        <time>2020-08-09T10:34:53.715Z</time>
      </trkpt>
      <trkpt lat="64.11741" lon="10.54598">
        <ele>287.873594</ele>
        <time>2020-08-09T10:34:54.702Z</time>
      </trkpt>
      <trkpt lat="64.11751" lon="10.54595">
        <ele>287.440413</ele>
        <time>2020-08-09T10:34:55.697Z</time>
      </trkpt>
      <trkpt lat="64.11761" lon="10.54594">
        <ele>287.004368</ele>
        <time>2020-08-09T10:34:56.714Z</time>
      </trkpt>
      <trkpt lat="64.11771" lon="10.54593">
        <ele>286.568907</ele>
        <time>2020-08-09T10:34:57.708Z</time>
      </trkpt>
      <trkpt lat="64.11781" lon="10.54593">
        <ele>286.138017</ele>
        <time>2020-08-09T10:34:58.698Z</time>
      </trkpt>
      <trkpt lat="64.11791" lon="10.54593">
        <ele>285.711502</ele>
        <time>2020-08-09T10:34:59.703Z</time>
      </trkpt>
      <trkpt lat="64.11801" lon="10.54593">
        <ele>285.297894</ele>
        <time>2020-08-09T10:35:00.702Z</time>
      </trkpt>
      <trkpt lat="64.1181" lon="10.54593">
        <ele>284.884094</ele>
        <time>2020-08-09T10:35:01.700Z</time>
      </trkpt>
      <trkpt lat="64.1182" lon="10.54594">
        <ele>284.487451</ele>
        <time>2020-08-09T10:35:02.705Z</time>
      </trkpt>
      <trkpt lat="64.11829" lon="10.54595">
        <ele>284.09518</ele>
        <time>2020-08-09T10:35:03.722Z</time>
      </trkpt>
      <trkpt lat="64.11838" lon="10.54596">
        <ele>283.707147</ele>
        <time>2020-08-09T10:35:04.696Z</time>
      </trkpt>
      <trkpt lat="64.11855" lon="10.54596">
        <ele>282.957504</ele>
        <time>2020-08-09T10:35:06.697Z</time>
      </trkpt>
      <trkpt lat="64.11872" lon="10.54596">
        <ele>282.234237</ele>
        <time>2020-08-09T10:35:08.709Z</time>
      </trkpt>
      <trkpt lat="64.11889" lon="10.54595">
        <ele>281.515687</ele>
        <time>2020-08-09T10:35:10.713Z</time>
      </trkpt>
      <trkpt lat="64.11906" lon="10.54593">
        <ele>280.77902</ele>
        <time>2020-08-09T10:35:12.701Z</time>
      </trkpt>
      <trkpt lat="64.11923" lon="10.5459">
        <ele>280.036924</ele>
        <time>2020-08-09T10:35:14.692Z</time>
      </trkpt>
      <trkpt lat="64.11932" lon="10.54587">
        <ele>279.646509</ele>
        <time>2020-08-09T10:35:15.696Z</time>
      </trkpt>
      <trkpt lat="64.11941" lon="10.54585">
        <ele>279.24824</ele>
        <time>2020-08-09T10:35:16.698Z</time>
      </trkpt>
      <trkpt lat="64.1195" lon="10.54582">
        <ele>278.853796</ele>
        <time>2020-08-09T10:35:17.717Z</time>
      </trkpt>
      <trkpt lat="64.11959" lon="10.5458">
        <ele>278.45531</ele>
        <time>2020-08-09T10:35:18.694Z</time>
      </trkpt>
      <trkpt lat="64.11969" lon="10.54577">
        <ele>278.051608</ele>
        <time>2020-08-09T10:35:19.704Z</time>
      </trkpt>
      <trkpt lat="64.11978" lon="10.54573">
        <ele>277.637742</ele>
        <time>2020-08-09T10:35:20.701Z</time>
      </trkpt>
      <trkpt lat="64.11988" lon="10.54569">
        <ele>277.222618</ele>
        <time>2020-08-09T10:35:21.727Z</time>
      </trkpt>
      <trkpt lat="64.11997" lon="10.54565">
        <ele>276.815616</ele>
        <time>2020-08-09T10:35:22.705Z</time>
      </trkpt>
      <trkpt lat="64.12006" lon="10.54562">
        <ele>276.405056</ele>
        <time>2020-08-09T10:35:23.755Z</time>
      </trkpt>
      <trkpt lat="64.12016" lon="10.54558">
        <ele>275.981781</ele>
        <time>2020-08-09T10:35:24.707Z</time>
      </trkpt>
      <trkpt lat="64.12026" lon="10.54554">
        <ele>275.553291</ele>
        <time>2020-08-09T10:35:25.701Z</time>
      </trkpt>
      <trkpt lat="64.12035" lon="10.5455">
        <ele>275.134572</ele>
        <time>2020-08-09T10:35:26.704Z</time>
      </trkpt>
      <trkpt lat="64.12045" lon="10.54546">
        <ele>274.703483</ele>
        <time>2020-08-09T10:35:27.716Z</time>
      </trkpt>
      <trkpt lat="64.12055" lon="10.54542">
        <ele>274.215582</ele>
        <time>2020-08-09T10:35:28.708Z</time>
      </trkpt>
      <trkpt lat="64.12064" lon="10.54538">
        <ele>273.71497</ele>
        <time>2020-08-09T10:35:29.694Z</time>
      </trkpt>
      <trkpt lat="64.12074" lon="10.54534">
        <ele>273.209076</ele>
        <time>2020-08-09T10:35:30.699Z</time>
      </trkpt>
      <trkpt lat="64.12085" lon="10.5453">
        <ele>272.684236</ele>
        <time>2020-08-09T10:35:31.702Z</time>
      </trkpt>
      <trkpt lat="64.12095" lon="10.54526">
        <ele>272.157956</ele>
        <time>2020-08-09T10:35:32.706Z</time>
      </trkpt>
      <trkpt lat="64.12106" lon="10.54521">
        <ele>271.626002</ele>
        <time>2020-08-09T10:35:33.692Z</time>
      </trkpt>
      <trkpt lat="64.12116" lon="10.54517">
        <ele>271.089145</ele>
        <time>2020-08-09T10:35:34.713Z</time>
      </trkpt>
      <trkpt lat="64.12127" lon="10.54512">
        <ele>270.551896</ele>
        <time>2020-08-09T10:35:35.728Z</time>
      </trkpt>
      <trkpt lat="64.12138" lon="10.54508">
        <ele>270.009349</ele>
        <time>2020-08-09T10:35:36.707Z</time>
      </trkpt>
      <trkpt lat="64.12149" lon="10.54504">
        <ele>269.458513</ele>
        <time>2020-08-09T10:35:37.744Z</time>
      </trkpt>
      <trkpt lat="64.1216" lon="10.54499">
        <ele>268.902029</ele>
        <time>2020-08-09T10:35:38.724Z</time>
      </trkpt>
      <trkpt lat="64.12171" lon="10.54495">
        <ele>268.346632</ele>
        <time>2020-08-09T10:35:39.696Z</time>
      </trkpt>
      <trkpt lat="64.12182" lon="10.54491">
        <ele>267.785239</ele>
        <time>2020-08-09T10:35:40.730Z</time>
      </trkpt>
      <trkpt lat="64.12193" lon="10.54487">
        <ele>267.220001</ele>
        <time>2020-08-09T10:35:41.699Z</time>
      </trkpt>
      <trkpt lat="64.12204" lon="10.54483">
        <ele>266.657246</ele>
        <time>2020-08-09T10:35:42.699Z</time>
      </trkpt>
      <trkpt lat="64.12215" lon="10.5448">
        <ele>266.090082</ele>
        <time>2020-08-09T10:35:43.719Z</time>
      </trkpt>
      <trkpt lat="64.12227" lon="10.54477">
        <ele>265.564334</ele>
        <time>2020-08-09T10:35:44.703Z</time>
      </trkpt>
      <trkpt lat="64.12238" lon="10.54474">
        <ele>265.056551</ele>
        <time>2020-08-09T10:35:45.717Z</time>
      </trkpt>
      <trkpt lat="64.12249" lon="10.54471">
        <ele>264.549418</ele>
        <time>2020-08-09T10:35:46.697Z</time>
      </trkpt>
      <trkpt lat="64.12261" lon="10.54468">
        <ele>264.041859</ele>
        <time>2020-08-09T10:35:47.714Z</time>
      </trkpt>
      <trkpt lat="64.12272" lon="10.54465">
        <ele>263.530721</ele>
        <time>2020-08-09T10:35:48.738Z</time>
      </trkpt>
      <trkpt lat="64.12284" lon="10.54463">
        <ele>263.015876</ele>
        <time>2020-08-09T10:35:49.698Z</time>
      </trkpt>
      <trkpt lat="64.12296" lon="10.54462">
        <ele>262.492909</ele>
        <time>2020-08-09T10:35:50.700Z</time>
      </trkpt>
      <trkpt lat="64.12307" lon="10.5446">
        <ele>261.97054</ele>
        <time>2020-08-09T10:35:51.697Z</time>
      </trkpt>
      <trkpt lat="64.12319" lon="10.5446">
        <ele>261.448429</ele>
        <time>2020-08-09T10:35:52.730Z</time>
      </trkpt>
      <trkpt lat="64.12331" lon="10.54459">
        <ele>260.935106</ele>
        <time>2020-08-09T10:35:53.700Z</time>
      </trkpt>
      <trkpt lat="64.12342" lon="10.54458">
        <ele>260.430681</ele>
        <time>2020-08-09T10:35:54.717Z</time>
      </trkpt>
      <trkpt lat="64.12354" lon="10.54458">
        <ele>259.926433</ele>
        <time>2020-08-09T10:35:55.692Z</time>
      </trkpt>
      <trkpt lat="64.12365" lon="10.54459">
        <ele>259.422097</ele>
        <time>2020-08-09T10:35:56.701Z</time>
      </trkpt>
      <trkpt lat="64.12376" lon="10.5446">
        <ele>258.921825</ele>
        <time>2020-08-09T10:35:57.717Z</time>
      </trkpt>
      <trkpt lat="64.12388" lon="10.54461">
        <ele>258.425792</ele>
        <time>2020-08-09T10:35:58.700Z</time>
      </trkpt>
      <trkpt lat="64.12399" lon="10.54463">
        <ele>257.937861</ele>
        <time>2020-08-09T10:35:59.760Z</time>
      </trkpt>
      <trkpt lat="64.1241" lon="10.54465">
        <ele>257.616197</ele>
        <time>2020-08-09T10:36:00.740Z</time>
      </trkpt>
      <trkpt lat="64.1242" lon="10.54467">
        <ele>257.316807</ele>
        <time>2020-08-09T10:36:01.692Z</time>
      </trkpt>
      <trkpt lat="64.12431" lon="10.54469">
        <ele>257.020474</ele>
        <time>2020-08-09T10:36:02.697Z</time>
      </trkpt>
      <trkpt lat="64.12441" lon="10.54471">
        <ele>256.729615</ele>
        <time>2020-08-09T10:36:03.707Z</time>
      </trkpt>
      <trkpt lat="64.12452" lon="10.54473">
        <ele>256.438663</ele>
        <time>2020-08-09T10:36:04.714Z</time>
      </trkpt>
      <trkpt lat="64.12462" lon="10.54475">
        <ele>256.155727</ele>
        <time>2020-08-09T10:36:05.714Z</time>
      </trkpt>
      <trkpt lat="64.12472" lon="10.54477">
        <ele>255.875681</ele>
        <time>2020-08-09T10:36:06.723Z</time>
      </trkpt>
      <trkpt lat="64.12481" lon="10.54479">
        <ele>255.604183</ele>
        <time>2020-08-09T10:36:07.733Z</time>
      </trkpt>
      <trkpt lat="64.12491" lon="10.54481">
        <ele>255.338134</ele>
        <time>2020-08-09T10:36:08.711Z</time>
      </trkpt>
      <trkpt lat="64.125" lon="10.54483">
        <ele>255.075076</ele>
        <time>2020-08-09T10:36:09.769Z</time>
      </trkpt>
      <trkpt lat="64.1251" lon="10.54484">
        <ele>254.812589</ele>
        <time>2020-08-09T10:36:10.736Z</time>
      </trkpt>
      <trkpt lat="64.12519" lon="10.54485">
        <ele>254.555734</ele>
        <time>2020-08-09T10:36:11.711Z</time>
      </trkpt>
      <trkpt lat="64.12536" lon="10.54484">
        <ele>254.070474</ele>
        <time>2020-08-09T10:36:13.705Z</time>
      </trkpt>
      <trkpt lat="64.12553" lon="10.54482">
        <ele>253.609239</ele>
        <time>2020-08-09T10:36:15.699Z</time>
      </trkpt>
      <trkpt lat="64.12569" lon="10.54479">
        <ele>253.161915</ele>
        <time>2020-08-09T10:36:17.698Z</time>
      </trkpt>
      <trkpt lat="64.12584" lon="10.54476">
        <ele>252.792117</ele>
        <time>2020-08-09T10:36:19.699Z</time>
      </trkpt>
      <trkpt lat="64.12599" lon="10.54473">
        <ele>252.542774</ele>
        <time>2020-08-09T10:36:21.705Z</time>
      </trkpt>
      <trkpt lat="64.12614" lon="10.54469">
        <ele>252.301326</ele>
        <time>2020-08-09T10:36:23.735Z</time>
      </trkpt>
      <trkpt lat="64.12629" lon="10.54465">
        <ele>252.057659</ele>
        <time>2020-08-09T10:36:25.700Z</time>
      </trkpt>
      <trkpt lat="64.12643" lon="10.54462">
        <ele>251.82148</ele>
        <time>2020-08-09T10:36:27.729Z</time>
      </trkpt>
      <trkpt lat="64.12657" lon="10.54459">
        <ele>251.593685</ele>
        <time>2020-08-09T10:36:29.749Z</time>
      </trkpt>
      <trkpt lat="64.1267" lon="10.54456">
        <ele>251.369228</ele>
        <time>2020-08-09T10:36:31.717Z</time>
      </trkpt>
      <trkpt lat="64.12684" lon="10.54454">
        <ele>251.151663</ele>
        <time>2020-08-09T10:36:33.687Z</time>
      </trkpt>
      <trkpt lat="64.12697" lon="10.54453">
        <ele>250.936121</ele>
        <time>2020-08-09T10:36:35.721Z</time>
      </trkpt>
      <trkpt lat="64.12709" lon="10.54453">
        <ele>250.727298</ele>
        <time>2020-08-09T10:36:37.698Z</time>
      </trkpt>
      <trkpt lat="64.12722" lon="10.54453">
        <ele>250.52341</ele>
        <time>2020-08-09T10:36:39.725Z</time>
      </trkpt>
      <trkpt lat="64.12734" lon="10.54454">
        <ele>250.32435</ele>
        <time>2020-08-09T10:36:41.708Z</time>
      </trkpt>
      <trkpt lat="64.12745" lon="10.54454">
        <ele>250.141787</ele>
        <time>2020-08-09T10:36:43.718Z</time>
      </trkpt>
      <trkpt lat="64.12756" lon="10.54456">
        <ele>249.963962</ele>
        <time>2020-08-09T10:36:45.707Z</time>
      </trkpt>
      <trkpt lat="64.12766" lon="10.54458">
        <ele>249.921568</ele>
        <time>2020-08-09T10:36:47.697Z</time>
      </trkpt>
      <trkpt lat="64.12776" lon="10.5446">
        <ele>249.914714</ele>
        <time>2020-08-09T10:36:49.706Z</time>
      </trkpt>
      <trkpt lat="64.12785" lon="10.54463">
        <ele>249.908272</ele>
        <time>2020-08-09T10:36:51.728Z</time>
      </trkpt>
      <trkpt lat="64.12794" lon="10.54466">
        <ele>249.901391</ele>
        <time>2020-08-09T10:36:53.694Z</time>
      </trkpt>
      <trkpt lat="64.12804" lon="10.54469">
        <ele>249.89459</ele>
        <time>2020-08-09T10:36:55.734Z</time>
      </trkpt>
      <trkpt lat="64.12814" lon="10.54472">
        <ele>249.887568</ele>
        <time>2020-08-09T10:36:57.695Z</time>
      </trkpt>
      <trkpt lat="64.12823" lon="10.54475">
        <ele>249.880907</ele>
        <time>2020-08-09T10:36:59.715Z</time>
      </trkpt>
      <trkpt lat="64.12832" lon="10.54477">
        <ele>249.874198</ele>
        <time>2020-08-09T10:37:01.695Z</time>
      </trkpt>
      <trkpt lat="64.12842" lon="10.5448">
        <ele>249.867528</ele>
        <time>2020-08-09T10:37:03.698Z</time>
      </trkpt>
      <trkpt lat="64.12854" lon="10.54485">
        <ele>249.858447</ele>
        <time>2020-08-09T10:37:06.691Z</time>
      </trkpt>
      <trkpt lat="64.12867" lon="10.54491">
        <ele>249.849383</ele>
        <time>2020-08-09T10:37:09.688Z</time>
      </trkpt>
      <trkpt lat="64.12876" lon="10.54495">
        <ele>249.842754</ele>
        <time>2020-08-09T10:37:11.755Z</time>
      </trkpt>
      <trkpt lat="64.12885" lon="10.54498">
        <ele>249.836351</ele>
        <time>2020-08-09T10:37:13.696Z</time>
      </trkpt>
      <trkpt lat="64.12894" lon="10.54501">
        <ele>249.829712</ele>
        <time>2020-08-09T10:37:15.692Z</time>
      </trkpt>
      <trkpt lat="64.12904" lon="10.54504">
        <ele>249.822677</ele>
        <time>2020-08-09T10:37:17.712Z</time>
      </trkpt>
      <trkpt lat="64.12913" lon="10.54508">
        <ele>249.815768</ele>
        <time>2020-08-09T10:37:19.699Z</time>
      </trkpt>
      <trkpt lat="64.12923" lon="10.54511">
        <ele>249.808935</ele>
        <time>2020-08-09T10:37:21.698Z</time>
      </trkpt>
      <trkpt lat="64.12933" lon="10.54516">
        <ele>249.801998</ele>
        <time>2020-08-09T10:37:23.721Z</time>
      </trkpt>
      <trkpt lat="64.12942" lon="10.54518">
        <ele>249.799406</ele>
        <time>2020-08-09T10:37:25.707Z</time>
      </trkpt>
      <trkpt lat="64.12952" lon="10.54522">
        <ele>249.799099</ele>
        <time>2020-08-09T10:37:27.733Z</time>
      </trkpt>
      <trkpt lat="64.12961" lon="10.54524">
        <ele>249.798796</ele>
        <time>2020-08-09T10:37:29.702Z</time>
      </trkpt>
      <trkpt lat="64.1297" lon="10.54528">
        <ele>249.798498</ele>
        <time>2020-08-09T10:37:31.711Z</time>
      </trkpt>
      <trkpt lat="64.1298" lon="10.54531">
        <ele>249.798202</ele>
        <time>2020-08-09T10:37:33.713Z</time>
      </trkpt>
      <trkpt lat="64.12989" lon="10.54535">
        <ele>249.797901</ele>
        <time>2020-08-09T10:37:35.711Z</time>
      </trkpt>
      <trkpt lat="64.12998" lon="10.54538">
        <ele>249.797606</ele>
        <time>2020-08-09T10:37:37.707Z</time>
      </trkpt>
      <trkpt lat="64.13008" lon="10.54542">
        <ele>249.797308</ele>
        <time>2020-08-09T10:37:39.706Z</time>
      </trkpt>
      <trkpt lat="64.13017" lon="10.54545">
        <ele>249.796998</ele>
        <time>2020-08-09T10:37:41.700Z</time>
      </trkpt>
      <trkpt lat="64.13027" lon="10.54548">
        <ele>249.796695</ele>
        <time>2020-08-09T10:37:43.697Z</time>
      </trkpt>
      <trkpt lat="64.13036" lon="10.54552">
        <ele>249.79639</ele>
        <time>2020-08-09T10:37:45.695Z</time>
      </trkpt>
      <trkpt lat="64.13045" lon="10.54555">
        <ele>249.796098</ele>
        <time>2020-08-09T10:37:47.701Z</time>
      </trkpt>
      <trkpt lat="64.13055" lon="10.54557">
        <ele>249.795803</ele>
        <time>2020-08-09T10:37:49.733Z</time>
      </trkpt>
      <trkpt lat="64.13064" lon="10.5456">
        <ele>249.795513</ele>
        <time>2020-08-09T10:37:51.691Z</time>
      </trkpt>
      <trkpt lat="64.13076" lon="10.54563">
        <ele>249.795107</ele>
        <time>2020-08-09T10:37:54.700Z</time>
      </trkpt>
      <trkpt lat="64.13088" lon="10.54566">
        <ele>249.794729</ele>
        <time>2020-08-09T10:37:57.735Z</time>
      </trkpt>
      <trkpt lat="64.13098" lon="10.54567">
        <ele>249.794429</ele>
        <time>2020-08-09T10:38:00.749Z</time>
      </trkpt>
      <trkpt lat="64.13108" lon="10.54568">
        <ele>249.794121</ele>
        <time>2020-08-09T10:38:05.718Z</time>
      </trkpt>
      <trkpt lat="64.13124" lon="10.54564">
        <ele>250.109832</ele>
        <time>2020-08-09T10:44:11.715Z</time>
      </trkpt>
      <trkpt lat="64.13135" lon="10.54561">
        <ele>250.452584</ele>
        <time>2020-08-09T10:44:15.709Z</time>
      </trkpt>
      <trkpt lat="64.13144" lon="10.54556">
        <ele>250.751838</ele>
        <time>2020-08-09T10:44:18.707Z</time>
      </trkpt>
      <trkpt lat="64.13154" lon="10.5455">
        <ele>251.097466</ele>
        <time>2020-08-09T10:44:21.717Z</time>
      </trkpt>
      <trkpt lat="64.13165" lon="10.54544">
        <ele>251.457486</ele>
        <time>2020-08-09T10:44:24.694Z</time>
      </trkpt>
      <trkpt lat="64.13176" lon="10.54537">
        <ele>251.821934</ele>
        <time>2020-08-09T10:44:27.712Z</time>
      </trkpt>
      <trkpt lat="64.13187" lon="10.54531">
        <ele>252.177498</ele>
        <time>2020-08-09T10:44:30.688Z</time>
      </trkpt>
      <trkpt lat="64.13198" lon="10.54524">
        <ele>252.519695</ele>
        <time>2020-08-09T10:44:33.698Z</time>
      </trkpt>
      <trkpt lat="64.13207" lon="10.54518">
        <ele>252.828989</ele>
        <time>2020-08-09T10:44:36.711Z</time>
      </trkpt>
      <trkpt lat="64.13218" lon="10.54509">
        <ele>253.200843</ele>
        <time>2020-08-09T10:44:40.697Z</time>
      </trkpt>
      <trkpt lat="64.13228" lon="10.54501">
        <ele>253.55162</ele>
        <time>2020-08-09T10:44:44.706Z</time>
      </trkpt>
      <trkpt lat="64.13239" lon="10.54494">
        <ele>253.897607</ele>
        <time>2020-08-09T10:44:48.716Z</time>
      </trkpt>
      <trkpt lat="64.13249" lon="10.54488">
        <ele>254.231703</ele>
        <time>2020-08-09T10:44:52.698Z</time>
      </trkpt>
      <trkpt lat="64.13259" lon="10.54481">
        <ele>254.57536</ele>
        <time>2020-08-09T10:44:56.722Z</time>
      </trkpt>
      <trkpt lat="64.1327" lon="10.54475">
        <ele>254.918619</ele>
        <time>2020-08-09T10:45:01.693Z</time>
      </trkpt>
      <trkpt lat="64.13279" lon="10.54469">
        <ele>255.208445</ele>
        <time>2020-08-09T10:45:06.688Z</time>
      </trkpt>
      <trkpt lat="64.13288" lon="10.54464">
        <ele>255.499618</ele>
        <time>2020-08-09T10:45:11.745Z</time>
      </trkpt>
      <trkpt lat="64.13296" lon="10.54457">
        <ele>256.403107</ele>
        <time>2020-08-09T10:45:17.699Z</time>
      </trkpt>
      <trkpt lat="64.13306" lon="10.54452">
        <ele>257.442436</ele>
        <time>2020-08-09T10:45:25.691Z</time>
      </trkpt>
      <trkpt lat="64.13315" lon="10.54447">
        <ele>258.364984</ele>
        <time>2020-08-09T10:45:32.716Z</time>
      </trkpt>
      <trkpt lat="64.13324" lon="10.5444">
        <ele>259.310269</ele>
        <time>2020-08-09T10:45:37.724Z</time>
      </trkpt>
      <trkpt lat="64.13333" lon="10.54435">
        <ele>260.280138</ele>
        <time>2020-08-09T10:45:42.703Z</time>
      </trkpt>
      <trkpt lat="64.13342" lon="10.54432">
        <ele>261.23105</ele>
        <time>2020-08-09T10:45:48.729Z</time>
      </trkpt>
      <trkpt lat="64.13352" lon="10.54432">
        <ele>262.1662</ele>
        <time>2020-08-09T10:45:54.701Z</time>
      </trkpt>
      <trkpt lat="64.1336" lon="10.54429">
        <ele>263.080493</ele>
        <time>2020-08-09T10:46:01.762Z</time>
      </trkpt>
      <trkpt lat="64.1337" lon="10.54426">
        <ele>264.045713</ele>
        <time>2020-08-09T10:46:10.696Z</time>
      </trkpt>
      <trkpt lat="64.1338" lon="10.54424">
        <ele>265.035567</ele>
        <time>2020-08-09T10:46:18.720Z</time>
      </trkpt>
      <trkpt lat="64.13389" lon="10.54423">
        <ele>265.961319</ele>
        <time>2020-08-09T10:46:24.695Z</time>
      </trkpt>
      <trkpt lat="64.13398" lon="10.54419">
        <ele>266.900649</ele>
        <time>2020-08-09T10:46:30.727Z</time>
      </trkpt>
      <trkpt lat="64.13407" lon="10.54419">
        <ele>267.825636</ele>
        <time>2020-08-09T10:46:36.700Z</time>
      </trkpt>
      <trkpt lat="64.13416" lon="10.54416">
        <ele>268.811609</ele>
        <time>2020-08-09T10:46:42.750Z</time>
      </trkpt>
      <trkpt lat="64.13426" lon="10.54415">
        <ele>269.768472</ele>
        <time>2020-08-09T10:46:49.700Z</time>
      </trkpt>
      <trkpt lat="64.13435" lon="10.54413">
        <ele>270.717437</ele>
        <time>2020-08-09T10:46:56.721Z</time>
      </trkpt>
      <trkpt lat="64.13445" lon="10.54411">
        <ele>271.696054</ele>
        <time>2020-08-09T10:47:03.699Z</time>
      </trkpt>
      <trkpt lat="64.13455" lon="10.54409">
        <ele>272.717974</ele>
        <time>2020-08-09T10:47:11.688Z</time>
      </trkpt>
      <trkpt lat="64.13464" lon="10.54407">
        <ele>273.699961</ele>
        <time>2020-08-09T10:47:18.707Z</time>
      </trkpt>
      <trkpt lat="64.13473" lon="10.54406">
        <ele>274.758493</ele>
        <time>2020-08-09T10:47:25.727Z</time>
      </trkpt>
      <trkpt lat="64.13483" lon="10.54403">
        <ele>275.870325</ele>
        <time>2020-08-09T10:47:33.714Z</time>
      </trkpt>
      <trkpt lat="64.13492" lon="10.54405">
        <ele>276.974505</ele>
        <time>2020-08-09T10:47:41.704Z</time>
      </trkpt>
      <trkpt lat="64.13502" lon="10.54403">
        <ele>278.174831</ele>
        <time>2020-08-09T10:47:49.688Z</time>
      </trkpt>
      <trkpt lat="64.13511" lon="10.54401">
        <ele>279.325703</ele>
        <time>2020-08-09T10:47:56.718Z</time>
      </trkpt>
      <trkpt lat="64.13521" lon="10.54399">
        <ele>280.511904</ele>
        <time>2020-08-09T10:48:05.694Z</time>
      </trkpt>
      <trkpt lat="64.13531" lon="10.54398">
        <ele>281.73224</ele>
        <time>2020-08-09T10:48:14.746Z</time>
      </trkpt>
      <trkpt lat="64.13541" lon="10.54397">
        <ele>282.821337</ele>
        <time>2020-08-09T10:48:21.698Z</time>
      </trkpt>
      <trkpt lat="64.1355" lon="10.54397">
        <ele>283.932644</ele>
        <time>2020-08-09T10:48:29.705Z</time>
      </trkpt>
      <trkpt lat="64.1356" lon="10.54396">
        <ele>285.140552</ele>
        <time>2020-08-09T10:48:38.697Z</time>
      </trkpt>
      <trkpt lat="64.1357" lon="10.54396">
        <ele>286.371508</ele>
        <time>2020-08-09T10:48:45.696Z</time>
      </trkpt>
      <trkpt lat="64.1358" lon="10.54392">
        <ele>287.593605</ele>
        <time>2020-08-09T10:48:53.704Z</time>
      </trkpt>
      <trkpt lat="64.1359" lon="10.54392">
        <ele>288.705241</ele>
        <time>2020-08-09T10:49:01.707Z</time>
      </trkpt>
      <trkpt lat="64.13599" lon="10.54392">
        <ele>289.780605</ele>
        <time>2020-08-09T10:49:09.709Z</time>
      </trkpt>
      <trkpt lat="64.13607" lon="10.54388">
        <ele>290.854608</ele>
        <time>2020-08-09T10:49:17.699Z</time>
      </trkpt>
      <trkpt lat="64.13618" lon="10.54386">
        <ele>292.076556</ele>
        <time>2020-08-09T10:49:24.707Z</time>
      </trkpt>
      <trkpt lat="64.13627" lon="10.54387">
        <ele>293.20068</ele>
        <time>2020-08-09T10:49:32.709Z</time>
      </trkpt>
      <trkpt lat="64.13637" lon="10.54387">
        <ele>294.35967</ele>
        <time>2020-08-09T10:49:41.717Z</time>
      </trkpt>
      <trkpt lat="64.13646" lon="10.54384">
        <ele>295.406809</ele>
        <time>2020-08-09T10:49:49.735Z</time>
      </trkpt>
      <trkpt lat="64.13656" lon="10.54381">
        <ele>296.083208</ele>
        <time>2020-08-09T10:49:58.693Z</time>
      </trkpt>
      <trkpt lat="64.13666" lon="10.54377">
        <ele>296.784888</ele>
        <time>2020-08-09T10:50:07.721Z</time>
      </trkpt>
      <trkpt lat="64.13676" lon="10.54378">
        <ele>297.463446</ele>
        <time>2020-08-09T10:50:13.729Z</time>
      </trkpt>
      <trkpt lat="64.13685" lon="10.54378">
        <ele>298.121179</ele>
        <time>2020-08-09T10:50:19.700Z</time>
      </trkpt>
      <trkpt lat="64.13694" lon="10.54374">
        <ele>298.745764</ele>
        <time>2020-08-09T10:50:25.695Z</time>
      </trkpt>
      <trkpt lat="64.13704" lon="10.54372">
        <ele>299.44703</ele>
        <time>2020-08-09T10:50:32.708Z</time>
      </trkpt>
      <trkpt lat="64.13713" lon="10.54372">
        <ele>300.091063</ele>
        <time>2020-08-09T10:50:39.702Z</time>
      </trkpt>
      <trkpt lat="64.13723" lon="10.5437">
        <ele>300.723337</ele>
        <time>2020-08-09T10:50:47.719Z</time>
      </trkpt>
      <trkpt lat="64.13732" lon="10.5437">
        <ele>301.3602</ele>
        <time>2020-08-09T10:50:55.740Z</time>
      </trkpt>
      <trkpt lat="64.13741" lon="10.54366">
        <ele>302.042985</ele>
        <time>2020-08-09T10:51:04.700Z</time>
      </trkpt>
      <trkpt lat="64.13752" lon="10.54364">
        <ele>302.750715</ele>
        <time>2020-08-09T10:51:14.708Z</time>
      </trkpt>
      <trkpt lat="64.13761" lon="10.54362">
        <ele>303.432965</ele>
        <time>2020-08-09T10:51:20.734Z</time>
      </trkpt>
      <trkpt lat="64.13772" lon="10.5436">
        <ele>304.133587</ele>
        <time>2020-08-09T10:51:25.715Z</time>
      </trkpt>
      <trkpt lat="64.13781" lon="10.54359">
        <ele>304.765146</ele>
        <time>2020-08-09T10:51:30.711Z</time>
      </trkpt>
      <trkpt lat="64.13791" lon="10.54358">
        <ele>305.513497</ele>
        <time>2020-08-09T10:51:36.716Z</time>
      </trkpt>
      <trkpt lat="64.13802" lon="10.54355">
        <ele>306.246737</ele>
        <time>2020-08-09T10:51:42.729Z</time>
      </trkpt>
      <trkpt lat="64.13811" lon="10.54353">
        <ele>306.872115</ele>
        <time>2020-08-09T10:51:47.709Z</time>
      </trkpt>
      <trkpt lat="64.1382" lon="10.54352">
        <ele>307.523158</ele>
        <time>2020-08-09T10:51:52.695Z</time>
      </trkpt>
      <trkpt lat="64.13829" lon="10.54349">
        <ele>307.903312</ele>
        <time>2020-08-09T10:51:57.708Z</time>
      </trkpt>
      <trkpt lat="64.13839" lon="10.54346">
        <ele>308.16152</ele>
        <time>2020-08-09T10:52:02.694Z</time>
      </trkpt>
      <trkpt lat="64.1385" lon="10.54343">
        <ele>308.45572</ele>
        <time>2020-08-09T10:52:08.708Z</time>
      </trkpt>
      <trkpt lat="64.13859" lon="10.54341">
        <ele>308.709216</ele>
        <time>2020-08-09T10:52:13.732Z</time>
      </trkpt>
      <trkpt lat="64.1387" lon="10.54335">
        <ele>309.009971</ele>
        <time>2020-08-09T10:52:18.694Z</time>
      </trkpt>
      <trkpt lat="64.13879" lon="10.54329">
        <ele>309.269314</ele>
        <time>2020-08-09T10:52:23.691Z</time>
      </trkpt>
      <trkpt lat="64.13888" lon="10.54326">
        <ele>309.527335</ele>
        <time>2020-08-09T10:52:28.696Z</time>
      </trkpt>
      <trkpt lat="64.13898" lon="10.5432">
        <ele>309.793293</ele>
        <time>2020-08-09T10:52:34.714Z</time>
      </trkpt>
      <trkpt lat="64.13907" lon="10.54311">
        <ele>310.068592</ele>
        <time>2020-08-09T10:52:41.706Z</time>
      </trkpt>
      <trkpt lat="64.13917" lon="10.54304">
        <ele>310.352434</ele>
        <time>2020-08-09T10:52:48.702Z</time>
      </trkpt>
      <trkpt lat="64.13926" lon="10.54297">
        <ele>310.613065</ele>
        <time>2020-08-09T10:52:54.752Z</time>
      </trkpt>
      <trkpt lat="64.13936" lon="10.54292">
        <ele>310.873184</ele>
        <time>2020-08-09T10:52:59.727Z</time>
      </trkpt>
      <trkpt lat="64.13946" lon="10.54285">
        <ele>311.155996</ele>
        <time>2020-08-09T10:53:06.708Z</time>
      </trkpt>
      <trkpt lat="64.13955" lon="10.54279">
        <ele>311.411488</ele>
        <time>2020-08-09T10:53:12.690Z</time>
      </trkpt>
      <trkpt lat="64.13963" lon="10.54271">
        <ele>311.659726</ele>
        <time>2020-08-09T10:53:18.707Z</time>
      </trkpt>
      <trkpt lat="64.13973" lon="10.54264">
        <ele>311.939114</ele>
        <time>2020-08-09T10:53:25.712Z</time>
      </trkpt>
      <trkpt lat="64.13983" lon="10.54258">
        <ele>312.222608</ele>
        <time>2020-08-09T10:53:33.690Z</time>
      </trkpt>
      <trkpt lat="64.13992" lon="10.54251">
        <ele>312.478111</ele>
        <time>2020-08-09T10:53:42.706Z</time>
      </trkpt>
      <trkpt lat="64.14001" lon="10.54243">
        <ele>313.023191</ele>
        <time>2020-08-09T10:53:51.693Z</time>
      </trkpt>
      <trkpt lat="64.14009" lon="10.54232">
        <ele>313.886923</ele>
        <time>2020-08-09T10:54:01.698Z</time>
      </trkpt>
      <trkpt lat="64.14019" lon="10.54227">
        <ele>314.841732</ele>
        <time>2020-08-09T10:54:09.735Z</time>
      </trkpt>
      <trkpt lat="64.14028" lon="10.5422">
        <ele>315.790369</ele>
        <time>2020-08-09T10:54:16.720Z</time>
      </trkpt>
      <trkpt lat="64.14038" lon="10.54212">
        <ele>316.758134</ele>
        <time>2020-08-09T10:54:22.699Z</time>
      </trkpt>
      <trkpt lat="64.14047" lon="10.54207">
        <ele>317.644118</ele>
        <time>2020-08-09T10:54:27.744Z</time>
      </trkpt>
      <trkpt lat="64.14057" lon="10.54202">
        <ele>318.61204</ele>
        <time>2020-08-09T10:54:33.734Z</time>
      </trkpt>
      <trkpt lat="64.14067" lon="10.54197">
        <ele>319.57159</ele>
        <time>2020-08-09T10:54:39.723Z</time>
      </trkpt>
      <trkpt lat="64.14076" lon="10.54192">
        <ele>320.410126</ele>
        <time>2020-08-09T10:54:45.701Z</time>
      </trkpt>
      <trkpt lat="64.14085" lon="10.54185">
        <ele>321.312919</ele>
        <time>2020-08-09T10:54:51.705Z</time>
      </trkpt>
      <trkpt lat="64.14094" lon="10.54178">
        <ele>322.186529</ele>
        <time>2020-08-09T10:54:58.718Z</time>
      </trkpt>
      <trkpt lat="64.14103" lon="10.54172">
        <ele>323.060139</ele>
        <time>2020-08-09T10:55:06.703Z</time>
      </trkpt>
      <trkpt lat="64.14112" lon="10.54165">
        <ele>323.960325</ele>
        <time>2020-08-09T10:55:13.693Z</time>
      </trkpt>
      <trkpt lat="64.14121" lon="10.54158">
        <ele>324.905211</ele>
        <time>2020-08-09T10:55:20.701Z</time>
      </trkpt>
      <trkpt lat="64.14131" lon="10.54151">
        <ele>325.879433</ele>
        <time>2020-08-09T10:55:28.713Z</time>
      </trkpt>
      <trkpt lat="64.14141" lon="10.54145">
        <ele>326.798074</ele>
        <time>2020-08-09T10:55:35.717Z</time>
      </trkpt>
      <trkpt lat="64.1415" lon="10.54139">
        <ele>327.663912</ele>
        <time>2020-08-09T10:55:42.719Z</time>
      </trkpt>
      <trkpt lat="64.14159" lon="10.5413">
        <ele>328.656763</ele>
        <time>2020-08-09T10:55:49.707Z</time>
      </trkpt>
      <trkpt lat="64.14168" lon="10.54124">
        <ele>329.503972</ele>
        <time>2020-08-09T10:55:56.727Z</time>
      </trkpt>
      <trkpt lat="64.14178" lon="10.54116">
        <ele>329.395186</ele>
        <time>2020-08-09T10:56:03.715Z</time>
      </trkpt>
      <trkpt lat="64.14188" lon="10.54111">
        <ele>329.281237</ele>
        <time>2020-08-09T10:56:10.713Z</time>
      </trkpt>
      <trkpt lat="64.14198" lon="10.54103">
        <ele>329.165571</ele>
        <time>2020-08-09T10:56:16.694Z</time>
      </trkpt>
      <trkpt lat="64.14208" lon="10.54097">
        <ele>329.053979</ele>
        <time>2020-08-09T10:56:21.712Z</time>
      </trkpt>
      <trkpt lat="64.14218" lon="10.54089">
        <ele>328.947343</ele>
        <time>2020-08-09T10:56:26.697Z</time>
      </trkpt>
      <trkpt lat="64.14229" lon="10.54081">
        <ele>328.821428</ele>
        <time>2020-08-09T10:56:31.695Z</time>
      </trkpt>
      <trkpt lat="64.14239" lon="10.54074">
        <ele>328.704796</ele>
        <time>2020-08-09T10:56:35.698Z</time>
      </trkpt>
      <trkpt lat="64.14249" lon="10.54067">
        <ele>328.58983</ele>
        <time>2020-08-09T10:56:39.726Z</time>
      </trkpt>
      <trkpt lat="64.1426" lon="10.54061">
        <ele>328.472287</ele>
        <time>2020-08-09T10:56:43.701Z</time>
      </trkpt>
      <trkpt lat="64.1427" lon="10.54055">
        <ele>328.365571</ele>
        <time>2020-08-09T10:56:46.694Z</time>
      </trkpt>
      <trkpt lat="64.14281" lon="10.5405">
        <ele>328.244152</ele>
        <time>2020-08-09T10:56:49.733Z</time>
      </trkpt>
      <trkpt lat="64.14293" lon="10.54044">
        <ele>328.109002</ele>
        <time>2020-08-09T10:56:52.739Z</time>
      </trkpt>
      <trkpt lat="64.14302" lon="10.54042">
        <ele>328.012357</ele>
        <time>2020-08-09T10:56:54.703Z</time>
      </trkpt>
      <trkpt lat="64.14312" lon="10.5404">
        <ele>327.906432</ele>
        <time>2020-08-09T10:56:56.708Z</time>
      </trkpt>
      <trkpt lat="64.14322" lon="10.5404">
        <ele>327.791002</ele>
        <time>2020-08-09T10:56:58.703Z</time>
      </trkpt>
      <trkpt lat="64.14334" lon="10.5404">
        <ele>327.661585</ele>
        <time>2020-08-09T10:57:00.704Z</time>
      </trkpt>
      <trkpt lat="64.14347" lon="10.54042">
        <ele>327.310987</ele>
        <time>2020-08-09T10:57:02.719Z</time>
      </trkpt>
      <trkpt lat="64.14361" lon="10.54046">
        <ele>326.508671</ele>
        <time>2020-08-09T10:57:04.712Z</time>
      </trkpt>
      <trkpt lat="64.14376" lon="10.54051">
        <ele>325.646317</ele>
        <time>2020-08-09T10:57:06.721Z</time>
      </trkpt>
      <trkpt lat="64.14392" lon="10.54059">
        <ele>324.745527</ele>
        <time>2020-08-09T10:57:08.713Z</time>
      </trkpt>
      <trkpt lat="64.14408" lon="10.54072">
        <ele>323.783878</ele>
        <time>2020-08-09T10:57:10.725Z</time>
      </trkpt>
      <trkpt lat="64.14424" lon="10.54088">
        <ele>322.803627</ele>
        <time>2020-08-09T10:57:12.695Z</time>
      </trkpt>
      <trkpt lat="64.14439" lon="10.54106">
        <ele>321.83351</ele>
        <time>2020-08-09T10:57:14.704Z</time>
      </trkpt>
      <trkpt lat="64.14454" lon="10.54128">
        <ele>320.821766</ele>
        <time>2020-08-09T10:57:16.702Z</time>
      </trkpt>
      <trkpt lat="64.14469" lon="10.54148">
        <ele>319.820022</ele>
        <time>2020-08-09T10:57:18.735Z</time>
      </trkpt>
      <trkpt lat="64.14484" lon="10.5417">
        <ele>318.815369</ele>
        <time>2020-08-09T10:57:20.693Z</time>
      </trkpt>
      <trkpt lat="64.14499" lon="10.54191">
        <ele>317.802339</ele>
        <time>2020-08-09T10:57:22.718Z</time>
      </trkpt>
      <trkpt lat="64.14514" lon="10.54211">
        <ele>316.925748</ele>
        <time>2020-08-09T10:57:24.700Z</time>
      </trkpt>
      <trkpt lat="64.14529" lon="10.54231">
        <ele>316.170587</ele>
        <time>2020-08-09T10:57:26.721Z</time>
      </trkpt>
      <trkpt lat="64.14544" lon="10.5425">
        <ele>315.408543</ele>
        <time>2020-08-09T10:57:28.748Z</time>
      </trkpt>
      <trkpt lat="64.1456" lon="10.54265">
        <ele>314.655965</ele>
        <time>2020-08-09T10:57:30.739Z</time>
      </trkpt>
      <trkpt lat="64.14575" lon="10.54279">
        <ele>313.936689</ele>
        <time>2020-08-09T10:57:32.700Z</time>
      </trkpt>
      <trkpt lat="64.1459" lon="10.54291">
        <ele>313.240692</ele>
        <time>2020-08-09T10:57:34.738Z</time>
      </trkpt>
      <trkpt lat="64.14605" lon="10.54303">
        <ele>312.557399</ele>
        <time>2020-08-09T10:57:36.722Z</time>
      </trkpt>
      <trkpt lat="64.1462" lon="10.54313">
        <ele>311.864714</ele>
        <time>2020-08-09T10:57:38.726Z</time>
      </trkpt>
      <trkpt lat="64.14635" lon="10.54321">
        <ele>311.158925</ele>
        <time>2020-08-09T10:57:40.719Z</time>
      </trkpt>
      <trkpt lat="64.14651" lon="10.54329">
        <ele>310.455654</ele>
        <time>2020-08-09T10:57:42.718Z</time>
      </trkpt>
      <trkpt lat="64.14667" lon="10.54335">
        <ele>309.727775</ele>
        <time>2020-08-09T10:57:44.716Z</time>
      </trkpt>
      <trkpt lat="64.14684" lon="10.5434">
        <ele>309.160047</ele>
        <time>2020-08-09T10:57:46.704Z</time>
      </trkpt>
      <trkpt lat="64.14701" lon="10.54342">
        <ele>308.718637</ele>
        <time>2020-08-09T10:57:48.736Z</time>
      </trkpt>
      <trkpt lat="64.14718" lon="10.54343">
        <ele>308.262288</ele>
        <time>2020-08-09T10:57:50.715Z</time>
      </trkpt>
      <trkpt lat="64.14728" lon="10.54343">
        <ele>308.022451</ele>
        <time>2020-08-09T10:57:51.732Z</time>
      </trkpt>
      <trkpt lat="64.14737" lon="10.54342">
        <ele>307.777308</ele>
        <time>2020-08-09T10:57:52.684Z</time>
      </trkpt>
      <trkpt lat="64.14746" lon="10.54341">
        <ele>307.534416</ele>
        <time>2020-08-09T10:57:53.729Z</time>
      </trkpt>
      <trkpt lat="64.14756" lon="10.54339">
        <ele>307.286008</ele>
        <time>2020-08-09T10:57:54.738Z</time>
      </trkpt>
      <trkpt lat="64.14765" lon="10.54338">
        <ele>307.037413</ele>
        <time>2020-08-09T10:57:55.684Z</time>
      </trkpt>
      <trkpt lat="64.14775" lon="10.54335">
        <ele>306.796031</ele>
        <time>2020-08-09T10:57:56.700Z</time>
      </trkpt>
      <trkpt lat="64.14784" lon="10.54332">
        <ele>306.556365</ele>
        <time>2020-08-09T10:57:57.713Z</time>
      </trkpt>
      <trkpt lat="64.14793" lon="10.54329">
        <ele>306.313436</ele>
        <time>2020-08-09T10:57:58.708Z</time>
      </trkpt>
      <trkpt lat="64.14802" lon="10.54324">
        <ele>306.065657</ele>
        <time>2020-08-09T10:57:59.748Z</time>
      </trkpt>
      <trkpt lat="64.14811" lon="10.54319">
        <ele>305.815565</ele>
        <time>2020-08-09T10:58:00.715Z</time>
      </trkpt>
      <trkpt lat="64.14821" lon="10.54313">
        <ele>305.55869</ele>
        <time>2020-08-09T10:58:01.683Z</time>
      </trkpt>
      <trkpt lat="64.14831" lon="10.54306">
        <ele>305.297424</ele>
        <time>2020-08-09T10:58:02.722Z</time>
      </trkpt>
      <trkpt lat="64.1484" lon="10.54299">
        <ele>305.0373</ele>
        <time>2020-08-09T10:58:03.697Z</time>
      </trkpt>
      <trkpt lat="64.1485" lon="10.54292">
        <ele>304.772173</ele>
        <time>2020-08-09T10:58:04.698Z</time>
      </trkpt>
      <trkpt lat="64.1486" lon="10.54283">
        <ele>304.293711</ele>
        <time>2020-08-09T10:58:05.693Z</time>
      </trkpt>
      <trkpt lat="64.1487" lon="10.54274">
        <ele>303.760382</ele>
        <time>2020-08-09T10:58:06.701Z</time>
      </trkpt>
      <trkpt lat="64.1488" lon="10.54264">
        <ele>303.205046</ele>
        <time>2020-08-09T10:58:07.702Z</time>
      </trkpt>
      <trkpt lat="64.1489" lon="10.54253">
        <ele>302.648949</ele>
        <time>2020-08-09T10:58:08.743Z</time>
      </trkpt>
      <trkpt lat="64.149" lon="10.54242">
        <ele>302.091015</ele>
        <time>2020-08-09T10:58:09.709Z</time>
      </trkpt>
      <trkpt lat="64.14911" lon="10.54232">
        <ele>301.52952</ele>
        <time>2020-08-09T10:58:10.708Z</time>
      </trkpt>
      <trkpt lat="64.14921" lon="10.54221">
        <ele>300.973423</ele>
        <time>2020-08-09T10:58:11.699Z</time>
      </trkpt>
      <trkpt lat="64.14931" lon="10.5421">
        <ele>300.40653</ele>
        <time>2020-08-09T10:58:12.720Z</time>
      </trkpt>
      <trkpt lat="64.14942" lon="10.54199">
        <ele>299.840537</ele>
        <time>2020-08-09T10:58:13.672Z</time>
      </trkpt>
      <trkpt lat="64.14952" lon="10.54188">
        <ele>299.287124</ele>
        <time>2020-08-09T10:58:14.670Z</time>
      </trkpt>
      <trkpt lat="64.14962" lon="10.54178">
        <ele>298.737191</ele>
        <time>2020-08-09T10:58:15.701Z</time>
      </trkpt>
      <trkpt lat="64.14972" lon="10.54168">
        <ele>298.208993</ele>
        <time>2020-08-09T10:58:16.683Z</time>
      </trkpt>
      <trkpt lat="64.14981" lon="10.54158">
        <ele>297.696992</ele>
        <time>2020-08-09T10:58:17.711Z</time>
      </trkpt>
      <trkpt lat="64.1499" lon="10.54149">
        <ele>297.198458</ele>
        <time>2020-08-09T10:58:18.726Z</time>
      </trkpt>
      <trkpt lat="64.14999" lon="10.54139">
        <ele>296.708951</ele>
        <time>2020-08-09T10:58:19.715Z</time>
      </trkpt>
      <trkpt lat="64.15008" lon="10.5413">
        <ele>296.222093</ele>
        <time>2020-08-09T10:58:20.704Z</time>
      </trkpt>
      <trkpt lat="64.15017" lon="10.54121">
        <ele>295.758654</ele>
        <time>2020-08-09T10:58:21.766Z</time>
      </trkpt>
      <trkpt lat="64.15026" lon="10.54113">
        <ele>295.392907</ele>
        <time>2020-08-09T10:58:22.727Z</time>
      </trkpt>
      <trkpt lat="64.15034" lon="10.54105">
        <ele>295.028483</ele>
        <time>2020-08-09T10:58:23.736Z</time>
      </trkpt>
      <trkpt lat="64.15043" lon="10.54097">
        <ele>294.675778</ele>
        <time>2020-08-09T10:58:24.700Z</time>
      </trkpt>
      <trkpt lat="64.15051" lon="10.54091">
        <ele>294.319839</ele>
        <time>2020-08-09T10:58:25.698Z</time>
      </trkpt>
      <trkpt lat="64.15068" lon="10.54077">
        <ele>293.631818</ele>
        <time>2020-08-09T10:58:27.743Z</time>
      </trkpt>
      <trkpt lat="64.15084" lon="10.54065">
        <ele>292.962484</ele>
        <time>2020-08-09T10:58:29.691Z</time>
      </trkpt>
      <trkpt lat="64.151" lon="10.54053">
        <ele>292.30009</ele>
        <time>2020-08-09T10:58:31.694Z</time>
      </trkpt>
      <trkpt lat="64.15116" lon="10.54042">
        <ele>291.661494</ele>
        <time>2020-08-09T10:58:33.688Z</time>
      </trkpt>
      <trkpt lat="64.15132" lon="10.5403">
        <ele>291.006003</ele>
        <time>2020-08-09T10:58:35.717Z</time>
      </trkpt>
      <trkpt lat="64.15148" lon="10.54017">
        <ele>290.341469</ele>
        <time>2020-08-09T10:58:37.703Z</time>
      </trkpt>
      <trkpt lat="64.15164" lon="10.54004">
        <ele>289.667333</ele>
        <time>2020-08-09T10:58:39.713Z</time>
      </trkpt>
      <trkpt lat="64.15181" lon="10.53988">
        <ele>288.967051</ele>
        <time>2020-08-09T10:58:41.740Z</time>
      </trkpt>
      <trkpt lat="64.15189" lon="10.53979">
        <ele>288.64494</ele>
        <time>2020-08-09T10:58:42.696Z</time>
      </trkpt>
      <trkpt lat="64.15197" lon="10.53968">
        <ele>288.359033</ele>
        <time>2020-08-09T10:58:43.701Z</time>
      </trkpt>
      <trkpt lat="64.15206" lon="10.53957">
        <ele>288.065301</ele>
        <time>2020-08-09T10:58:44.718Z</time>
      </trkpt>
      <trkpt lat="64.15214" lon="10.53945">
        <ele>287.76724</ele>
        <time>2020-08-09T10:58:45.707Z</time>
      </trkpt>
      <trkpt lat="64.15222" lon="10.53932">
        <ele>287.465068</ele>
        <time>2020-08-09T10:58:46.696Z</time>
      </trkpt>
      <trkpt lat="64.1523" lon="10.53917">
        <ele>287.159142</ele>
        <time>2020-08-09T10:58:47.698Z</time>
      </trkpt>
      <trkpt lat="64.15238" lon="10.53902">
        <ele>286.84957</ele>
        <time>2020-08-09T10:58:48.712Z</time>
      </trkpt>
      <trkpt lat="64.15246" lon="10.53886">
        <ele>286.536109</ele>
        <time>2020-08-09T10:58:49.727Z</time>
      </trkpt>
      <trkpt lat="64.15253" lon="10.53868">
        <ele>286.21283</ele>
        <time>2020-08-09T10:58:50.724Z</time>
      </trkpt>
      <trkpt lat="64.15261" lon="10.5385">
        <ele>285.87628</ele>
        <time>2020-08-09T10:58:51.720Z</time>
      </trkpt>
      <trkpt lat="64.15268" lon="10.53831">
        <ele>285.539282</ele>
        <time>2020-08-09T10:58:52.697Z</time>
      </trkpt>
      <trkpt lat="64.15276" lon="10.53811">
        <ele>285.198322</ele>
        <time>2020-08-09T10:58:53.696Z</time>
      </trkpt>
      <trkpt lat="64.15283" lon="10.53792">
        <ele>284.86704</ele>
        <time>2020-08-09T10:58:54.735Z</time>
      </trkpt>
      <trkpt lat="64.15289" lon="10.53773">
        <ele>284.549627</ele>
        <time>2020-08-09T10:58:55.724Z</time>
      </trkpt>
      <trkpt lat="64.15295" lon="10.53755">
        <ele>284.248784</ele>
        <time>2020-08-09T10:58:56.689Z</time>
      </trkpt>
      <trkpt lat="64.15301" lon="10.53737">
        <ele>283.960984</ele>
        <time>2020-08-09T10:58:57.711Z</time>
      </trkpt>
      <trkpt lat="64.15307" lon="10.53721">
        <ele>283.689938</ele>
        <time>2020-08-09T10:58:58.705Z</time>
      </trkpt>
      <trkpt lat="64.15318" lon="10.53691">
        <ele>283.695582</ele>
        <time>2020-08-09T10:59:00.708Z</time>
      </trkpt>
      <trkpt lat="64.15325" lon="10.53666">
        <ele>284.450528</ele>
        <time>2020-08-09T10:59:02.712Z</time>
      </trkpt>
      <trkpt lat="64.15332" lon="10.53647">
        <ele>285.04395</ele>
        <time>2020-08-09T10:59:04.699Z</time>
      </trkpt>
      <trkpt lat="64.15339" lon="10.53625">
        <ele>285.722413</ele>
        <time>2020-08-09T10:59:07.701Z</time>
      </trkpt>
      <trkpt lat="64.15345" lon="10.53607">
        <ele>286.290248</ele>
        <time>2020-08-09T10:59:11.728Z</time>
      </trkpt>
      <trkpt lat="64.15349" lon="10.53588">
        <ele>286.835948</ele>
        <time>2020-08-09T10:59:17.752Z</time>
      </trkpt>
      <trkpt lat="64.15354" lon="10.53569">
        <ele>287.378841</ele>
        <time>2020-08-09T10:59:24.725Z</time>
      </trkpt>
      <trkpt lat="64.1536" lon="10.5355">
        <ele>287.942229</ele>
        <time>2020-08-09T10:59:31.739Z</time>
      </trkpt>
      <trkpt lat="64.15365" lon="10.5353">
        <ele>288.516515</ele>
        <time>2020-08-09T10:59:38.690Z</time>
      </trkpt>
      <trkpt lat="64.1537" lon="10.53509">
        <ele>289.093239</ele>
        <time>2020-08-09T10:59:45.723Z</time>
      </trkpt>
      <trkpt lat="64.15374" lon="10.5349">
        <ele>289.615303</ele>
        <time>2020-08-09T10:59:51.705Z</time>
      </trkpt>
      <trkpt lat="64.15379" lon="10.53469">
        <ele>290.212485</ele>
        <time>2020-08-09T10:59:57.709Z</time>
      </trkpt>
      <trkpt lat="64.15383" lon="10.5345">
        <ele>290.741281</ele>
        <time>2020-08-09T11:00:02.702Z</time>
      </trkpt>
      <trkpt lat="64.15387" lon="10.53427">
        <ele>291.358458</ele>
        <time>2020-08-09T11:00:07.728Z</time>
      </trkpt>
      <trkpt lat="64.15389" lon="10.53405">
        <ele>291.910205</ele>
        <time>2020-08-09T11:00:11.707Z</time>
      </trkpt>
      <trkpt lat="64.15392" lon="10.53383">
        <ele>292.485464</ele>
        <time>2020-08-09T11:00:15.712Z</time>
      </trkpt>
      <trkpt lat="64.15395" lon="10.53357">
        <ele>293.149558</ele>
        <time>2020-08-09T11:00:19.703Z</time>
      </trkpt>
      <trkpt lat="64.15397" lon="10.53336">
        <ele>293.488133</ele>
        <time>2020-08-09T11:00:22.722Z</time>
      </trkpt>
      <trkpt lat="64.15397" lon="10.53312">
        <ele>293.033544</ele>
        <time>2020-08-09T11:00:26.697Z</time>
      </trkpt>
      <trkpt lat="64.15396" lon="10.53287">
        <ele>292.584086</ele>
        <time>2020-08-09T11:00:30.715Z</time>
      </trkpt>
      <trkpt lat="64.15394" lon="10.53267">
        <ele>292.195817</ele>
        <time>2020-08-09T11:00:33.696Z</time>
      </trkpt>
      <trkpt lat="64.15392" lon="10.53243">
        <ele>291.758929</ele>
        <time>2020-08-09T11:00:36.692Z</time>
      </trkpt>
      <trkpt lat="64.1539" lon="10.53219">
        <ele>291.302521</ele>
        <time>2020-08-09T11:00:39.718Z</time>
      </trkpt>
      <trkpt lat="64.15389" lon="10.53193">
        <ele>290.823091</ele>
        <time>2020-08-09T11:00:42.721Z</time>
      </trkpt>
      <trkpt lat="64.15385" lon="10.53166">
        <ele>290.293235</ele>
        <time>2020-08-09T11:00:45.700Z</time>
      </trkpt>
      <trkpt lat="64.1538" lon="10.53137">
        <ele>289.727708</ele>
        <time>2020-08-09T11:00:48.706Z</time>
      </trkpt>
      <trkpt lat="64.15377" lon="10.53117">
        <ele>289.329514</ele>
        <time>2020-08-09T11:00:50.715Z</time>
      </trkpt>
      <trkpt lat="64.15374" lon="10.53095">
        <ele>288.91726</ele>
        <time>2020-08-09T11:00:52.707Z</time>
      </trkpt>
      <trkpt lat="64.1537" lon="10.53073">
        <ele>288.466968</ele>
        <time>2020-08-09T11:00:54.727Z</time>
      </trkpt>
      <trkpt lat="64.15365" lon="10.53049">
        <ele>287.996441</ele>
        <time>2020-08-09T11:00:56.699Z</time>
      </trkpt>
      <trkpt lat="64.15362" lon="10.53028">
        <ele>287.567918</ele>
        <time>2020-08-09T11:00:58.692Z</time>
      </trkpt>
      <trkpt lat="64.15358" lon="10.53005">
        <ele>287.119175</ele>
        <time>2020-08-09T11:01:00.698Z</time>
      </trkpt>
      <trkpt lat="64.15353" lon="10.52983">
        <ele>286.670285</ele>
        <time>2020-08-09T11:01:02.691Z</time>
      </trkpt>
      <trkpt lat="64.15349" lon="10.52961">
        <ele>286.231752</ele>
        <time>2020-08-09T11:01:04.708Z</time>
      </trkpt>
      <trkpt lat="64.15345" lon="10.52938">
        <ele>285.590908</ele>
        <time>2020-08-09T11:01:06.709Z</time>
      </trkpt>
      <trkpt lat="64.15341" lon="10.52914">
        <ele>284.670133</ele>
        <time>2020-08-09T11:01:08.708Z</time>
      </trkpt>
      <trkpt lat="64.15337" lon="10.52888">
        <ele>283.7017</ele>
        <time>2020-08-09T11:01:10.707Z</time>
      </trkpt>
      <trkpt lat="64.15332" lon="10.52861">
        <ele>282.678927</ele>
        <time>2020-08-09T11:01:12.699Z</time>
      </trkpt>
      <trkpt lat="64.15328" lon="10.52833">
        <ele>281.631395</ele>
        <time>2020-08-09T11:01:14.698Z</time>
      </trkpt>
      <trkpt lat="64.15324" lon="10.52806">
        <ele>280.620064</ele>
        <time>2020-08-09T11:01:16.748Z</time>
      </trkpt>
      <trkpt lat="64.1532" lon="10.5278">
        <ele>279.636172</ele>
        <time>2020-08-09T11:01:18.701Z</time>
      </trkpt>
      <trkpt lat="64.15316" lon="10.52755">
        <ele>278.659903</ele>
        <time>2020-08-09T11:01:20.692Z</time>
      </trkpt>
      <trkpt lat="64.15312" lon="10.5273">
        <ele>277.727627</ele>
        <time>2020-08-09T11:01:22.687Z</time>
      </trkpt>
      <trkpt lat="64.15309" lon="10.52702">
        <ele>276.717287</ele>
        <time>2020-08-09T11:01:24.696Z</time>
      </trkpt>
      <trkpt lat="64.15305" lon="10.52674">
        <ele>275.659267</ele>
        <time>2020-08-09T11:01:26.713Z</time>
      </trkpt>
      <trkpt lat="64.15302" lon="10.52645">
        <ele>274.617888</ele>
        <time>2020-08-09T11:01:28.689Z</time>
      </trkpt>
      <trkpt lat="64.15301" lon="10.52618">
        <ele>273.649064</ele>
        <time>2020-08-09T11:01:30.735Z</time>
      </trkpt>
      <trkpt lat="64.153" lon="10.52591">
        <ele>272.691191</ele>
        <time>2020-08-09T11:01:32.687Z</time>
      </trkpt>
      <trkpt lat="64.153" lon="10.52565">
        <ele>271.767803</ele>
        <time>2020-08-09T11:01:34.716Z</time>
      </trkpt>
      <trkpt lat="64.153" lon="10.52538">
        <ele>270.690117</ele>
        <time>2020-08-09T11:01:36.760Z</time>
      </trkpt>
      <trkpt lat="64.15302" lon="10.5251">
        <ele>269.432533</ele>
        <time>2020-08-09T11:01:38.693Z</time>
      </trkpt>
      <trkpt lat="64.15303" lon="10.52482">
        <ele>268.169337</ele>
        <time>2020-08-09T11:01:40.709Z</time>
      </trkpt>
      <trkpt lat="64.15306" lon="10.52452">
        <ele>266.809302</ele>
        <time>2020-08-09T11:01:42.696Z</time>
      </trkpt>
      <trkpt lat="64.15309" lon="10.52423">
        <ele>265.449898</ele>
        <time>2020-08-09T11:01:44.684Z</time>
      </trkpt>
      <trkpt lat="64.15314" lon="10.52395">
        <ele>264.159897</ele>
        <time>2020-08-09T11:01:46.735Z</time>
      </trkpt>
      <trkpt lat="64.15319" lon="10.52368">
        <ele>262.830747</ele>
        <time>2020-08-09T11:01:48.714Z</time>
      </trkpt>
      <trkpt lat="64.15325" lon="10.52341">
        <ele>261.497568</ele>
        <time>2020-08-09T11:01:50.697Z</time>
      </trkpt>
      <trkpt lat="64.1533" lon="10.52315">
        <ele>260.237769</ele>
        <time>2020-08-09T11:01:52.742Z</time>
      </trkpt>
      <trkpt lat="64.15335" lon="10.52289">
        <ele>258.953605</ele>
        <time>2020-08-09T11:01:54.686Z</time>
      </trkpt>
      <trkpt lat="64.15339" lon="10.52261">
        <ele>257.651713</ele>
        <time>2020-08-09T11:01:56.701Z</time>
      </trkpt>
      <trkpt lat="64.15343" lon="10.52235">
        <ele>256.430269</ele>
        <time>2020-08-09T11:01:58.695Z</time>
      </trkpt>
      <trkpt lat="64.15346" lon="10.52207">
        <ele>255.161617</ele>
        <time>2020-08-09T11:02:00.722Z</time>
      </trkpt>
      <trkpt lat="64.15348" lon="10.52179">
        <ele>253.883444</ele>
        <time>2020-08-09T11:02:02.699Z</time>
      </trkpt>
      <trkpt lat="64.15352" lon="10.52148">
        <ele>252.449011</ele>
        <time>2020-08-09T11:02:04.724Z</time>
      </trkpt>
      <trkpt lat="64.15355" lon="10.52114">
        <ele>250.945336</ele>
        <time>2020-08-09T11:02:06.695Z</time>
      </trkpt>
      <trkpt lat="64.15357" lon="10.52081">
        <ele>249.509283</ele>
        <time>2020-08-09T11:02:08.723Z</time>
      </trkpt>
      <trkpt lat="64.15359" lon="10.52049">
        <ele>248.100488</ele>
        <time>2020-08-09T11:02:10.714Z</time>
      </trkpt>
      <trkpt lat="64.15362" lon="10.52017">
        <ele>246.675541</ele>
        <time>2020-08-09T11:02:12.737Z</time>
      </trkpt>
      <trkpt lat="64.15366" lon="10.51989">
        <ele>245.377454</ele>
        <time>2020-08-09T11:02:14.749Z</time>
      </trkpt>
      <trkpt lat="64.15369" lon="10.51963">
        <ele>244.218855</ele>
        <time>2020-08-09T11:02:16.720Z</time>
      </trkpt>
      <trkpt lat="64.15373" lon="10.5194">
        <ele>243.116918</ele>
        <time>2020-08-09T11:02:18.708Z</time>
      </trkpt>
      <trkpt lat="64.15377" lon="10.51913">
        <ele>241.887841</ele>
        <time>2020-08-09T11:02:20.716Z</time>
      </trkpt>
      <trkpt lat="64.15382" lon="10.51884">
        <ele>240.517597</ele>
        <time>2020-08-09T11:02:22.703Z</time>
      </trkpt>
      <trkpt lat="64.15388" lon="10.51853">
        <ele>239.08095</ele>
        <time>2020-08-09T11:02:24.722Z</time>
      </trkpt>
      <trkpt lat="64.15394" lon="10.51823">
        <ele>237.610825</ele>
        <time>2020-08-09T11:02:26.713Z</time>
      </trkpt>
      <trkpt lat="64.15403" lon="10.51793">
        <ele>236.082018</ele>
        <time>2020-08-09T11:02:28.694Z</time>
      </trkpt>
      <trkpt lat="64.1541" lon="10.51766">
        <ele>234.759141</ele>
        <time>2020-08-09T11:02:30.719Z</time>
      </trkpt>
      <trkpt lat="64.15417" lon="10.51739">
        <ele>233.674306</ele>
        <time>2020-08-09T11:02:32.708Z</time>
      </trkpt>
      <trkpt lat="64.15425" lon="10.5171">
        <ele>232.504288</ele>
        <time>2020-08-09T11:02:34.701Z</time>
      </trkpt>
      <trkpt lat="64.15435" lon="10.51681">
        <ele>231.279184</ele>
        <time>2020-08-09T11:02:36.706Z</time>
      </trkpt>
      <trkpt lat="64.15444" lon="10.51652">
        <ele>230.047705</ele>
        <time>2020-08-09T11:02:38.703Z</time>
      </trkpt>
      <trkpt lat="64.15452" lon="10.51624">
        <ele>228.946135</ele>
        <time>2020-08-09T11:02:40.709Z</time>
      </trkpt>
      <trkpt lat="64.1546" lon="10.51599">
        <ele>227.842846</ele>
        <time>2020-08-09T11:02:42.702Z</time>
      </trkpt>
      <trkpt lat="64.15468" lon="10.51572">
        <ele>226.766927</ele>
        <time>2020-08-09T11:02:44.729Z</time>
      </trkpt>
      <trkpt lat="64.15477" lon="10.51544">
        <ele>225.560761</ele>
        <time>2020-08-09T11:02:46.715Z</time>
      </trkpt>
      <trkpt lat="64.15488" lon="10.51516">
        <ele>224.285014</ele>
        <time>2020-08-09T11:02:48.703Z</time>
      </trkpt>
      <trkpt lat="64.15497" lon="10.51488">
        <ele>223.078102</ele>
        <time>2020-08-09T11:02:50.710Z</time>
      </trkpt>
      <trkpt lat="64.15508" lon="10.51462">
        <ele>221.86655</ele>
        <time>2020-08-09T11:02:52.695Z</time>
      </trkpt>
      <trkpt lat="64.15519" lon="10.51434">
        <ele>220.434212</ele>
        <time>2020-08-09T11:02:54.702Z</time>
      </trkpt>
      <trkpt lat="64.1553" lon="10.51407">
        <ele>218.745684</ele>
        <time>2020-08-09T11:02:56.723Z</time>
      </trkpt>
      <trkpt lat="64.15541" lon="10.51383">
        <ele>217.245834</ele>
        <time>2020-08-09T11:02:58.736Z</time>
      </trkpt>
      <trkpt lat="64.15551" lon="10.51362">
        <ele>215.843051</ele>
        <time>2020-08-09T11:03:00.692Z</time>
      </trkpt>
      <trkpt lat="64.15562" lon="10.5134">
        <ele>214.32945</ele>
        <time>2020-08-09T11:03:02.707Z</time>
      </trkpt>
      <trkpt lat="64.15573" lon="10.51319">
        <ele>212.835339</ele>
        <time>2020-08-09T11:03:04.706Z</time>
      </trkpt>
      <trkpt lat="64.15584" lon="10.51298">
        <ele>211.38931</ele>
        <time>2020-08-09T11:03:06.715Z</time>
      </trkpt>
      <trkpt lat="64.15595" lon="10.51279">
        <ele>209.932097</ele>
        <time>2020-08-09T11:03:08.720Z</time>
      </trkpt>
      <trkpt lat="64.15605" lon="10.51258">
        <ele>208.537917</ele>
        <time>2020-08-09T11:03:10.697Z</time>
      </trkpt>
      <trkpt lat="64.15616" lon="10.51237">
        <ele>207.081135</ele>
        <time>2020-08-09T11:03:12.720Z</time>
      </trkpt>
      <trkpt lat="64.15626" lon="10.51217">
        <ele>205.653286</ele>
        <time>2020-08-09T11:03:14.705Z</time>
      </trkpt>
      <trkpt lat="64.15636" lon="10.51199">
        <ele>204.37457</ele>
        <time>2020-08-09T11:03:16.706Z</time>
      </trkpt>
      <trkpt lat="64.15644" lon="10.51182">
        <ele>203.244135</ele>
        <time>2020-08-09T11:03:18.705Z</time>
      </trkpt>
      <trkpt lat="64.15652" lon="10.51165">
        <ele>202.178586</ele>
        <time>2020-08-09T11:03:20.709Z</time>
      </trkpt>
      <trkpt lat="64.15658" lon="10.51149">
        <ele>201.368334</ele>
        <time>2020-08-09T11:03:22.715Z</time>
      </trkpt>
      <trkpt lat="64.15665" lon="10.51132">
        <ele>200.527213</ele>
        <time>2020-08-09T11:03:24.716Z</time>
      </trkpt>
      <trkpt lat="64.15673" lon="10.51113">
        <ele>199.505082</ele>
        <time>2020-08-09T11:03:26.699Z</time>
      </trkpt>
      <trkpt lat="64.15683" lon="10.51093">
        <ele>198.402622</ele>
        <time>2020-08-09T11:03:28.700Z</time>
      </trkpt>
      <trkpt lat="64.15691" lon="10.51071">
        <ele>197.331768</ele>
        <time>2020-08-09T11:03:30.724Z</time>
      </trkpt>
      <trkpt lat="64.15699" lon="10.51049">
        <ele>196.246896</ele>
        <time>2020-08-09T11:03:32.700Z</time>
      </trkpt>
      <trkpt lat="64.15708" lon="10.51027">
        <ele>195.167774</ele>
        <time>2020-08-09T11:03:34.720Z</time>
      </trkpt>
      <trkpt lat="64.15716" lon="10.51006">
        <ele>194.091198</ele>
        <time>2020-08-09T11:03:36.699Z</time>
      </trkpt>
      <trkpt lat="64.15725" lon="10.50984">
        <ele>193.000632</ele>
        <time>2020-08-09T11:03:38.689Z</time>
      </trkpt>
      <trkpt lat="64.15735" lon="10.50963">
        <ele>191.851568</ele>
        <time>2020-08-09T11:03:40.726Z</time>
      </trkpt>
      <trkpt lat="64.15745" lon="10.50943">
        <ele>190.678862</ele>
        <time>2020-08-09T11:03:42.714Z</time>
      </trkpt>
      <trkpt lat="64.15755" lon="10.50924">
        <ele>189.566462</ele>
        <time>2020-08-09T11:03:44.708Z</time>
      </trkpt>
      <trkpt lat="64.15765" lon="10.50906">
        <ele>188.528486</ele>
        <time>2020-08-09T11:03:46.699Z</time>
      </trkpt>
      <trkpt lat="64.15774" lon="10.50888">
        <ele>187.488111</ele>
        <time>2020-08-09T11:03:48.721Z</time>
      </trkpt>
      <trkpt lat="64.15784" lon="10.50868">
        <ele>186.440138</ele>
        <time>2020-08-09T11:03:50.724Z</time>
      </trkpt>
      <trkpt lat="64.15793" lon="10.50849">
        <ele>185.459247</ele>
        <time>2020-08-09T11:03:52.697Z</time>
      </trkpt>
      <trkpt lat="64.15803" lon="10.50828">
        <ele>184.375806</ele>
        <time>2020-08-09T11:03:54.698Z</time>
      </trkpt>
      <trkpt lat="64.15815" lon="10.50804">
        <ele>183.167733</ele>
        <time>2020-08-09T11:03:56.696Z</time>
      </trkpt>
      <trkpt lat="64.15826" lon="10.50777">
        <ele>181.896436</ele>
        <time>2020-08-09T11:03:58.739Z</time>
      </trkpt>
      <trkpt lat="64.15835" lon="10.5075">
        <ele>180.737567</ele>
        <time>2020-08-09T11:04:00.721Z</time>
      </trkpt>
      <trkpt lat="64.15844" lon="10.50722">
        <ele>179.573072</ele>
        <time>2020-08-09T11:04:02.759Z</time>
      </trkpt>
      <trkpt lat="64.15851" lon="10.50691">
        <ele>178.376589</ele>
        <time>2020-08-09T11:04:04.705Z</time>
      </trkpt>
      <trkpt lat="64.15858" lon="10.50657">
        <ele>177.103029</ele>
        <time>2020-08-09T11:04:06.704Z</time>
      </trkpt>
      <trkpt lat="64.15865" lon="10.50621">
        <ele>175.754611</ele>
        <time>2020-08-09T11:04:08.693Z</time>
      </trkpt>
      <trkpt lat="64.15872" lon="10.50586">
        <ele>174.411667</ele>
        <time>2020-08-09T11:04:10.689Z</time>
      </trkpt>
      <trkpt lat="64.15879" lon="10.50552">
        <ele>173.130431</ele>
        <time>2020-08-09T11:04:12.706Z</time>
      </trkpt>
      <trkpt lat="64.15887" lon="10.50521">
        <ele>173.104183</ele>
        <time>2020-08-09T11:04:14.709Z</time>
      </trkpt>
      <trkpt lat="64.15895" lon="10.50492">
        <ele>173.218675</ele>
        <time>2020-08-09T11:04:16.705Z</time>
      </trkpt>
      <trkpt lat="64.15903" lon="10.50468">
        <ele>173.318303</ele>
        <time>2020-08-09T11:04:18.730Z</time>
      </trkpt>
      <trkpt lat="64.15909" lon="10.50449">
        <ele>173.399733</ele>
        <time>2020-08-09T11:04:20.713Z</time>
      </trkpt>
      <trkpt lat="64.15915" lon="10.50432">
        <ele>173.472635</ele>
        <time>2020-08-09T11:04:22.685Z</time>
      </trkpt>
      <trkpt lat="64.15922" lon="10.50417">
        <ele>173.544453</ele>
        <time>2020-08-09T11:04:24.732Z</time>
      </trkpt>
      <trkpt lat="64.15928" lon="10.50402">
        <ele>173.613683</ele>
        <time>2020-08-09T11:04:26.692Z</time>
      </trkpt>
      <trkpt lat="64.15937" lon="10.50384">
        <ele>173.706689</ele>
        <time>2020-08-09T11:04:29.719Z</time>
      </trkpt>
      <trkpt lat="64.15946" lon="10.50368">
        <ele>173.790292</ele>
        <time>2020-08-09T11:04:32.708Z</time>
      </trkpt>
      <trkpt lat="64.15955" lon="10.50353">
        <ele>173.877552</ele>
        <time>2020-08-09T11:04:35.727Z</time>
      </trkpt>
      <trkpt lat="64.15963" lon="10.50338">
        <ele>173.955457</ele>
        <time>2020-08-09T11:04:38.707Z</time>
      </trkpt>
      <trkpt lat="64.15971" lon="10.50322">
        <ele>174.039184</ele>
        <time>2020-08-09T11:04:42.704Z</time>
      </trkpt>
      <trkpt lat="64.15979" lon="10.50306">
        <ele>174.119724</ele>
        <time>2020-08-09T11:04:46.702Z</time>
      </trkpt>
      <trkpt lat="64.15986" lon="10.50293">
        <ele>174.190243</ele>
        <time>2020-08-09T11:04:49.747Z</time>
      </trkpt>
      <trkpt lat="64.15994" lon="10.50279">
        <ele>174.264279</ele>
        <time>2020-08-09T11:04:52.719Z</time>
      </trkpt>
      <trkpt lat="64.16" lon="10.50265">
        <ele>174.333579</ele>
        <time>2020-08-09T11:04:55.709Z</time>
      </trkpt>
      <trkpt lat="64.16008" lon="10.50251">
        <ele>174.350288</ele>
        <time>2020-08-09T11:04:58.694Z</time>
      </trkpt>
      <trkpt lat="64.16017" lon="10.50239">
        <ele>174.278299</ele>
        <time>2020-08-09T11:05:01.690Z</time>
      </trkpt>
      <trkpt lat="64.16025" lon="10.50227">
        <ele>174.208845</ele>
        <time>2020-08-09T11:05:04.696Z</time>
      </trkpt>
      <trkpt lat="64.16033" lon="10.50215">
        <ele>174.145261</ele>
        <time>2020-08-09T11:05:07.719Z</time>
      </trkpt>
      <trkpt lat="64.1604" lon="10.50201">
        <ele>174.076252</ele>
        <time>2020-08-09T11:05:10.716Z</time>
      </trkpt>
      <trkpt lat="64.16048" lon="10.50182">
        <ele>173.998514</ele>
        <time>2020-08-09T11:05:14.721Z</time>
      </trkpt>
      <trkpt lat="64.16055" lon="10.5016">
        <ele>173.912907</ele>
        <time>2020-08-09T11:05:18.720Z</time>
      </trkpt>
      <trkpt lat="64.16061" lon="10.50141">
        <ele>173.838312</ele>
        <time>2020-08-09T11:05:21.695Z</time>
      </trkpt>
      <trkpt lat="64.16068" lon="10.50119">
        <ele>173.759082</ele>
        <time>2020-08-09T11:05:24.703Z</time>
      </trkpt>
      <trkpt lat="64.16072" lon="10.50095">
        <ele>173.678913</ele>
        <time>2020-08-09T11:05:27.709Z</time>
      </trkpt>
      <trkpt lat="64.16079" lon="10.5007">
        <ele>173.587531</ele>
        <time>2020-08-09T11:05:30.735Z</time>
      </trkpt>
      <trkpt lat="64.16083" lon="10.50051">
        <ele>173.522045</ele>
        <time>2020-08-09T11:05:32.708Z</time>
      </trkpt>
      <trkpt lat="64.16087" lon="10.5003">
        <ele>173.452333</ele>
        <time>2020-08-09T11:05:34.715Z</time>
      </trkpt>
      <trkpt lat="64.16091" lon="10.50008">
        <ele>173.378082</ele>
        <time>2020-08-09T11:05:36.719Z</time>
      </trkpt>
      <trkpt lat="64.16095" lon="10.49983">
        <ele>173.298493</ele>
        <time>2020-08-09T11:05:38.713Z</time>
      </trkpt>
      <trkpt lat="64.16098" lon="10.49957">
        <ele>173.21247</ele>
        <time>2020-08-09T11:05:40.722Z</time>
      </trkpt>
      <trkpt lat="64.16101" lon="10.49927">
        <ele>173.120124</ele>
        <time>2020-08-09T11:05:42.697Z</time>
      </trkpt>
      <trkpt lat="64.16103" lon="10.49898">
        <ele>172.527183</ele>
        <time>2020-08-09T11:05:44.720Z</time>
      </trkpt>
      <trkpt lat="64.16106" lon="10.49869">
        <ele>171.859549</ele>
        <time>2020-08-09T11:05:46.713Z</time>
      </trkpt>
      <trkpt lat="64.16107" lon="10.49836">
        <ele>171.110705</ele>
        <time>2020-08-09T11:05:48.704Z</time>
      </trkpt>
      <trkpt lat="64.16108" lon="10.49799">
        <ele>170.28216</ele>
        <time>2020-08-09T11:05:50.716Z</time>
      </trkpt>
      <trkpt lat="64.16111" lon="10.4976">
        <ele>169.404982</ele>
        <time>2020-08-09T11:05:52.700Z</time>
      </trkpt>
      <trkpt lat="64.16116" lon="10.49721">
        <ele>168.484931</ele>
        <time>2020-08-09T11:05:54.692Z</time>
      </trkpt>
      <trkpt lat="64.16119" lon="10.49702">
        <ele>168.018603</ele>
        <time>2020-08-09T11:05:55.711Z</time>
      </trkpt>
      <trkpt lat="64.16123" lon="10.49682">
        <ele>167.531347</ele>
        <time>2020-08-09T11:05:56.749Z</time>
      </trkpt>
      <trkpt lat="64.16129" lon="10.49662">
        <ele>167.010337</ele>
        <time>2020-08-09T11:05:57.726Z</time>
      </trkpt>
      <trkpt lat="64.16134" lon="10.49642">
        <ele>166.471186</ele>
        <time>2020-08-09T11:05:58.691Z</time>
      </trkpt>
      <trkpt lat="64.1614" lon="10.49623">
        <ele>165.93942</ele>
        <time>2020-08-09T11:05:59.692Z</time>
      </trkpt>
      <trkpt lat="64.16146" lon="10.49603">
        <ele>165.401042</ele>
        <time>2020-08-09T11:06:00.703Z</time>
      </trkpt>
      <trkpt lat="64.16153" lon="10.49583">
        <ele>164.853072</ele>
        <time>2020-08-09T11:06:01.716Z</time>
      </trkpt>
      <trkpt lat="64.16158" lon="10.49562">
        <ele>164.304573</ele>
        <time>2020-08-09T11:06:02.708Z</time>
      </trkpt>
      <trkpt lat="64.16163" lon="10.49541">
        <ele>163.753442</ele>
        <time>2020-08-09T11:06:03.700Z</time>
      </trkpt>
      <trkpt lat="64.16167" lon="10.49518">
        <ele>163.17157</ele>
        <time>2020-08-09T11:06:04.694Z</time>
      </trkpt>
      <trkpt lat="64.16171" lon="10.49494">
        <ele>162.569557</ele>
        <time>2020-08-09T11:06:05.744Z</time>
      </trkpt>
      <trkpt lat="64.16173" lon="10.4947">
        <ele>161.961098</ele>
        <time>2020-08-09T11:06:06.702Z</time>
      </trkpt>
      <trkpt lat="64.16175" lon="10.49445">
        <ele>161.353795</ele>
        <time>2020-08-09T11:06:07.729Z</time>
      </trkpt>
      <trkpt lat="64.16177" lon="10.4942">
        <ele>160.753202</ele>
        <time>2020-08-09T11:06:08.717Z</time>
      </trkpt>
      <trkpt lat="64.16178" lon="10.49396">
        <ele>160.161052</ele>
        <time>2020-08-09T11:06:09.703Z</time>
      </trkpt>
      <trkpt lat="64.16179" lon="10.49371">
        <ele>159.565962</ele>
        <time>2020-08-09T11:06:10.734Z</time>
      </trkpt>
      <trkpt lat="64.16182" lon="10.49346">
        <ele>158.952514</ele>
        <time>2020-08-09T11:06:11.705Z</time>
      </trkpt>
      <trkpt lat="64.16184" lon="10.49322">
        <ele>158.360564</ele>
        <time>2020-08-09T11:06:12.703Z</time>
      </trkpt>
      <trkpt lat="64.16184" lon="10.49299">
        <ele>157.809382</ele>
        <time>2020-08-09T11:06:13.687Z</time>
      </trkpt>
      <trkpt lat="64.16183" lon="10.49276">
        <ele>157.270163</ele>
        <time>2020-08-09T11:06:14.702Z</time>
      </trkpt>
      <trkpt lat="64.16183" lon="10.49254">
        <ele>156.743336</ele>
        <time>2020-08-09T11:06:15.728Z</time>
      </trkpt>
      <trkpt lat="64.16183" lon="10.49232">
        <ele>156.221298</ele>
        <time>2020-08-09T11:06:16.695Z</time>
      </trkpt>
      <trkpt lat="64.16183" lon="10.49211">
        <ele>155.715932</ele>
        <time>2020-08-09T11:06:17.740Z</time>
      </trkpt>
      <trkpt lat="64.16184" lon="10.49191">
        <ele>155.222168</ele>
        <time>2020-08-09T11:06:18.685Z</time>
      </trkpt>
      <trkpt lat="64.16184" lon="10.4917">
        <ele>154.724554</ele>
        <time>2020-08-09T11:06:19.693Z</time>
      </trkpt>
      <trkpt lat="64.16187" lon="10.49131">
        <ele>153.782326</ele>
        <time>2020-08-09T11:06:21.715Z</time>
      </trkpt>
      <trkpt lat="64.16191" lon="10.49094">
        <ele>152.92888</ele>
        <time>2020-08-09T11:06:23.697Z</time>
      </trkpt>
      <trkpt lat="64.16196" lon="10.49059">
        <ele>152.105626</ele>
        <time>2020-08-09T11:06:25.737Z</time>
      </trkpt>
      <trkpt lat="64.16202" lon="10.49026">
        <ele>151.285125</ele>
        <time>2020-08-09T11:06:27.686Z</time>
      </trkpt>
      <trkpt lat="64.1621" lon="10.48995">
        <ele>150.470945</ele>
        <time>2020-08-09T11:06:29.692Z</time>
      </trkpt>
      <trkpt lat="64.16219" lon="10.48965">
        <ele>149.637167</ele>
        <time>2020-08-09T11:06:31.709Z</time>
      </trkpt>
      <trkpt lat="64.1623" lon="10.48934">
        <ele>148.753129</ele>
        <time>2020-08-09T11:06:33.700Z</time>
      </trkpt>
      <trkpt lat="64.16241" lon="10.48901">
        <ele>147.816093</ele>
        <time>2020-08-09T11:06:35.720Z</time>
      </trkpt>
      <trkpt lat="64.16246" lon="10.48884">
        <ele>147.340727</ele>
        <time>2020-08-09T11:06:36.696Z</time>
      </trkpt>
      <trkpt lat="64.16251" lon="10.48867">
        <ele>146.867689</ele>
        <time>2020-08-09T11:06:37.723Z</time>
      </trkpt>
      <trkpt lat="64.16262" lon="10.48833">
        <ele>145.950903</ele>
        <time>2020-08-09T11:06:39.747Z</time>
      </trkpt>
      <trkpt lat="64.1627" lon="10.48802">
        <ele>145.117709</ele>
        <time>2020-08-09T11:06:41.715Z</time>
      </trkpt>
      <trkpt lat="64.16276" lon="10.48772">
        <ele>144.315973</ele>
        <time>2020-08-09T11:06:43.695Z</time>
      </trkpt>
      <trkpt lat="64.16281" lon="10.48743">
        <ele>143.543476</ele>
        <time>2020-08-09T11:06:45.720Z</time>
      </trkpt>
      <trkpt lat="64.16283" lon="10.48717">
        <ele>142.883562</ele>
        <time>2020-08-09T11:06:47.696Z</time>
      </trkpt>
      <trkpt lat="64.16284" lon="10.48692">
        <ele>142.257363</ele>
        <time>2020-08-09T11:06:49.742Z</time>
      </trkpt>
      <trkpt lat="64.16286" lon="10.48667">
        <ele>141.602973</ele>
        <time>2020-08-09T11:06:51.703Z</time>
      </trkpt>
      <trkpt lat="64.16287" lon="10.4864">
        <ele>140.941216</ele>
        <time>2020-08-09T11:06:53.708Z</time>
      </trkpt>
      <trkpt lat="64.16287" lon="10.48615">
        <ele>140.311314</ele>
        <time>2020-08-09T11:06:55.732Z</time>
      </trkpt>
      <trkpt lat="64.16286" lon="10.4859">
        <ele>139.673748</ele>
        <time>2020-08-09T11:06:57.705Z</time>
      </trkpt>
      <trkpt lat="64.16286" lon="10.48565">
        <ele>139.043182</ele>
        <time>2020-08-09T11:06:59.712Z</time>
      </trkpt>
      <trkpt lat="64.16285" lon="10.4854">
        <ele>138.407293</ele>
        <time>2020-08-09T11:07:01.726Z</time>
      </trkpt>
      <trkpt lat="64.16284" lon="10.48514">
        <ele>137.755155</ele>
        <time>2020-08-09T11:07:03.707Z</time>
      </trkpt>
      <trkpt lat="64.16284" lon="10.48488">
        <ele>137.096621</ele>
        <time>2020-08-09T11:07:05.696Z</time>
      </trkpt>
      <trkpt lat="64.16283" lon="10.48462">
        <ele>136.435244</ele>
        <time>2020-08-09T11:07:07.698Z</time>
      </trkpt>
      <trkpt lat="64.16283" lon="10.48436">
        <ele>135.790197</ele>
        <time>2020-08-09T11:07:09.710Z</time>
      </trkpt>
      <trkpt lat="64.16283" lon="10.48411">
        <ele>135.154833</ele>
        <time>2020-08-09T11:07:11.728Z</time>
      </trkpt>
      <trkpt lat="64.16284" lon="10.48386">
        <ele>134.516714</ele>
        <time>2020-08-09T11:07:13.725Z</time>
      </trkpt>
      <trkpt lat="64.16286" lon="10.4836">
        <ele>133.907647</ele>
        <time>2020-08-09T11:07:15.696Z</time>
      </trkpt>
      <trkpt lat="64.16287" lon="10.48335">
        <ele>133.315993</ele>
        <time>2020-08-09T11:07:17.732Z</time>
      </trkpt>
      <trkpt lat="64.16288" lon="10.48311">
        <ele>132.757766</ele>
        <time>2020-08-09T11:07:19.705Z</time>
      </trkpt>
      <trkpt lat="64.1629" lon="10.48288">
        <ele>132.225956</ele>
        <time>2020-08-09T11:07:21.702Z</time>
      </trkpt>
      <trkpt lat="64.16292" lon="10.48265">
        <ele>131.694637</ele>
        <time>2020-08-09T11:07:23.720Z</time>
      </trkpt>
      <trkpt lat="64.16294" lon="10.48242">
        <ele>131.152347</ele>
        <time>2020-08-09T11:07:25.697Z</time>
      </trkpt>
      <trkpt lat="64.16296" lon="10.48218">
        <ele>130.606766</ele>
        <time>2020-08-09T11:07:27.713Z</time>
      </trkpt>
      <trkpt lat="64.16298" lon="10.48195">
        <ele>130.046608</ele>
        <time>2020-08-09T11:07:29.748Z</time>
      </trkpt>
      <trkpt lat="64.16301" lon="10.4817">
        <ele>129.451339</ele>
        <time>2020-08-09T11:07:31.700Z</time>
      </trkpt>
      <trkpt lat="64.16305" lon="10.48143">
        <ele>128.801704</ele>
        <time>2020-08-09T11:07:33.698Z</time>
      </trkpt>
      <trkpt lat="64.16309" lon="10.48114">
        <ele>128.095836</ele>
        <time>2020-08-09T11:07:35.689Z</time>
      </trkpt>
      <trkpt lat="64.16314" lon="10.48085">
        <ele>127.397105</ele>
        <time>2020-08-09T11:07:37.738Z</time>
      </trkpt>
      <trkpt lat="64.16319" lon="10.48058">
        <ele>126.722089</ele>
        <time>2020-08-09T11:07:39.706Z</time>
      </trkpt>
      <trkpt lat="64.16323" lon="10.4803">
        <ele>126.047417</ele>
        <time>2020-08-09T11:07:41.693Z</time>
      </trkpt>
      <trkpt lat="64.16328" lon="10.48002">
        <ele>125.354499</ele>
        <time>2020-08-09T11:07:43.706Z</time>
      </trkpt>
      <trkpt lat="64.16333" lon="10.47973">
        <ele>124.712207</ele>
        <time>2020-08-09T11:07:45.734Z</time>
      </trkpt>
      <trkpt lat="64.1634" lon="10.47946">
        <ele>124.355476</ele>
        <time>2020-08-09T11:07:47.694Z</time>
      </trkpt>
      <trkpt lat="64.16347" lon="10.47921">
        <ele>124.021818</ele>
        <time>2020-08-09T11:07:49.712Z</time>
      </trkpt>
      <trkpt lat="64.16354" lon="10.47899">
        <ele>123.70131</ele>
        <time>2020-08-09T11:07:51.725Z</time>
      </trkpt>
      <trkpt lat="64.16363" lon="10.47879">
        <ele>123.378009</ele>
        <time>2020-08-09T11:07:53.713Z</time>
      </trkpt>
      <trkpt lat="64.16371" lon="10.4786">
        <ele>123.066409</ele>
        <time>2020-08-09T11:07:55.700Z</time>
      </trkpt>
      <trkpt lat="64.1638" lon="10.47841">
        <ele>122.746284</ele>
        <time>2020-08-09T11:07:57.735Z</time>
      </trkpt>
      <trkpt lat="64.1639" lon="10.47823">
        <ele>122.410329</ele>
        <time>2020-08-09T11:07:59.703Z</time>
      </trkpt>
      <trkpt lat="64.164" lon="10.47806">
        <ele>122.090379</ele>
        <time>2020-08-09T11:08:01.695Z</time>
      </trkpt>
      <trkpt lat="64.1641" lon="10.47791">
        <ele>121.769257</ele>
        <time>2020-08-09T11:08:03.718Z</time>
      </trkpt>
      <trkpt lat="64.16421" lon="10.47776">
        <ele>121.434844</ele>
        <time>2020-08-09T11:08:05.701Z</time>
      </trkpt>
      <trkpt lat="64.16433" lon="10.47765">
        <ele>121.106653</ele>
        <time>2020-08-09T11:08:07.709Z</time>
      </trkpt>
      <trkpt lat="64.16445" lon="10.47755">
        <ele>120.76927</ele>
        <time>2020-08-09T11:08:09.724Z</time>
      </trkpt>
      <trkpt lat="64.16457" lon="10.47744">
        <ele>120.418788</ele>
        <time>2020-08-09T11:08:11.695Z</time>
      </trkpt>
      <trkpt lat="64.1647" lon="10.47732">
        <ele>120.025825</ele>
        <time>2020-08-09T11:08:13.692Z</time>
      </trkpt>
      <trkpt lat="64.16484" lon="10.47721">
        <ele>119.143054</ele>
        <time>2020-08-09T11:08:15.718Z</time>
      </trkpt>
      <trkpt lat="64.16498" lon="10.4771">
        <ele>118.292068</ele>
        <time>2020-08-09T11:08:17.715Z</time>
      </trkpt>
      <trkpt lat="64.16511" lon="10.47699">
        <ele>117.457042</ele>
        <time>2020-08-09T11:08:19.699Z</time>
      </trkpt>
      <trkpt lat="64.16524" lon="10.4769">
        <ele>116.664006</ele>
        <time>2020-08-09T11:08:21.740Z</time>
      </trkpt>
      <trkpt lat="64.16536" lon="10.47681">
        <ele>115.899103</ele>
        <time>2020-08-09T11:08:23.706Z</time>
      </trkpt>
      <trkpt lat="64.16548" lon="10.47673">
        <ele>115.170102</ele>
        <time>2020-08-09T11:08:25.737Z</time>
      </trkpt>
      <trkpt lat="64.1656" lon="10.47667">
        <ele>114.456179</ele>
        <time>2020-08-09T11:08:27.702Z</time>
      </trkpt>
      <trkpt lat="64.16572" lon="10.47663">
        <ele>113.742439</ele>
        <time>2020-08-09T11:08:29.713Z</time>
      </trkpt>
      <trkpt lat="64.16583" lon="10.4766">
        <ele>113.056094</ele>
        <time>2020-08-09T11:08:31.685Z</time>
      </trkpt>
      <trkpt lat="64.16595" lon="10.4766">
        <ele>112.350998</ele>
        <time>2020-08-09T11:08:33.700Z</time>
      </trkpt>
      <trkpt lat="64.16608" lon="10.47662">
        <ele>111.572377</ele>
        <time>2020-08-09T11:08:35.700Z</time>
      </trkpt>
      <trkpt lat="64.16623" lon="10.47668">
        <ele>110.694044</ele>
        <time>2020-08-09T11:08:37.705Z</time>
      </trkpt>
      <trkpt lat="64.16639" lon="10.47678">
        <ele>109.72124</ele>
        <time>2020-08-09T11:08:39.687Z</time>
      </trkpt>
      <trkpt lat="64.16655" lon="10.4769">
        <ele>109.110232</ele>
        <time>2020-08-09T11:08:41.712Z</time>
      </trkpt>
      <trkpt lat="64.16672" lon="10.47702">
        <ele>108.667778</ele>
        <time>2020-08-09T11:08:43.687Z</time>
      </trkpt>
      <trkpt lat="64.16689" lon="10.47714">
        <ele>108.240145</ele>
        <time>2020-08-09T11:08:45.729Z</time>
      </trkpt>
      <trkpt lat="64.16704" lon="10.47722">
        <ele>107.846398</ele>
        <time>2020-08-09T11:08:47.696Z</time>
      </trkpt>
      <trkpt lat="64.16718" lon="10.47728">
        <ele>107.492649</ele>
        <time>2020-08-09T11:08:49.725Z</time>
      </trkpt>
      <trkpt lat="64.16728" lon="10.47731">
        <ele>107.233737</ele>
        <time>2020-08-09T11:08:51.694Z</time>
      </trkpt>
      <trkpt lat="64.1674" lon="10.47732">
        <ele>106.93943</ele>
        <time>2020-08-09T11:08:54.719Z</time>
      </trkpt>
      <trkpt lat="64.16752" lon="10.47729">
        <ele>106.629202</ele>
        <time>2020-08-09T11:08:57.742Z</time>
      </trkpt>
      <trkpt lat="64.16763" lon="10.47727">
        <ele>106.363123</ele>
        <time>2020-08-09T11:09:00.729Z</time>
      </trkpt>
      <trkpt lat="64.16773" lon="10.47724">
        <ele>106.112157</ele>
        <time>2020-08-09T11:09:03.727Z</time>
      </trkpt>
      <trkpt lat="64.16783" lon="10.4772">
        <ele>105.863141</ele>
        <time>2020-08-09T11:09:06.712Z</time>
      </trkpt>
      <trkpt lat="64.16794" lon="10.47713">
        <ele>105.568558</ele>
        <time>2020-08-09T11:09:10.734Z</time>
      </trkpt>
      <trkpt lat="64.16805" lon="10.47706">
        <ele>105.300681</ele>
        <time>2020-08-09T11:09:14.735Z</time>
      </trkpt>
      <trkpt lat="64.16814" lon="10.477">
        <ele>105.057375</ele>
        <time>2020-08-09T11:09:18.703Z</time>
      </trkpt>
      <trkpt lat="64.16823" lon="10.47693">
        <ele>105.114559</ele>
        <time>2020-08-09T11:09:22.715Z</time>
      </trkpt>
      <trkpt lat="64.16833" lon="10.47684">
        <ele>105.612464</ele>
        <time>2020-08-09T11:09:27.739Z</time>
      </trkpt>
      <trkpt lat="64.16841" lon="10.47674">
        <ele>106.058767</ele>
        <time>2020-08-09T11:09:32.707Z</time>
      </trkpt>
      <trkpt lat="64.16849" lon="10.47661">
        <ele>106.526609</ele>
        <time>2020-08-09T11:09:38.716Z</time>
      </trkpt>
      <trkpt lat="64.16857" lon="10.47645">
        <ele>106.991004</ele>
        <time>2020-08-09T11:09:46.731Z</time>
      </trkpt>
      <trkpt lat="64.16865" lon="10.47632">
        <ele>107.45707</ele>
        <time>2020-08-09T11:09:53.717Z</time>
      </trkpt>
      <trkpt lat="64.16872" lon="10.47618">
        <ele>107.90451</ele>
        <time>2020-08-09T11:09:59.740Z</time>
      </trkpt>
      <trkpt lat="64.1688" lon="10.47604">
        <ele>108.358114</ele>
        <time>2020-08-09T11:10:06.718Z</time>
      </trkpt>
      <trkpt lat="64.16888" lon="10.4759">
        <ele>108.843757</ele>
        <time>2020-08-09T11:10:13.731Z</time>
      </trkpt>
      <trkpt lat="64.16897" lon="10.47576">
        <ele>109.332044</ele>
        <time>2020-08-09T11:10:19.696Z</time>
      </trkpt>
      <trkpt lat="64.16905" lon="10.47561">
        <ele>109.796833</ele>
        <time>2020-08-09T11:10:25.720Z</time>
      </trkpt>
      <trkpt lat="64.16911" lon="10.47547">
        <ele>110.231188</ele>
        <time>2020-08-09T11:10:31.716Z</time>
      </trkpt>
      <trkpt lat="64.16918" lon="10.47529">
        <ele>110.707155</ele>
        <time>2020-08-09T11:10:38.721Z</time>
      </trkpt>
      <trkpt lat="64.16926" lon="10.47517">
        <ele>111.156014</ele>
        <time>2020-08-09T11:10:44.696Z</time>
      </trkpt>
      <trkpt lat="64.16935" lon="10.47503">
        <ele>111.650308</ele>
        <time>2020-08-09T11:10:51.696Z</time>
      </trkpt>
      <trkpt lat="64.16943" lon="10.47489">
        <ele>112.129786</ele>
        <time>2020-08-09T11:10:56.692Z</time>
      </trkpt>
      <trkpt lat="64.16951" lon="10.47472">
        <ele>112.644252</ele>
        <time>2020-08-09T11:11:01.708Z</time>
      </trkpt>
      <trkpt lat="64.16959" lon="10.47457">
        <ele>113.118029</ele>
        <time>2020-08-09T11:11:05.731Z</time>
      </trkpt>
      <trkpt lat="64.16967" lon="10.47442">
        <ele>113.066768</ele>
        <time>2020-08-09T11:11:09.691Z</time>
      </trkpt>
      <trkpt lat="64.16975" lon="10.47426">
        <ele>112.648184</ele>
        <time>2020-08-09T11:11:13.714Z</time>
      </trkpt>
      <trkpt lat="64.16983" lon="10.47412">
        <ele>112.235739</ele>
        <time>2020-08-09T11:11:17.702Z</time>
      </trkpt>
      <trkpt lat="64.1699" lon="10.47399">
        <ele>111.881492</ele>
        <time>2020-08-09T11:11:20.721Z</time>
      </trkpt>
      <trkpt lat="64.16998" lon="10.47383">
        <ele>111.472616</ele>
        <time>2020-08-09T11:11:23.726Z</time>
      </trkpt>
      <trkpt lat="64.17006" lon="10.47367">
        <ele>111.046548</ele>
        <time>2020-08-09T11:11:26.716Z</time>
      </trkpt>
      <trkpt lat="64.17015" lon="10.47348">
        <ele>110.563728</ele>
        <time>2020-08-09T11:11:29.700Z</time>
      </trkpt>
      <trkpt lat="64.17022" lon="10.47334">
        <ele>110.199581</ele>
        <time>2020-08-09T11:11:31.733Z</time>
      </trkpt>
      <trkpt lat="64.1703" lon="10.47319">
        <ele>109.802254</ele>
        <time>2020-08-09T11:11:33.688Z</time>
      </trkpt>
      <trkpt lat="64.17039" lon="10.47302">
        <ele>109.365399</ele>
        <time>2020-08-09T11:11:35.698Z</time>
      </trkpt>
      <trkpt lat="64.17048" lon="10.47284">
        <ele>108.880765</ele>
        <time>2020-08-09T11:11:37.689Z</time>
      </trkpt>
      <trkpt lat="64.17058" lon="10.47265">
        <ele>108.361537</ele>
        <time>2020-08-09T11:11:39.700Z</time>
      </trkpt>
      <trkpt lat="64.17069" lon="10.47245">
        <ele>107.829092</ele>
        <time>2020-08-09T11:11:41.712Z</time>
      </trkpt>
      <trkpt lat="64.17079" lon="10.47225">
        <ele>107.282083</ele>
        <time>2020-08-09T11:11:43.729Z</time>
      </trkpt>
      <trkpt lat="64.1709" lon="10.47205">
        <ele>106.72854</ele>
        <time>2020-08-09T11:11:45.701Z</time>
      </trkpt>
      <trkpt lat="64.17101" lon="10.47183">
        <ele>106.195929</ele>
        <time>2020-08-09T11:11:47.717Z</time>
      </trkpt>
      <trkpt lat="64.17111" lon="10.47162">
        <ele>105.871672</ele>
        <time>2020-08-09T11:11:49.697Z</time>
      </trkpt>
      <trkpt lat="64.17123" lon="10.47142">
        <ele>105.5361</ele>
        <time>2020-08-09T11:11:51.708Z</time>
      </trkpt>
      <trkpt lat="64.17132" lon="10.47125">
        <ele>105.257592</ele>
        <time>2020-08-09T11:11:53.721Z</time>
      </trkpt>
      <trkpt lat="64.17143" lon="10.47108">
        <ele>104.960567</ele>
        <time>2020-08-09T11:11:55.686Z</time>
      </trkpt>
      <trkpt lat="64.17152" lon="10.47092">
        <ele>104.684472</ele>
        <time>2020-08-09T11:11:57.729Z</time>
      </trkpt>
      <trkpt lat="64.17161" lon="10.47076">
        <ele>104.43039</ele>
        <time>2020-08-09T11:11:59.697Z</time>
      </trkpt>
      <trkpt lat="64.1717" lon="10.47061">
        <ele>104.170877</ele>
        <time>2020-08-09T11:12:01.688Z</time>
      </trkpt>
      <trkpt lat="64.17179" lon="10.47046">
        <ele>103.91689</ele>
        <time>2020-08-09T11:12:03.687Z</time>
      </trkpt>
      <trkpt lat="64.17187" lon="10.47032">
        <ele>103.676941</ele>
        <time>2020-08-09T11:12:05.690Z</time>
      </trkpt>
      <trkpt lat="64.17196" lon="10.4702">
        <ele>103.439237</ele>
        <time>2020-08-09T11:12:07.715Z</time>
      </trkpt>
      <trkpt lat="64.17205" lon="10.47009">
        <ele>103.196978</ele>
        <time>2020-08-09T11:12:09.704Z</time>
      </trkpt>
      <trkpt lat="64.17215" lon="10.46999">
        <ele>102.952658</ele>
        <time>2020-08-09T11:12:11.708Z</time>
      </trkpt>
      <trkpt lat="64.17225" lon="10.4699">
        <ele>102.713136</ele>
        <time>2020-08-09T11:12:13.713Z</time>
      </trkpt>
      <trkpt lat="64.17234" lon="10.46984">
        <ele>102.473975</ele>
        <time>2020-08-09T11:12:15.695Z</time>
      </trkpt>
      <trkpt lat="64.17244" lon="10.46979">
        <ele>102.250392</ele>
        <time>2020-08-09T11:12:17.699Z</time>
      </trkpt>
      <trkpt lat="64.17254" lon="10.46974">
        <ele>102.087858</ele>
        <time>2020-08-09T11:12:19.718Z</time>
      </trkpt>
      <trkpt lat="64.17265" lon="10.46971">
        <ele>102.239405</ele>
        <time>2020-08-09T11:12:21.716Z</time>
      </trkpt>
      <trkpt lat="64.17275" lon="10.4697">
        <ele>102.392852</ele>
        <time>2020-08-09T11:12:23.728Z</time>
      </trkpt>
      <trkpt lat="64.17286" lon="10.4697">
        <ele>102.54192</ele>
        <time>2020-08-09T11:12:25.705Z</time>
      </trkpt>
      <trkpt lat="64.17296" lon="10.46971">
        <ele>102.686914</ele>
        <time>2020-08-09T11:12:27.684Z</time>
      </trkpt>
      <trkpt lat="64.17306" lon="10.46974">
        <ele>102.826965</ele>
        <time>2020-08-09T11:12:29.736Z</time>
      </trkpt>
      <trkpt lat="64.17316" lon="10.46979">
        <ele>102.966447</ele>
        <time>2020-08-09T11:12:31.692Z</time>
      </trkpt>
      <trkpt lat="64.17325" lon="10.46985">
        <ele>103.101563</ele>
        <time>2020-08-09T11:12:33.695Z</time>
      </trkpt>
      <trkpt lat="64.17334" lon="10.46993">
        <ele>103.236588</ele>
        <time>2020-08-09T11:12:35.735Z</time>
      </trkpt>
      <trkpt lat="64.17346" lon="10.47004">
        <ele>103.429977</ele>
        <time>2020-08-09T11:12:38.693Z</time>
      </trkpt>
      <trkpt lat="64.17355" lon="10.47011">
        <ele>103.558849</ele>
        <time>2020-08-09T11:12:40.742Z</time>
      </trkpt>
      <trkpt lat="64.17367" lon="10.47024">
        <ele>103.745153</ele>
        <time>2020-08-09T11:12:43.730Z</time>
      </trkpt>
      <trkpt lat="64.17375" lon="10.47033">
        <ele>103.877528</ele>
        <time>2020-08-09T11:12:45.702Z</time>
      </trkpt>
      <trkpt lat="64.17384" lon="10.47042">
        <ele>104.017473</ele>
        <time>2020-08-09T11:12:47.701Z</time>
      </trkpt>
      <trkpt lat="64.17393" lon="10.4705">
        <ele>104.149915</ele>
        <time>2020-08-09T11:12:49.702Z</time>
      </trkpt>
      <trkpt lat="64.17402" lon="10.47058">
        <ele>104.283393</ele>
        <time>2020-08-09T11:12:51.716Z</time>
      </trkpt>
      <trkpt lat="64.17411" lon="10.47063">
        <ele>104.425851</ele>
        <time>2020-08-09T11:12:53.712Z</time>
      </trkpt>
      <trkpt lat="64.17421" lon="10.47067">
        <ele>104.558044</ele>
        <time>2020-08-09T11:12:55.686Z</time>
      </trkpt>
      <trkpt lat="64.17434" lon="10.47067">
        <ele>104.856288</ele>
        <time>2020-08-09T11:12:58.728Z</time>
      </trkpt>
      <trkpt lat="64.17443" lon="10.47065">
        <ele>105.091115</ele>
        <time>2020-08-09T11:13:00.705Z</time>
      </trkpt>
      <trkpt lat="64.17455" lon="10.47057">
        <ele>105.414366</ele>
        <time>2020-08-09T11:13:03.684Z</time>
      </trkpt>
      <trkpt lat="64.17468" lon="10.47046">
        <ele>105.752838</ele>
        <time>2020-08-09T11:13:06.723Z</time>
      </trkpt>
      <trkpt lat="64.17479" lon="10.4703">
        <ele>106.082345</ele>
        <time>2020-08-09T11:13:09.718Z</time>
      </trkpt>
      <trkpt lat="64.17487" lon="10.4701">
        <ele>106.39146</ele>
        <time>2020-08-09T11:13:12.714Z</time>
      </trkpt>
      <trkpt lat="64.17494" lon="10.46988">
        <ele>106.686919</ele>
        <time>2020-08-09T11:13:15.688Z</time>
      </trkpt>
      <trkpt lat="64.175" lon="10.46962">
        <ele>107.007007</ele>
        <time>2020-08-09T11:13:18.697Z</time>
      </trkpt>
      <trkpt lat="64.17504" lon="10.46933">
        <ele>107.344163</ele>
        <time>2020-08-09T11:13:21.712Z</time>
      </trkpt>
      <trkpt lat="64.17507" lon="10.46904">
        <ele>107.681689</ele>
        <time>2020-08-09T11:13:24.717Z</time>
      </trkpt>
      <trkpt lat="64.17509" lon="10.4688">
        <ele>107.955557</ele>
        <time>2020-08-09T11:13:27.704Z</time>
      </trkpt>
      <trkpt lat="64.17509" lon="10.46853">
        <ele>108.247212</ele>
        <time>2020-08-09T11:13:31.705Z</time>
      </trkpt>
      <trkpt lat="64.17506" lon="10.46831">
        <ele>108.500073</ele>
        <time>2020-08-09T11:13:35.705Z</time>
      </trkpt>
      <trkpt lat="64.17504" lon="10.46812">
        <ele>108.729091</ele>
        <time>2020-08-09T11:13:39.699Z</time>
      </trkpt>
      <trkpt lat="64.17501" lon="10.46791">
        <ele>108.969406</ele>
        <time>2020-08-09T11:13:43.717Z</time>
      </trkpt>
      <trkpt lat="64.17497" lon="10.46767">
        <ele>109.322287</ele>
        <time>2020-08-09T11:13:48.736Z</time>
      </trkpt>
      <trkpt lat="64.17493" lon="10.46746">
        <ele>109.817298</ele>
        <time>2020-08-09T11:13:53.699Z</time>
      </trkpt>
      <trkpt lat="64.17491" lon="10.46723">
        <ele>110.324719</ele>
        <time>2020-08-09T11:14:00.689Z</time>
      </trkpt>
      <trkpt lat="64.17489" lon="10.46701">
        <ele>110.8323</ele>
        <time>2020-08-09T11:14:07.699Z</time>
      </trkpt>
      <trkpt lat="64.17486" lon="10.46678">
        <ele>111.336576</ele>
        <time>2020-08-09T11:14:14.693Z</time>
      </trkpt>
      <trkpt lat="64.17484" lon="10.46655">
        <ele>111.85479</ele>
        <time>2020-08-09T11:14:21.727Z</time>
      </trkpt>
      <trkpt lat="64.17485" lon="10.46634">
        <ele>112.329134</ele>
        <time>2020-08-09T11:14:27.727Z</time>
      </trkpt>
      <trkpt lat="64.17485" lon="10.46612">
        <ele>112.793693</ele>
        <time>2020-08-09T11:14:33.716Z</time>
      </trkpt>
      <trkpt lat="64.1749" lon="10.46591">
        <ele>113.31883</ele>
        <time>2020-08-09T11:14:40.715Z</time>
      </trkpt>
      <trkpt lat="64.17494" lon="10.46571">
        <ele>113.81207</ele>
        <time>2020-08-09T11:14:46.711Z</time>
      </trkpt>
      <trkpt lat="64.17501" lon="10.46554">
        <ele>114.314822</ele>
        <time>2020-08-09T11:14:52.717Z</time>
      </trkpt>
      <trkpt lat="64.17508" lon="10.46539">
        <ele>114.785569</ele>
        <time>2020-08-09T11:14:58.690Z</time>
      </trkpt>
      <trkpt lat="64.17516" lon="10.46525">
        <ele>115.281245</ele>
        <time>2020-08-09T11:15:04.715Z</time>
      </trkpt>
      <trkpt lat="64.17522" lon="10.4651">
        <ele>115.746863</ele>
        <time>2020-08-09T11:15:10.710Z</time>
      </trkpt>
      <trkpt lat="64.17529" lon="10.46496">
        <ele>116.21481</ele>
        <time>2020-08-09T11:15:15.691Z</time>
      </trkpt>
      <trkpt lat="64.17536" lon="10.46482">
        <ele>116.684637</ele>
        <time>2020-08-09T11:15:21.703Z</time>
      </trkpt>
      <trkpt lat="64.17543" lon="10.46465">
        <ele>117.190565</ele>
        <time>2020-08-09T11:15:27.716Z</time>
      </trkpt>
      <trkpt lat="64.17549" lon="10.46445">
        <ele>117.721315</ele>
        <time>2020-08-09T11:15:34.710Z</time>
      </trkpt>
      <trkpt lat="64.1755" lon="10.46423">
        <ele>118.220759</ele>
        <time>2020-08-09T11:15:41.713Z</time>
      </trkpt>
      <trkpt lat="64.1755" lon="10.464">
        <ele>118.706322</ele>
        <time>2020-08-09T11:15:48.713Z</time>
      </trkpt>
      <trkpt lat="64.1755" lon="10.46377">
        <ele>119.223854</ele>
        <time>2020-08-09T11:15:55.724Z</time>
      </trkpt>
      <trkpt lat="64.17547" lon="10.46356">
        <ele>119.714791</ele>
        <time>2020-08-09T11:16:01.697Z</time>
      </trkpt>
      <trkpt lat="64.17544" lon="10.46335">
        <ele>120.197803</ele>
        <time>2020-08-09T11:16:08.696Z</time>
      </trkpt>
      <trkpt lat="64.17542" lon="10.46312">
        <ele>120.701704</ele>
        <time>2020-08-09T11:16:15.689Z</time>
      </trkpt>
      <trkpt lat="64.17541" lon="10.4629">
        <ele>121.196981</ele>
        <time>2020-08-09T11:16:22.719Z</time>
      </trkpt>
      <trkpt lat="64.17538" lon="10.4627">
        <ele>121.659126</ele>
        <time>2020-08-09T11:16:29.731Z</time>
      </trkpt>
      <trkpt lat="64.17534" lon="10.46249">
        <ele>122.148607</ele>
        <time>2020-08-09T11:16:37.696Z</time>
      </trkpt>
      <trkpt lat="64.17532" lon="10.46227">
        <ele>122.654254</ele>
        <time>2020-08-09T11:16:45.708Z</time>
      </trkpt>
      <trkpt lat="64.17528" lon="10.46208">
        <ele>123.108349</ele>
        <time>2020-08-09T11:16:52.722Z</time>
      </trkpt>
      <trkpt lat="64.17524" lon="10.46188">
        <ele>123.589913</ele>
        <time>2020-08-09T11:16:59.704Z</time>
      </trkpt>
      <trkpt lat="64.1752" lon="10.46169">
        <ele>124.071895</ele>
        <time>2020-08-09T11:17:05.692Z</time>
      </trkpt>
      <trkpt lat="64.17516" lon="10.46149">
        <ele>124.551335</ele>
        <time>2020-08-09T11:17:11.696Z</time>
      </trkpt>
      <trkpt lat="64.17512" lon="10.46129">
        <ele>125.024776</ele>
        <time>2020-08-09T11:17:18.719Z</time>
      </trkpt>
      <trkpt lat="64.17505" lon="10.46113">
        <ele>125.512123</ele>
        <time>2020-08-09T11:17:24.715Z</time>
      </trkpt>
      <trkpt lat="64.17503" lon="10.4609">
        <ele>126.043631</ele>
        <time>2020-08-09T11:17:32.773Z</time>
      </trkpt>
      <trkpt lat="64.17498" lon="10.46069">
        <ele>126.539851</ele>
        <time>2020-08-09T11:17:39.704Z</time>
      </trkpt>
      <trkpt lat="64.17494" lon="10.46051">
        <ele>127.005435</ele>
        <time>2020-08-09T11:17:45.716Z</time>
      </trkpt>
      <trkpt lat="64.1749" lon="10.46032">
        <ele>127.320951</ele>
        <time>2020-08-09T11:17:51.710Z</time>
      </trkpt>
      <trkpt lat="64.17487" lon="10.4601">
        <ele>127.377009</ele>
        <time>2020-08-09T11:17:57.696Z</time>
      </trkpt>
      <trkpt lat="64.17483" lon="10.45991">
        <ele>127.426274</ele>
        <time>2020-08-09T11:18:01.698Z</time>
      </trkpt>
      <trkpt lat="64.17478" lon="10.45967">
        <ele>127.487756</ele>
        <time>2020-08-09T11:18:06.703Z</time>
      </trkpt>
      <trkpt lat="64.17473" lon="10.45944">
        <ele>127.548792</ele>
        <time>2020-08-09T11:18:11.702Z</time>
      </trkpt>
      <trkpt lat="64.17469" lon="10.45923">
        <ele>127.604703</ele>
        <time>2020-08-09T11:18:15.724Z</time>
      </trkpt>
      <trkpt lat="64.17463" lon="10.459">
        <ele>127.66864</ele>
        <time>2020-08-09T11:18:19.707Z</time>
      </trkpt>
      <trkpt lat="64.17458" lon="10.4588">
        <ele>127.722837</ele>
        <time>2020-08-09T11:18:23.725Z</time>
      </trkpt>
      <trkpt lat="64.17454" lon="10.45861">
        <ele>127.772744</ele>
        <time>2020-08-09T11:18:27.740Z</time>
      </trkpt>
      <trkpt lat="64.17451" lon="10.45841">
        <ele>127.82442</ele>
        <time>2020-08-09T11:18:31.705Z</time>
      </trkpt>
      <trkpt lat="64.17447" lon="10.45817">
        <ele>127.884899</ele>
        <time>2020-08-09T11:18:35.735Z</time>
      </trkpt>
      <trkpt lat="64.17442" lon="10.45792">
        <ele>127.948318</ele>
        <time>2020-08-09T11:18:39.735Z</time>
      </trkpt>
      <trkpt lat="64.17438" lon="10.45773">
        <ele>127.999636</ele>
        <time>2020-08-09T11:18:42.707Z</time>
      </trkpt>
      <trkpt lat="64.17434" lon="10.45753">
        <ele>128.053294</ele>
        <time>2020-08-09T11:18:45.696Z</time>
      </trkpt>
      <trkpt lat="64.17429" lon="10.45733">
        <ele>128.106343</ele>
        <time>2020-08-09T11:18:48.720Z</time>
      </trkpt>
      <trkpt lat="64.17424" lon="10.45712">
        <ele>128.163698</ele>
        <time>2020-08-09T11:18:51.692Z</time>
      </trkpt>
      <trkpt lat="64.17419" lon="10.45691">
        <ele>128.222363</ele>
        <time>2020-08-09T11:18:54.698Z</time>
      </trkpt>
      <trkpt lat="64.17414" lon="10.4567">
        <ele>128.27739</ele>
        <time>2020-08-09T11:18:57.715Z</time>
      </trkpt>
      <trkpt lat="64.17409" lon="10.45649">
        <ele>127.997504</ele>
        <time>2020-08-09T11:19:00.701Z</time>
      </trkpt>
      <trkpt lat="64.17403" lon="10.45625">
        <ele>127.633898</ele>
        <time>2020-08-09T11:19:03.700Z</time>
      </trkpt>
      <trkpt lat="64.17397" lon="10.45599">
        <ele>127.233636</ele>
        <time>2020-08-09T11:19:06.720Z</time>
      </trkpt>
      <trkpt lat="64.17392" lon="10.45581">
        <ele>126.94718</ele>
        <time>2020-08-09T11:19:08.702Z</time>
      </trkpt>
      <trkpt lat="64.17387" lon="10.45562">
        <ele>126.649221</ele>
        <time>2020-08-09T11:19:10.703Z</time>
      </trkpt>
      <trkpt lat="64.17382" lon="10.45542">
        <ele>126.340022</ele>
        <time>2020-08-09T11:19:12.721Z</time>
      </trkpt>
      <trkpt lat="64.17377" lon="10.45521">
        <ele>126.021145</ele>
        <time>2020-08-09T11:19:14.706Z</time>
      </trkpt>
      <trkpt lat="64.17371" lon="10.455">
        <ele>125.681343</ele>
        <time>2020-08-09T11:19:16.685Z</time>
      </trkpt>
      <trkpt lat="64.17366" lon="10.45475">
        <ele>125.307447</ele>
        <time>2020-08-09T11:19:18.724Z</time>
      </trkpt>
      <trkpt lat="64.1736" lon="10.45447">
        <ele>124.886211</ele>
        <time>2020-08-09T11:19:20.710Z</time>
      </trkpt>
      <trkpt lat="64.17353" lon="10.45417">
        <ele>124.438758</ele>
        <time>2020-08-09T11:19:22.703Z</time>
      </trkpt>
      <trkpt lat="64.17347" lon="10.45385">
        <ele>123.963056</ele>
        <time>2020-08-09T11:19:24.711Z</time>
      </trkpt>
      <trkpt lat="64.17341" lon="10.4535">
        <ele>123.455067</ele>
        <time>2020-08-09T11:19:26.724Z</time>
      </trkpt>
      <trkpt lat="64.17335" lon="10.45311">
        <ele>122.905302</ele>
        <time>2020-08-09T11:19:28.721Z</time>
      </trkpt>
      <trkpt lat="64.17333" lon="10.4529">
        <ele>122.496692</ele>
        <time>2020-08-09T11:19:29.711Z</time>
      </trkpt>
      <trkpt lat="64.1733" lon="10.45269">
        <ele>121.907884</ele>
        <time>2020-08-09T11:19:30.701Z</time>
      </trkpt>
      <trkpt lat="64.17328" lon="10.45247">
        <ele>121.313194</ele>
        <time>2020-08-09T11:19:31.702Z</time>
      </trkpt>
      <trkpt lat="64.17326" lon="10.45225">
        <ele>120.696207</ele>
        <time>2020-08-09T11:19:32.702Z</time>
      </trkpt>
      <trkpt lat="64.17324" lon="10.45201">
        <ele>120.069244</ele>
        <time>2020-08-09T11:19:33.690Z</time>
      </trkpt>
      <trkpt lat="64.17323" lon="10.45178">
        <ele>119.428212</ele>
        <time>2020-08-09T11:19:34.727Z</time>
      </trkpt>
      <trkpt lat="64.17322" lon="10.45153">
        <ele>118.778097</ele>
        <time>2020-08-09T11:19:35.707Z</time>
      </trkpt>
      <trkpt lat="64.17321" lon="10.45128">
        <ele>118.111664</ele>
        <time>2020-08-09T11:19:36.689Z</time>
      </trkpt>
      <trkpt lat="64.1732" lon="10.45103">
        <ele>117.439906</ele>
        <time>2020-08-09T11:19:37.745Z</time>
      </trkpt>
      <trkpt lat="64.1732" lon="10.45078">
        <ele>116.760935</ele>
        <time>2020-08-09T11:19:38.713Z</time>
      </trkpt>
      <trkpt lat="64.17319" lon="10.45053">
        <ele>116.090855</ele>
        <time>2020-08-09T11:19:39.724Z</time>
      </trkpt>
      <trkpt lat="64.1732" lon="10.45027">
        <ele>115.40977</ele>
        <time>2020-08-09T11:19:40.690Z</time>
      </trkpt>
      <trkpt lat="64.17321" lon="10.45002">
        <ele>114.721574</ele>
        <time>2020-08-09T11:19:41.709Z</time>
      </trkpt>
      <trkpt lat="64.17322" lon="10.44975">
        <ele>114.019006</ele>
        <time>2020-08-09T11:19:42.728Z</time>
      </trkpt>
      <trkpt lat="64.17323" lon="10.4495">
        <ele>113.322385</ele>
        <time>2020-08-09T11:19:43.705Z</time>
      </trkpt>
      <trkpt lat="64.17325" lon="10.44924">
        <ele>112.632865</ele>
        <time>2020-08-09T11:19:44.700Z</time>
      </trkpt>
      <trkpt lat="64.17327" lon="10.44899">
        <ele>111.957322</ele>
        <time>2020-08-09T11:19:45.693Z</time>
      </trkpt>
      <trkpt lat="64.1733" lon="10.44875">
        <ele>111.417746</ele>
        <time>2020-08-09T11:19:46.703Z</time>
      </trkpt>
      <trkpt lat="64.17333" lon="10.44852">
        <ele>110.959586</ele>
        <time>2020-08-09T11:19:47.706Z</time>
      </trkpt>
      <trkpt lat="64.17336" lon="10.4483">
        <ele>110.515924</ele>
        <time>2020-08-09T11:19:48.716Z</time>
      </trkpt>
      <trkpt lat="64.17339" lon="10.44808">
        <ele>110.082578</ele>
        <time>2020-08-09T11:19:49.715Z</time>
      </trkpt>
      <trkpt lat="64.17343" lon="10.44787">
        <ele>109.653726</ele>
        <time>2020-08-09T11:19:50.722Z</time>
      </trkpt>
      <trkpt lat="64.17346" lon="10.44767">
        <ele>109.237172</ele>
        <time>2020-08-09T11:19:51.702Z</time>
      </trkpt>
      <trkpt lat="64.1735" lon="10.44747">
        <ele>108.834477</ele>
        <time>2020-08-09T11:19:52.707Z</time>
      </trkpt>
      <trkpt lat="64.17354" lon="10.44728">
        <ele>108.438743</ele>
        <time>2020-08-09T11:19:53.720Z</time>
      </trkpt>
      <trkpt lat="64.17361" lon="10.44691">
        <ele>107.673014</ele>
        <time>2020-08-09T11:19:55.704Z</time>
      </trkpt>
      <trkpt lat="64.17369" lon="10.44658">
        <ele>106.9549</ele>
        <time>2020-08-09T11:19:57.709Z</time>
      </trkpt>
      <trkpt lat="64.17377" lon="10.44627">
        <ele>106.276031</ele>
        <time>2020-08-09T11:19:59.735Z</time>
      </trkpt>
      <trkpt lat="64.17385" lon="10.44598">
        <ele>105.625448</ele>
        <time>2020-08-09T11:20:01.723Z</time>
      </trkpt>
      <trkpt lat="64.17393" lon="10.44571">
        <ele>104.996752</ele>
        <time>2020-08-09T11:20:03.705Z</time>
      </trkpt>
      <trkpt lat="64.17402" lon="10.44545">
        <ele>104.389575</ele>
        <time>2020-08-09T11:20:05.721Z</time>
      </trkpt>
      <trkpt lat="64.1741" lon="10.44521">
        <ele>103.808175</ele>
        <time>2020-08-09T11:20:07.718Z</time>
      </trkpt>
      <trkpt lat="64.17418" lon="10.44497">
        <ele>103.217295</ele>
        <time>2020-08-09T11:20:09.725Z</time>
      </trkpt>
      <trkpt lat="64.17425" lon="10.44473">
        <ele>102.648323</ele>
        <time>2020-08-09T11:20:11.704Z</time>
      </trkpt>
      <trkpt lat="64.17432" lon="10.4445">
        <ele>102.093579</ele>
        <time>2020-08-09T11:20:13.693Z</time>
      </trkpt>
      <trkpt lat="64.17439" lon="10.44428">
        <ele>101.560025</ele>
        <time>2020-08-09T11:20:15.718Z</time>
      </trkpt>
      <trkpt lat="64.17446" lon="10.44406">
        <ele>101.018988</ele>
        <time>2020-08-09T11:20:17.697Z</time>
      </trkpt>
      <trkpt lat="64.17453" lon="10.44386">
        <ele>100.515983</ele>
        <time>2020-08-09T11:20:19.703Z</time>
      </trkpt>
      <trkpt lat="64.17459" lon="10.44366">
        <ele>100.043824</ele>
        <time>2020-08-09T11:20:21.717Z</time>
      </trkpt>
      <trkpt lat="64.17465" lon="10.44347">
        <ele>99.584879</ele>
        <time>2020-08-09T11:20:23.711Z</time>
      </trkpt>
      <trkpt lat="64.1747" lon="10.44329">
        <ele>99.151998</ele>
        <time>2020-08-09T11:20:25.721Z</time>
      </trkpt>
      <trkpt lat="64.17476" lon="10.44312">
        <ele>98.724751</ele>
        <time>2020-08-09T11:20:27.696Z</time>
      </trkpt>
      <trkpt lat="64.17483" lon="10.44296">
        <ele>98.280242</ele>
        <time>2020-08-09T11:20:29.717Z</time>
      </trkpt>
      <trkpt lat="64.1749" lon="10.44281">
        <ele>97.845152</ele>
        <time>2020-08-09T11:20:31.709Z</time>
      </trkpt>
      <trkpt lat="64.17498" lon="10.44267">
        <ele>97.3987</ele>
        <time>2020-08-09T11:20:33.704Z</time>
      </trkpt>
      <trkpt lat="64.17505" lon="10.44253">
        <ele>96.977336</ele>
        <time>2020-08-09T11:20:35.740Z</time>
      </trkpt>
      <trkpt lat="64.17514" lon="10.4424">
        <ele>96.519438</ele>
        <time>2020-08-09T11:20:37.718Z</time>
      </trkpt>
      <trkpt lat="64.17522" lon="10.44228">
        <ele>96.054553</ele>
        <time>2020-08-09T11:20:39.695Z</time>
      </trkpt>
      <trkpt lat="64.17531" lon="10.44216">
        <ele>95.887773</ele>
        <time>2020-08-09T11:20:41.714Z</time>
      </trkpt>
      <trkpt lat="64.1754" lon="10.44205">
        <ele>96.102473</ele>
        <time>2020-08-09T11:20:43.737Z</time>
      </trkpt>
      <trkpt lat="64.17548" lon="10.44194">
        <ele>96.307064</ele>
        <time>2020-08-09T11:20:45.701Z</time>
      </trkpt>
      <trkpt lat="64.17556" lon="10.44184">
        <ele>96.513862</ele>
        <time>2020-08-09T11:20:47.725Z</time>
      </trkpt>
      <trkpt lat="64.17565" lon="10.44174">
        <ele>96.728806</ele>
        <time>2020-08-09T11:20:49.724Z</time>
      </trkpt>
      <trkpt lat="64.17573" lon="10.44164">
        <ele>96.951459</ele>
        <time>2020-08-09T11:20:51.717Z</time>
      </trkpt>
      <trkpt lat="64.17582" lon="10.44153">
        <ele>97.169113</ele>
        <time>2020-08-09T11:20:53.715Z</time>
      </trkpt>
      <trkpt lat="64.17591" lon="10.44143">
        <ele>97.38343</ele>
        <time>2020-08-09T11:20:55.702Z</time>
      </trkpt>
      <trkpt lat="64.17599" lon="10.44132">
        <ele>97.592825</ele>
        <time>2020-08-09T11:20:57.716Z</time>
      </trkpt>
      <trkpt lat="64.17607" lon="10.44122">
        <ele>97.804268</ele>
        <time>2020-08-09T11:20:59.705Z</time>
      </trkpt>
      <trkpt lat="64.17618" lon="10.44105">
        <ele>98.098508</ele>
        <time>2020-08-09T11:21:02.724Z</time>
      </trkpt>
      <trkpt lat="64.17626" lon="10.44095">
        <ele>98.301625</ele>
        <time>2020-08-09T11:21:04.730Z</time>
      </trkpt>
      <trkpt lat="64.17634" lon="10.44085">
        <ele>98.505354</ele>
        <time>2020-08-09T11:21:06.712Z</time>
      </trkpt>
      <trkpt lat="64.17643" lon="10.44075">
        <ele>98.724703</ele>
        <time>2020-08-09T11:21:08.715Z</time>
      </trkpt>
      <trkpt lat="64.17652" lon="10.44064">
        <ele>98.944774</ele>
        <time>2020-08-09T11:21:10.734Z</time>
      </trkpt>
      <trkpt lat="64.17663" lon="10.44049">
        <ele>99.236681</ele>
        <time>2020-08-09T11:21:13.745Z</time>
      </trkpt>
      <trkpt lat="64.17671" lon="10.4404">
        <ele>99.440927</ele>
        <time>2020-08-09T11:21:15.736Z</time>
      </trkpt>
      <trkpt lat="64.17683" lon="10.44028">
        <ele>99.719979</ele>
        <time>2020-08-09T11:21:18.692Z</time>
      </trkpt>
      <trkpt lat="64.17693" lon="10.44017">
        <ele>100.104258</ele>
        <time>2020-08-09T11:21:21.700Z</time>
      </trkpt>
      <trkpt lat="64.17703" lon="10.44009">
        <ele>100.530668</ele>
        <time>2020-08-09T11:21:24.694Z</time>
      </trkpt>
      <trkpt lat="64.17714" lon="10.44">
        <ele>100.963811</ele>
        <time>2020-08-09T11:21:27.758Z</time>
      </trkpt>
      <trkpt lat="64.17724" lon="10.43992">
        <ele>101.372303</ele>
        <time>2020-08-09T11:21:30.708Z</time>
      </trkpt>
      <trkpt lat="64.17734" lon="10.43985">
        <ele>101.774984</ele>
        <time>2020-08-09T11:21:33.697Z</time>
      </trkpt>
      <trkpt lat="64.17745" lon="10.43979">
        <ele>102.220797</ele>
        <time>2020-08-09T11:21:37.704Z</time>
      </trkpt>
      <trkpt lat="64.17755" lon="10.43973">
        <ele>102.620611</ele>
        <time>2020-08-09T11:21:41.696Z</time>
      </trkpt>
      <trkpt lat="64.17765" lon="10.43968">
        <ele>103.001603</ele>
        <time>2020-08-09T11:21:45.704Z</time>
      </trkpt>
      <trkpt lat="64.17776" lon="10.43964">
        <ele>103.451128</ele>
        <time>2020-08-09T11:21:49.706Z</time>
      </trkpt>
      <trkpt lat="64.17788" lon="10.4396">
        <ele>103.90397</ele>
        <time>2020-08-09T11:21:53.696Z</time>
      </trkpt>
      <trkpt lat="64.17798" lon="10.43957">
        <ele>104.297792</ele>
        <time>2020-08-09T11:21:56.709Z</time>
      </trkpt>
      <trkpt lat="64.17808" lon="10.43955">
        <ele>104.700911</ele>
        <time>2020-08-09T11:21:59.703Z</time>
      </trkpt>
      <trkpt lat="64.17819" lon="10.43952">
        <ele>105.097907</ele>
        <time>2020-08-09T11:22:02.745Z</time>
      </trkpt>
      <trkpt lat="64.17828" lon="10.43948">
        <ele>105.481804</ele>
        <time>2020-08-09T11:22:05.728Z</time>
      </trkpt>
      <trkpt lat="64.17838" lon="10.43944">
        <ele>105.843798</ele>
        <time>2020-08-09T11:22:08.699Z</time>
      </trkpt>
      <trkpt lat="64.17848" lon="10.43942">
        <ele>106.247369</ele>
        <time>2020-08-09T11:22:11.713Z</time>
      </trkpt>
      <trkpt lat="64.17859" lon="10.43938">
        <ele>106.673476</ele>
        <time>2020-08-09T11:22:14.710Z</time>
      </trkpt>
      <trkpt lat="64.1787" lon="10.43934">
        <ele>106.397372</ele>
        <time>2020-08-09T11:22:17.719Z</time>
      </trkpt>
      <trkpt lat="64.1788" lon="10.43929">
        <ele>106.013621</ele>
        <time>2020-08-09T11:22:20.696Z</time>
      </trkpt>
      <trkpt lat="64.17891" lon="10.43924">
        <ele>105.636585</ele>
        <time>2020-08-09T11:22:23.705Z</time>
      </trkpt>
      <trkpt lat="64.179" lon="10.43917">
        <ele>105.301345</ele>
        <time>2020-08-09T11:22:26.743Z</time>
      </trkpt>
      <trkpt lat="64.17909" lon="10.4391">
        <ele>104.959209</ele>
        <time>2020-08-09T11:22:29.704Z</time>
      </trkpt>
      <trkpt lat="64.17919" lon="10.43902">
        <ele>104.578065</ele>
        <time>2020-08-09T11:22:32.688Z</time>
      </trkpt>
      <trkpt lat="64.17928" lon="10.43892">
        <ele>104.21519</ele>
        <time>2020-08-09T11:22:35.714Z</time>
      </trkpt>
      <trkpt lat="64.17937" lon="10.4388">
        <ele>103.840582</ele>
        <time>2020-08-09T11:22:38.695Z</time>
      </trkpt>
      <trkpt lat="64.17946" lon="10.43867">
        <ele>103.447025</ele>
        <time>2020-08-09T11:22:41.713Z</time>
      </trkpt>
      <trkpt lat="64.17954" lon="10.43853">
        <ele>103.086412</ele>
        <time>2020-08-09T11:22:44.703Z</time>
      </trkpt>
      <trkpt lat="64.17963" lon="10.43839">
        <ele>102.702893</ele>
        <time>2020-08-09T11:22:47.698Z</time>
      </trkpt>
      <trkpt lat="64.17972" lon="10.43822">
        <ele>102.284343</ele>
        <time>2020-08-09T11:22:50.735Z</time>
      </trkpt>
      <trkpt lat="64.17981" lon="10.43804">
        <ele>101.861895</ele>
        <time>2020-08-09T11:22:53.767Z</time>
      </trkpt>
      <trkpt lat="64.17991" lon="10.43786">
        <ele>101.407134</ele>
        <time>2020-08-09T11:22:56.700Z</time>
      </trkpt>
      <trkpt lat="64.18001" lon="10.43767">
        <ele>100.927934</ele>
        <time>2020-08-09T11:22:59.690Z</time>
      </trkpt>
      <trkpt lat="64.18009" lon="10.43753">
        <ele>100.577805</ele>
        <time>2020-08-09T11:23:01.698Z</time>
      </trkpt>
      <trkpt lat="64.18017" lon="10.43739">
        <ele>100.267382</ele>
        <time>2020-08-09T11:23:03.715Z</time>
      </trkpt>
      <trkpt lat="64.18026" lon="10.43725">
        <ele>100.152298</ele>
        <time>2020-08-09T11:23:05.727Z</time>
      </trkpt>
      <trkpt lat="64.18035" lon="10.43711">
        <ele>100.0387</ele>
        <time>2020-08-09T11:23:07.700Z</time>
      </trkpt>
      <trkpt lat="64.18043" lon="10.43698">
        <ele>99.927953</ele>
        <time>2020-08-09T11:23:09.736Z</time>
      </trkpt>
      <trkpt lat="64.18051" lon="10.43684">
        <ele>99.821245</ele>
        <time>2020-08-09T11:23:11.693Z</time>
      </trkpt>
      <trkpt lat="64.18059" lon="10.4367">
        <ele>99.710222</ele>
        <time>2020-08-09T11:23:13.683Z</time>
      </trkpt>
      <trkpt lat="64.18067" lon="10.43657">
        <ele>99.607488</ele>
        <time>2020-08-09T11:23:15.717Z</time>
      </trkpt>
      <trkpt lat="64.18074" lon="10.43645">
        <ele>99.507541</ele>
        <time>2020-08-09T11:23:17.697Z</time>
      </trkpt>
      <trkpt lat="64.18082" lon="10.43633">
        <ele>99.406438</ele>
        <time>2020-08-09T11:23:19.700Z</time>
      </trkpt>
      <trkpt lat="64.18093" lon="10.43616">
        <ele>99.2684</ele>
        <time>2020-08-09T11:23:22.705Z</time>
      </trkpt>
      <trkpt lat="64.18103" lon="10.436">
        <ele>99.135165</ele>
        <time>2020-08-09T11:23:25.706Z</time>
      </trkpt>
      <trkpt lat="64.18112" lon="10.43584">
        <ele>99.005852</ele>
        <time>2020-08-09T11:23:28.694Z</time>
      </trkpt>
      <trkpt lat="64.18121" lon="10.43567">
        <ele>98.881637</ele>
        <time>2020-08-09T11:23:31.705Z</time>
      </trkpt>
      <trkpt lat="64.18131" lon="10.4355">
        <ele>98.748319</ele>
        <time>2020-08-09T11:23:34.698Z</time>
      </trkpt>
      <trkpt lat="64.18141" lon="10.43534">
        <ele>98.612052</ele>
        <time>2020-08-09T11:23:37.727Z</time>
      </trkpt>
      <trkpt lat="64.18152" lon="10.43517">
        <ele>98.476394</ele>
        <time>2020-08-09T11:23:40.705Z</time>
      </trkpt>
      <trkpt lat="64.18161" lon="10.435">
        <ele>98.342427</ele>
        <time>2020-08-09T11:23:43.719Z</time>
      </trkpt>
      <trkpt lat="64.1817" lon="10.43483">
        <ele>98.151122</ele>
        <time>2020-08-09T11:23:46.700Z</time>
      </trkpt>
      <trkpt lat="64.18179" lon="10.43467">
        <ele>97.964272</ele>
        <time>2020-08-09T11:23:49.734Z</time>
      </trkpt>
      <trkpt lat="64.18189" lon="10.43451">
        <ele>97.775253</ele>
        <time>2020-08-09T11:23:52.732Z</time>
      </trkpt>
      <trkpt lat="64.18198" lon="10.43434">
        <ele>97.583948</ele>
        <time>2020-08-09T11:23:55.734Z</time>
      </trkpt>
      <trkpt lat="64.18207" lon="10.43416">
        <ele>97.381029</ele>
        <time>2020-08-09T11:23:58.719Z</time>
      </trkpt>
      <trkpt lat="64.18215" lon="10.43405">
        <ele>97.232164</ele>
        <time>2020-08-09T11:24:00.736Z</time>
      </trkpt>
      <trkpt lat="64.18225" lon="10.43388">
        <ele>97.020931</ele>
        <time>2020-08-09T11:24:03.714Z</time>
      </trkpt>
      <trkpt lat="64.18236" lon="10.43371">
        <ele>96.814938</ele>
        <time>2020-08-09T11:24:06.713Z</time>
      </trkpt>
      <trkpt lat="64.18245" lon="10.43354">
        <ele>96.620693</ele>
        <time>2020-08-09T11:24:09.727Z</time>
      </trkpt>
      <trkpt lat="64.18254" lon="10.43339">
        <ele>96.435472</ele>
        <time>2020-08-09T11:24:12.748Z</time>
      </trkpt>
      <trkpt lat="64.18263" lon="10.43323">
        <ele>96.243843</ele>
        <time>2020-08-09T11:24:15.698Z</time>
      </trkpt>
      <trkpt lat="64.18273" lon="10.43305">
        <ele>96.042566</ele>
        <time>2020-08-09T11:24:18.708Z</time>
      </trkpt>
      <trkpt lat="64.18283" lon="10.43288">
        <ele>95.838345</ele>
        <time>2020-08-09T11:24:21.720Z</time>
      </trkpt>
      <trkpt lat="64.18292" lon="10.43271">
        <ele>95.641928</ele>
        <time>2020-08-09T11:24:24.713Z</time>
      </trkpt>
      <trkpt lat="64.18301" lon="10.43254">
        <ele>95.450701</ele>
        <time>2020-08-09T11:24:27.697Z</time>
      </trkpt>
      <trkpt lat="64.18311" lon="10.43238">
        <ele>95.651726</ele>
        <time>2020-08-09T11:24:30.701Z</time>
      </trkpt>
      <trkpt lat="64.18321" lon="10.43221">
        <ele>96.029469</ele>
        <time>2020-08-09T11:24:33.701Z</time>
      </trkpt>
      <trkpt lat="64.1833" lon="10.43204">
        <ele>96.381393</ele>
        <time>2020-08-09T11:24:36.736Z</time>
      </trkpt>
      <trkpt lat="64.18339" lon="10.43186">
        <ele>96.728504</ele>
        <time>2020-08-09T11:24:39.697Z</time>
      </trkpt>
      <trkpt lat="64.18348" lon="10.43168">
        <ele>97.079963</ele>
        <time>2020-08-09T11:24:42.696Z</time>
      </trkpt>
      <trkpt lat="64.18356" lon="10.43148">
        <ele>97.427284</ele>
        <time>2020-08-09T11:24:45.703Z</time>
      </trkpt>
      <trkpt lat="64.18361" lon="10.43126">
        <ele>97.750756</ele>
        <time>2020-08-09T11:24:48.702Z</time>
      </trkpt>
      <trkpt lat="64.18366" lon="10.43104">
        <ele>98.071128</ele>
        <time>2020-08-09T11:24:51.705Z</time>
      </trkpt>
      <trkpt lat="64.1837" lon="10.43082">
        <ele>98.378007</ele>
        <time>2020-08-09T11:24:54.739Z</time>
      </trkpt>
      <trkpt lat="64.18374" lon="10.43061">
        <ele>98.67068</ele>
        <time>2020-08-09T11:24:57.715Z</time>
      </trkpt>
      <trkpt lat="64.18377" lon="10.43042">
        <ele>98.939498</ele>
        <time>2020-08-09T11:25:00.691Z</time>
      </trkpt>
      <trkpt lat="64.18381" lon="10.43022">
        <ele>99.220435</ele>
        <time>2020-08-09T11:25:03.712Z</time>
      </trkpt>
      <trkpt lat="64.18383" lon="10.42999">
        <ele>99.524446</ele>
        <time>2020-08-09T11:25:06.716Z</time>
      </trkpt>
      <trkpt lat="64.18386" lon="10.42977">
        <ele>99.824409</ele>
        <time>2020-08-09T11:25:09.725Z</time>
      </trkpt>
      <trkpt lat="64.18389" lon="10.42955">
        <ele>100.129664</ele>
        <time>2020-08-09T11:25:12.694Z</time>
      </trkpt>
      <trkpt lat="64.18392" lon="10.42934">
        <ele>100.408596</ele>
        <time>2020-08-09T11:25:15.719Z</time>
      </trkpt>
      <trkpt lat="64.18394" lon="10.42912">
        <ele>100.706586</ele>
        <time>2020-08-09T11:25:18.715Z</time>
      </trkpt>
      <trkpt lat="64.18397" lon="10.42889">
        <ele>101.060435</ele>
        <time>2020-08-09T11:25:21.699Z</time>
      </trkpt>
      <trkpt lat="64.184" lon="10.42867">
        <ele>101.433719</ele>
        <time>2020-08-09T11:25:24.705Z</time>
      </trkpt>
      <trkpt lat="64.18404" lon="10.42843">
        <ele>101.831605</ele>
        <time>2020-08-09T11:25:27.715Z</time>
      </trkpt>
      <trkpt lat="64.18409" lon="10.42818">
        <ele>102.256822</ele>
        <time>2020-08-09T11:25:30.694Z</time>
      </trkpt>
      <trkpt lat="64.18416" lon="10.42793">
        <ele>102.713685</ele>
        <time>2020-08-09T11:25:33.744Z</time>
      </trkpt>
      <trkpt lat="64.18422" lon="10.42767">
        <ele>103.174678</ele>
        <time>2020-08-09T11:25:36.717Z</time>
      </trkpt>
      <trkpt lat="64.18431" lon="10.42743">
        <ele>103.656928</ele>
        <time>2020-08-09T11:25:39.690Z</time>
      </trkpt>
      <trkpt lat="64.18437" lon="10.42727">
        <ele>103.989086</ele>
        <time>2020-08-09T11:25:41.706Z</time>
      </trkpt>
      <trkpt lat="64.18443" lon="10.4271">
        <ele>104.33152</ele>
        <time>2020-08-09T11:25:43.722Z</time>
      </trkpt>
      <trkpt lat="64.1845" lon="10.42693">
        <ele>104.684511</ele>
        <time>2020-08-09T11:25:45.698Z</time>
      </trkpt>
      <trkpt lat="64.18458" lon="10.4267">
        <ele>105.160741</ele>
        <time>2020-08-09T11:25:48.695Z</time>
      </trkpt>
      <trkpt lat="64.18467" lon="10.42647">
        <ele>105.61927</ele>
        <time>2020-08-09T11:25:51.748Z</time>
      </trkpt>
      <trkpt lat="64.18476" lon="10.42626">
        <ele>106.084126</ele>
        <time>2020-08-09T11:25:54.718Z</time>
      </trkpt>
      <trkpt lat="64.18484" lon="10.42604">
        <ele>106.526197</ele>
        <time>2020-08-09T11:25:57.706Z</time>
      </trkpt>
      <trkpt lat="64.1849" lon="10.42588">
        <ele>106.860393</ele>
        <time>2020-08-09T11:25:59.705Z</time>
      </trkpt>
      <trkpt lat="64.18498" lon="10.42566">
        <ele>107.186813</ele>
        <time>2020-08-09T11:26:02.735Z</time>
      </trkpt>
      <trkpt lat="64.18507" lon="10.42546">
        <ele>107.224732</ele>
        <time>2020-08-09T11:26:05.717Z</time>
      </trkpt>
      <trkpt lat="64.18515" lon="10.42526">
        <ele>107.26196</ele>
        <time>2020-08-09T11:26:08.731Z</time>
      </trkpt>
      <trkpt lat="64.18524" lon="10.42509">
        <ele>107.297293</ele>
        <time>2020-08-09T11:26:11.704Z</time>
      </trkpt>
      <trkpt lat="64.18532" lon="10.42492">
        <ele>107.330511</ele>
        <time>2020-08-09T11:26:14.712Z</time>
      </trkpt>
      <trkpt lat="64.18541" lon="10.42475">
        <ele>107.367131</ele>
        <time>2020-08-09T11:26:18.721Z</time>
      </trkpt>
      <trkpt lat="64.18549" lon="10.4246">
        <ele>107.397229</ele>
        <time>2020-08-09T11:26:21.688Z</time>
      </trkpt>
      <trkpt lat="64.18557" lon="10.42443">
        <ele>107.430493</ele>
        <time>2020-08-09T11:26:24.707Z</time>
      </trkpt>
      <trkpt lat="64.18565" lon="10.42425">
        <ele>107.46444</ele>
        <time>2020-08-09T11:26:27.715Z</time>
      </trkpt>
      <trkpt lat="64.18574" lon="10.42408">
        <ele>107.500331</ele>
        <time>2020-08-09T11:26:30.731Z</time>
      </trkpt>
      <trkpt lat="64.18582" lon="10.42392">
        <ele>107.534935</ele>
        <time>2020-08-09T11:26:33.692Z</time>
      </trkpt>
      <trkpt lat="64.18592" lon="10.42376">
        <ele>107.571195</ele>
        <time>2020-08-09T11:26:36.701Z</time>
      </trkpt>
      <trkpt lat="64.18601" lon="10.42362">
        <ele>107.605584</ele>
        <time>2020-08-09T11:26:39.704Z</time>
      </trkpt>
      <trkpt lat="64.1861" lon="10.42348">
        <ele>107.636989</ele>
        <time>2020-08-09T11:26:42.731Z</time>
      </trkpt>
      <trkpt lat="64.18619" lon="10.42332">
        <ele>107.673435</ele>
        <time>2020-08-09T11:26:46.714Z</time>
      </trkpt>
      <trkpt lat="64.18628" lon="10.4232">
        <ele>107.704375</ele>
        <time>2020-08-09T11:26:49.705Z</time>
      </trkpt>
      <trkpt lat="64.18636" lon="10.42306">
        <ele>107.725862</ele>
        <time>2020-08-09T11:26:52.701Z</time>
      </trkpt>
      <trkpt lat="64.18643" lon="10.42292">
        <ele>107.720054</ele>
        <time>2020-08-09T11:26:55.697Z</time>
      </trkpt>
      <trkpt lat="64.18652" lon="10.42275">
        <ele>107.712607</ele>
        <time>2020-08-09T11:26:59.708Z</time>
      </trkpt>
      <trkpt lat="64.1866" lon="10.42263">
        <ele>107.706755</ele>
        <time>2020-08-09T11:27:02.698Z</time>
      </trkpt>
      <trkpt lat="64.18667" lon="10.4225">
        <ele>107.701116</ele>
        <time>2020-08-09T11:27:05.701Z</time>
      </trkpt>
      <trkpt lat="64.18675" lon="10.42232">
        <ele>107.693971</ele>
        <time>2020-08-09T11:27:09.702Z</time>
      </trkpt>
      <trkpt lat="64.18683" lon="10.42218">
        <ele>107.687872</ele>
        <time>2020-08-09T11:27:13.740Z</time>
      </trkpt>
      <trkpt lat="64.18691" lon="10.42204">
        <ele>107.681429</ele>
        <time>2020-08-09T11:27:18.691Z</time>
      </trkpt>
      <trkpt lat="64.18699" lon="10.42187">
        <ele>107.674805</ele>
        <time>2020-08-09T11:27:23.700Z</time>
      </trkpt>
      <trkpt lat="64.18707" lon="10.42173">
        <ele>107.668899</ele>
        <time>2020-08-09T11:27:27.700Z</time>
      </trkpt>
      <trkpt lat="64.18713" lon="10.42159">
        <ele>107.663164</ele>
        <time>2020-08-09T11:27:31.708Z</time>
      </trkpt>
      <trkpt lat="64.18722" lon="10.42144">
        <ele>107.656523</ele>
        <time>2020-08-09T11:27:35.721Z</time>
      </trkpt>
      <trkpt lat="64.1873" lon="10.42132">
        <ele>107.6507</ele>
        <time>2020-08-09T11:27:38.699Z</time>
      </trkpt>
      <trkpt lat="64.18738" lon="10.4212">
        <ele>107.644892</ele>
        <time>2020-08-09T11:27:41.705Z</time>
      </trkpt>
      <trkpt lat="64.18747" lon="10.42104">
        <ele>107.637429</ele>
        <time>2020-08-09T11:27:45.705Z</time>
      </trkpt>
      <trkpt lat="64.18755" lon="10.4209">
        <ele>107.631331</ele>
        <time>2020-08-09T11:27:48.699Z</time>
      </trkpt>
      <trkpt lat="64.18764" lon="10.42076">
        <ele>107.62487</ele>
        <time>2020-08-09T11:27:51.721Z</time>
      </trkpt>
      <trkpt lat="64.18773" lon="10.42063">
        <ele>107.617692</ele>
        <time>2020-08-09T11:27:54.712Z</time>
      </trkpt>
      <trkpt lat="64.18784" lon="10.42048">
        <ele>107.443702</ele>
        <time>2020-08-09T11:27:57.738Z</time>
      </trkpt>
      <trkpt lat="64.18793" lon="10.42034">
        <ele>107.220133</ele>
        <time>2020-08-09T11:28:00.756Z</time>
      </trkpt>
      <trkpt lat="64.18802" lon="10.42021">
        <ele>107.010463</ele>
        <time>2020-08-09T11:28:03.725Z</time>
      </trkpt>
      <trkpt lat="64.18812" lon="10.42008">
        <ele>106.805229</ele>
        <time>2020-08-09T11:28:06.708Z</time>
      </trkpt>
      <trkpt lat="64.1882" lon="10.41996">
        <ele>106.613798</ele>
        <time>2020-08-09T11:28:09.744Z</time>
      </trkpt>
      <trkpt lat="64.18828" lon="10.41985">
        <ele>106.429606</ele>
        <time>2020-08-09T11:28:12.711Z</time>
      </trkpt>
      <trkpt lat="64.18837" lon="10.41974">
        <ele>106.227737</ele>
        <time>2020-08-09T11:28:15.734Z</time>
      </trkpt>
      <trkpt lat="64.18846" lon="10.41962">
        <ele>106.027132</ele>
        <time>2020-08-09T11:28:18.715Z</time>
      </trkpt>
      <trkpt lat="64.18856" lon="10.41949">
        <ele>105.806181</ele>
        <time>2020-08-09T11:28:21.736Z</time>
      </trkpt>
      <trkpt lat="64.18866" lon="10.41937">
        <ele>105.582727</ele>
        <time>2020-08-09T11:28:24.705Z</time>
      </trkpt>
      <trkpt lat="64.18876" lon="10.41926">
        <ele>105.374041</ele>
        <time>2020-08-09T11:28:27.713Z</time>
      </trkpt>
      <trkpt lat="64.18886" lon="10.41913">
        <ele>105.158718</ele>
        <time>2020-08-09T11:28:30.737Z</time>
      </trkpt>
      <trkpt lat="64.18896" lon="10.41901">
        <ele>104.941594</ele>
        <time>2020-08-09T11:28:33.719Z</time>
      </trkpt>
      <trkpt lat="64.18905" lon="10.41889">
        <ele>104.724075</ele>
        <time>2020-08-09T11:28:36.710Z</time>
      </trkpt>
      <trkpt lat="64.18915" lon="10.41878">
        <ele>104.518098</ele>
        <time>2020-08-09T11:28:39.698Z</time>
      </trkpt>
      <trkpt lat="64.18924" lon="10.41867">
        <ele>104.31363</ele>
        <time>2020-08-09T11:28:42.699Z</time>
      </trkpt>
      <trkpt lat="64.18934" lon="10.41854">
        <ele>104.146677</ele>
        <time>2020-08-09T11:28:45.722Z</time>
      </trkpt>
      <trkpt lat="64.18944" lon="10.41842">
        <ele>104.306738</ele>
        <time>2020-08-09T11:28:48.712Z</time>
      </trkpt>
      <trkpt lat="64.18952" lon="10.4183">
        <ele>104.448826</ele>
        <time>2020-08-09T11:28:51.700Z</time>
      </trkpt>
      <trkpt lat="64.1896" lon="10.41818">
        <ele>104.588017</ele>
        <time>2020-08-09T11:28:54.706Z</time>
      </trkpt>
      <trkpt lat="64.1897" lon="10.41805">
        <ele>104.744617</ele>
        <time>2020-08-09T11:28:57.747Z</time>
      </trkpt>
      <trkpt lat="64.18981" lon="10.41793">
        <ele>104.914258</ele>
        <time>2020-08-09T11:29:00.722Z</time>
      </trkpt>
      <trkpt lat="64.18991" lon="10.4178">
        <ele>105.083541</ele>
        <time>2020-08-09T11:29:03.737Z</time>
      </trkpt>
      <trkpt lat="64.19002" lon="10.41768">
        <ele>105.251183</ele>
        <time>2020-08-09T11:29:06.723Z</time>
      </trkpt>
      <trkpt lat="64.19013" lon="10.41755">
        <ele>105.430526</ele>
        <time>2020-08-09T11:29:09.696Z</time>
      </trkpt>
      <trkpt lat="64.19025" lon="10.41741">
        <ele>105.622276</ele>
        <time>2020-08-09T11:29:12.717Z</time>
      </trkpt>
      <trkpt lat="64.19033" lon="10.4173">
        <ele>105.756021</ele>
        <time>2020-08-09T11:29:14.736Z</time>
      </trkpt>
      <trkpt lat="64.19041" lon="10.41718">
        <ele>105.895088</ele>
        <time>2020-08-09T11:29:16.707Z</time>
      </trkpt>
      <trkpt lat="64.1905" lon="10.41706">
        <ele>106.044607</ele>
        <time>2020-08-09T11:29:18.690Z</time>
      </trkpt>
      <trkpt lat="64.19059" lon="10.41692">
        <ele>106.189607</ele>
        <time>2020-08-09T11:29:20.700Z</time>
      </trkpt>
      <trkpt lat="64.19066" lon="10.4168">
        <ele>106.321988</ele>
        <time>2020-08-09T11:29:22.716Z</time>
      </trkpt>
      <trkpt lat="64.19073" lon="10.41666">
        <ele>106.455509</ele>
        <time>2020-08-09T11:29:24.708Z</time>
      </trkpt>
      <trkpt lat="64.19081" lon="10.41653">
        <ele>106.595024</ele>
        <time>2020-08-09T11:29:26.726Z</time>
      </trkpt>
      <trkpt lat="64.19088" lon="10.41639">
        <ele>106.626784</ele>
        <time>2020-08-09T11:29:28.711Z</time>
      </trkpt>
      <trkpt lat="64.19098" lon="10.41621">
        <ele>106.349108</ele>
        <time>2020-08-09T11:29:31.700Z</time>
      </trkpt>
      <trkpt lat="64.19106" lon="10.416">
        <ele>106.071481</ele>
        <time>2020-08-09T11:29:34.687Z</time>
      </trkpt>
      <trkpt lat="64.19113" lon="10.41578">
        <ele>105.813175</ele>
        <time>2020-08-09T11:29:37.716Z</time>
      </trkpt>
      <trkpt lat="64.19117" lon="10.41555">
        <ele>105.57248</ele>
        <time>2020-08-09T11:29:40.689Z</time>
      </trkpt>
      <trkpt lat="64.1912" lon="10.41532">
        <ele>105.33399</ele>
        <time>2020-08-09T11:29:43.724Z</time>
      </trkpt>
      <trkpt lat="64.19123" lon="10.4151">
        <ele>105.105524</ele>
        <time>2020-08-09T11:29:46.728Z</time>
      </trkpt>
      <trkpt lat="64.19127" lon="10.41487">
        <ele>104.864061</ele>
        <time>2020-08-09T11:29:49.707Z</time>
      </trkpt>
      <trkpt lat="64.19131" lon="10.41463">
        <ele>104.614433</ele>
        <time>2020-08-09T11:29:52.700Z</time>
      </trkpt>
      <trkpt lat="64.19136" lon="10.4144">
        <ele>104.360439</ele>
        <time>2020-08-09T11:29:55.699Z</time>
      </trkpt>
      <trkpt lat="64.19141" lon="10.41414">
        <ele>104.085698</ele>
        <time>2020-08-09T11:29:58.718Z</time>
      </trkpt>
      <trkpt lat="64.19146" lon="10.41387">
        <ele>103.794015</ele>
        <time>2020-08-09T11:30:01.779Z</time>
      </trkpt>
      <trkpt lat="64.19151" lon="10.41359">
        <ele>103.494246</ele>
        <time>2020-08-09T11:30:04.737Z</time>
      </trkpt>
      <trkpt lat="64.19156" lon="10.41331">
        <ele>103.197952</ele>
        <time>2020-08-09T11:30:07.717Z</time>
      </trkpt>
      <trkpt lat="64.19162" lon="10.41303">
        <ele>102.900886</ele>
        <time>2020-08-09T11:30:10.718Z</time>
      </trkpt>
      <trkpt lat="64.19165" lon="10.41283">
        <ele>102.694276</ele>
        <time>2020-08-09T11:30:12.715Z</time>
      </trkpt>
      <trkpt lat="64.19168" lon="10.41263">
        <ele>102.616973</ele>
        <time>2020-08-09T11:30:14.709Z</time>
      </trkpt>
      <trkpt lat="64.19173" lon="10.41235">
        <ele>102.561892</ele>
        <time>2020-08-09T11:30:17.712Z</time>
      </trkpt>
      <trkpt lat="64.19177" lon="10.41215">
        <ele>102.523585</ele>
        <time>2020-08-09T11:30:19.716Z</time>
      </trkpt>
      <trkpt lat="64.1918" lon="10.41195">
        <ele>102.485089</ele>
        <time>2020-08-09T11:30:21.720Z</time>
      </trkpt>
      <trkpt lat="64.19183" lon="10.41174">
        <ele>102.445536</ele>
        <time>2020-08-09T11:30:23.692Z</time>
      </trkpt>
      <trkpt lat="64.19187" lon="10.41154">
        <ele>102.406538</ele>
        <time>2020-08-09T11:30:25.722Z</time>
      </trkpt>
      <trkpt lat="64.1919" lon="10.41134">
        <ele>102.367224</ele>
        <time>2020-08-09T11:30:27.693Z</time>
      </trkpt>
      <trkpt lat="64.19193" lon="10.41113">
        <ele>102.327557</ele>
        <time>2020-08-09T11:30:29.700Z</time>
      </trkpt>
      <trkpt lat="64.19197" lon="10.41092">
        <ele>102.287799</ele>
        <time>2020-08-09T11:30:31.706Z</time>
      </trkpt>
      <trkpt lat="64.192" lon="10.4107">
        <ele>102.246515</ele>
        <time>2020-08-09T11:30:33.709Z</time>
      </trkpt>
      <trkpt lat="64.19204" lon="10.41049">
        <ele>102.204912</ele>
        <time>2020-08-09T11:30:35.705Z</time>
      </trkpt>
      <trkpt lat="64.19209" lon="10.41028">
        <ele>102.163212</ele>
        <time>2020-08-09T11:30:37.715Z</time>
      </trkpt>
      <trkpt lat="64.19213" lon="10.41008">
        <ele>102.122736</ele>
        <time>2020-08-09T11:30:39.727Z</time>
      </trkpt>
      <trkpt lat="64.19217" lon="10.40987">
        <ele>102.081962</ele>
        <time>2020-08-09T11:30:41.699Z</time>
      </trkpt>
      <trkpt lat="64.19221" lon="10.40966">
        <ele>102.041497</ele>
        <time>2020-08-09T11:30:43.707Z</time>
      </trkpt>
      <trkpt lat="64.19224" lon="10.40946">
        <ele>102.002529</ele>
        <time>2020-08-09T11:30:45.716Z</time>
      </trkpt>
      <trkpt lat="64.19229" lon="10.40919">
        <ele>101.950982</ele>
        <time>2020-08-09T11:30:48.695Z</time>
      </trkpt>
      <trkpt lat="64.19232" lon="10.40894">
        <ele>101.929573</ele>
        <time>2020-08-09T11:30:51.710Z</time>
      </trkpt>
      <trkpt lat="64.19235" lon="10.4087">
        <ele>102.490645</ele>
        <time>2020-08-09T11:30:54.705Z</time>
      </trkpt>
      <trkpt lat="64.19239" lon="10.40845">
        <ele>103.111914</ele>
        <time>2020-08-09T11:30:58.706Z</time>
      </trkpt>
      <trkpt lat="64.19243" lon="10.40823">
        <ele>103.660289</ele>
        <time>2020-08-09T11:31:02.697Z</time>
      </trkpt>
      <trkpt lat="64.19247" lon="10.40803">
        <ele>104.166442</ele>
        <time>2020-08-09T11:31:06.697Z</time>
      </trkpt>
      <trkpt lat="64.19253" lon="10.40781">
        <ele>104.758009</ele>
        <time>2020-08-09T11:31:11.707Z</time>
      </trkpt>
      <trkpt lat="64.19258" lon="10.4076">
        <ele>105.309914</ele>
        <time>2020-08-09T11:31:16.714Z</time>
      </trkpt>
      <trkpt lat="64.19265" lon="10.40743">
        <ele>105.823408</ele>
        <time>2020-08-09T11:31:21.701Z</time>
      </trkpt>
      <trkpt lat="64.19271" lon="10.40726">
        <ele>106.362889</ele>
        <time>2020-08-09T11:31:26.700Z</time>
      </trkpt>
      <trkpt lat="64.19277" lon="10.40708">
        <ele>106.879816</ele>
        <time>2020-08-09T11:31:31.702Z</time>
      </trkpt>
      <trkpt lat="64.19283" lon="10.4069">
        <ele>107.403893</ele>
        <time>2020-08-09T11:31:36.752Z</time>
      </trkpt>
      <trkpt lat="64.19289" lon="10.40672">
        <ele>107.911583</ele>
        <time>2020-08-09T11:31:41.696Z</time>
      </trkpt>
      <trkpt lat="64.19295" lon="10.40656">
        <ele>108.404255</ele>
        <time>2020-08-09T11:31:46.737Z</time>
      </trkpt>
      <trkpt lat="64.19303" lon="10.40639">
        <ele>108.971706</ele>
        <time>2020-08-09T11:31:52.725Z</time>
      </trkpt>
      <trkpt lat="64.1931" lon="10.40625">
        <ele>109.451655</ele>
        <time>2020-08-09T11:31:57.728Z</time>
      </trkpt>
      <trkpt lat="64.19317" lon="10.4061">
        <ele>109.978427</ele>
        <time>2020-08-09T11:32:03.710Z</time>
      </trkpt>
      <trkpt lat="64.19324" lon="10.40598">
        <ele>110.45305</ele>
        <time>2020-08-09T11:32:08.701Z</time>
      </trkpt>
      <trkpt lat="64.19333" lon="10.40583">
        <ele>111.013763</ele>
        <time>2020-08-09T11:32:14.701Z</time>
      </trkpt>
      <trkpt lat="64.19341" lon="10.40572">
        <ele>111.38464</ele>
        <time>2020-08-09T11:32:19.741Z</time>
      </trkpt>
      <trkpt lat="64.1935" lon="10.40559">
        <ele>111.270136</ele>
        <time>2020-08-09T11:32:25.706Z</time>
      </trkpt>
      <trkpt lat="64.19358" lon="10.40547">
        <ele>111.158691</ele>
        <time>2020-08-09T11:32:31.719Z</time>
      </trkpt>
      <trkpt lat="64.19367" lon="10.40536">
        <ele>111.047444</ele>
        <time>2020-08-09T11:32:37.712Z</time>
      </trkpt>
      <trkpt lat="64.19376" lon="10.40531">
        <ele>110.94354</ele>
        <time>2020-08-09T11:32:42.705Z</time>
      </trkpt>
      <trkpt lat="64.19386" lon="10.40525">
        <ele>110.834617</ele>
        <time>2020-08-09T11:32:47.707Z</time>
      </trkpt>
      <trkpt lat="64.19396" lon="10.40521">
        <ele>110.716929</ele>
        <time>2020-08-09T11:32:53.716Z</time>
      </trkpt>
      <trkpt lat="64.19407" lon="10.40515">
        <ele>110.596606</ele>
        <time>2020-08-09T11:32:58.720Z</time>
      </trkpt>
      <trkpt lat="64.19418" lon="10.40512">
        <ele>110.477892</ele>
        <time>2020-08-09T11:33:02.703Z</time>
      </trkpt>
      <trkpt lat="64.19428" lon="10.40509">
        <ele>110.366266</ele>
        <time>2020-08-09T11:33:06.702Z</time>
      </trkpt>
      <trkpt lat="64.19438" lon="10.4051">
        <ele>110.256769</ele>
        <time>2020-08-09T11:33:09.715Z</time>
      </trkpt>
      <trkpt lat="64.19447" lon="10.40512">
        <ele>110.155871</ele>
        <time>2020-08-09T11:33:11.725Z</time>
      </trkpt>
      <trkpt lat="64.19456" lon="10.40515">
        <ele>110.047918</ele>
        <time>2020-08-09T11:33:13.713Z</time>
      </trkpt>
      <trkpt lat="64.19467" lon="10.40517">
        <ele>109.933923</ele>
        <time>2020-08-09T11:33:15.700Z</time>
      </trkpt>
      <trkpt lat="64.19478" lon="10.40518">
        <ele>109.805656</ele>
        <time>2020-08-09T11:33:17.705Z</time>
      </trkpt>
      <trkpt lat="64.19492" lon="10.4052">
        <ele>109.653938</ele>
        <time>2020-08-09T11:33:19.700Z</time>
      </trkpt>
      <trkpt lat="64.19508" lon="10.40524">
        <ele>109.479806</ele>
        <time>2020-08-09T11:33:21.696Z</time>
      </trkpt>
      <trkpt lat="64.19524" lon="10.40528">
        <ele>109.502195</ele>
        <time>2020-08-09T11:33:23.727Z</time>
      </trkpt>
      <trkpt lat="64.19541" lon="10.40532">
        <ele>109.624311</ele>
        <time>2020-08-09T11:33:25.741Z</time>
      </trkpt>
      <trkpt lat="64.1955" lon="10.40534">
        <ele>109.688531</ele>
        <time>2020-08-09T11:33:26.698Z</time>
      </trkpt>
      <trkpt lat="64.19559" lon="10.40536">
        <ele>109.753572</ele>
        <time>2020-08-09T11:33:27.726Z</time>
      </trkpt>
      <trkpt lat="64.19569" lon="10.40537">
        <ele>109.819894</ele>
        <time>2020-08-09T11:33:28.743Z</time>
      </trkpt>
      <trkpt lat="64.19578" lon="10.40539">
        <ele>109.885532</ele>
        <time>2020-08-09T11:33:29.706Z</time>
      </trkpt>
      <trkpt lat="64.19587" lon="10.40541">
        <ele>109.951344</ele>
        <time>2020-08-09T11:33:30.696Z</time>
      </trkpt>
      <trkpt lat="64.19596" lon="10.40544">
        <ele>110.017157</ele>
        <time>2020-08-09T11:33:31.698Z</time>
      </trkpt>
      <trkpt lat="64.19606" lon="10.40545">
        <ele>110.085565</ele>
        <time>2020-08-09T11:33:32.703Z</time>
      </trkpt>
      <trkpt lat="64.19623" lon="10.40549">
        <ele>110.209807</ele>
        <time>2020-08-09T11:33:34.713Z</time>
      </trkpt>
      <trkpt lat="64.1964" lon="10.40553">
        <ele>110.330796</ele>
        <time>2020-08-09T11:33:36.723Z</time>
      </trkpt>
      <trkpt lat="64.19656" lon="10.40557">
        <ele>110.445993</ele>
        <time>2020-08-09T11:33:38.744Z</time>
      </trkpt>
      <trkpt lat="64.19671" lon="10.40562">
        <ele>110.552082</ele>
        <time>2020-08-09T11:33:40.719Z</time>
      </trkpt>
      <trkpt lat="64.19685" lon="10.40565">
        <ele>110.65072</ele>
        <time>2020-08-09T11:33:42.718Z</time>
      </trkpt>
      <trkpt lat="64.19697" lon="10.40568">
        <ele>111.025414</ele>
        <time>2020-08-09T11:33:44.697Z</time>
      </trkpt>
      <trkpt lat="64.19707" lon="10.40571">
        <ele>111.676012</ele>
        <time>2020-08-09T11:33:46.700Z</time>
      </trkpt>
      <trkpt lat="64.1972" lon="10.40573">
        <ele>112.456883</ele>
        <time>2020-08-09T11:33:49.725Z</time>
      </trkpt>
      <trkpt lat="64.19729" lon="10.40577">
        <ele>113.05703</ele>
        <time>2020-08-09T11:33:52.707Z</time>
      </trkpt>
      <trkpt lat="64.19739" lon="10.4058">
        <ele>113.725717</ele>
        <time>2020-08-09T11:33:57.717Z</time>
      </trkpt>
      <trkpt lat="64.19749" lon="10.40585">
        <ele>114.371396</ele>
        <time>2020-08-09T11:34:03.695Z</time>
      </trkpt>
      <trkpt lat="64.19758" lon="10.40593">
        <ele>114.938</ele>
        <time>2020-08-09T11:34:08.733Z</time>
      </trkpt>
      <trkpt lat="64.19767" lon="10.40603">
        <ele>115.566558</ele>
        <time>2020-08-09T11:34:15.725Z</time>
      </trkpt>
      <trkpt lat="64.19775" lon="10.40614">
        <ele>116.198375</ele>
        <time>2020-08-09T11:34:22.701Z</time>
      </trkpt>
      <trkpt lat="64.19783" lon="10.40626">
        <ele>116.78719</ele>
        <time>2020-08-09T11:34:29.689Z</time>
      </trkpt>
      <trkpt lat="64.19791" lon="10.40642">
        <ele>117.444371</ele>
        <time>2020-08-09T11:34:37.733Z</time>
      </trkpt>
      <trkpt lat="64.19797" lon="10.40657">
        <ele>118.025305</ele>
        <time>2020-08-09T11:34:45.717Z</time>
      </trkpt>
      <trkpt lat="64.19803" lon="10.40673">
        <ele>118.612459</ele>
        <time>2020-08-09T11:34:53.699Z</time>
      </trkpt>
      <trkpt lat="64.1981" lon="10.4069">
        <ele>119.248234</ele>
        <time>2020-08-09T11:35:01.719Z</time>
      </trkpt>
      <trkpt lat="64.19817" lon="10.40706">
        <ele>119.872984</ele>
        <time>2020-08-09T11:35:10.726Z</time>
      </trkpt>
      <trkpt lat="64.19822" lon="10.40727">
        <ele>120.504186</ele>
        <time>2020-08-09T11:35:19.710Z</time>
      </trkpt>
      <trkpt lat="64.19827" lon="10.40746">
        <ele>121.114924</ele>
        <time>2020-08-09T11:35:27.707Z</time>
      </trkpt>
      <trkpt lat="64.1983" lon="10.40765">
        <ele>121.685308</ele>
        <time>2020-08-09T11:35:35.697Z</time>
      </trkpt>
      <trkpt lat="64.19833" lon="10.40786">
        <ele>122.529281</ele>
        <time>2020-08-09T11:35:43.719Z</time>
      </trkpt>
      <trkpt lat="64.19835" lon="10.40809">
        <ele>123.789023</ele>
        <time>2020-08-09T11:35:51.741Z</time>
      </trkpt>
      <trkpt lat="64.19837" lon="10.40831">
        <ele>125.02157</ele>
        <time>2020-08-09T11:35:59.701Z</time>
      </trkpt>
      <trkpt lat="64.19839" lon="10.40854">
        <ele>126.308234</ele>
        <time>2020-08-09T11:36:07.707Z</time>
      </trkpt>
      <trkpt lat="64.19839" lon="10.40876">
        <ele>127.54237</ele>
        <time>2020-08-09T11:36:15.707Z</time>
      </trkpt>
      <trkpt lat="64.19838" lon="10.40897">
        <ele>128.703872</ele>
        <time>2020-08-09T11:36:25.698Z</time>
      </trkpt>
      <trkpt lat="64.19839" lon="10.4092">
        <ele>129.958418</ele>
        <time>2020-08-09T11:36:32.697Z</time>
      </trkpt>
      <trkpt lat="64.19843" lon="10.40939">
        <ele>131.101258</ele>
        <time>2020-08-09T11:36:40.704Z</time>
      </trkpt>
      <trkpt lat="64.19844" lon="10.4096">
        <ele>132.231981</ele>
        <time>2020-08-09T11:36:48.696Z</time>
      </trkpt>
      <trkpt lat="64.19846" lon="10.40981">
        <ele>133.405716</ele>
        <time>2020-08-09T11:36:56.723Z</time>
      </trkpt>
      <trkpt lat="64.19848" lon="10.41004">
        <ele>134.69987</ele>
        <time>2020-08-09T11:37:04.726Z</time>
      </trkpt>
      <trkpt lat="64.19852" lon="10.41023">
        <ele>135.881531</ele>
        <time>2020-08-09T11:37:12.713Z</time>
      </trkpt>
      <trkpt lat="64.19856" lon="10.41045">
        <ele>137.124935</ele>
        <time>2020-08-09T11:37:21.707Z</time>
      </trkpt>
      <trkpt lat="64.19858" lon="10.41066">
        <ele>138.343345</ele>
        <time>2020-08-09T11:37:30.740Z</time>
      </trkpt>
      <trkpt lat="64.19858" lon="10.41087">
        <ele>139.475547</ele>
        <time>2020-08-09T11:37:37.722Z</time>
      </trkpt>
      <trkpt lat="64.19859" lon="10.41108">
        <ele>140.644178</ele>
        <time>2020-08-09T11:37:45.704Z</time>
      </trkpt>
      <trkpt lat="64.19862" lon="10.41129">
        <ele>141.874681</ele>
        <time>2020-08-09T11:37:54.733Z</time>
      </trkpt>
      <trkpt lat="64.19864" lon="10.41152">
        <ele>143.144625</ele>
        <time>2020-08-09T11:38:02.711Z</time>
      </trkpt>
      <trkpt lat="64.19865" lon="10.41172">
        <ele>144.278265</ele>
        <time>2020-08-09T11:38:10.745Z</time>
      </trkpt>
      <trkpt lat="64.19869" lon="10.41193">
        <ele>145.447583</ele>
        <time>2020-08-09T11:38:18.723Z</time>
      </trkpt>
      <trkpt lat="64.19874" lon="10.41213">
        <ele>146.625302</ele>
        <time>2020-08-09T11:38:26.690Z</time>
      </trkpt>
      <trkpt lat="64.19879" lon="10.41234">
        <ele>147.788846</ele>
        <time>2020-08-09T11:38:34.697Z</time>
      </trkpt>
      <trkpt lat="64.19881" lon="10.41255">
        <ele>148.846632</ele>
        <time>2020-08-09T11:38:42.708Z</time>
      </trkpt>
      <trkpt lat="64.19884" lon="10.41275">
        <ele>149.950247</ele>
        <time>2020-08-09T11:38:50.689Z</time>
      </trkpt>
      <trkpt lat="64.19887" lon="10.41295">
        <ele>151.004487</ele>
        <time>2020-08-09T11:38:57.725Z</time>
      </trkpt>
      <trkpt lat="64.19892" lon="10.41315">
        <ele>152.135966</ele>
        <time>2020-08-09T11:39:05.707Z</time>
      </trkpt>
      <trkpt lat="64.19897" lon="10.41332">
        <ele>153.20965</ele>
        <time>2020-08-09T11:39:13.735Z</time>
      </trkpt>
      <trkpt lat="64.19902" lon="10.41351">
        <ele>154.313342</ele>
        <time>2020-08-09T11:39:21.721Z</time>
      </trkpt>
      <trkpt lat="64.19905" lon="10.41372">
        <ele>155.399702</ele>
        <time>2020-08-09T11:39:29.696Z</time>
      </trkpt>
      <trkpt lat="64.19911" lon="10.41388">
        <ele>156.453251</ele>
        <time>2020-08-09T11:39:37.722Z</time>
      </trkpt>
      <trkpt lat="64.19913" lon="10.41411">
        <ele>157.613286</ele>
        <time>2020-08-09T11:39:45.716Z</time>
      </trkpt>
      <trkpt lat="64.19917" lon="10.4143">
        <ele>158.66562</ele>
        <time>2020-08-09T11:39:53.701Z</time>
      </trkpt>
      <trkpt lat="64.19921" lon="10.41449">
        <ele>159.722668</ele>
        <time>2020-08-09T11:40:02.684Z</time>
      </trkpt>
      <trkpt lat="64.19926" lon="10.41468">
        <ele>160.830567</ele>
        <time>2020-08-09T11:40:09.719Z</time>
      </trkpt>
      <trkpt lat="64.19933" lon="10.41484">
        <ele>161.931706</ele>
        <time>2020-08-09T11:40:16.713Z</time>
      </trkpt>
      <trkpt lat="64.19938" lon="10.41502">
        <ele>163.031457</ele>
        <time>2020-08-09T11:40:24.766Z</time>
      </trkpt>
      <trkpt lat="64.19942" lon="10.41521">
        <ele>164.116074</ele>
        <time>2020-08-09T11:40:33.703Z</time>
      </trkpt>
      <trkpt lat="64.19949" lon="10.41539">
        <ele>165.269154</ele>
        <time>2020-08-09T11:40:42.712Z</time>
      </trkpt>
      <trkpt lat="64.19954" lon="10.41556">
        <ele>166.129654</ele>
        <time>2020-08-09T11:40:50.699Z</time>
      </trkpt>
      <trkpt lat="64.19958" lon="10.41575">
        <ele>166.944153</ele>
        <time>2020-08-09T11:40:59.724Z</time>
      </trkpt>
      <trkpt lat="64.19964" lon="10.4159">
        <ele>167.753215</ele>
        <time>2020-08-09T11:41:07.738Z</time>
      </trkpt>
      <trkpt lat="64.1997" lon="10.41609">
        <ele>168.627008</ele>
        <time>2020-08-09T11:41:16.716Z</time>
      </trkpt>
      <trkpt lat="64.19976" lon="10.41627">
        <ele>169.491246</ele>
        <time>2020-08-09T11:41:25.722Z</time>
      </trkpt>
      <trkpt lat="64.19983" lon="10.4164">
        <ele>170.316136</ele>
        <time>2020-08-09T11:41:33.699Z</time>
      </trkpt>
      <trkpt lat="64.19991" lon="10.41654">
        <ele>171.204276</ele>
        <time>2020-08-09T11:41:42.699Z</time>
      </trkpt>
      <trkpt lat="64.19999" lon="10.41666">
        <ele>172.017939</ele>
        <time>2020-08-09T11:41:49.745Z</time>
      </trkpt>
      <trkpt lat="64.20006" lon="10.41679">
        <ele>172.808983</ele>
        <time>2020-08-09T11:41:56.705Z</time>
      </trkpt>
      <trkpt lat="64.20013" lon="10.41693">
        <ele>173.650274</ele>
        <time>2020-08-09T11:42:04.717Z</time>
      </trkpt>
      <trkpt lat="64.20021" lon="10.41704">
        <ele>174.478142</ele>
        <time>2020-08-09T11:42:13.693Z</time>
      </trkpt>
      <trkpt lat="64.20029" lon="10.41719">
        <ele>175.364095</ele>
        <time>2020-08-09T11:42:22.689Z</time>
      </trkpt>
      <trkpt lat="64.20037" lon="10.41731">
        <ele>176.222561</ele>
        <time>2020-08-09T11:42:30.745Z</time>
      </trkpt>
      <trkpt lat="64.20046" lon="10.41741">
        <ele>177.059719</ele>
        <time>2020-08-09T11:42:37.708Z</time>
      </trkpt>
      <trkpt lat="64.20054" lon="10.41753">
        <ele>177.940642</ele>
        <time>2020-08-09T11:42:46.715Z</time>
      </trkpt>
      <trkpt lat="64.20061" lon="10.41766">
        <ele>178.770238</ele>
        <time>2020-08-09T11:42:55.735Z</time>
      </trkpt>
      <trkpt lat="64.2007" lon="10.41776">
        <ele>179.588184</ele>
        <time>2020-08-09T11:43:03.736Z</time>
      </trkpt>
      <trkpt lat="64.20078" lon="10.41787">
        <ele>180.405859</ele>
        <time>2020-08-09T11:43:11.740Z</time>
      </trkpt>
      <trkpt lat="64.20085" lon="10.41799">
        <ele>181.227425</ele>
        <time>2020-08-09T11:43:20.723Z</time>
      </trkpt>
      <trkpt lat="64.20092" lon="10.41814">
        <ele>182.137674</ele>
        <time>2020-08-09T11:43:29.702Z</time>
      </trkpt>
      <trkpt lat="64.20101" lon="10.41825">
        <ele>183.101777</ele>
        <time>2020-08-09T11:43:38.753Z</time>
      </trkpt>
      <trkpt lat="64.2011" lon="10.41832">
        <ele>184.041476</ele>
        <time>2020-08-09T11:43:45.710Z</time>
      </trkpt>
      <trkpt lat="64.20119" lon="10.41839">
        <ele>185.028274</ele>
        <time>2020-08-09T11:43:55.723Z</time>
      </trkpt>
      <trkpt lat="64.20128" lon="10.41844">
        <ele>185.962455</ele>
        <time>2020-08-09T11:44:03.732Z</time>
      </trkpt>
      <trkpt lat="64.20138" lon="10.41845">
        <ele>186.953121</ele>
        <time>2020-08-09T11:44:13.708Z</time>
      </trkpt>
      <trkpt lat="64.20147" lon="10.41844">
        <ele>187.865336</ele>
        <time>2020-08-09T11:44:20.737Z</time>
      </trkpt>
      <trkpt lat="64.20157" lon="10.41839">
        <ele>188.836604</ele>
        <time>2020-08-09T11:44:28.706Z</time>
      </trkpt>
      <trkpt lat="64.20167" lon="10.41833">
        <ele>189.837343</ele>
        <time>2020-08-09T11:44:37.710Z</time>
      </trkpt>
      <trkpt lat="64.20176" lon="10.41826">
        <ele>190.773027</ele>
        <time>2020-08-09T11:44:44.719Z</time>
      </trkpt>
      <trkpt lat="64.20184" lon="10.41818">
        <ele>191.678651</ele>
        <time>2020-08-09T11:44:51.705Z</time>
      </trkpt>
      <trkpt lat="64.20194" lon="10.41813">
        <ele>192.654546</ele>
        <time>2020-08-09T11:45:00.737Z</time>
      </trkpt>
      <trkpt lat="64.20203" lon="10.41805">
        <ele>193.593439</ele>
        <time>2020-08-09T11:45:08.703Z</time>
      </trkpt>
      <trkpt lat="64.20211" lon="10.41797">
        <ele>194.502502</ele>
        <time>2020-08-09T11:45:17.723Z</time>
      </trkpt>
      <trkpt lat="64.20221" lon="10.41789">
        <ele>195.523229</ele>
        <time>2020-08-09T11:45:25.730Z</time>
      </trkpt>
      <trkpt lat="64.20231" lon="10.41784">
        <ele>196.523602</ele>
        <time>2020-08-09T11:45:33.720Z</time>
      </trkpt>
      <trkpt lat="64.2024" lon="10.41783">
        <ele>197.415656</ele>
        <time>2020-08-09T11:45:41.705Z</time>
      </trkpt>
      <trkpt lat="64.2025" lon="10.41785">
        <ele>198.417328</ele>
        <time>2020-08-09T11:45:50.695Z</time>
      </trkpt>
      <trkpt lat="64.20259" lon="10.41788">
        <ele>199.369227</ele>
        <time>2020-08-09T11:45:57.734Z</time>
      </trkpt>
      <trkpt lat="64.20268" lon="10.41793">
        <ele>200.40846</ele>
        <time>2020-08-09T11:46:05.722Z</time>
      </trkpt>
      <trkpt lat="64.20276" lon="10.41807">
        <ele>201.400859</ele>
        <time>2020-08-09T11:46:14.714Z</time>
      </trkpt>
      <trkpt lat="64.20282" lon="10.41822">
        <ele>202.359889</ele>
        <time>2020-08-09T11:46:23.711Z</time>
      </trkpt>
      <trkpt lat="64.2029" lon="10.41832">
        <ele>203.336741</ele>
        <time>2020-08-09T11:46:32.709Z</time>
      </trkpt>
      <trkpt lat="64.20298" lon="10.41845">
        <ele>204.414255</ele>
        <time>2020-08-09T11:46:41.717Z</time>
      </trkpt>
      <trkpt lat="64.20305" lon="10.41859">
        <ele>205.411993</ele>
        <time>2020-08-09T11:46:49.727Z</time>
      </trkpt>
      <trkpt lat="64.20314" lon="10.41871">
        <ele>206.439677</ele>
        <time>2020-08-09T11:46:57.732Z</time>
      </trkpt>
      <trkpt lat="64.20322" lon="10.41882">
        <ele>207.476584</ele>
        <time>2020-08-09T11:47:04.695Z</time>
      </trkpt>
      <trkpt lat="64.20331" lon="10.41894">
        <ele>208.532667</ele>
        <time>2020-08-09T11:47:13.720Z</time>
      </trkpt>
      <trkpt lat="64.20338" lon="10.41905">
        <ele>209.500948</ele>
        <time>2020-08-09T11:47:22.735Z</time>
      </trkpt>
      <trkpt lat="64.20346" lon="10.41915">
        <ele>210.482641</ele>
        <time>2020-08-09T11:47:30.716Z</time>
      </trkpt>
      <trkpt lat="64.20353" lon="10.41931">
        <ele>211.482899</ele>
        <time>2020-08-09T11:47:39.706Z</time>
      </trkpt>
      <trkpt lat="64.20361" lon="10.41944">
        <ele>212.528872</ele>
        <time>2020-08-09T11:47:48.723Z</time>
      </trkpt>
      <trkpt lat="64.20368" lon="10.41959">
        <ele>213.540721</ele>
        <time>2020-08-09T11:47:56.703Z</time>
      </trkpt>
      <trkpt lat="64.20376" lon="10.4197">
        <ele>214.554971</ele>
        <time>2020-08-09T11:48:05.700Z</time>
      </trkpt>
      <trkpt lat="64.20384" lon="10.4198">
        <ele>215.552275</ele>
        <time>2020-08-09T11:48:13.735Z</time>
      </trkpt>
      <trkpt lat="64.20391" lon="10.41995">
        <ele>216.566051</ele>
        <time>2020-08-09T11:48:21.741Z</time>
      </trkpt>
      <trkpt lat="64.20399" lon="10.42005">
        <ele>217.531772</ele>
        <time>2020-08-09T11:48:29.696Z</time>
      </trkpt>
      <trkpt lat="64.20405" lon="10.4202">
        <ele>218.460418</ele>
        <time>2020-08-09T11:48:37.716Z</time>
      </trkpt>
      <trkpt lat="64.20413" lon="10.42035">
        <ele>219.291544</ele>
        <time>2020-08-09T11:48:46.705Z</time>
      </trkpt>
      <trkpt lat="64.20421" lon="10.42044">
        <ele>220.055814</ele>
        <time>2020-08-09T11:48:54.718Z</time>
      </trkpt>
      <trkpt lat="64.20429" lon="10.42056">
        <ele>220.874999</ele>
        <time>2020-08-09T11:49:03.698Z</time>
      </trkpt>
      <trkpt lat="64.20437" lon="10.42064">
        <ele>221.663821</ele>
        <time>2020-08-09T11:49:10.709Z</time>
      </trkpt>
      <trkpt lat="64.20447" lon="10.42071">
        <ele>222.509414</ele>
        <time>2020-08-09T11:49:19.695Z</time>
      </trkpt>
      <trkpt lat="64.20456" lon="10.42077">
        <ele>223.323114</ele>
        <time>2020-08-09T11:49:27.704Z</time>
      </trkpt>
      <trkpt lat="64.20465" lon="10.42085">
        <ele>224.152849</ele>
        <time>2020-08-09T11:49:35.703Z</time>
      </trkpt>
      <trkpt lat="64.20475" lon="10.42087">
        <ele>224.946324</ele>
        <time>2020-08-09T11:49:42.708Z</time>
      </trkpt>
      <trkpt lat="64.20483" lon="10.42092">
        <ele>225.712136</ele>
        <time>2020-08-09T11:49:50.712Z</time>
      </trkpt>
      <trkpt lat="64.20493" lon="10.42099">
        <ele>226.537139</ele>
        <time>2020-08-09T11:49:59.741Z</time>
      </trkpt>
      <trkpt lat="64.20502" lon="10.42101">
        <ele>227.321798</ele>
        <time>2020-08-09T11:50:08.687Z</time>
      </trkpt>
      <trkpt lat="64.20511" lon="10.42104">
        <ele>228.109927</ele>
        <time>2020-08-09T11:50:16.703Z</time>
      </trkpt>
      <trkpt lat="64.20521" lon="10.42105">
        <ele>228.933478</ele>
        <time>2020-08-09T11:50:25.696Z</time>
      </trkpt>
      <trkpt lat="64.2053" lon="10.42106">
        <ele>229.708663</ele>
        <time>2020-08-09T11:50:34.733Z</time>
      </trkpt>
      <trkpt lat="64.20539" lon="10.42107">
        <ele>230.481073</ele>
        <time>2020-08-09T11:50:42.721Z</time>
      </trkpt>
      <trkpt lat="64.20548" lon="10.42107">
        <ele>231.278898</ele>
        <time>2020-08-09T11:50:51.712Z</time>
      </trkpt>
      <trkpt lat="64.20558" lon="10.42108">
        <ele>232.086833</ele>
        <time>2020-08-09T11:50:59.716Z</time>
      </trkpt>
      <trkpt lat="64.20567" lon="10.42108">
        <ele>232.859242</ele>
        <time>2020-08-09T11:51:08.714Z</time>
      </trkpt>
      <trkpt lat="64.20576" lon="10.42106">
        <ele>233.664346</ele>
        <time>2020-08-09T11:51:15.715Z</time>
      </trkpt>
      <trkpt lat="64.20585" lon="10.42107">
        <ele>234.879775</ele>
        <time>2020-08-09T11:51:24.702Z</time>
      </trkpt>
      <trkpt lat="64.20595" lon="10.42106">
        <ele>236.199254</ele>
        <time>2020-08-09T11:51:33.700Z</time>
      </trkpt>
      <trkpt lat="64.20604" lon="10.42111">
        <ele>237.426302</ele>
        <time>2020-08-09T11:51:41.717Z</time>
      </trkpt>
      <trkpt lat="64.20614" lon="10.4211">
        <ele>238.758507</ele>
        <time>2020-08-09T11:51:50.688Z</time>
      </trkpt>
      <trkpt lat="64.20624" lon="10.42113">
        <ele>240.038088</ele>
        <time>2020-08-09T11:51:59.731Z</time>
      </trkpt>
      <trkpt lat="64.20633" lon="10.42116">
        <ele>241.278571</ele>
        <time>2020-08-09T11:52:07.747Z</time>
      </trkpt>
      <trkpt lat="64.20643" lon="10.42121">
        <ele>242.535063</ele>
        <time>2020-08-09T11:52:15.705Z</time>
      </trkpt>
      <trkpt lat="64.20651" lon="10.42129">
        <ele>243.716213</ele>
        <time>2020-08-09T11:52:23.705Z</time>
      </trkpt>
      <trkpt lat="64.20659" lon="10.4214">
        <ele>244.968592</ele>
        <time>2020-08-09T11:52:32.716Z</time>
      </trkpt>
      <trkpt lat="64.20668" lon="10.42148">
        <ele>246.171662</ele>
        <time>2020-08-09T11:52:39.712Z</time>
      </trkpt>
      <trkpt lat="64.20675" lon="10.42162">
        <ele>247.429868</ele>
        <time>2020-08-09T11:52:48.713Z</time>
      </trkpt>
      <trkpt lat="64.20682" lon="10.42176">
        <ele>248.685694</ele>
        <time>2020-08-09T11:52:56.703Z</time>
      </trkpt>
      <trkpt lat="64.2069" lon="10.42188">
        <ele>249.926234</ele>
        <time>2020-08-09T11:53:04.742Z</time>
      </trkpt>
      <trkpt lat="64.20698" lon="10.422">
        <ele>251.161567</ele>
        <time>2020-08-09T11:53:12.728Z</time>
      </trkpt>
      <trkpt lat="64.20706" lon="10.42212">
        <ele>252.416652</ele>
        <time>2020-08-09T11:53:21.708Z</time>
      </trkpt>
      <trkpt lat="64.20712" lon="10.42226">
        <ele>253.604528</ele>
        <time>2020-08-09T11:53:29.715Z</time>
      </trkpt>
      <trkpt lat="64.20719" lon="10.4224">
        <ele>254.805973</ele>
        <time>2020-08-09T11:53:38.703Z</time>
      </trkpt>
      <trkpt lat="64.20727" lon="10.42251">
        <ele>256.009353</ele>
        <time>2020-08-09T11:53:46.711Z</time>
      </trkpt>
      <trkpt lat="64.20735" lon="10.42264">
        <ele>257.266157</ele>
        <time>2020-08-09T11:53:55.718Z</time>
      </trkpt>
      <trkpt lat="64.20744" lon="10.42271">
        <ele>258.217181</ele>
        <time>2020-08-09T11:54:02.707Z</time>
      </trkpt>
      <trkpt lat="64.20752" lon="10.4228">
        <ele>259.122877</ele>
        <time>2020-08-09T11:54:09.712Z</time>
      </trkpt>
      <trkpt lat="64.20761" lon="10.4229">
        <ele>260.134033</ele>
        <time>2020-08-09T11:54:19.732Z</time>
      </trkpt>
      <trkpt lat="64.20769" lon="10.423">
        <ele>261.063672</ele>
        <time>2020-08-09T11:54:28.720Z</time>
      </trkpt>
      <trkpt lat="64.20776" lon="10.42312">
        <ele>261.995631</ele>
        <time>2020-08-09T11:54:36.709Z</time>
      </trkpt>
      <trkpt lat="64.20786" lon="10.4232">
        <ele>262.993561</ele>
        <time>2020-08-09T11:54:44.711Z</time>
      </trkpt>
      <trkpt lat="64.20794" lon="10.42329">
        <ele>263.905319</ele>
        <time>2020-08-09T11:54:52.692Z</time>
      </trkpt>
      <trkpt lat="64.20803" lon="10.42337">
        <ele>264.879814</ele>
        <time>2020-08-09T11:55:01.702Z</time>
      </trkpt>
      <trkpt lat="64.20812" lon="10.42346">
        <ele>265.863517</ele>
        <time>2020-08-09T11:55:09.743Z</time>
      </trkpt>
      <trkpt lat="64.2082" lon="10.42357">
        <ele>266.820589</ele>
        <time>2020-08-09T11:55:18.707Z</time>
      </trkpt>
      <trkpt lat="64.20828" lon="10.42367">
        <ele>267.764668</ele>
        <time>2020-08-09T11:55:26.716Z</time>
      </trkpt>
      <trkpt lat="64.20836" lon="10.42378">
        <ele>268.704382</ele>
        <time>2020-08-09T11:55:36.707Z</time>
      </trkpt>
      <trkpt lat="64.20845" lon="10.42389">
        <ele>269.687687</ele>
        <time>2020-08-09T11:55:44.705Z</time>
      </trkpt>
      <trkpt lat="64.20853" lon="10.42396">
        <ele>270.604451</ele>
        <time>2020-08-09T11:55:53.710Z</time>
      </trkpt>
      <trkpt lat="64.20862" lon="10.42404">
        <ele>271.533685</ele>
        <time>2020-08-09T11:56:00.732Z</time>
      </trkpt>
      <trkpt lat="64.2087" lon="10.42413">
        <ele>272.469847</ele>
        <time>2020-08-09T11:56:08.775Z</time>
      </trkpt>
      <trkpt lat="64.20879" lon="10.42424">
        <ele>273.444379</ele>
        <time>2020-08-09T11:56:17.702Z</time>
      </trkpt>
      <trkpt lat="64.20887" lon="10.42431">
        <ele>274.390459</ele>
        <time>2020-08-09T11:56:26.715Z</time>
      </trkpt>
      <trkpt lat="64.20896" lon="10.42445">
        <ele>275.402131</ele>
        <time>2020-08-09T11:56:34.715Z</time>
      </trkpt>
      <trkpt lat="64.20904" lon="10.42454">
        <ele>276.068192</ele>
        <time>2020-08-09T11:56:43.700Z</time>
      </trkpt>
      <trkpt lat="64.20912" lon="10.42465">
        <ele>276.786482</ele>
        <time>2020-08-09T11:56:52.718Z</time>
      </trkpt>
      <trkpt lat="64.20921" lon="10.42476">
        <ele>277.500628</ele>
        <time>2020-08-09T11:57:01.699Z</time>
      </trkpt>
      <trkpt lat="64.20929" lon="10.42485">
        <ele>278.155822</ele>
        <time>2020-08-09T11:57:08.726Z</time>
      </trkpt>
      <trkpt lat="64.20938" lon="10.42491">
        <ele>278.847031</ele>
        <time>2020-08-09T11:57:15.758Z</time>
      </trkpt>
      <trkpt lat="64.20947" lon="10.42495">
        <ele>279.506261</ele>
        <time>2020-08-09T11:57:23.716Z</time>
      </trkpt>
      <trkpt lat="64.20956" lon="10.425">
        <ele>280.182855</ele>
        <time>2020-08-09T11:57:32.702Z</time>
      </trkpt>
      <trkpt lat="64.20965" lon="10.42509">
        <ele>280.877647</ele>
        <time>2020-08-09T11:57:40.715Z</time>
      </trkpt>
      <trkpt lat="64.20974" lon="10.42517">
        <ele>281.558876</ele>
        <time>2020-08-09T11:57:48.702Z</time>
      </trkpt>
      <trkpt lat="64.20982" lon="10.42526">
        <ele>282.21826</ele>
        <time>2020-08-09T11:57:56.723Z</time>
      </trkpt>
      <trkpt lat="64.20991" lon="10.42533">
        <ele>282.896412</ele>
        <time>2020-08-09T11:58:04.701Z</time>
      </trkpt>
      <trkpt lat="64.20999" lon="10.4254">
        <ele>283.550812</ele>
        <time>2020-08-09T11:58:11.708Z</time>
      </trkpt>
      <trkpt lat="64.21008" lon="10.42548">
        <ele>284.2785</ele>
        <time>2020-08-09T11:58:18.743Z</time>
      </trkpt>
      <trkpt lat="64.21018" lon="10.42557">
        <ele>285.036778</ele>
        <time>2020-08-09T11:58:26.719Z</time>
      </trkpt>
      <trkpt lat="64.21026" lon="10.42565">
        <ele>285.70016</ele>
        <time>2020-08-09T11:58:31.725Z</time>
      </trkpt>
      <trkpt lat="64.21035" lon="10.42573">
        <ele>286.404037</ele>
        <time>2020-08-09T11:58:37.716Z</time>
      </trkpt>
      <trkpt lat="64.21046" lon="10.42579">
        <ele>287.191974</ele>
        <time>2020-08-09T11:58:43.715Z</time>
      </trkpt>
      <trkpt lat="64.21055" lon="10.42583">
        <ele>287.882194</ele>
        <time>2020-08-09T11:58:48.712Z</time>
      </trkpt>
      <trkpt lat="64.21065" lon="10.42586">
        <ele>288.474871</ele>
        <time>2020-08-09T11:58:53.704Z</time>
      </trkpt>
      <trkpt lat="64.21075" lon="10.42588">
        <ele>288.313406</ele>
        <time>2020-08-09T11:58:57.735Z</time>
      </trkpt>
      <trkpt lat="64.21086" lon="10.42588">
        <ele>288.132489</ele>
        <time>2020-08-09T11:59:01.698Z</time>
      </trkpt>
      <trkpt lat="64.21096" lon="10.42586">
        <ele>287.965945</ele>
        <time>2020-08-09T11:59:04.692Z</time>
      </trkpt>
      <trkpt lat="64.21107" lon="10.42585">
        <ele>287.784913</ele>
        <time>2020-08-09T11:59:07.700Z</time>
      </trkpt>
      <trkpt lat="64.21119" lon="10.42584">
        <ele>287.585634</ele>
        <time>2020-08-09T11:59:10.712Z</time>
      </trkpt>
      <trkpt lat="64.21131" lon="10.42582">
        <ele>287.387297</ele>
        <time>2020-08-09T11:59:13.736Z</time>
      </trkpt>
      <trkpt lat="64.21141" lon="10.42583">
        <ele>287.214558</ele>
        <time>2020-08-09T11:59:16.712Z</time>
      </trkpt>
      <trkpt lat="64.21151" lon="10.42582">
        <ele>287.048542</ele>
        <time>2020-08-09T11:59:19.716Z</time>
      </trkpt>
      <trkpt lat="64.2116" lon="10.42583">
        <ele>286.897211</ele>
        <time>2020-08-09T11:59:22.706Z</time>
      </trkpt>
      <trkpt lat="64.21171" lon="10.42584">
        <ele>286.711226</ele>
        <time>2020-08-09T11:59:26.709Z</time>
      </trkpt>
      <trkpt lat="64.21181" lon="10.42587">
        <ele>286.554248</ele>
        <time>2020-08-09T11:59:29.699Z</time>
      </trkpt>
      <trkpt lat="64.2119" lon="10.42591">
        <ele>286.39055</ele>
        <time>2020-08-09T11:59:32.707Z</time>
      </trkpt>
      <trkpt lat="64.21201" lon="10.42594">
        <ele>286.221698</ele>
        <time>2020-08-09T11:59:35.781Z</time>
      </trkpt>
      <trkpt lat="64.21211" lon="10.42594">
        <ele>286.05572</ele>
        <time>2020-08-09T11:59:38.695Z</time>
      </trkpt>
      <trkpt lat="64.2122" lon="10.42593">
        <ele>285.89638</ele>
        <time>2020-08-09T11:59:41.707Z</time>
      </trkpt>
      <trkpt lat="64.2123" lon="10.42594">
        <ele>285.730378</ele>
        <time>2020-08-09T11:59:44.703Z</time>
      </trkpt>
      <trkpt lat="64.21241" lon="10.42595">
        <ele>285.550977</ele>
        <time>2020-08-09T11:59:47.712Z</time>
      </trkpt>
      <trkpt lat="64.21253" lon="10.42596">
        <ele>285.49683</ele>
        <time>2020-08-09T11:59:50.703Z</time>
      </trkpt>
      <trkpt lat="64.21264" lon="10.42595">
        <ele>285.47332</ele>
        <time>2020-08-09T11:59:53.744Z</time>
      </trkpt>
      <trkpt lat="64.21275" lon="10.42593">
        <ele>285.450733</ele>
        <time>2020-08-09T11:59:56.712Z</time>
      </trkpt>
      <trkpt lat="64.21286" lon="10.42592">
        <ele>285.429395</ele>
        <time>2020-08-09T11:59:59.714Z</time>
      </trkpt>
      <trkpt lat="64.21295" lon="10.42589">
        <ele>285.410543</ele>
        <time>2020-08-09T12:00:02.703Z</time>
      </trkpt>
      <trkpt lat="64.21304" lon="10.42586">
        <ele>285.392123</ele>
        <time>2020-08-09T12:00:05.708Z</time>
      </trkpt>
      <trkpt lat="64.21314" lon="10.42583">
        <ele>285.371866</ele>
        <time>2020-08-09T12:00:08.718Z</time>
      </trkpt>
      <trkpt lat="64.21326" lon="10.42578">
        <ele>285.349162</ele>
        <time>2020-08-09T12:00:11.696Z</time>
      </trkpt>
      <trkpt lat="64.21336" lon="10.42573">
        <ele>285.327871</ele>
        <time>2020-08-09T12:00:14.696Z</time>
      </trkpt>
      <trkpt lat="64.21347" lon="10.42567">
        <ele>285.305595</ele>
        <time>2020-08-09T12:00:17.705Z</time>
      </trkpt>
      <trkpt lat="64.21358" lon="10.42561">
        <ele>285.283019</ele>
        <time>2020-08-09T12:00:20.704Z</time>
      </trkpt>
      <trkpt lat="64.21368" lon="10.42557">
        <ele>285.260924</ele>
        <time>2020-08-09T12:00:23.719Z</time>
      </trkpt>
      <trkpt lat="64.2138" lon="10.4255">
        <ele>285.236314</ele>
        <time>2020-08-09T12:00:26.701Z</time>
      </trkpt>
      <trkpt lat="64.21392" lon="10.42543">
        <ele>285.213022</ele>
        <time>2020-08-09T12:00:29.717Z</time>
      </trkpt>
      <trkpt lat="64.21403" lon="10.42536">
        <ele>285.188499</ele>
        <time>2020-08-09T12:00:32.747Z</time>
      </trkpt>
      <trkpt lat="64.21415" lon="10.42528">
        <ele>285.163542</ele>
        <time>2020-08-09T12:00:35.739Z</time>
      </trkpt>
      <trkpt lat="64.21427" lon="10.42521">
        <ele>285.39122</ele>
        <time>2020-08-09T12:00:38.739Z</time>
      </trkpt>
      <trkpt lat="64.21438" lon="10.42514">
        <ele>285.739293</ele>
        <time>2020-08-09T12:00:41.720Z</time>
      </trkpt>
      <trkpt lat="64.21448" lon="10.42504">
        <ele>286.063835</ele>
        <time>2020-08-09T12:00:44.706Z</time>
      </trkpt>
      <trkpt lat="64.21457" lon="10.42497">
        <ele>286.364696</ele>
        <time>2020-08-09T12:00:47.714Z</time>
      </trkpt>
      <trkpt lat="64.21465" lon="10.42489">
        <ele>286.641143</ele>
        <time>2020-08-09T12:00:50.705Z</time>
      </trkpt>
      <trkpt lat="64.21475" lon="10.42482">
        <ele>286.937018</ele>
        <time>2020-08-09T12:00:53.721Z</time>
      </trkpt>
      <trkpt lat="64.21484" lon="10.42476">
        <ele>287.225069</ele>
        <time>2020-08-09T12:00:56.707Z</time>
      </trkpt>
      <trkpt lat="64.21494" lon="10.42468">
        <ele>287.551305</ele>
        <time>2020-08-09T12:01:00.704Z</time>
      </trkpt>
      <trkpt lat="64.21504" lon="10.42458">
        <ele>287.910812</ele>
        <time>2020-08-09T12:01:04.698Z</time>
      </trkpt>
      <trkpt lat="64.21513" lon="10.42448">
        <ele>288.211448</ele>
        <time>2020-08-09T12:01:08.701Z</time>
      </trkpt>
      <trkpt lat="64.21522" lon="10.42437">
        <ele>288.528763</ele>
        <time>2020-08-09T12:01:13.737Z</time>
      </trkpt>
      <trkpt lat="64.2153" lon="10.42424">
        <ele>288.813559</ele>
        <time>2020-08-09T12:01:18.693Z</time>
      </trkpt>
      <trkpt lat="64.21539" lon="10.42414">
        <ele>289.129471</ele>
        <time>2020-08-09T12:01:24.723Z</time>
      </trkpt>
      <trkpt lat="64.21547" lon="10.42405">
        <ele>289.408054</ele>
        <time>2020-08-09T12:01:30.717Z</time>
      </trkpt>
      <trkpt lat="64.21556" lon="10.42391">
        <ele>289.72446</ele>
        <time>2020-08-09T12:01:37.707Z</time>
      </trkpt>
      <trkpt lat="64.21566" lon="10.42391">
        <ele>290.052518</ele>
        <time>2020-08-09T12:01:43.702Z</time>
      </trkpt>
      <trkpt lat="64.21576" lon="10.42392">
        <ele>290.35373</ele>
        <time>2020-08-09T12:01:48.708Z</time>
      </trkpt>
      <trkpt lat="64.21587" lon="10.42396">
        <ele>290.676976</ele>
        <time>2020-08-09T12:01:53.708Z</time>
      </trkpt>
      <trkpt lat="64.21596" lon="10.42393">
        <ele>290.883604</ele>
        <time>2020-08-09T12:01:58.699Z</time>
      </trkpt>
      <trkpt lat="64.21605" lon="10.42388">
        <ele>291.111712</ele>
        <time>2020-08-09T12:02:03.720Z</time>
      </trkpt>
      <trkpt lat="64.21615" lon="10.42379">
        <ele>291.354027</ele>
        <time>2020-08-09T12:02:09.699Z</time>
      </trkpt>
      <trkpt lat="64.21624" lon="10.42372">
        <ele>291.565664</ele>
        <time>2020-08-09T12:02:14.713Z</time>
      </trkpt>
      <trkpt lat="64.21633" lon="10.42364">
        <ele>291.798672</ele>
        <time>2020-08-09T12:02:20.735Z</time>
      </trkpt>
      <trkpt lat="64.21642" lon="10.42354">
        <ele>292.020636</ele>
        <time>2020-08-09T12:02:25.727Z</time>
      </trkpt>
      <trkpt lat="64.21649" lon="10.42341">
        <ele>292.237158</ele>
        <time>2020-08-09T12:02:30.739Z</time>
      </trkpt>
      <trkpt lat="64.21657" lon="10.42326">
        <ele>292.469162</ele>
        <time>2020-08-09T12:02:35.698Z</time>
      </trkpt>
      <trkpt lat="64.21663" lon="10.42311">
        <ele>292.679158</ele>
        <time>2020-08-09T12:02:40.703Z</time>
      </trkpt>
      <trkpt lat="64.21669" lon="10.42294">
        <ele>292.897815</ele>
        <time>2020-08-09T12:02:45.708Z</time>
      </trkpt>
      <trkpt lat="64.21675" lon="10.42274">
        <ele>293.134859</ele>
        <time>2020-08-09T12:02:51.704Z</time>
      </trkpt>
      <trkpt lat="64.21681" lon="10.42254">
        <ele>293.382567</ele>
        <time>2020-08-09T12:02:57.743Z</time>
      </trkpt>
      <trkpt lat="64.21687" lon="10.42238">
        <ele>293.598739</ele>
        <time>2020-08-09T12:03:02.713Z</time>
      </trkpt>
      <trkpt lat="64.21693" lon="10.42218">
        <ele>293.839113</ele>
        <time>2020-08-09T12:03:07.706Z</time>
      </trkpt>
      <trkpt lat="64.21698" lon="10.422">
        <ele>294.048069</ele>
        <time>2020-08-09T12:03:11.717Z</time>
      </trkpt>
      <trkpt lat="64.21705" lon="10.42182">
        <ele>294.296917</ele>
        <time>2020-08-09T12:03:15.693Z</time>
      </trkpt>
      <trkpt lat="64.21712" lon="10.42161">
        <ele>294.567342</ele>
        <time>2020-08-09T12:03:19.702Z</time>
      </trkpt>
      <trkpt lat="64.2172" lon="10.42143">
        <ele>294.798122</ele>
        <time>2020-08-09T12:03:23.694Z</time>
      </trkpt>
      <trkpt lat="64.21728" lon="10.42125">
        <ele>294.178058</ele>
        <time>2020-08-09T12:03:27.737Z</time>
      </trkpt>
      <trkpt lat="64.21735" lon="10.42109">
        <ele>293.620203</ele>
        <time>2020-08-09T12:03:30.715Z</time>
      </trkpt>
      <trkpt lat="64.21743" lon="10.42093">
        <ele>293.036478</ele>
        <time>2020-08-09T12:03:33.725Z</time>
      </trkpt>
      <trkpt lat="64.21752" lon="10.42079">
        <ele>292.395772</ele>
        <time>2020-08-09T12:03:36.718Z</time>
      </trkpt>
      <trkpt lat="64.21763" lon="10.42063">
        <ele>291.665461</ele>
        <time>2020-08-09T12:03:39.741Z</time>
      </trkpt>
      <trkpt lat="64.21771" lon="10.4205">
        <ele>291.130443</ele>
        <time>2020-08-09T12:03:41.713Z</time>
      </trkpt>
      <trkpt lat="64.21778" lon="10.42036">
        <ele>290.59084</ele>
        <time>2020-08-09T12:03:43.717Z</time>
      </trkpt>
      <trkpt lat="64.21787" lon="10.42023">
        <ele>290.022958</ele>
        <time>2020-08-09T12:03:45.697Z</time>
      </trkpt>
      <trkpt lat="64.21796" lon="10.42009">
        <ele>289.405564</ele>
        <time>2020-08-09T12:03:47.708Z</time>
      </trkpt>
      <trkpt lat="64.21805" lon="10.41992">
        <ele>288.741123</ele>
        <time>2020-08-09T12:03:49.717Z</time>
      </trkpt>
      <trkpt lat="64.21814" lon="10.41974">
        <ele>288.066796</ele>
        <time>2020-08-09T12:03:51.708Z</time>
      </trkpt>
      <trkpt lat="64.21824" lon="10.41954">
        <ele>287.318292</ele>
        <time>2020-08-09T12:03:53.695Z</time>
      </trkpt>
      <trkpt lat="64.21835" lon="10.41933">
        <ele>286.510448</ele>
        <time>2020-08-09T12:03:55.721Z</time>
      </trkpt>
      <trkpt lat="64.21847" lon="10.4191">
        <ele>285.635681</ele>
        <time>2020-08-09T12:03:57.735Z</time>
      </trkpt>
      <trkpt lat="64.2186" lon="10.41886">
        <ele>284.699459</ele>
        <time>2020-08-09T12:03:59.700Z</time>
      </trkpt>
      <trkpt lat="64.21873" lon="10.4186">
        <ele>283.789627</ele>
        <time>2020-08-09T12:04:01.705Z</time>
      </trkpt>
      <trkpt lat="64.21885" lon="10.41834">
        <ele>282.914205</ele>
        <time>2020-08-09T12:04:03.715Z</time>
      </trkpt>
      <trkpt lat="64.21897" lon="10.41808">
        <ele>282.053518</ele>
        <time>2020-08-09T12:04:05.743Z</time>
      </trkpt>
      <trkpt lat="64.21909" lon="10.41783">
        <ele>281.181126</ele>
        <time>2020-08-09T12:04:07.717Z</time>
      </trkpt>
      <trkpt lat="64.21921" lon="10.41758">
        <ele>280.298647</ele>
        <time>2020-08-09T12:04:09.707Z</time>
      </trkpt>
      <trkpt lat="64.21928" lon="10.41744">
        <ele>279.818363</ele>
        <time>2020-08-09T12:04:10.725Z</time>
      </trkpt>
      <trkpt lat="64.21935" lon="10.4173">
        <ele>279.337399</ele>
        <time>2020-08-09T12:04:11.719Z</time>
      </trkpt>
      <trkpt lat="64.21947" lon="10.41702">
        <ele>278.414896</ele>
        <time>2020-08-09T12:04:13.783Z</time>
      </trkpt>
      <trkpt lat="64.2196" lon="10.41674">
        <ele>277.490789</ele>
        <time>2020-08-09T12:04:15.712Z</time>
      </trkpt>
      <trkpt lat="64.21973" lon="10.41647">
        <ele>276.564673</ele>
        <time>2020-08-09T12:04:17.745Z</time>
      </trkpt>
      <trkpt lat="64.21986" lon="10.41621">
        <ele>275.630676</ele>
        <time>2020-08-09T12:04:19.698Z</time>
      </trkpt>
      <trkpt lat="64.21993" lon="10.41607">
        <ele>275.152194</ele>
        <time>2020-08-09T12:04:20.704Z</time>
      </trkpt>
      <trkpt lat="64.22" lon="10.41593">
        <ele>274.580671</ele>
        <time>2020-08-09T12:04:21.703Z</time>
      </trkpt>
      <trkpt lat="64.22007" lon="10.4158">
        <ele>274.002569</ele>
        <time>2020-08-09T12:04:22.701Z</time>
      </trkpt>
      <trkpt lat="64.2202" lon="10.41552">
        <ele>272.847412</ele>
        <time>2020-08-09T12:04:24.721Z</time>
      </trkpt>
      <trkpt lat="64.22027" lon="10.41537">
        <ele>272.249523</ele>
        <time>2020-08-09T12:04:25.723Z</time>
      </trkpt>
      <trkpt lat="64.22034" lon="10.41524">
        <ele>271.66725</ele>
        <time>2020-08-09T12:04:26.715Z</time>
      </trkpt>
      <trkpt lat="64.22048" lon="10.41498">
        <ele>270.558554</ele>
        <time>2020-08-09T12:04:28.739Z</time>
      </trkpt>
      <trkpt lat="64.22061" lon="10.41473">
        <ele>269.473346</ele>
        <time>2020-08-09T12:04:30.731Z</time>
      </trkpt>
      <trkpt lat="64.22074" lon="10.41445">
        <ele>268.326619</ele>
        <time>2020-08-09T12:04:32.703Z</time>
      </trkpt>
      <trkpt lat="64.22081" lon="10.4143">
        <ele>267.721424</ele>
        <time>2020-08-09T12:04:33.717Z</time>
      </trkpt>
      <trkpt lat="64.22088" lon="10.41416">
        <ele>267.116229</ele>
        <time>2020-08-09T12:04:34.706Z</time>
      </trkpt>
      <trkpt lat="64.22096" lon="10.41402">
        <ele>266.507363</ele>
        <time>2020-08-09T12:04:35.700Z</time>
      </trkpt>
      <trkpt lat="64.22103" lon="10.41388">
        <ele>265.92375</ele>
        <time>2020-08-09T12:04:36.715Z</time>
      </trkpt>
      <trkpt lat="64.22115" lon="10.41364">
        <ele>264.885516</ele>
        <time>2020-08-09T12:04:38.718Z</time>
      </trkpt>
      <trkpt lat="64.22127" lon="10.41342">
        <ele>263.956222</ele>
        <time>2020-08-09T12:04:40.740Z</time>
      </trkpt>
      <trkpt lat="64.22137" lon="10.41322">
        <ele>262.667184</ele>
        <time>2020-08-09T12:04:42.704Z</time>
      </trkpt>
      <trkpt lat="64.22146" lon="10.41302">
        <ele>261.314158</ele>
        <time>2020-08-09T12:04:44.715Z</time>
      </trkpt>
      <trkpt lat="64.22156" lon="10.41283">
        <ele>259.884254</ele>
        <time>2020-08-09T12:04:46.711Z</time>
      </trkpt>
      <trkpt lat="64.22167" lon="10.41262">
        <ele>258.431101</ele>
        <time>2020-08-09T12:04:48.698Z</time>
      </trkpt>
      <trkpt lat="64.22177" lon="10.41242">
        <ele>257.002197</ele>
        <time>2020-08-09T12:04:50.703Z</time>
      </trkpt>
      <trkpt lat="64.22187" lon="10.41222">
        <ele>255.54691</ele>
        <time>2020-08-09T12:04:52.738Z</time>
      </trkpt>
      <trkpt lat="64.22198" lon="10.41201">
        <ele>254.046038</ele>
        <time>2020-08-09T12:04:54.755Z</time>
      </trkpt>
      <trkpt lat="64.22209" lon="10.41179">
        <ele>252.448806</ele>
        <time>2020-08-09T12:04:56.737Z</time>
      </trkpt>
      <trkpt lat="64.2222" lon="10.41158">
        <ele>250.938879</ele>
        <time>2020-08-09T12:04:58.727Z</time>
      </trkpt>
      <trkpt lat="64.2223" lon="10.41137">
        <ele>249.473545</ele>
        <time>2020-08-09T12:05:00.712Z</time>
      </trkpt>
      <trkpt lat="64.22241" lon="10.41114">
        <ele>247.903992</ele>
        <time>2020-08-09T12:05:02.709Z</time>
      </trkpt>
      <trkpt lat="64.22251" lon="10.41088">
        <ele>246.300695</ele>
        <time>2020-08-09T12:05:04.717Z</time>
      </trkpt>
      <trkpt lat="64.22261" lon="10.41061">
        <ele>244.617053</ele>
        <time>2020-08-09T12:05:06.708Z</time>
      </trkpt>
      <trkpt lat="64.22271" lon="10.41037">
        <ele>243.061605</ele>
        <time>2020-08-09T12:05:08.721Z</time>
      </trkpt>
      <trkpt lat="64.2228" lon="10.41014">
        <ele>241.569497</ele>
        <time>2020-08-09T12:05:10.728Z</time>
      </trkpt>
      <trkpt lat="64.22289" lon="10.40991">
        <ele>240.141748</ele>
        <time>2020-08-09T12:05:12.715Z</time>
      </trkpt>
      <trkpt lat="64.22297" lon="10.40968">
        <ele>238.73133</ele>
        <time>2020-08-09T12:05:14.750Z</time>
      </trkpt>
      <trkpt lat="64.22306" lon="10.40943">
        <ele>237.221492</ele>
        <time>2020-08-09T12:05:16.725Z</time>
      </trkpt>
      <trkpt lat="64.22315" lon="10.40918">
        <ele>235.672785</ele>
        <time>2020-08-09T12:05:18.707Z</time>
      </trkpt>
      <trkpt lat="64.22324" lon="10.40892">
        <ele>234.102698</ele>
        <time>2020-08-09T12:05:20.729Z</time>
      </trkpt>
      <trkpt lat="64.22333" lon="10.40868">
        <ele>232.646456</ele>
        <time>2020-08-09T12:05:22.723Z</time>
      </trkpt>
      <trkpt lat="64.22342" lon="10.40844">
        <ele>231.126314</ele>
        <time>2020-08-09T12:05:24.736Z</time>
      </trkpt>
      <trkpt lat="64.2235" lon="10.4082">
        <ele>229.727594</ele>
        <time>2020-08-09T12:05:26.784Z</time>
      </trkpt>
      <trkpt lat="64.22359" lon="10.4079">
        <ele>227.998077</ele>
        <time>2020-08-09T12:05:28.707Z</time>
      </trkpt>
      <trkpt lat="64.22368" lon="10.40766">
        <ele>226.516879</ele>
        <time>2020-08-09T12:05:30.745Z</time>
      </trkpt>
      <trkpt lat="64.22377" lon="10.40741">
        <ele>225.025201</ele>
        <time>2020-08-09T12:05:32.719Z</time>
      </trkpt>
      <trkpt lat="64.22382" lon="10.40717">
        <ele>224.108432</ele>
        <time>2020-08-09T12:05:34.734Z</time>
      </trkpt>
      <trkpt lat="64.22388" lon="10.40686">
        <ele>223.035228</ele>
        <time>2020-08-09T12:05:36.751Z</time>
      </trkpt>
      <trkpt lat="64.22392" lon="10.40657">
        <ele>222.055493</ele>
        <time>2020-08-09T12:05:38.723Z</time>
      </trkpt>
      <trkpt lat="64.22394" lon="10.40631">
        <ele>221.173129</ele>
        <time>2020-08-09T12:05:40.728Z</time>
      </trkpt>
      <trkpt lat="64.22396" lon="10.40606">
        <ele>220.379133</ele>
        <time>2020-08-09T12:05:42.741Z</time>
      </trkpt>
      <trkpt lat="64.22397" lon="10.40583">
        <ele>219.609701</ele>
        <time>2020-08-09T12:05:46.723Z</time>
      </trkpt>
      <trkpt lat="64.22396" lon="10.40535">
        <ele>218.068494</ele>
        <time>2020-08-09T12:07:13.740Z</time>
      </trkpt>
      <trkpt lat="64.22395" lon="10.40508">
        <ele>217.172998</ele>
        <time>2020-08-09T12:07:16.702Z</time>
      </trkpt>
      <trkpt lat="64.22394" lon="10.40485">
        <ele>216.438508</ele>
        <time>2020-08-09T12:07:18.730Z</time>
      </trkpt>
      <trkpt lat="64.22394" lon="10.40461">
        <ele>215.656679</ele>
        <time>2020-08-09T12:07:20.708Z</time>
      </trkpt>
      <trkpt lat="64.22393" lon="10.40437">
        <ele>214.870444</ele>
        <time>2020-08-09T12:07:22.702Z</time>
      </trkpt>
      <trkpt lat="64.22393" lon="10.40411">
        <ele>214.036116</ele>
        <time>2020-08-09T12:07:24.698Z</time>
      </trkpt>
      <trkpt lat="64.22392" lon="10.40384">
        <ele>213.158278</ele>
        <time>2020-08-09T12:07:26.695Z</time>
      </trkpt>
      <trkpt lat="64.22391" lon="10.40356">
        <ele>212.244302</ele>
        <time>2020-08-09T12:07:28.716Z</time>
      </trkpt>
      <trkpt lat="64.2239" lon="10.40326">
        <ele>211.343904</ele>
        <time>2020-08-09T12:07:30.714Z</time>
      </trkpt>
      <trkpt lat="64.2239" lon="10.40296">
        <ele>210.550267</ele>
        <time>2020-08-09T12:07:32.704Z</time>
      </trkpt>
      <trkpt lat="64.22391" lon="10.40264">
        <ele>209.73515</ele>
        <time>2020-08-09T12:07:34.720Z</time>
      </trkpt>
      <trkpt lat="64.22394" lon="10.40236">
        <ele>208.986258</ele>
        <time>2020-08-09T12:07:36.712Z</time>
      </trkpt>
      <trkpt lat="64.22399" lon="10.40208">
        <ele>208.20412</ele>
        <time>2020-08-09T12:07:38.749Z</time>
      </trkpt>
      <trkpt lat="64.22406" lon="10.40186">
        <ele>207.50744</ele>
        <time>2020-08-09T12:07:40.758Z</time>
      </trkpt>
      <trkpt lat="64.22416" lon="10.40166">
        <ele>206.725093</ele>
        <time>2020-08-09T12:07:42.707Z</time>
      </trkpt>
      <trkpt lat="64.22428" lon="10.40149">
        <ele>205.872505</ele>
        <time>2020-08-09T12:07:44.694Z</time>
      </trkpt>
      <trkpt lat="64.22442" lon="10.40138">
        <ele>205.017837</ele>
        <time>2020-08-09T12:07:46.706Z</time>
      </trkpt>
      <trkpt lat="64.22455" lon="10.40137">
        <ele>204.228863</ele>
        <time>2020-08-09T12:07:48.721Z</time>
      </trkpt>
      <trkpt lat="64.22469" lon="10.4014">
        <ele>203.384108</ele>
        <time>2020-08-09T12:07:50.716Z</time>
      </trkpt>
      <trkpt lat="64.22483" lon="10.40146">
        <ele>202.563259</ele>
        <time>2020-08-09T12:07:52.721Z</time>
      </trkpt>
      <trkpt lat="64.22498" lon="10.40148">
        <ele>201.696323</ele>
        <time>2020-08-09T12:07:54.716Z</time>
      </trkpt>
      <trkpt lat="64.22512" lon="10.40148">
        <ele>200.775042</ele>
        <time>2020-08-09T12:07:56.698Z</time>
      </trkpt>
      <trkpt lat="64.22527" lon="10.40143">
        <ele>199.062531</ele>
        <time>2020-08-09T12:07:58.702Z</time>
      </trkpt>
      <trkpt lat="64.22542" lon="10.40132">
        <ele>197.345514</ele>
        <time>2020-08-09T12:08:00.715Z</time>
      </trkpt>
      <trkpt lat="64.22557" lon="10.40118">
        <ele>195.484297</ele>
        <time>2020-08-09T12:08:02.742Z</time>
      </trkpt>
      <trkpt lat="64.22571" lon="10.40105">
        <ele>193.830294</ele>
        <time>2020-08-09T12:08:04.696Z</time>
      </trkpt>
      <trkpt lat="64.22586" lon="10.4009">
        <ele>192.026309</ele>
        <time>2020-08-09T12:08:06.714Z</time>
      </trkpt>
      <trkpt lat="64.22598" lon="10.4008">
        <ele>190.524472</ele>
        <time>2020-08-09T12:08:08.726Z</time>
      </trkpt>
      <trkpt lat="64.22611" lon="10.40074">
        <ele>189.06183</ele>
        <time>2020-08-09T12:08:10.736Z</time>
      </trkpt>
      <trkpt lat="64.22624" lon="10.4007">
        <ele>187.584934</ele>
        <time>2020-08-09T12:08:12.723Z</time>
      </trkpt>
      <trkpt lat="64.22637" lon="10.4007">
        <ele>186.189103</ele>
        <time>2020-08-09T12:08:14.727Z</time>
      </trkpt>
      <trkpt lat="64.22647" lon="10.40079">
        <ele>184.986471</ele>
        <time>2020-08-09T12:08:16.719Z</time>
      </trkpt>
      <trkpt lat="64.22659" lon="10.4009">
        <ele>183.550751</ele>
        <time>2020-08-09T12:08:18.716Z</time>
      </trkpt>
      <trkpt lat="64.2267" lon="10.40107">
        <ele>182.085611</ele>
        <time>2020-08-09T12:08:20.712Z</time>
      </trkpt>
      <trkpt lat="64.22681" lon="10.40125">
        <ele>180.633754</ele>
        <time>2020-08-09T12:08:22.698Z</time>
      </trkpt>
      <trkpt lat="64.22692" lon="10.40139">
        <ele>179.767304</ele>
        <time>2020-08-09T12:08:24.736Z</time>
      </trkpt>
      <trkpt lat="64.22705" lon="10.40148">
        <ele>178.864451</ele>
        <time>2020-08-09T12:08:26.696Z</time>
      </trkpt>
      <trkpt lat="64.22717" lon="10.40153">
        <ele>178.028677</ele>
        <time>2020-08-09T12:08:28.742Z</time>
      </trkpt>
      <trkpt lat="64.22729" lon="10.40156">
        <ele>177.166767</ele>
        <time>2020-08-09T12:08:30.712Z</time>
      </trkpt>
      <trkpt lat="64.22741" lon="10.40158">
        <ele>176.317841</ele>
        <time>2020-08-09T12:08:32.700Z</time>
      </trkpt>
      <trkpt lat="64.22753" lon="10.40158">
        <ele>175.500502</ele>
        <time>2020-08-09T12:08:34.702Z</time>
      </trkpt>
      <trkpt lat="64.22767" lon="10.40158">
        <ele>174.544639</ele>
        <time>2020-08-09T12:08:36.725Z</time>
      </trkpt>
      <trkpt lat="64.22781" lon="10.40159">
        <ele>173.567718</ele>
        <time>2020-08-09T12:08:38.707Z</time>
      </trkpt>
      <trkpt lat="64.22795" lon="10.40156">
        <ele>172.584758</ele>
        <time>2020-08-09T12:08:40.697Z</time>
      </trkpt>
      <trkpt lat="64.2281" lon="10.4015">
        <ele>171.551188</ele>
        <time>2020-08-09T12:08:42.720Z</time>
      </trkpt>
      <trkpt lat="64.22824" lon="10.40144">
        <ele>170.551718</ele>
        <time>2020-08-09T12:08:44.695Z</time>
      </trkpt>
      <trkpt lat="64.22841" lon="10.40136">
        <ele>169.366363</ele>
        <time>2020-08-09T12:08:46.719Z</time>
      </trkpt>
      <trkpt lat="64.22856" lon="10.40128">
        <ele>168.334155</ele>
        <time>2020-08-09T12:08:48.716Z</time>
      </trkpt>
      <trkpt lat="64.22874" lon="10.40122">
        <ele>167.81217</ele>
        <time>2020-08-09T12:08:50.715Z</time>
      </trkpt>
      <trkpt lat="64.22882" lon="10.40119">
        <ele>167.542781</ele>
        <time>2020-08-09T12:08:51.735Z</time>
      </trkpt>
      <trkpt lat="64.22892" lon="10.40118">
        <ele>167.253725</ele>
        <time>2020-08-09T12:08:52.729Z</time>
      </trkpt>
      <trkpt lat="64.22902" lon="10.40117">
        <ele>166.967782</ele>
        <time>2020-08-09T12:08:53.701Z</time>
      </trkpt>
      <trkpt lat="64.22911" lon="10.40117">
        <ele>166.682018</ele>
        <time>2020-08-09T12:08:54.729Z</time>
      </trkpt>
      <trkpt lat="64.22927" lon="10.40121">
        <ele>166.198325</ele>
        <time>2020-08-09T12:08:56.707Z</time>
      </trkpt>
      <trkpt lat="64.22945" lon="10.40128">
        <ele>165.654241</ele>
        <time>2020-08-09T12:08:58.704Z</time>
      </trkpt>
      <trkpt lat="64.22961" lon="10.40139">
        <ele>165.13929</ele>
        <time>2020-08-09T12:09:00.718Z</time>
      </trkpt>
      <trkpt lat="64.22977" lon="10.4015">
        <ele>164.647336</ele>
        <time>2020-08-09T12:09:02.705Z</time>
      </trkpt>
      <trkpt lat="64.22991" lon="10.40161">
        <ele>164.189292</ele>
        <time>2020-08-09T12:09:04.732Z</time>
      </trkpt>
      <trkpt lat="64.23005" lon="10.40168">
        <ele>163.773319</ele>
        <time>2020-08-09T12:09:06.712Z</time>
      </trkpt>
      <trkpt lat="64.2302" lon="10.40174">
        <ele>163.322558</ele>
        <time>2020-08-09T12:09:08.697Z</time>
      </trkpt>
      <trkpt lat="64.23033" lon="10.40179">
        <ele>163.010233</ele>
        <time>2020-08-09T12:09:10.703Z</time>
      </trkpt>
      <trkpt lat="64.23047" lon="10.40182">
        <ele>163.201355</ele>
        <time>2020-08-09T12:09:12.703Z</time>
      </trkpt>
      <trkpt lat="64.23061" lon="10.40184">
        <ele>163.399403</ele>
        <time>2020-08-09T12:09:14.703Z</time>
      </trkpt>
      <trkpt lat="64.23074" lon="10.40189">
        <ele>163.588834</ele>
        <time>2020-08-09T12:09:16.739Z</time>
      </trkpt>
      <trkpt lat="64.23084" lon="10.40197">
        <ele>163.742371</ele>
        <time>2020-08-09T12:09:18.708Z</time>
      </trkpt>
      <trkpt lat="64.23099" lon="10.40205">
        <ele>163.947962</ele>
        <time>2020-08-09T12:09:20.723Z</time>
      </trkpt>
      <trkpt lat="64.23111" lon="10.40214">
        <ele>164.133149</ele>
        <time>2020-08-09T12:09:22.697Z</time>
      </trkpt>
      <trkpt lat="64.23122" lon="10.4022">
        <ele>164.287061</ele>
        <time>2020-08-09T12:09:24.727Z</time>
      </trkpt>
      <trkpt lat="64.23131" lon="10.40225">
        <ele>164.421368</ele>
        <time>2020-08-09T12:09:27.919Z</time>
      </trkpt>
      <trkpt lat="64.23144" lon="10.40233">
        <ele>164.601517</ele>
        <time>2020-08-09T12:09:28.695Z</time>
      </trkpt>
      <trkpt lat="64.23153" lon="10.4024">
        <ele>164.744411</ele>
        <time>2020-08-09T12:09:30.720Z</time>
      </trkpt>
      <trkpt lat="64.23163" lon="10.40249">
        <ele>164.892792</ele>
        <time>2020-08-09T12:09:32.695Z</time>
      </trkpt>
      <trkpt lat="64.23173" lon="10.40259">
        <ele>165.042407</ele>
        <time>2020-08-09T12:09:34.697Z</time>
      </trkpt>
      <trkpt lat="64.23183" lon="10.4027">
        <ele>165.192147</ele>
        <time>2020-08-09T12:09:36.728Z</time>
      </trkpt>
      <trkpt lat="64.23195" lon="10.40279">
        <ele>165.373808</ele>
        <time>2020-08-09T12:09:39.712Z</time>
      </trkpt>
      <trkpt lat="64.23208" lon="10.40283">
        <ele>165.315605</ele>
        <time>2020-08-09T12:09:42.725Z</time>
      </trkpt>
      <trkpt lat="64.23217" lon="10.40286">
        <ele>164.919495</ele>
        <time>2020-08-09T12:09:44.680Z</time>
      </trkpt>
      <trkpt lat="64.23228" lon="10.40287">
        <ele>164.492301</ele>
        <time>2020-08-09T12:09:46.732Z</time>
      </trkpt>
      <trkpt lat="64.23237" lon="10.40286">
        <ele>164.078078</ele>
        <time>2020-08-09T12:09:48.686Z</time>
      </trkpt>
      <trkpt lat="64.23248" lon="10.40286">
        <ele>163.638587</ele>
        <time>2020-08-09T12:09:50.741Z</time>
      </trkpt>
      <trkpt lat="64.23258" lon="10.40287">
        <ele>163.203198</ele>
        <time>2020-08-09T12:09:52.703Z</time>
      </trkpt>
      <trkpt lat="64.23269" lon="10.40287">
        <ele>162.734128</ele>
        <time>2020-08-09T12:09:54.714Z</time>
      </trkpt>
      <trkpt lat="64.2328" lon="10.40285">
        <ele>162.277217</ele>
        <time>2020-08-09T12:09:56.703Z</time>
      </trkpt>
      <trkpt lat="64.23291" lon="10.40285">
        <ele>161.816522</ele>
        <time>2020-08-09T12:09:58.735Z</time>
      </trkpt>
      <trkpt lat="64.23301" lon="10.40283">
        <ele>161.388145</ele>
        <time>2020-08-09T12:10:00.700Z</time>
      </trkpt>
      <trkpt lat="64.23311" lon="10.4028">
        <ele>160.949647</ele>
        <time>2020-08-09T12:10:02.706Z</time>
      </trkpt>
      <trkpt lat="64.23321" lon="10.40278">
        <ele>160.529525</ele>
        <time>2020-08-09T12:10:04.702Z</time>
      </trkpt>
      <trkpt lat="64.23331" lon="10.40276">
        <ele>160.114489</ele>
        <time>2020-08-09T12:10:06.725Z</time>
      </trkpt>
      <trkpt lat="64.23341" lon="10.40275">
        <ele>159.683148</ele>
        <time>2020-08-09T12:10:08.710Z</time>
      </trkpt>
      <trkpt lat="64.23352" lon="10.40272">
        <ele>159.210866</ele>
        <time>2020-08-09T12:10:10.716Z</time>
      </trkpt>
      <trkpt lat="64.23363" lon="10.4027">
        <ele>158.74395</ele>
        <time>2020-08-09T12:10:12.708Z</time>
      </trkpt>
      <trkpt lat="64.23373" lon="10.40268">
        <ele>158.319084</ele>
        <time>2020-08-09T12:10:14.706Z</time>
      </trkpt>
      <trkpt lat="64.23383" lon="10.40264">
        <ele>157.912524</ele>
        <time>2020-08-09T12:10:16.714Z</time>
      </trkpt>
      <trkpt lat="64.23392" lon="10.4026">
        <ele>158.177432</ele>
        <time>2020-08-09T12:10:18.706Z</time>
      </trkpt>
      <trkpt lat="64.23402" lon="10.40255">
        <ele>158.474214</ele>
        <time>2020-08-09T12:10:20.715Z</time>
      </trkpt>
      <trkpt lat="64.23411" lon="10.40249">
        <ele>158.761615</ele>
        <time>2020-08-09T12:10:22.702Z</time>
      </trkpt>
      <trkpt lat="64.2342" lon="10.40242">
        <ele>159.053623</ele>
        <time>2020-08-09T12:10:24.720Z</time>
      </trkpt>
      <trkpt lat="64.2343" lon="10.40235">
        <ele>159.352248</ele>
        <time>2020-08-09T12:10:26.720Z</time>
      </trkpt>
      <trkpt lat="64.23439" lon="10.4023">
        <ele>159.636416</ele>
        <time>2020-08-09T12:10:28.753Z</time>
      </trkpt>
      <trkpt lat="64.23449" lon="10.40227">
        <ele>159.93626</ele>
        <time>2020-08-09T12:10:30.741Z</time>
      </trkpt>
      <trkpt lat="64.23459" lon="10.40225">
        <ele>160.233426</ele>
        <time>2020-08-09T12:10:32.718Z</time>
      </trkpt>
      <trkpt lat="64.23468" lon="10.40222">
        <ele>160.509366</ele>
        <time>2020-08-09T12:10:34.706Z</time>
      </trkpt>
      <trkpt lat="64.23481" lon="10.40219">
        <ele>160.90539</ele>
        <time>2020-08-09T12:10:37.754Z</time>
      </trkpt>
      <trkpt lat="64.23494" lon="10.40217">
        <ele>161.297548</ele>
        <time>2020-08-09T12:10:40.747Z</time>
      </trkpt>
      <trkpt lat="64.23507" lon="10.40216">
        <ele>161.68605</ele>
        <time>2020-08-09T12:10:43.709Z</time>
      </trkpt>
      <trkpt lat="64.23516" lon="10.40217">
        <ele>161.966274</ele>
        <time>2020-08-09T12:10:45.704Z</time>
      </trkpt>
      <trkpt lat="64.23525" lon="10.40219">
        <ele>162.244011</ele>
        <time>2020-08-09T12:10:47.735Z</time>
      </trkpt>
      <trkpt lat="64.23535" lon="10.40221">
        <ele>162.534322</ele>
        <time>2020-08-09T12:10:49.696Z</time>
      </trkpt>
      <trkpt lat="64.23548" lon="10.40223">
        <ele>162.923994</ele>
        <time>2020-08-09T12:10:52.700Z</time>
      </trkpt>
      <trkpt lat="64.23561" lon="10.40226">
        <ele>163.311505</ele>
        <time>2020-08-09T12:10:55.737Z</time>
      </trkpt>
      <trkpt lat="64.23573" lon="10.40227">
        <ele>163.387097</ele>
        <time>2020-08-09T12:10:58.724Z</time>
      </trkpt>
      <trkpt lat="64.23585" lon="10.40225">
        <ele>163.456954</ele>
        <time>2020-08-09T12:11:01.712Z</time>
      </trkpt>
      <trkpt lat="64.23596" lon="10.4022">
        <ele>163.523117</ele>
        <time>2020-08-09T12:11:04.701Z</time>
      </trkpt>
      <trkpt lat="64.23608" lon="10.40212">
        <ele>163.597266</ele>
        <time>2020-08-09T12:11:07.709Z</time>
      </trkpt>
      <trkpt lat="64.23621" lon="10.40204">
        <ele>163.673493</ele>
        <time>2020-08-09T12:11:10.714Z</time>
      </trkpt>
      <trkpt lat="64.23629" lon="10.40199">
        <ele>163.726665</ele>
        <time>2020-08-09T12:11:12.716Z</time>
      </trkpt>
      <trkpt lat="64.23638" lon="10.40193">
        <ele>163.779844</ele>
        <time>2020-08-09T12:11:14.698Z</time>
      </trkpt>
      <trkpt lat="64.2365" lon="10.40183">
        <ele>163.855797</ele>
        <time>2020-08-09T12:11:17.702Z</time>
      </trkpt>
      <trkpt lat="64.23662" lon="10.4017">
        <ele>163.933739</ele>
        <time>2020-08-09T12:11:20.720Z</time>
      </trkpt>
      <trkpt lat="64.23674" lon="10.40157">
        <ele>164.011472</ele>
        <time>2020-08-09T12:11:23.732Z</time>
      </trkpt>
      <trkpt lat="64.23682" lon="10.40147">
        <ele>164.06512</ele>
        <time>2020-08-09T12:11:25.740Z</time>
      </trkpt>
      <trkpt lat="64.23691" lon="10.40139">
        <ele>164.119064</ele>
        <time>2020-08-09T12:11:27.712Z</time>
      </trkpt>
      <trkpt lat="64.237" lon="10.40131">
        <ele>164.17747</ele>
        <time>2020-08-09T12:11:29.708Z</time>
      </trkpt>
      <trkpt lat="64.23709" lon="10.40124">
        <ele>164.236331</ele>
        <time>2020-08-09T12:11:31.719Z</time>
      </trkpt>
      <trkpt lat="64.23719" lon="10.4012">
        <ele>164.293063</ele>
        <time>2020-08-09T12:11:33.701Z</time>
      </trkpt>
      <trkpt lat="64.23729" lon="10.40118">
        <ele>164.353061</ele>
        <time>2020-08-09T12:11:35.726Z</time>
      </trkpt>
      <trkpt lat="64.23738" lon="10.40116">
        <ele>164.392033</ele>
        <time>2020-08-09T12:11:37.719Z</time>
      </trkpt>
      <trkpt lat="64.23747" lon="10.40117">
        <ele>164.422099</ele>
        <time>2020-08-09T12:11:39.744Z</time>
      </trkpt>
      <trkpt lat="64.2376" lon="10.40116">
        <ele>164.466043</ele>
        <time>2020-08-09T12:11:42.724Z</time>
      </trkpt>
      <trkpt lat="64.23774" lon="10.40118">
        <ele>164.509419</ele>
        <time>2020-08-09T12:11:45.713Z</time>
      </trkpt>
      <trkpt lat="64.23783" lon="10.40119">
        <ele>164.539534</ele>
        <time>2020-08-09T12:11:47.723Z</time>
      </trkpt>
      <trkpt lat="64.23796" lon="10.40123">
        <ele>164.582432</ele>
        <time>2020-08-09T12:11:50.711Z</time>
      </trkpt>
      <trkpt lat="64.23808" lon="10.40127">
        <ele>164.624475</ele>
        <time>2020-08-09T12:11:53.696Z</time>
      </trkpt>
      <trkpt lat="64.23817" lon="10.40132">
        <ele>164.655741</ele>
        <time>2020-08-09T12:11:55.707Z</time>
      </trkpt>
      <trkpt lat="64.23826" lon="10.40139">
        <ele>164.685569</ele>
        <time>2020-08-09T12:11:57.731Z</time>
      </trkpt>
      <trkpt lat="64.23838" lon="10.40149">
        <ele>164.728504</ele>
        <time>2020-08-09T12:12:00.744Z</time>
      </trkpt>
      <trkpt lat="64.2385" lon="10.4016">
        <ele>164.769688</ele>
        <time>2020-08-09T12:12:03.708Z</time>
      </trkpt>
      <trkpt lat="64.23861" lon="10.40168">
        <ele>164.810225</ele>
        <time>2020-08-09T12:12:06.736Z</time>
      </trkpt>
      <trkpt lat="64.23873" lon="10.40176">
        <ele>164.851859</ele>
        <time>2020-08-09T12:12:09.701Z</time>
      </trkpt>
      <trkpt lat="64.23886" lon="10.40181">
        <ele>164.893311</ele>
        <time>2020-08-09T12:12:12.711Z</time>
      </trkpt>
      <trkpt lat="64.23895" lon="10.40185">
        <ele>164.924272</ele>
        <time>2020-08-09T12:12:14.705Z</time>
      </trkpt>
      <trkpt lat="64.23905" lon="10.40188">
        <ele>164.957282</ele>
        <time>2020-08-09T12:12:16.730Z</time>
      </trkpt>
      <trkpt lat="64.23915" lon="10.40191">
        <ele>164.769118</ele>
        <time>2020-08-09T12:12:18.712Z</time>
      </trkpt>
      <trkpt lat="64.23926" lon="10.40194">
        <ele>164.505323</ele>
        <time>2020-08-09T12:12:20.701Z</time>
      </trkpt>
      <trkpt lat="64.23937" lon="10.40198">
        <ele>164.215896</ele>
        <time>2020-08-09T12:12:22.720Z</time>
      </trkpt>
      <trkpt lat="64.23947" lon="10.402">
        <ele>163.946795</ele>
        <time>2020-08-09T12:12:24.703Z</time>
      </trkpt>
      <trkpt lat="64.23958" lon="10.40202">
        <ele>163.664455</ele>
        <time>2020-08-09T12:12:26.713Z</time>
      </trkpt>
      <trkpt lat="64.23969" lon="10.40203">
        <ele>163.379819</ele>
        <time>2020-08-09T12:12:28.716Z</time>
      </trkpt>
      <trkpt lat="64.23981" lon="10.40205">
        <ele>163.085184</ele>
        <time>2020-08-09T12:12:30.737Z</time>
      </trkpt>
      <trkpt lat="64.23993" lon="10.40208">
        <ele>162.773761</ele>
        <time>2020-08-09T12:12:32.725Z</time>
      </trkpt>
      <trkpt lat="64.24006" lon="10.40208">
        <ele>162.45143</ele>
        <time>2020-08-09T12:12:34.714Z</time>
      </trkpt>
      <trkpt lat="64.24019" lon="10.40208">
        <ele>162.121336</ele>
        <time>2020-08-09T12:12:36.712Z</time>
      </trkpt>
      <trkpt lat="64.24033" lon="10.40206">
        <ele>161.755265</ele>
        <time>2020-08-09T12:12:38.734Z</time>
      </trkpt>
      <trkpt lat="64.24047" lon="10.40203">
        <ele>161.38786</ele>
        <time>2020-08-09T12:12:40.743Z</time>
      </trkpt>
      <trkpt lat="64.24061" lon="10.40198">
        <ele>161.018203</ele>
        <time>2020-08-09T12:12:42.713Z</time>
      </trkpt>
      <trkpt lat="64.24075" lon="10.40191">
        <ele>160.653257</ele>
        <time>2020-08-09T12:12:44.720Z</time>
      </trkpt>
      <trkpt lat="64.24089" lon="10.40183">
        <ele>160.411929</ele>
        <time>2020-08-09T12:12:46.728Z</time>
      </trkpt>
      <trkpt lat="64.24102" lon="10.40174">
        <ele>160.651762</ele>
        <time>2020-08-09T12:12:48.724Z</time>
      </trkpt>
      <trkpt lat="64.24113" lon="10.40167">
        <ele>160.857316</ele>
        <time>2020-08-09T12:12:50.710Z</time>
      </trkpt>
      <trkpt lat="64.24124" lon="10.40159">
        <ele>161.064231</ele>
        <time>2020-08-09T12:12:52.707Z</time>
      </trkpt>
      <trkpt lat="64.24134" lon="10.40152">
        <ele>161.266791</ele>
        <time>2020-08-09T12:12:54.748Z</time>
      </trkpt>
      <trkpt lat="64.24145" lon="10.40147">
        <ele>161.463101</ele>
        <time>2020-08-09T12:12:56.706Z</time>
      </trkpt>
      <trkpt lat="64.24154" lon="10.40141">
        <ele>161.630344</ele>
        <time>2020-08-09T12:12:58.706Z</time>
      </trkpt>
      <trkpt lat="64.24164" lon="10.40138">
        <ele>161.801676</ele>
        <time>2020-08-09T12:13:00.716Z</time>
      </trkpt>
      <trkpt lat="64.24173" lon="10.40136">
        <ele>161.976497</ele>
        <time>2020-08-09T12:13:02.720Z</time>
      </trkpt>
      <trkpt lat="64.24186" lon="10.40134">
        <ele>162.201185</ele>
        <time>2020-08-09T12:13:05.700Z</time>
      </trkpt>
      <trkpt lat="64.24197" lon="10.40135">
        <ele>162.394993</ele>
        <time>2020-08-09T12:13:08.715Z</time>
      </trkpt>
      <trkpt lat="64.24206" lon="10.40138">
        <ele>162.568865</ele>
        <time>2020-08-09T12:13:12.725Z</time>
      </trkpt>
      <trkpt lat="64.24217" lon="10.40141">
        <ele>162.758736</ele>
        <time>2020-08-09T12:13:17.716Z</time>
      </trkpt>
      <trkpt lat="64.24227" lon="10.40148">
        <ele>162.945114</ele>
        <time>2020-08-09T12:13:23.714Z</time>
      </trkpt>
      <trkpt lat="64.24236" lon="10.40155">
        <ele>163.124754</ele>
        <time>2020-08-09T12:13:30.721Z</time>
      </trkpt>
      <trkpt lat="64.24246" lon="10.40164">
        <ele>163.308895</ele>
        <time>2020-08-09T12:13:37.716Z</time>
      </trkpt>
      <trkpt lat="64.24254" lon="10.40175">
        <ele>163.479611</ele>
        <time>2020-08-09T12:13:45.705Z</time>
      </trkpt>
      <trkpt lat="64.24262" lon="10.40186">
        <ele>163.568728</ele>
        <time>2020-08-09T12:13:51.698Z</time>
      </trkpt>
      <trkpt lat="64.24271" lon="10.40201">
        <ele>163.487541</ele>
        <time>2020-08-09T12:13:58.696Z</time>
      </trkpt>
      <trkpt lat="64.24279" lon="10.40211">
        <ele>163.417244</ele>
        <time>2020-08-09T12:14:03.706Z</time>
      </trkpt>
      <trkpt lat="64.24287" lon="10.40221">
        <ele>163.349121</ele>
        <time>2020-08-09T12:14:08.720Z</time>
      </trkpt>
      <trkpt lat="64.24297" lon="10.40233">
        <ele>163.266371</ele>
        <time>2020-08-09T12:14:13.711Z</time>
      </trkpt>
      <trkpt lat="64.24309" lon="10.40244">
        <ele>163.169584</ele>
        <time>2020-08-09T12:14:17.715Z</time>
      </trkpt>
      <trkpt lat="64.2432" lon="10.40251">
        <ele>163.08323</ele>
        <time>2020-08-09T12:14:20.710Z</time>
      </trkpt>
      <trkpt lat="64.24333" lon="10.40257">
        <ele>162.985567</ele>
        <time>2020-08-09T12:14:23.727Z</time>
      </trkpt>
      <trkpt lat="64.24344" lon="10.4026">
        <ele>162.904614</ele>
        <time>2020-08-09T12:14:25.724Z</time>
      </trkpt>
      <trkpt lat="64.24356" lon="10.40262">
        <ele>162.814179</ele>
        <time>2020-08-09T12:14:27.736Z</time>
      </trkpt>
      <trkpt lat="64.24369" lon="10.40264">
        <ele>162.720033</ele>
        <time>2020-08-09T12:14:29.708Z</time>
      </trkpt>
      <trkpt lat="64.24382" lon="10.40267">
        <ele>162.618435</ele>
        <time>2020-08-09T12:14:31.704Z</time>
      </trkpt>
      <trkpt lat="64.24397" lon="10.40267">
        <ele>162.50595</ele>
        <time>2020-08-09T12:14:33.715Z</time>
      </trkpt>
      <trkpt lat="64.24412" lon="10.40267">
        <ele>162.397184</ele>
        <time>2020-08-09T12:14:35.711Z</time>
      </trkpt>
      <trkpt lat="64.24427" lon="10.40267">
        <ele>162.287667</ele>
        <time>2020-08-09T12:14:37.700Z</time>
      </trkpt>
      <trkpt lat="64.24441" lon="10.40269">
        <ele>162.395039</ele>
        <time>2020-08-09T12:14:39.734Z</time>
      </trkpt>
      <trkpt lat="64.24455" lon="10.4027">
        <ele>162.582719</ele>
        <time>2020-08-09T12:14:41.718Z</time>
      </trkpt>
      <trkpt lat="64.24467" lon="10.40273">
        <ele>162.757298</ele>
        <time>2020-08-09T12:14:43.729Z</time>
      </trkpt>
      <trkpt lat="64.24479" lon="10.40275">
        <ele>162.928093</ele>
        <time>2020-08-09T12:14:46.720Z</time>
      </trkpt>
      <trkpt lat="64.24489" lon="10.40283">
        <ele>163.08509</ele>
        <time>2020-08-09T12:14:50.743Z</time>
      </trkpt>
      <trkpt lat="64.24499" lon="10.40289">
        <ele>163.230383</ele>
        <time>2020-08-09T12:14:56.723Z</time>
      </trkpt>
      <trkpt lat="64.24509" lon="10.40296">
        <ele>163.376361</ele>
        <time>2020-08-09T12:15:03.723Z</time>
      </trkpt>
      <trkpt lat="64.24518" lon="10.40302">
        <ele>163.516584</ele>
        <time>2020-08-09T12:15:10.704Z</time>
      </trkpt>
      <trkpt lat="64.24528" lon="10.40309">
        <ele>163.660694</ele>
        <time>2020-08-09T12:15:16.716Z</time>
      </trkpt>
      <trkpt lat="64.24537" lon="10.40316">
        <ele>163.792621</ele>
        <time>2020-08-09T12:15:22.724Z</time>
      </trkpt>
      <trkpt lat="64.24545" lon="10.40321">
        <ele>163.919149</ele>
        <time>2020-08-09T12:15:28.697Z</time>
      </trkpt>
      <trkpt lat="64.24555" lon="10.40326">
        <ele>164.051695</ele>
        <time>2020-08-09T12:15:34.711Z</time>
      </trkpt>
      <trkpt lat="64.24563" lon="10.40334">
        <ele>164.184167</ele>
        <time>2020-08-09T12:15:40.709Z</time>
      </trkpt>
      <trkpt lat="64.24573" lon="10.4034">
        <ele>164.327921</ele>
        <time>2020-08-09T12:15:47.721Z</time>
      </trkpt>
      <trkpt lat="64.24583" lon="10.40346">
        <ele>164.470992</ele>
        <time>2020-08-09T12:15:53.699Z</time>
      </trkpt>
      <trkpt lat="64.24594" lon="10.40352">
        <ele>164.638361</ele>
        <time>2020-08-09T12:16:00.725Z</time>
      </trkpt>
      <trkpt lat="64.24604" lon="10.40361">
        <ele>164.791198</ele>
        <time>2020-08-09T12:16:04.746Z</time>
      </trkpt>
      <trkpt lat="64.24615" lon="10.40367">
        <ele>164.807113</ele>
        <time>2020-08-09T12:16:08.727Z</time>
      </trkpt>
      <trkpt lat="64.24625" lon="10.4037">
        <ele>164.805903</ele>
        <time>2020-08-09T12:16:11.699Z</time>
      </trkpt>
      <trkpt lat="64.24638" lon="10.40374">
        <ele>164.804313</ele>
        <time>2020-08-09T12:16:14.729Z</time>
      </trkpt>
      <trkpt lat="64.24647" lon="10.40376">
        <ele>164.803111</ele>
        <time>2020-08-09T12:16:16.707Z</time>
      </trkpt>
      <trkpt lat="64.24659" lon="10.40378">
        <ele>164.801665</ele>
        <time>2020-08-09T12:16:18.731Z</time>
      </trkpt>
      <trkpt lat="64.24672" lon="10.4038">
        <ele>164.799983</ele>
        <time>2020-08-09T12:16:20.721Z</time>
      </trkpt>
      <trkpt lat="64.24688" lon="10.40381">
        <ele>164.79808</ele>
        <time>2020-08-09T12:16:22.724Z</time>
      </trkpt>
      <trkpt lat="64.24704" lon="10.40384">
        <ele>164.796111</ele>
        <time>2020-08-09T12:16:24.722Z</time>
      </trkpt>
      <trkpt lat="64.24718" lon="10.40386">
        <ele>164.794291</ele>
        <time>2020-08-09T12:16:26.710Z</time>
      </trkpt>
      <trkpt lat="64.2473" lon="10.40387">
        <ele>164.792773</ele>
        <time>2020-08-09T12:16:28.747Z</time>
      </trkpt>
      <trkpt lat="64.24741" lon="10.40388">
        <ele>164.791491</ele>
        <time>2020-08-09T12:16:30.735Z</time>
      </trkpt>
      <trkpt lat="64.24755" lon="10.4039">
        <ele>164.78976</ele>
        <time>2020-08-09T12:16:33.698Z</time>
      </trkpt>
      <trkpt lat="64.24767" lon="10.40392">
        <ele>164.788252</ele>
        <time>2020-08-09T12:16:35.697Z</time>
      </trkpt>
      <trkpt lat="64.2478" lon="10.40392">
        <ele>164.786623</ele>
        <time>2020-08-09T12:16:37.720Z</time>
      </trkpt>
      <trkpt lat="64.24795" lon="10.40392">
        <ele>164.323077</ele>
        <time>2020-08-09T12:16:39.710Z</time>
      </trkpt>
      <trkpt lat="64.24812" lon="10.40392">
        <ele>163.55969</ele>
        <time>2020-08-09T12:16:41.722Z</time>
      </trkpt>
      <trkpt lat="64.2483" lon="10.40393">
        <ele>162.782882</ele>
        <time>2020-08-09T12:16:43.721Z</time>
      </trkpt>
      <trkpt lat="64.24839" lon="10.40394">
        <ele>162.376377</ele>
        <time>2020-08-09T12:16:44.714Z</time>
      </trkpt>
      <trkpt lat="64.24856" lon="10.40395">
        <ele>161.612653</ele>
        <time>2020-08-09T12:16:46.717Z</time>
      </trkpt>
      <trkpt lat="64.24873" lon="10.40396">
        <ele>160.897721</ele>
        <time>2020-08-09T12:16:48.705Z</time>
      </trkpt>
      <trkpt lat="64.24887" lon="10.40397">
        <ele>160.248662</ele>
        <time>2020-08-09T12:16:50.706Z</time>
      </trkpt>
      <trkpt lat="64.24902" lon="10.40399">
        <ele>159.585432</ele>
        <time>2020-08-09T12:16:52.713Z</time>
      </trkpt>
      <trkpt lat="64.24917" lon="10.404">
        <ele>158.9587</ele>
        <time>2020-08-09T12:16:54.711Z</time>
      </trkpt>
      <trkpt lat="64.2493" lon="10.404">
        <ele>158.349655</ele>
        <time>2020-08-09T12:16:56.709Z</time>
      </trkpt>
      <trkpt lat="64.24944" lon="10.40401">
        <ele>157.749102</ele>
        <time>2020-08-09T12:16:58.700Z</time>
      </trkpt>
      <trkpt lat="64.24958" lon="10.40403">
        <ele>157.130911</ele>
        <time>2020-08-09T12:17:00.701Z</time>
      </trkpt>
      <trkpt lat="64.24972" lon="10.40404">
        <ele>156.484667</ele>
        <time>2020-08-09T12:17:02.699Z</time>
      </trkpt>
      <trkpt lat="64.24986" lon="10.40405">
        <ele>155.786362</ele>
        <time>2020-08-09T12:17:04.723Z</time>
      </trkpt>
      <trkpt lat="64.25" lon="10.40407">
        <ele>155.078245</ele>
        <time>2020-08-09T12:17:06.737Z</time>
      </trkpt>
      <trkpt lat="64.25015" lon="10.40411">
        <ele>154.35555</ele>
        <time>2020-08-09T12:17:08.708Z</time>
      </trkpt>
      <trkpt lat="64.25031" lon="10.40417">
        <ele>153.574535</ele>
        <time>2020-08-09T12:17:10.744Z</time>
      </trkpt>
      <trkpt lat="64.25046" lon="10.40423">
        <ele>152.805894</ele>
        <time>2020-08-09T12:17:12.713Z</time>
      </trkpt>
      <trkpt lat="64.25062" lon="10.40433">
        <ele>152.018591</ele>
        <time>2020-08-09T12:17:14.708Z</time>
      </trkpt>
      <trkpt lat="64.25077" lon="10.40445">
        <ele>151.204413</ele>
        <time>2020-08-09T12:17:16.712Z</time>
      </trkpt>
      <trkpt lat="64.25093" lon="10.40463">
        <ele>150.346855</ele>
        <time>2020-08-09T12:17:18.716Z</time>
      </trkpt>
      <trkpt lat="64.25107" lon="10.40482">
        <ele>149.526246</ele>
        <time>2020-08-09T12:17:20.698Z</time>
      </trkpt>
      <trkpt lat="64.25121" lon="10.40501">
        <ele>148.755454</ele>
        <time>2020-08-09T12:17:22.701Z</time>
      </trkpt>
      <trkpt lat="64.25134" lon="10.40522">
        <ele>147.954176</ele>
        <time>2020-08-09T12:17:24.721Z</time>
      </trkpt>
      <trkpt lat="64.25147" lon="10.40545">
        <ele>146.914422</ele>
        <time>2020-08-09T12:17:26.706Z</time>
      </trkpt>
      <trkpt lat="64.25159" lon="10.40571">
        <ele>145.802973</ele>
        <time>2020-08-09T12:17:28.728Z</time>
      </trkpt>
      <trkpt lat="64.25172" lon="10.40601">
        <ele>144.627596</ele>
        <time>2020-08-09T12:17:30.739Z</time>
      </trkpt>
      <trkpt lat="64.25179" lon="10.40618">
        <ele>144.007061</ele>
        <time>2020-08-09T12:17:31.704Z</time>
      </trkpt>
      <trkpt lat="64.25185" lon="10.40635">
        <ele>143.369612</ele>
        <time>2020-08-09T12:17:32.717Z</time>
      </trkpt>
      <trkpt lat="64.25191" lon="10.40654">
        <ele>142.725857</ele>
        <time>2020-08-09T12:17:33.723Z</time>
      </trkpt>
      <trkpt lat="64.25197" lon="10.40674">
        <ele>142.03724</ele>
        <time>2020-08-09T12:17:34.714Z</time>
      </trkpt>
      <trkpt lat="64.25203" lon="10.40696">
        <ele>141.314771</ele>
        <time>2020-08-09T12:17:35.723Z</time>
      </trkpt>
      <trkpt lat="64.25209" lon="10.40719">
        <ele>140.571412</ele>
        <time>2020-08-09T12:17:36.740Z</time>
      </trkpt>
      <trkpt lat="64.25214" lon="10.40742">
        <ele>139.854589</ele>
        <time>2020-08-09T12:17:37.720Z</time>
      </trkpt>
      <trkpt lat="64.25218" lon="10.40762">
        <ele>139.249458</ele>
        <time>2020-08-09T12:17:38.719Z</time>
      </trkpt>
      <trkpt lat="64.25222" lon="10.40782">
        <ele>138.628941</ele>
        <time>2020-08-09T12:17:39.716Z</time>
      </trkpt>
      <trkpt lat="64.25227" lon="10.4081">
        <ele>137.782862</ele>
        <time>2020-08-09T12:17:41.740Z</time>
      </trkpt>
      <trkpt lat="64.25231" lon="10.40828">
        <ele>137.202353</ele>
        <time>2020-08-09T12:17:42.706Z</time>
      </trkpt>
      <trkpt lat="64.25235" lon="10.40848">
        <ele>136.591775</ele>
        <time>2020-08-09T12:17:43.704Z</time>
      </trkpt>
      <trkpt lat="64.25239" lon="10.40867">
        <ele>135.997718</ele>
        <time>2020-08-09T12:17:44.721Z</time>
      </trkpt>
      <trkpt lat="64.25247" lon="10.409">
        <ele>134.945816</ele>
        <time>2020-08-09T12:17:46.738Z</time>
      </trkpt>
      <trkpt lat="64.25254" lon="10.40934">
        <ele>133.910104</ele>
        <time>2020-08-09T12:17:48.740Z</time>
      </trkpt>
      <trkpt lat="64.2526" lon="10.40962">
        <ele>133.021051</ele>
        <time>2020-08-09T12:17:50.721Z</time>
      </trkpt>
      <trkpt lat="64.25265" lon="10.40986">
        <ele>132.273324</ele>
        <time>2020-08-09T12:17:52.693Z</time>
      </trkpt>
      <trkpt lat="64.25274" lon="10.41004">
        <ele>131.522585</ele>
        <time>2020-08-09T12:17:55.722Z</time>
      </trkpt>
      <trkpt lat="64.25281" lon="10.4102">
        <ele>130.885544</ele>
        <time>2020-08-09T12:17:57.746Z</time>
      </trkpt>
      <trkpt lat="64.25291" lon="10.41093">
        <ele>128.762873</ele>
        <time>2020-08-09T12:19:37.738Z</time>
      </trkpt>
      <trkpt lat="64.25292" lon="10.41118">
        <ele>128.069954</ele>
        <time>2020-08-09T12:19:39.702Z</time>
      </trkpt>
      <trkpt lat="64.25294" lon="10.41152">
        <ele>127.104234</ele>
        <time>2020-08-09T12:19:41.715Z</time>
      </trkpt>
      <trkpt lat="64.25296" lon="10.41184">
        <ele>126.202674</ele>
        <time>2020-08-09T12:19:43.723Z</time>
      </trkpt>
      <trkpt lat="64.25298" lon="10.41214">
        <ele>125.355585</ele>
        <time>2020-08-09T12:19:45.718Z</time>
      </trkpt>
      <trkpt lat="64.25299" lon="10.41246">
        <ele>124.33577</ele>
        <time>2020-08-09T12:19:47.729Z</time>
      </trkpt>
      <trkpt lat="64.25301" lon="10.41282">
        <ele>123.05396</ele>
        <time>2020-08-09T12:19:49.712Z</time>
      </trkpt>
      <trkpt lat="64.25303" lon="10.41322">
        <ele>121.649497</ele>
        <time>2020-08-09T12:19:51.701Z</time>
      </trkpt>
      <trkpt lat="64.25303" lon="10.41343">
        <ele>120.912562</ele>
        <time>2020-08-09T12:19:52.729Z</time>
      </trkpt>
      <trkpt lat="64.25303" lon="10.41365">
        <ele>120.101382</ele>
        <time>2020-08-09T12:19:53.701Z</time>
      </trkpt>
      <trkpt lat="64.25303" lon="10.41389">
        <ele>119.272493</ele>
        <time>2020-08-09T12:19:54.708Z</time>
      </trkpt>
      <trkpt lat="64.25302" lon="10.41412">
        <ele>118.464732</ele>
        <time>2020-08-09T12:19:55.717Z</time>
      </trkpt>
      <trkpt lat="64.25302" lon="10.41435">
        <ele>117.6249</ele>
        <time>2020-08-09T12:19:56.706Z</time>
      </trkpt>
      <trkpt lat="64.25302" lon="10.41459">
        <ele>116.799432</ele>
        <time>2020-08-09T12:19:57.720Z</time>
      </trkpt>
      <trkpt lat="64.25302" lon="10.41482">
        <ele>115.98471</ele>
        <time>2020-08-09T12:19:58.712Z</time>
      </trkpt>
      <trkpt lat="64.25302" lon="10.41504">
        <ele>115.208949</ele>
        <time>2020-08-09T12:19:59.712Z</time>
      </trkpt>
      <trkpt lat="64.25302" lon="10.41524">
        <ele>114.475736</ele>
        <time>2020-08-09T12:20:00.716Z</time>
      </trkpt>
      <trkpt lat="64.25302" lon="10.41545">
        <ele>113.742478</ele>
        <time>2020-08-09T12:20:01.728Z</time>
      </trkpt>
      <trkpt lat="64.25302" lon="10.41567">
        <ele>112.977212</ele>
        <time>2020-08-09T12:20:02.701Z</time>
      </trkpt>
      <trkpt lat="64.25302" lon="10.41589">
        <ele>112.194367</ele>
        <time>2020-08-09T12:20:03.722Z</time>
      </trkpt>
      <trkpt lat="64.25301" lon="10.41611">
        <ele>111.400269</ele>
        <time>2020-08-09T12:20:04.711Z</time>
      </trkpt>
      <trkpt lat="64.25301" lon="10.41635">
        <ele>110.566879</ele>
        <time>2020-08-09T12:20:05.708Z</time>
      </trkpt>
      <trkpt lat="64.25301" lon="10.41659">
        <ele>109.611723</ele>
        <time>2020-08-09T12:20:06.701Z</time>
      </trkpt>
      <trkpt lat="64.253" lon="10.41683">
        <ele>108.645868</ele>
        <time>2020-08-09T12:20:07.707Z</time>
      </trkpt>
      <trkpt lat="64.25299" lon="10.41706">
        <ele>107.682288</ele>
        <time>2020-08-09T12:20:08.736Z</time>
      </trkpt>
      <trkpt lat="64.25296" lon="10.41731">
        <ele>106.65689</ele>
        <time>2020-08-09T12:20:09.706Z</time>
      </trkpt>
      <trkpt lat="64.25294" lon="10.41756">
        <ele>105.579452</ele>
        <time>2020-08-09T12:20:10.703Z</time>
      </trkpt>
      <trkpt lat="64.25292" lon="10.41781">
        <ele>104.529987</ele>
        <time>2020-08-09T12:20:11.702Z</time>
      </trkpt>
      <trkpt lat="64.25289" lon="10.41805">
        <ele>103.5225</ele>
        <time>2020-08-09T12:20:12.742Z</time>
      </trkpt>
      <trkpt lat="64.25287" lon="10.41829">
        <ele>102.511024</ele>
        <time>2020-08-09T12:20:13.702Z</time>
      </trkpt>
      <trkpt lat="64.25284" lon="10.41855">
        <ele>101.445257</ele>
        <time>2020-08-09T12:20:14.756Z</time>
      </trkpt>
      <trkpt lat="64.25282" lon="10.41879">
        <ele>100.435613</ele>
        <time>2020-08-09T12:20:15.734Z</time>
      </trkpt>
      <trkpt lat="64.2528" lon="10.41901">
        <ele>99.518142</ele>
        <time>2020-08-09T12:20:16.719Z</time>
      </trkpt>
      <trkpt lat="64.25277" lon="10.41923">
        <ele>98.559274</ele>
        <time>2020-08-09T12:20:17.732Z</time>
      </trkpt>
      <trkpt lat="64.25275" lon="10.41943">
        <ele>97.708956</ele>
        <time>2020-08-09T12:20:18.692Z</time>
      </trkpt>
      <trkpt lat="64.25272" lon="10.41965">
        <ele>96.813304</ele>
        <time>2020-08-09T12:20:19.720Z</time>
      </trkpt>
      <trkpt lat="64.2527" lon="10.41985">
        <ele>95.95378</ele>
        <time>2020-08-09T12:20:20.715Z</time>
      </trkpt>
      <trkpt lat="64.25268" lon="10.42006">
        <ele>95.096124</ele>
        <time>2020-08-09T12:20:21.735Z</time>
      </trkpt>
      <trkpt lat="64.25266" lon="10.42025">
        <ele>94.253713</ele>
        <time>2020-08-09T12:20:22.713Z</time>
      </trkpt>
      <trkpt lat="64.25264" lon="10.42046">
        <ele>93.382209</ele>
        <time>2020-08-09T12:20:23.705Z</time>
      </trkpt>
      <trkpt lat="64.25262" lon="10.42067">
        <ele>92.443347</ele>
        <time>2020-08-09T12:20:24.739Z</time>
      </trkpt>
      <trkpt lat="64.25261" lon="10.42108">
        <ele>90.664193</ele>
        <time>2020-08-09T12:20:26.723Z</time>
      </trkpt>
      <trkpt lat="64.2526" lon="10.4213">
        <ele>89.683496</ele>
        <time>2020-08-09T12:20:27.719Z</time>
      </trkpt>
      <trkpt lat="64.25259" lon="10.42152">
        <ele>88.709239</ele>
        <time>2020-08-09T12:20:28.722Z</time>
      </trkpt>
      <trkpt lat="64.25259" lon="10.42195">
        <ele>86.829372</ele>
        <time>2020-08-09T12:20:30.727Z</time>
      </trkpt>
      <trkpt lat="64.2526" lon="10.42217">
        <ele>85.860359</ele>
        <time>2020-08-09T12:20:31.724Z</time>
      </trkpt>
      <trkpt lat="64.2526" lon="10.42239">
        <ele>84.857724</ele>
        <time>2020-08-09T12:20:32.704Z</time>
      </trkpt>
      <trkpt lat="64.25261" lon="10.42262">
        <ele>83.868251</ele>
        <time>2020-08-09T12:20:33.716Z</time>
      </trkpt>
      <trkpt lat="64.25262" lon="10.42285">
        <ele>82.835301</ele>
        <time>2020-08-09T12:20:34.705Z</time>
      </trkpt>
      <trkpt lat="64.25264" lon="10.42307">
        <ele>81.847228</ele>
        <time>2020-08-09T12:20:35.744Z</time>
      </trkpt>
      <trkpt lat="64.25266" lon="10.4233">
        <ele>80.837474</ele>
        <time>2020-08-09T12:20:36.718Z</time>
      </trkpt>
      <trkpt lat="64.25268" lon="10.42352">
        <ele>79.851911</ele>
        <time>2020-08-09T12:20:37.738Z</time>
      </trkpt>
      <trkpt lat="64.2527" lon="10.42373">
        <ele>78.868561</ele>
        <time>2020-08-09T12:20:38.733Z</time>
      </trkpt>
      <trkpt lat="64.25272" lon="10.42395">
        <ele>77.892971</ele>
        <time>2020-08-09T12:20:39.708Z</time>
      </trkpt>
      <trkpt lat="64.25275" lon="10.42417">
        <ele>76.880831</ele>
        <time>2020-08-09T12:20:40.722Z</time>
      </trkpt>
      <trkpt lat="64.25278" lon="10.42438">
        <ele>75.892782</ele>
        <time>2020-08-09T12:20:41.703Z</time>
      </trkpt>
      <trkpt lat="64.25282" lon="10.42458">
        <ele>74.940098</ele>
        <time>2020-08-09T12:20:42.721Z</time>
      </trkpt>
      <trkpt lat="64.25287" lon="10.42478">
        <ele>74.145792</ele>
        <time>2020-08-09T12:20:43.724Z</time>
      </trkpt>
      <trkpt lat="64.25293" lon="10.42498">
        <ele>73.274277</ele>
        <time>2020-08-09T12:20:44.750Z</time>
      </trkpt>
      <trkpt lat="64.253" lon="10.42516">
        <ele>72.391795</ele>
        <time>2020-08-09T12:20:45.704Z</time>
      </trkpt>
      <trkpt lat="64.25307" lon="10.42532">
        <ele>71.574497</ele>
        <time>2020-08-09T12:20:46.719Z</time>
      </trkpt>
      <trkpt lat="64.25315" lon="10.42545">
        <ele>70.766218</ele>
        <time>2020-08-09T12:20:47.738Z</time>
      </trkpt>
      <trkpt lat="64.25324" lon="10.42556">
        <ele>69.957605</ele>
        <time>2020-08-09T12:20:48.694Z</time>
      </trkpt>
      <trkpt lat="64.25334" lon="10.42567">
        <ele>69.029389</ele>
        <time>2020-08-09T12:20:49.710Z</time>
      </trkpt>
      <trkpt lat="64.25345" lon="10.42576">
        <ele>68.046816</ele>
        <time>2020-08-09T12:20:50.708Z</time>
      </trkpt>
      <trkpt lat="64.25356" lon="10.42584">
        <ele>67.126663</ele>
        <time>2020-08-09T12:20:51.695Z</time>
      </trkpt>
      <trkpt lat="64.25367" lon="10.4259">
        <ele>66.198155</ele>
        <time>2020-08-09T12:20:52.696Z</time>
      </trkpt>
      <trkpt lat="64.25378" lon="10.42597">
        <ele>65.26693</ele>
        <time>2020-08-09T12:20:53.736Z</time>
      </trkpt>
      <trkpt lat="64.25389" lon="10.42604">
        <ele>64.309932</ele>
        <time>2020-08-09T12:20:54.738Z</time>
      </trkpt>
      <trkpt lat="64.25399" lon="10.42609">
        <ele>63.495063</ele>
        <time>2020-08-09T12:20:55.724Z</time>
      </trkpt>
      <trkpt lat="64.25408" lon="10.42614">
        <ele>62.715621</ele>
        <time>2020-08-09T12:20:56.712Z</time>
      </trkpt>
      <trkpt lat="64.2542" lon="10.42622">
        <ele>61.685416</ele>
        <time>2020-08-09T12:20:57.778Z</time>
      </trkpt>
      <trkpt lat="64.2543" lon="10.42628">
        <ele>60.779967</ele>
        <time>2020-08-09T12:20:58.717Z</time>
      </trkpt>
      <trkpt lat="64.25441" lon="10.42635">
        <ele>60.009887</ele>
        <time>2020-08-09T12:20:59.710Z</time>
      </trkpt>
      <trkpt lat="64.25451" lon="10.42642">
        <ele>59.492664</ele>
        <time>2020-08-09T12:21:00.727Z</time>
      </trkpt>
      <trkpt lat="64.25465" lon="10.42651">
        <ele>58.718752</ele>
        <time>2020-08-09T12:21:02.702Z</time>
      </trkpt>
      <trkpt lat="64.25481" lon="10.42661">
        <ele>57.899416</ele>
        <time>2020-08-09T12:21:04.726Z</time>
      </trkpt>
      <trkpt lat="64.2549" lon="10.42666">
        <ele>57.429361</ele>
        <time>2020-08-09T12:21:05.720Z</time>
      </trkpt>
      <trkpt lat="64.25498" lon="10.42672">
        <ele>56.967958</ele>
        <time>2020-08-09T12:21:06.718Z</time>
      </trkpt>
      <trkpt lat="64.25508" lon="10.42678">
        <ele>56.459364</ele>
        <time>2020-08-09T12:21:07.720Z</time>
      </trkpt>
      <trkpt lat="64.25524" lon="10.42689">
        <ele>55.611846</ele>
        <time>2020-08-09T12:21:09.710Z</time>
      </trkpt>
      <trkpt lat="64.25532" lon="10.42696">
        <ele>55.15216</ele>
        <time>2020-08-09T12:21:10.717Z</time>
      </trkpt>
      <trkpt lat="64.25549" lon="10.42705">
        <ele>54.297129</ele>
        <time>2020-08-09T12:21:12.701Z</time>
      </trkpt>
      <trkpt lat="64.25566" lon="10.4271">
        <ele>53.420821</ele>
        <time>2020-08-09T12:21:14.709Z</time>
      </trkpt>
      <trkpt lat="64.25582" lon="10.42713">
        <ele>52.58197</ele>
        <time>2020-08-09T12:21:16.716Z</time>
      </trkpt>
      <trkpt lat="64.25598" lon="10.42714">
        <ele>51.786073</ele>
        <time>2020-08-09T12:21:18.707Z</time>
      </trkpt>
      <trkpt lat="64.25611" lon="10.42711">
        <ele>51.124243</ele>
        <time>2020-08-09T12:21:20.703Z</time>
      </trkpt>
      <trkpt lat="64.25621" lon="10.42706">
        <ele>51.511031</ele>
        <time>2020-08-09T12:21:22.742Z</time>
      </trkpt>
      <trkpt lat="64.25631" lon="10.42701">
        <ele>52.032892</ele>
        <time>2020-08-09T12:21:24.707Z</time>
      </trkpt>
      <trkpt lat="64.25639" lon="10.42694">
        <ele>52.499125</ele>
        <time>2020-08-09T12:21:26.715Z</time>
      </trkpt>
      <trkpt lat="64.25652" lon="10.42685">
        <ele>53.166883</ele>
        <time>2020-08-09T12:21:29.728Z</time>
      </trkpt>
      <trkpt lat="64.25663" lon="10.42674">
        <ele>53.818201</ele>
        <time>2020-08-09T12:21:32.730Z</time>
      </trkpt>
      <trkpt lat="64.25673" lon="10.42662">
        <ele>54.408781</ele>
        <time>2020-08-09T12:21:35.723Z</time>
      </trkpt>
      <trkpt lat="64.25682" lon="10.42651">
        <ele>54.915595</ele>
        <time>2020-08-09T12:21:38.704Z</time>
      </trkpt>
      <trkpt lat="64.2569" lon="10.4264">
        <ele>55.419097</ele>
        <time>2020-08-09T12:21:41.716Z</time>
      </trkpt>
      <trkpt lat="64.257" lon="10.42626">
        <ele>56.003188</ele>
        <time>2020-08-09T12:21:45.746Z</time>
      </trkpt>
      <trkpt lat="64.25708" lon="10.42615">
        <ele>56.499091</ele>
        <time>2020-08-09T12:21:48.706Z</time>
      </trkpt>
      <trkpt lat="64.25719" lon="10.426">
        <ele>57.123503</ele>
        <time>2020-08-09T12:21:52.731Z</time>
      </trkpt>
      <trkpt lat="64.25728" lon="10.42587">
        <ele>57.686383</ele>
        <time>2020-08-09T12:21:55.720Z</time>
      </trkpt>
      <trkpt lat="64.25736" lon="10.42576">
        <ele>58.179137</ele>
        <time>2020-08-09T12:21:58.727Z</time>
      </trkpt>
      <trkpt lat="64.25745" lon="10.42564">
        <ele>58.728506</ele>
        <time>2020-08-09T12:22:01.716Z</time>
      </trkpt>
      <trkpt lat="64.25753" lon="10.42552">
        <ele>59.212086</ele>
        <time>2020-08-09T12:22:04.737Z</time>
      </trkpt>
      <trkpt lat="64.25762" lon="10.42542">
        <ele>59.722485</ele>
        <time>2020-08-09T12:22:07.723Z</time>
      </trkpt>
      <trkpt lat="64.2577" lon="10.42532">
        <ele>60.188181</ele>
        <time>2020-08-09T12:22:10.723Z</time>
      </trkpt>
      <trkpt lat="64.25778" lon="10.42522">
        <ele>60.533333</ele>
        <time>2020-08-09T12:22:13.714Z</time>
      </trkpt>
      <trkpt lat="64.25786" lon="10.4251">
        <ele>60.843855</ele>
        <time>2020-08-09T12:22:16.703Z</time>
      </trkpt>
      <trkpt lat="64.25796" lon="10.42496">
        <ele>61.206514</ele>
        <time>2020-08-09T12:22:20.719Z</time>
      </trkpt>
      <trkpt lat="64.25806" lon="10.42483">
        <ele>61.559685</ele>
        <time>2020-08-09T12:22:24.720Z</time>
      </trkpt>
      <trkpt lat="64.25816" lon="10.4247">
        <ele>61.902093</ele>
        <time>2020-08-09T12:22:28.707Z</time>
      </trkpt>
      <trkpt lat="64.25825" lon="10.42457">
        <ele>62.256651</ele>
        <time>2020-08-09T12:22:32.709Z</time>
      </trkpt>
      <trkpt lat="64.25835" lon="10.42444">
        <ele>62.612509</ele>
        <time>2020-08-09T12:22:36.751Z</time>
      </trkpt>
      <trkpt lat="64.25846" lon="10.42432">
        <ele>62.981433</ele>
        <time>2020-08-09T12:22:40.720Z</time>
      </trkpt>
      <trkpt lat="64.25856" lon="10.42419">
        <ele>63.335269</ele>
        <time>2020-08-09T12:22:44.716Z</time>
      </trkpt>
      <trkpt lat="64.25865" lon="10.42407">
        <ele>63.664491</ele>
        <time>2020-08-09T12:22:48.728Z</time>
      </trkpt>
      <trkpt lat="64.25875" lon="10.42394">
        <ele>64.013031</ele>
        <time>2020-08-09T12:22:52.737Z</time>
      </trkpt>
      <trkpt lat="64.25884" lon="10.42382">
        <ele>64.344001</ele>
        <time>2020-08-09T12:22:56.715Z</time>
      </trkpt>
      <trkpt lat="64.25894" lon="10.42368">
        <ele>64.696595</ele>
        <time>2020-08-09T12:23:00.715Z</time>
      </trkpt>
      <trkpt lat="64.25903" lon="10.42355">
        <ele>65.037031</ele>
        <time>2020-08-09T12:23:04.738Z</time>
      </trkpt>
      <trkpt lat="64.25913" lon="10.42341">
        <ele>65.395093</ele>
        <time>2020-08-09T12:23:08.722Z</time>
      </trkpt>
      <trkpt lat="64.25923" lon="10.42326">
        <ele>65.770849</ele>
        <time>2020-08-09T12:23:12.701Z</time>
      </trkpt>
      <trkpt lat="64.25933" lon="10.42311">
        <ele>65.880983</ele>
        <time>2020-08-09T12:23:16.724Z</time>
      </trkpt>
      <trkpt lat="64.25942" lon="10.42297">
        <ele>65.784319</ele>
        <time>2020-08-09T12:23:20.693Z</time>
      </trkpt>
      <trkpt lat="64.25951" lon="10.42281">
        <ele>65.689842</ele>
        <time>2020-08-09T12:23:24.720Z</time>
      </trkpt>
      <trkpt lat="64.25961" lon="10.42265">
        <ele>65.588154</ele>
        <time>2020-08-09T12:23:28.754Z</time>
      </trkpt>
      <trkpt lat="64.2597" lon="10.42249">
        <ele>65.489173</ele>
        <time>2020-08-09T12:23:32.716Z</time>
      </trkpt>
      <trkpt lat="64.25979" lon="10.42233">
        <ele>65.391759</ele>
        <time>2020-08-09T12:23:36.722Z</time>
      </trkpt>
      <trkpt lat="64.25987" lon="10.42219">
        <ele>65.308525</ele>
        <time>2020-08-09T12:23:39.743Z</time>
      </trkpt>
      <trkpt lat="64.25995" lon="10.42205">
        <ele>65.223269</ele>
        <time>2020-08-09T12:23:42.758Z</time>
      </trkpt>
      <trkpt lat="64.26002" lon="10.42191">
        <ele>65.141795</ele>
        <time>2020-08-09T12:23:45.720Z</time>
      </trkpt>
      <trkpt lat="64.2601" lon="10.42177">
        <ele>65.058768</ele>
        <time>2020-08-09T12:23:48.708Z</time>
      </trkpt>
      <trkpt lat="64.26017" lon="10.42162">
        <ele>64.97627</ele>
        <time>2020-08-09T12:23:51.711Z</time>
      </trkpt>
      <trkpt lat="64.26025" lon="10.4215">
        <ele>64.892699</ele>
        <time>2020-08-09T12:23:54.743Z</time>
      </trkpt>
      <trkpt lat="64.26034" lon="10.42138">
        <ele>64.802723</ele>
        <time>2020-08-09T12:23:57.706Z</time>
      </trkpt>
      <trkpt lat="64.26045" lon="10.42129">
        <ele>64.707814</ele>
        <time>2020-08-09T12:24:00.711Z</time>
      </trkpt>
      <trkpt lat="64.26054" lon="10.42124">
        <ele>64.626655</ele>
        <time>2020-08-09T12:24:03.723Z</time>
      </trkpt>
      <trkpt lat="64.26065" lon="10.42123">
        <ele>64.536475</ele>
        <time>2020-08-09T12:24:05.720Z</time>
      </trkpt>
      <trkpt lat="64.26077" lon="10.42124">
        <ele>64.435237</ele>
        <time>2020-08-09T12:24:07.712Z</time>
      </trkpt>
      <trkpt lat="64.26087" lon="10.42128">
        <ele>64.156329</ele>
        <time>2020-08-09T12:24:09.708Z</time>
      </trkpt>
      <trkpt lat="64.26097" lon="10.42134">
        <ele>63.747017</ele>
        <time>2020-08-09T12:24:11.710Z</time>
      </trkpt>
      <trkpt lat="64.26107" lon="10.42144">
        <ele>63.295681</ele>
        <time>2020-08-09T12:24:13.722Z</time>
      </trkpt>
      <trkpt lat="64.26118" lon="10.42157">
        <ele>62.820824</ele>
        <time>2020-08-09T12:24:15.723Z</time>
      </trkpt>
      <trkpt lat="64.26128" lon="10.42174">
        <ele>62.331909</ele>
        <time>2020-08-09T12:24:17.716Z</time>
      </trkpt>
      <trkpt lat="64.26139" lon="10.42193">
        <ele>61.797845</ele>
        <time>2020-08-09T12:24:19.710Z</time>
      </trkpt>
      <trkpt lat="64.26151" lon="10.42213">
        <ele>61.245288</ele>
        <time>2020-08-09T12:24:21.717Z</time>
      </trkpt>
      <trkpt lat="64.26161" lon="10.42232">
        <ele>60.716436</ele>
        <time>2020-08-09T12:24:23.715Z</time>
      </trkpt>
      <trkpt lat="64.26172" lon="10.4225">
        <ele>60.181035</ele>
        <time>2020-08-09T12:24:25.739Z</time>
      </trkpt>
      <trkpt lat="64.26185" lon="10.42266">
        <ele>59.611395</ele>
        <time>2020-08-09T12:24:27.733Z</time>
      </trkpt>
      <trkpt lat="64.26198" lon="10.42279">
        <ele>59.085864</ele>
        <time>2020-08-09T12:24:29.701Z</time>
      </trkpt>
      <trkpt lat="64.26211" lon="10.42286">
        <ele>58.549025</ele>
        <time>2020-08-09T12:24:31.709Z</time>
      </trkpt>
      <trkpt lat="64.26225" lon="10.42292">
        <ele>57.982936</ele>
        <time>2020-08-09T12:24:33.717Z</time>
      </trkpt>
      <trkpt lat="64.26239" lon="10.42296">
        <ele>57.440677</ele>
        <time>2020-08-09T12:24:35.715Z</time>
      </trkpt>
      <trkpt lat="64.26253" lon="10.42299">
        <ele>57.040347</ele>
        <time>2020-08-09T12:24:37.712Z</time>
      </trkpt>
      <trkpt lat="64.26269" lon="10.42302">
        <ele>56.621773</ele>
        <time>2020-08-09T12:24:39.742Z</time>
      </trkpt>
      <trkpt lat="64.26284" lon="10.42305">
        <ele>56.201689</ele>
        <time>2020-08-09T12:24:41.718Z</time>
      </trkpt>
      <trkpt lat="64.263" lon="10.42307">
        <ele>55.784455</ele>
        <time>2020-08-09T12:24:43.715Z</time>
      </trkpt>
      <trkpt lat="64.26315" lon="10.42307">
        <ele>55.381527</ele>
        <time>2020-08-09T12:24:45.706Z</time>
      </trkpt>
      <trkpt lat="64.2633" lon="10.42304">
        <ele>54.971372</ele>
        <time>2020-08-09T12:24:47.699Z</time>
      </trkpt>
      <trkpt lat="64.26344" lon="10.42296">
        <ele>54.572876</ele>
        <time>2020-08-09T12:24:49.720Z</time>
      </trkpt>
      <trkpt lat="64.26357" lon="10.42283">
        <ele>54.198939</ele>
        <time>2020-08-09T12:24:51.712Z</time>
      </trkpt>
      <trkpt lat="64.26368" lon="10.42267">
        <ele>53.844384</ele>
        <time>2020-08-09T12:24:53.709Z</time>
      </trkpt>
      <trkpt lat="64.26377" lon="10.42249">
        <ele>53.517945</ele>
        <time>2020-08-09T12:24:55.705Z</time>
      </trkpt>
      <trkpt lat="64.26385" lon="10.42231">
        <ele>53.207533</ele>
        <time>2020-08-09T12:24:57.716Z</time>
      </trkpt>
      <trkpt lat="64.26392" lon="10.42211">
        <ele>52.90692</ele>
        <time>2020-08-09T12:24:59.721Z</time>
      </trkpt>
      <trkpt lat="64.26398" lon="10.42192">
        <ele>52.629386</ele>
        <time>2020-08-09T12:25:01.716Z</time>
      </trkpt>
      <trkpt lat="64.26403" lon="10.42172">
        <ele>52.650648</ele>
        <time>2020-08-09T12:25:03.700Z</time>
      </trkpt>
      <trkpt lat="64.26409" lon="10.42151">
        <ele>52.869517</ele>
        <time>2020-08-09T12:25:05.702Z</time>
      </trkpt>
      <trkpt lat="64.26414" lon="10.4213">
        <ele>53.082079</ele>
        <time>2020-08-09T12:25:07.749Z</time>
      </trkpt>
      <trkpt lat="64.26419" lon="10.42111">
        <ele>53.279352</ele>
        <time>2020-08-09T12:25:09.723Z</time>
      </trkpt>
      <trkpt lat="64.26425" lon="10.42088">
        <ele>53.507085</ele>
        <time>2020-08-09T12:25:12.722Z</time>
      </trkpt>
      <trkpt lat="64.2643" lon="10.42067">
        <ele>53.723015</ele>
        <time>2020-08-09T12:25:15.706Z</time>
      </trkpt>
      <trkpt lat="64.26435" lon="10.42042">
        <ele>53.962715</ele>
        <time>2020-08-09T12:25:18.724Z</time>
      </trkpt>
      <trkpt lat="64.26439" lon="10.42017">
        <ele>54.198026</ele>
        <time>2020-08-09T12:25:21.713Z</time>
      </trkpt>
      <trkpt lat="64.26442" lon="10.41993">
        <ele>54.416462</ele>
        <time>2020-08-09T12:25:24.719Z</time>
      </trkpt>
      <trkpt lat="64.26443" lon="10.41968">
        <ele>54.634709</ele>
        <time>2020-08-09T12:25:27.704Z</time>
      </trkpt>
      <trkpt lat="64.26444" lon="10.41945">
        <ele>54.837223</ele>
        <time>2020-08-09T12:25:30.757Z</time>
      </trkpt>
      <trkpt lat="64.26443" lon="10.41924">
        <ele>55.025145</ele>
        <time>2020-08-09T12:25:33.717Z</time>
      </trkpt>
      <trkpt lat="64.26442" lon="10.41897">
        <ele>55.259513</ele>
        <time>2020-08-09T12:25:37.733Z</time>
      </trkpt>
      <trkpt lat="64.26441" lon="10.41877">
        <ele>55.441497</ele>
        <time>2020-08-09T12:25:40.744Z</time>
      </trkpt>
      <trkpt lat="64.2644" lon="10.41856">
        <ele>55.623481</ele>
        <time>2020-08-09T12:25:43.720Z</time>
      </trkpt>
      <trkpt lat="64.26439" lon="10.4183">
        <ele>55.852894</ele>
        <time>2020-08-09T12:25:47.707Z</time>
      </trkpt>
      <trkpt lat="64.26438" lon="10.41805">
        <ele>56.080249</ele>
        <time>2020-08-09T12:25:51.711Z</time>
      </trkpt>
      <trkpt lat="64.26438" lon="10.41778">
        <ele>56.191801</ele>
        <time>2020-08-09T12:25:55.705Z</time>
      </trkpt>
      <trkpt lat="64.26437" lon="10.41757">
        <ele>56.221476</ele>
        <time>2020-08-09T12:25:58.705Z</time>
      </trkpt>
      <trkpt lat="64.26438" lon="10.41731">
        <ele>56.258637</ele>
        <time>2020-08-09T12:26:02.716Z</time>
      </trkpt>
      <trkpt lat="64.26438" lon="10.41707">
        <ele>56.292669</ele>
        <time>2020-08-09T12:26:06.723Z</time>
      </trkpt>
      <trkpt lat="64.2644" lon="10.41681">
        <ele>56.330056</ele>
        <time>2020-08-09T12:26:10.748Z</time>
      </trkpt>
      <trkpt lat="64.26442" lon="10.41661">
        <ele>56.359117</ele>
        <time>2020-08-09T12:26:13.736Z</time>
      </trkpt>
      <trkpt lat="64.26445" lon="10.41636">
        <ele>56.395219</ele>
        <time>2020-08-09T12:26:17.700Z</time>
      </trkpt>
      <trkpt lat="64.26447" lon="10.41611">
        <ele>56.430715</ele>
        <time>2020-08-09T12:26:21.704Z</time>
      </trkpt>
      <trkpt lat="64.26451" lon="10.41587">
        <ele>56.467808</ele>
        <time>2020-08-09T12:26:25.699Z</time>
      </trkpt>
      <trkpt lat="64.26454" lon="10.41564">
        <ele>56.502459</ele>
        <time>2020-08-09T12:26:28.744Z</time>
      </trkpt>
      <trkpt lat="64.26459" lon="10.41543">
        <ele>56.535148</ele>
        <time>2020-08-09T12:26:31.715Z</time>
      </trkpt>
      <trkpt lat="64.26464" lon="10.41524">
        <ele>56.567356</ele>
        <time>2020-08-09T12:26:34.703Z</time>
      </trkpt>
      <trkpt lat="64.2647" lon="10.41508">
        <ele>56.597544</ele>
        <time>2020-08-09T12:26:37.729Z</time>
      </trkpt>
      <trkpt lat="64.26478" lon="10.41491">
        <ele>56.632053</ele>
        <time>2020-08-09T12:26:40.711Z</time>
      </trkpt>
      <trkpt lat="64.26487" lon="10.4147">
        <ele>56.673839</ele>
        <time>2020-08-09T12:26:43.710Z</time>
      </trkpt>
      <trkpt lat="64.26494" lon="10.41456">
        <ele>56.70338</ele>
        <time>2020-08-09T12:26:45.725Z</time>
      </trkpt>
      <trkpt lat="64.26503" lon="10.41435">
        <ele>56.746284</ele>
        <time>2020-08-09T12:26:48.728Z</time>
      </trkpt>
      <trkpt lat="64.2651" lon="10.41417">
        <ele>56.884575</ele>
        <time>2020-08-09T12:26:50.722Z</time>
      </trkpt>
      <trkpt lat="64.26516" lon="10.41397">
        <ele>57.048361</ele>
        <time>2020-08-09T12:26:52.720Z</time>
      </trkpt>
      <trkpt lat="64.2652" lon="10.41376">
        <ele>57.207891</ele>
        <time>2020-08-09T12:26:54.712Z</time>
      </trkpt>
      <trkpt lat="64.26525" lon="10.41348">
        <ele>57.419666</ele>
        <time>2020-08-09T12:26:57.715Z</time>
      </trkpt>
      <trkpt lat="64.26527" lon="10.41324">
        <ele>57.586123</ele>
        <time>2020-08-09T12:27:00.727Z</time>
      </trkpt>
      <trkpt lat="64.26528" lon="10.41297">
        <ele>57.776093</ele>
        <time>2020-08-09T12:27:04.728Z</time>
      </trkpt>
      <trkpt lat="64.26529" lon="10.41271">
        <ele>57.962589</ele>
        <time>2020-08-09T12:27:08.710Z</time>
      </trkpt>
      <trkpt lat="64.2653" lon="10.4125">
        <ele>58.109998</ele>
        <time>2020-08-09T12:27:12.710Z</time>
      </trkpt>
      <trkpt lat="64.2653" lon="10.41228">
        <ele>58.263532</ele>
        <time>2020-08-09T12:27:17.728Z</time>
      </trkpt>
      <trkpt lat="64.26531" lon="10.41206">
        <ele>58.418686</ele>
        <time>2020-08-09T12:27:22.741Z</time>
      </trkpt>
      <trkpt lat="64.26531" lon="10.41182">
        <ele>58.584171</ele>
        <time>2020-08-09T12:27:27.723Z</time>
      </trkpt>
      <trkpt lat="64.26533" lon="10.41156">
        <ele>58.764925</ele>
        <time>2020-08-09T12:27:33.696Z</time>
      </trkpt>
      <trkpt lat="64.26536" lon="10.41132">
        <ele>58.938374</ele>
        <time>2020-08-09T12:27:38.713Z</time>
      </trkpt>
      <trkpt lat="64.2654" lon="10.4111">
        <ele>59.106224</ele>
        <time>2020-08-09T12:27:43.789Z</time>
      </trkpt>
      <trkpt lat="64.26544" lon="10.41091">
        <ele>59.252437</ele>
        <time>2020-08-09T12:27:48.706Z</time>
      </trkpt>
      <trkpt lat="64.26549" lon="10.41072">
        <ele>59.41473</ele>
        <time>2020-08-09T12:27:54.727Z</time>
      </trkpt>
      <trkpt lat="64.26556" lon="10.41053">
        <ele>59.585564</ele>
        <time>2020-08-09T12:28:00.743Z</time>
      </trkpt>
      <trkpt lat="64.26562" lon="10.41036">
        <ele>59.764152</ele>
        <time>2020-08-09T12:28:06.700Z</time>
      </trkpt>
      <trkpt lat="64.2657" lon="10.41022">
        <ele>59.972304</ele>
        <time>2020-08-09T12:28:12.724Z</time>
      </trkpt>
      <trkpt lat="64.26578" lon="10.41012">
        <ele>60.161047</ele>
        <time>2020-08-09T12:28:16.711Z</time>
      </trkpt>
      <trkpt lat="64.26585" lon="10.41">
        <ele>60.356748</ele>
        <time>2020-08-09T12:28:20.709Z</time>
      </trkpt>
      <trkpt lat="64.26595" lon="10.40989">
        <ele>60.587457</ele>
        <time>2020-08-09T12:28:25.707Z</time>
      </trkpt>
      <trkpt lat="64.26604" lon="10.40981">
        <ele>60.792632</ele>
        <time>2020-08-09T12:28:29.708Z</time>
      </trkpt>
      <trkpt lat="64.26614" lon="10.40972">
        <ele>61.01703</ele>
        <time>2020-08-09T12:28:33.709Z</time>
      </trkpt>
      <trkpt lat="64.26623" lon="10.40964">
        <ele>61.216307</ele>
        <time>2020-08-09T12:28:36.707Z</time>
      </trkpt>
      <trkpt lat="64.26632" lon="10.40956">
        <ele>61.40891</ele>
        <time>2020-08-09T12:28:39.714Z</time>
      </trkpt>
      <trkpt lat="64.2664" lon="10.40948">
        <ele>61.59709</ele>
        <time>2020-08-09T12:28:42.711Z</time>
      </trkpt>
      <trkpt lat="64.26649" lon="10.40939">
        <ele>61.798051</ele>
        <time>2020-08-09T12:28:45.709Z</time>
      </trkpt>
      <trkpt lat="64.26657" lon="10.40931">
        <ele>61.986928</ele>
        <time>2020-08-09T12:28:48.730Z</time>
      </trkpt>
      <trkpt lat="64.26667" lon="10.40921">
        <ele>62.207489</ele>
        <time>2020-08-09T12:28:51.735Z</time>
      </trkpt>
      <trkpt lat="64.26677" lon="10.40911">
        <ele>62.44092</ele>
        <time>2020-08-09T12:28:54.729Z</time>
      </trkpt>
      <trkpt lat="64.26687" lon="10.409">
        <ele>62.669374</ele>
        <time>2020-08-09T12:28:57.704Z</time>
      </trkpt>
      <trkpt lat="64.26696" lon="10.40891">
        <ele>62.883071</ele>
        <time>2020-08-09T12:29:00.709Z</time>
      </trkpt>
      <trkpt lat="64.26707" lon="10.40881">
        <ele>63.134625</ele>
        <time>2020-08-09T12:29:03.718Z</time>
      </trkpt>
      <trkpt lat="64.26719" lon="10.40868">
        <ele>63.405754</ele>
        <time>2020-08-09T12:29:06.703Z</time>
      </trkpt>
      <trkpt lat="64.26731" lon="10.40861">
        <ele>63.458929</ele>
        <time>2020-08-09T12:29:09.756Z</time>
      </trkpt>
      <trkpt lat="64.26744" lon="10.40854">
        <ele>63.501845</ele>
        <time>2020-08-09T12:29:12.701Z</time>
      </trkpt>
      <trkpt lat="64.26757" lon="10.40848">
        <ele>63.543877</ele>
        <time>2020-08-09T12:29:15.732Z</time>
      </trkpt>
      <trkpt lat="64.26766" lon="10.40844">
        <ele>63.573198</ele>
        <time>2020-08-09T12:29:17.715Z</time>
      </trkpt>
      <trkpt lat="64.26775" lon="10.4084">
        <ele>63.602706</ele>
        <time>2020-08-09T12:29:19.708Z</time>
      </trkpt>
      <trkpt lat="64.26785" lon="10.40836">
        <ele>63.635324</ele>
        <time>2020-08-09T12:29:21.724Z</time>
      </trkpt>
      <trkpt lat="64.26795" lon="10.40831">
        <ele>63.667657</ele>
        <time>2020-08-09T12:29:23.730Z</time>
      </trkpt>
      <trkpt lat="64.26805" lon="10.40827">
        <ele>63.700656</ele>
        <time>2020-08-09T12:29:25.704Z</time>
      </trkpt>
      <trkpt lat="64.26814" lon="10.40823">
        <ele>63.73029</ele>
        <time>2020-08-09T12:29:27.729Z</time>
      </trkpt>
      <trkpt lat="64.26825" lon="10.40819">
        <ele>63.76372</ele>
        <time>2020-08-09T12:29:29.707Z</time>
      </trkpt>
      <trkpt lat="64.26834" lon="10.40815">
        <ele>63.795867</ele>
        <time>2020-08-09T12:29:31.738Z</time>
      </trkpt>
      <trkpt lat="64.26844" lon="10.40812">
        <ele>63.825246</ele>
        <time>2020-08-09T12:29:33.703Z</time>
      </trkpt>
      <trkpt lat="64.26855" lon="10.40807">
        <ele>63.861242</ele>
        <time>2020-08-09T12:29:36.761Z</time>
      </trkpt>
      <trkpt lat="64.26865" lon="10.40802">
        <ele>63.893821</ele>
        <time>2020-08-09T12:29:39.719Z</time>
      </trkpt>
      <trkpt lat="64.26874" lon="10.40794">
        <ele>63.927004</ele>
        <time>2020-08-09T12:29:42.733Z</time>
      </trkpt>
      <trkpt lat="64.26885" lon="10.40789">
        <ele>63.963177</ele>
        <time>2020-08-09T12:29:46.744Z</time>
      </trkpt>
      <trkpt lat="64.26897" lon="10.40784">
        <ele>64.01241</ele>
        <time>2020-08-09T12:29:50.705Z</time>
      </trkpt>
      <trkpt lat="64.26906" lon="10.40781">
        <ele>64.156811</ele>
        <time>2020-08-09T12:29:54.739Z</time>
      </trkpt>
      <trkpt lat="64.26915" lon="10.4078">
        <ele>64.300245</ele>
        <time>2020-08-09T12:29:58.728Z</time>
      </trkpt>
      <trkpt lat="64.26926" lon="10.4078">
        <ele>64.471199</ele>
        <time>2020-08-09T12:30:03.706Z</time>
      </trkpt>
      <trkpt lat="64.26936" lon="10.40781">
        <ele>64.625148</ele>
        <time>2020-08-09T12:30:08.715Z</time>
      </trkpt>
      <trkpt lat="64.26946" lon="10.40782">
        <ele>64.782354</ele>
        <time>2020-08-09T12:30:13.719Z</time>
      </trkpt>
      <trkpt lat="64.26956" lon="10.40788">
        <ele>64.938267</ele>
        <time>2020-08-09T12:30:18.717Z</time>
      </trkpt>
      <trkpt lat="64.26964" lon="10.40794">
        <ele>65.08033</ele>
        <time>2020-08-09T12:30:22.718Z</time>
      </trkpt>
      <trkpt lat="64.26973" lon="10.408">
        <ele>65.221465</ele>
        <time>2020-08-09T12:30:26.704Z</time>
      </trkpt>
      <trkpt lat="64.26983" lon="10.4081">
        <ele>65.394233</ele>
        <time>2020-08-09T12:30:31.731Z</time>
      </trkpt>
      <trkpt lat="64.26991" lon="10.40821">
        <ele>65.535977</ele>
        <time>2020-08-09T12:30:35.713Z</time>
      </trkpt>
      <trkpt lat="64.26999" lon="10.40831">
        <ele>65.677385</ele>
        <time>2020-08-09T12:30:39.719Z</time>
      </trkpt>
      <trkpt lat="64.27008" lon="10.40845">
        <ele>65.840655</ele>
        <time>2020-08-09T12:30:43.719Z</time>
      </trkpt>
      <trkpt lat="64.27015" lon="10.40858">
        <ele>65.982028</ele>
        <time>2020-08-09T12:30:46.707Z</time>
      </trkpt>
      <trkpt lat="64.27021" lon="10.40875">
        <ele>66.133962</ele>
        <time>2020-08-09T12:30:49.723Z</time>
      </trkpt>
      <trkpt lat="64.27029" lon="10.40893">
        <ele>66.299589</ele>
        <time>2020-08-09T12:30:52.707Z</time>
      </trkpt>
      <trkpt lat="64.27035" lon="10.40914">
        <ele>66.47851</ele>
        <time>2020-08-09T12:30:55.718Z</time>
      </trkpt>
      <trkpt lat="64.27042" lon="10.40938">
        <ele>66.672718</ele>
        <time>2020-08-09T12:30:58.728Z</time>
      </trkpt>
      <trkpt lat="64.27048" lon="10.40962">
        <ele>66.559809</ele>
        <time>2020-08-09T12:31:01.716Z</time>
      </trkpt>
      <trkpt lat="64.27054" lon="10.40988">
        <ele>65.862639</ele>
        <time>2020-08-09T12:31:04.737Z</time>
      </trkpt>
      <trkpt lat="64.27059" lon="10.41008">
        <ele>65.326915</ele>
        <time>2020-08-09T12:31:06.712Z</time>
      </trkpt>
      <trkpt lat="64.27065" lon="10.4103">
        <ele>64.725725</ele>
        <time>2020-08-09T12:31:08.704Z</time>
      </trkpt>
      <trkpt lat="64.2707" lon="10.41053">
        <ele>64.109559</ele>
        <time>2020-08-09T12:31:10.703Z</time>
      </trkpt>
      <trkpt lat="64.27077" lon="10.41079">
        <ele>63.419638</ele>
        <time>2020-08-09T12:31:12.718Z</time>
      </trkpt>
      <trkpt lat="64.27083" lon="10.41107">
        <ele>62.66253</ele>
        <time>2020-08-09T12:31:14.708Z</time>
      </trkpt>
      <trkpt lat="64.2709" lon="10.41138">
        <ele>61.854444</ele>
        <time>2020-08-09T12:31:16.725Z</time>
      </trkpt>
      <trkpt lat="64.27097" lon="10.41171">
        <ele>60.984549</ele>
        <time>2020-08-09T12:31:18.705Z</time>
      </trkpt>
      <trkpt lat="64.27102" lon="10.41189">
        <ele>60.497145</ele>
        <time>2020-08-09T12:31:19.730Z</time>
      </trkpt>
      <trkpt lat="64.27106" lon="10.41207">
        <ele>60.000586</ele>
        <time>2020-08-09T12:31:20.745Z</time>
      </trkpt>
      <trkpt lat="64.27111" lon="10.41225">
        <ele>59.495189</ele>
        <time>2020-08-09T12:31:21.724Z</time>
      </trkpt>
      <trkpt lat="64.27117" lon="10.41245">
        <ele>58.953349</ele>
        <time>2020-08-09T12:31:22.712Z</time>
      </trkpt>
      <trkpt lat="64.27122" lon="10.41265">
        <ele>58.396694</ele>
        <time>2020-08-09T12:31:23.725Z</time>
      </trkpt>
      <trkpt lat="64.27128" lon="10.41285">
        <ele>57.82835</ele>
        <time>2020-08-09T12:31:24.706Z</time>
      </trkpt>
      <trkpt lat="64.27134" lon="10.41306">
        <ele>57.252088</ele>
        <time>2020-08-09T12:31:25.720Z</time>
      </trkpt>
      <trkpt lat="64.2714" lon="10.41326">
        <ele>56.929621</ele>
        <time>2020-08-09T12:31:26.721Z</time>
      </trkpt>
      <trkpt lat="64.27147" lon="10.41347">
        <ele>56.719753</ele>
        <time>2020-08-09T12:31:27.725Z</time>
      </trkpt>
      <trkpt lat="64.27154" lon="10.41368">
        <ele>56.514157</ele>
        <time>2020-08-09T12:31:28.723Z</time>
      </trkpt>
      <trkpt lat="64.27161" lon="10.41389">
        <ele>56.304444</ele>
        <time>2020-08-09T12:31:29.720Z</time>
      </trkpt>
      <trkpt lat="64.27168" lon="10.41406">
        <ele>56.118388</ele>
        <time>2020-08-09T12:31:30.700Z</time>
      </trkpt>
      <trkpt lat="64.27175" lon="10.41425">
        <ele>55.910143</ele>
        <time>2020-08-09T12:31:31.710Z</time>
      </trkpt>
      <trkpt lat="64.27183" lon="10.41445">
        <ele>55.700173</ele>
        <time>2020-08-09T12:31:32.721Z</time>
      </trkpt>
      <trkpt lat="64.2719" lon="10.41464">
        <ele>55.503376</ele>
        <time>2020-08-09T12:31:33.720Z</time>
      </trkpt>
      <trkpt lat="64.27196" lon="10.41482">
        <ele>55.322763</ele>
        <time>2020-08-09T12:31:34.716Z</time>
      </trkpt>
      <trkpt lat="64.27203" lon="10.41499">
        <ele>55.142794</ele>
        <time>2020-08-09T12:31:35.718Z</time>
      </trkpt>
      <trkpt lat="64.27214" lon="10.41528">
        <ele>54.830753</ele>
        <time>2020-08-09T12:31:37.716Z</time>
      </trkpt>
      <trkpt lat="64.27224" lon="10.41554">
        <ele>54.554701</ele>
        <time>2020-08-09T12:31:39.717Z</time>
      </trkpt>
      <trkpt lat="64.27233" lon="10.41573">
        <ele>54.330216</ele>
        <time>2020-08-09T12:31:41.740Z</time>
      </trkpt>
      <trkpt lat="64.27242" lon="10.41592">
        <ele>54.101685</ele>
        <time>2020-08-09T12:31:43.703Z</time>
      </trkpt>
      <trkpt lat="64.2725" lon="10.41606">
        <ele>53.926516</ele>
        <time>2020-08-09T12:31:45.728Z</time>
      </trkpt>
      <trkpt lat="64.2726" lon="10.4162">
        <ele>53.785125</ele>
        <time>2020-08-09T12:31:48.705Z</time>
      </trkpt>
      <trkpt lat="64.27269" lon="10.4163">
        <ele>53.805765</ele>
        <time>2020-08-09T12:31:51.710Z</time>
      </trkpt>
      <trkpt lat="64.2728" lon="10.41635">
        <ele>53.828397</ele>
        <time>2020-08-09T12:31:54.719Z</time>
      </trkpt>
      <trkpt lat="64.27289" lon="10.41641">
        <ele>53.849739</ele>
        <time>2020-08-09T12:31:57.712Z</time>
      </trkpt>
      <trkpt lat="64.27298" lon="10.41645">
        <ele>53.868557</ele>
        <time>2020-08-09T12:32:00.719Z</time>
      </trkpt>
      <trkpt lat="64.2731" lon="10.41647">
        <ele>53.893181</ele>
        <time>2020-08-09T12:32:04.716Z</time>
      </trkpt>
      <trkpt lat="64.27321" lon="10.41646">
        <ele>53.917127</ele>
        <time>2020-08-09T12:32:08.724Z</time>
      </trkpt>
      <trkpt lat="64.27331" lon="10.41644">
        <ele>53.936603</ele>
        <time>2020-08-09T12:32:11.719Z</time>
      </trkpt>
      <trkpt lat="64.27342" lon="10.41639">
        <ele>53.961352</ele>
        <time>2020-08-09T12:32:15.706Z</time>
      </trkpt>
      <trkpt lat="64.27351" lon="10.41633">
        <ele>53.981053</ele>
        <time>2020-08-09T12:32:18.712Z</time>
      </trkpt>
      <trkpt lat="64.2736" lon="10.41625">
        <ele>54.001546</ele>
        <time>2020-08-09T12:32:21.736Z</time>
      </trkpt>
      <trkpt lat="64.2737" lon="10.41615">
        <ele>54.023825</ele>
        <time>2020-08-09T12:32:24.700Z</time>
      </trkpt>
      <trkpt lat="64.2738" lon="10.41603">
        <ele>54.04826</ele>
        <time>2020-08-09T12:32:27.716Z</time>
      </trkpt>
      <trkpt lat="64.27391" lon="10.41587">
        <ele>54.074625</ele>
        <time>2020-08-09T12:32:30.728Z</time>
      </trkpt>
      <trkpt lat="64.27401" lon="10.41568">
        <ele>54.102606</ele>
        <time>2020-08-09T12:32:33.725Z</time>
      </trkpt>
      <trkpt lat="64.27409" lon="10.41554">
        <ele>54.123037</ele>
        <time>2020-08-09T12:32:35.723Z</time>
      </trkpt>
      <trkpt lat="64.27417" lon="10.4154">
        <ele>54.144477</ele>
        <time>2020-08-09T12:32:37.757Z</time>
      </trkpt>
      <trkpt lat="64.27425" lon="10.41525">
        <ele>54.158964</ele>
        <time>2020-08-09T12:32:39.709Z</time>
      </trkpt>
      <trkpt lat="64.27432" lon="10.41509">
        <ele>54.16731</ele>
        <time>2020-08-09T12:32:41.713Z</time>
      </trkpt>
      <trkpt lat="64.27441" lon="10.41495">
        <ele>54.175576</ele>
        <time>2020-08-09T12:32:43.744Z</time>
      </trkpt>
      <trkpt lat="64.27448" lon="10.4148">
        <ele>54.183869</ele>
        <time>2020-08-09T12:32:45.698Z</time>
      </trkpt>
      <trkpt lat="64.27456" lon="10.41465">
        <ele>54.192185</ele>
        <time>2020-08-09T12:32:47.703Z</time>
      </trkpt>
      <trkpt lat="64.27464" lon="10.41451">
        <ele>54.199984</ele>
        <time>2020-08-09T12:32:49.703Z</time>
      </trkpt>
      <trkpt lat="64.27471" lon="10.41436">
        <ele>54.207805</ele>
        <time>2020-08-09T12:32:51.740Z</time>
      </trkpt>
      <trkpt lat="64.27479" lon="10.41423">
        <ele>54.21556</ele>
        <time>2020-08-09T12:32:53.713Z</time>
      </trkpt>
      <trkpt lat="64.27489" lon="10.41402">
        <ele>54.226352</ele>
        <time>2020-08-09T12:32:56.722Z</time>
      </trkpt>
      <trkpt lat="64.27499" lon="10.41383">
        <ele>54.236891</ele>
        <time>2020-08-09T12:32:59.719Z</time>
      </trkpt>
      <trkpt lat="64.27508" lon="10.41364">
        <ele>54.246964</ele>
        <time>2020-08-09T12:33:02.720Z</time>
      </trkpt>
      <trkpt lat="64.27517" lon="10.41349">
        <ele>54.255596</ele>
        <time>2020-08-09T12:33:05.743Z</time>
      </trkpt>
      <trkpt lat="64.27525" lon="10.41333">
        <ele>54.264347</ele>
        <time>2020-08-09T12:33:08.719Z</time>
      </trkpt>
      <trkpt lat="64.27534" lon="10.41315">
        <ele>54.273991</ele>
        <time>2020-08-09T12:33:11.704Z</time>
      </trkpt>
      <trkpt lat="64.27543" lon="10.41299">
        <ele>54.283198</ele>
        <time>2020-08-09T12:33:14.715Z</time>
      </trkpt>
      <trkpt lat="64.27553" lon="10.41282">
        <ele>54.293045</ele>
        <time>2020-08-09T12:33:17.704Z</time>
      </trkpt>
      <trkpt lat="64.27561" lon="10.41265">
        <ele>54.326823</ele>
        <time>2020-08-09T12:33:20.728Z</time>
      </trkpt>
      <trkpt lat="64.2757" lon="10.41249">
        <ele>54.44153</ele>
        <time>2020-08-09T12:33:23.718Z</time>
      </trkpt>
      <trkpt lat="64.27578" lon="10.41234">
        <ele>54.55119</ele>
        <time>2020-08-09T12:33:26.716Z</time>
      </trkpt>
      <trkpt lat="64.27586" lon="10.4122">
        <ele>54.657745</ele>
        <time>2020-08-09T12:33:29.719Z</time>
      </trkpt>
      <trkpt lat="64.27594" lon="10.41206">
        <ele>54.766237</ele>
        <time>2020-08-09T12:33:32.721Z</time>
      </trkpt>
      <trkpt lat="64.27601" lon="10.41191">
        <ele>54.870852</ele>
        <time>2020-08-09T12:33:35.728Z</time>
      </trkpt>
      <trkpt lat="64.27609" lon="10.41176">
        <ele>54.979689</ele>
        <time>2020-08-09T12:33:38.735Z</time>
      </trkpt>
      <trkpt lat="64.27617" lon="10.41161">
        <ele>55.090434</ele>
        <time>2020-08-09T12:33:41.712Z</time>
      </trkpt>
      <trkpt lat="64.27625" lon="10.41147">
        <ele>55.195342</ele>
        <time>2020-08-09T12:33:44.717Z</time>
      </trkpt>
      <trkpt lat="64.27633" lon="10.41133">
        <ele>55.301586</ele>
        <time>2020-08-09T12:33:47.719Z</time>
      </trkpt>
      <trkpt lat="64.27641" lon="10.41119">
        <ele>55.405301</ele>
        <time>2020-08-09T12:33:50.716Z</time>
      </trkpt>
      <trkpt lat="64.27648" lon="10.41106">
        <ele>55.503994</ele>
        <time>2020-08-09T12:33:53.703Z</time>
      </trkpt>
      <trkpt lat="64.27656" lon="10.41091">
        <ele>55.613332</ele>
        <time>2020-08-09T12:33:56.709Z</time>
      </trkpt>
      <trkpt lat="64.27663" lon="10.41077">
        <ele>55.715425</ele>
        <time>2020-08-09T12:33:59.756Z</time>
      </trkpt>
      <trkpt lat="64.27671" lon="10.41063">
        <ele>55.818857</ele>
        <time>2020-08-09T12:34:02.755Z</time>
      </trkpt>
      <trkpt lat="64.27679" lon="10.41048">
        <ele>55.928515</ele>
        <time>2020-08-09T12:34:05.709Z</time>
      </trkpt>
      <trkpt lat="64.27687" lon="10.41033">
        <ele>56.03929</ele>
        <time>2020-08-09T12:34:08.715Z</time>
      </trkpt>
      <trkpt lat="64.27696" lon="10.41016">
        <ele>56.160205</ele>
        <time>2020-08-09T12:34:11.725Z</time>
      </trkpt>
      <trkpt lat="64.27704" lon="10.41001">
        <ele>56.193462</ele>
        <time>2020-08-09T12:34:14.720Z</time>
      </trkpt>
      <trkpt lat="64.27713" lon="10.40985">
        <ele>56.15502</ele>
        <time>2020-08-09T12:34:17.739Z</time>
      </trkpt>
      <trkpt lat="64.27722" lon="10.40967">
        <ele>56.114388</ele>
        <time>2020-08-09T12:34:20.729Z</time>
      </trkpt>
      <trkpt lat="64.27731" lon="10.40949">
        <ele>56.072945</ele>
        <time>2020-08-09T12:34:23.707Z</time>
      </trkpt>
      <trkpt lat="64.2774" lon="10.40932">
        <ele>56.03471</ele>
        <time>2020-08-09T12:34:26.738Z</time>
      </trkpt>
      <trkpt lat="64.27748" lon="10.40916">
        <ele>55.996508</ele>
        <time>2020-08-09T12:34:29.727Z</time>
      </trkpt>
      <trkpt lat="64.27757" lon="10.409">
        <ele>55.956903</ele>
        <time>2020-08-09T12:34:32.720Z</time>
      </trkpt>
      <trkpt lat="64.27766" lon="10.40884">
        <ele>55.918474</ele>
        <time>2020-08-09T12:34:35.723Z</time>
      </trkpt>
      <trkpt lat="64.27775" lon="10.40866">
        <ele>55.87927</ele>
        <time>2020-08-09T12:34:38.720Z</time>
      </trkpt>
      <trkpt lat="64.27783" lon="10.4085">
        <ele>55.840711</ele>
        <time>2020-08-09T12:34:41.709Z</time>
      </trkpt>
      <trkpt lat="64.27792" lon="10.40833">
        <ele>55.802175</ele>
        <time>2020-08-09T12:34:44.732Z</time>
      </trkpt>
      <trkpt lat="64.27801" lon="10.40815">
        <ele>55.761709</ele>
        <time>2020-08-09T12:34:47.727Z</time>
      </trkpt>
      <trkpt lat="64.2781" lon="10.40799">
        <ele>55.723361</ele>
        <time>2020-08-09T12:34:50.717Z</time>
      </trkpt>
      <trkpt lat="64.27818" lon="10.40784">
        <ele>55.688067</ele>
        <time>2020-08-09T12:34:53.700Z</time>
      </trkpt>
      <trkpt lat="64.27826" lon="10.40768">
        <ele>55.652774</ele>
        <time>2020-08-09T12:34:56.709Z</time>
      </trkpt>
      <trkpt lat="64.27834" lon="10.40753">
        <ele>55.617142</ele>
        <time>2020-08-09T12:34:59.706Z</time>
      </trkpt>
      <trkpt lat="64.27841" lon="10.40739">
        <ele>55.466289</ele>
        <time>2020-08-09T12:35:02.723Z</time>
      </trkpt>
      <trkpt lat="64.27848" lon="10.40725">
        <ele>55.145268</ele>
        <time>2020-08-09T12:35:05.698Z</time>
      </trkpt>
      <trkpt lat="64.27856" lon="10.40712">
        <ele>54.819866</ele>
        <time>2020-08-09T12:35:08.728Z</time>
      </trkpt>
      <trkpt lat="64.27864" lon="10.407">
        <ele>54.486247</ele>
        <time>2020-08-09T12:35:11.728Z</time>
      </trkpt>
      <trkpt lat="64.27873" lon="10.4069">
        <ele>54.161695</ele>
        <time>2020-08-09T12:35:14.693Z</time>
      </trkpt>
      <trkpt lat="64.27882" lon="10.4068">
        <ele>53.814685</ele>
        <time>2020-08-09T12:35:17.706Z</time>
      </trkpt>
      <trkpt lat="64.27892" lon="10.4067">
        <ele>53.441019</ele>
        <time>2020-08-09T12:35:20.707Z</time>
      </trkpt>
      <trkpt lat="64.27904" lon="10.4066">
        <ele>53.010775</ele>
        <time>2020-08-09T12:35:23.715Z</time>
      </trkpt>
      <trkpt lat="64.27912" lon="10.40654">
        <ele>52.705653</ele>
        <time>2020-08-09T12:35:25.740Z</time>
      </trkpt>
      <trkpt lat="64.27922" lon="10.40649">
        <ele>52.377043</ele>
        <time>2020-08-09T12:35:27.743Z</time>
      </trkpt>
      <trkpt lat="64.27932" lon="10.40645">
        <ele>52.033811</ele>
        <time>2020-08-09T12:35:29.713Z</time>
      </trkpt>
      <trkpt lat="64.27943" lon="10.40642">
        <ele>51.645969</ele>
        <time>2020-08-09T12:35:31.733Z</time>
      </trkpt>
      <trkpt lat="64.27957" lon="10.40638">
        <ele>51.18259</ele>
        <time>2020-08-09T12:35:33.733Z</time>
      </trkpt>
      <trkpt lat="64.27972" lon="10.40635">
        <ele>50.645047</ele>
        <time>2020-08-09T12:35:35.724Z</time>
      </trkpt>
      <trkpt lat="64.27981" lon="10.40633">
        <ele>50.340286</ele>
        <time>2020-08-09T12:35:36.714Z</time>
      </trkpt>
      <trkpt lat="64.27998" lon="10.40629">
        <ele>49.757159</ele>
        <time>2020-08-09T12:35:38.767Z</time>
      </trkpt>
      <trkpt lat="64.28007" lon="10.40627">
        <ele>49.460385</ele>
        <time>2020-08-09T12:35:39.712Z</time>
      </trkpt>
      <trkpt lat="64.28016" lon="10.40625">
        <ele>49.377329</ele>
        <time>2020-08-09T12:35:40.700Z</time>
      </trkpt>
      <trkpt lat="64.28026" lon="10.40624">
        <ele>49.292876</ele>
        <time>2020-08-09T12:35:41.711Z</time>
      </trkpt>
      <trkpt lat="64.28035" lon="10.40623">
        <ele>49.207498</ele>
        <time>2020-08-09T12:35:42.751Z</time>
      </trkpt>
      <trkpt lat="64.28045" lon="10.40622">
        <ele>49.122888</ele>
        <time>2020-08-09T12:35:43.706Z</time>
      </trkpt>
      <trkpt lat="64.28054" lon="10.4062">
        <ele>49.039978</ele>
        <time>2020-08-09T12:35:44.697Z</time>
      </trkpt>
      <trkpt lat="64.28063" lon="10.40618">
        <ele>48.956264</ele>
        <time>2020-08-09T12:35:45.713Z</time>
      </trkpt>
      <trkpt lat="64.2808" lon="10.40616">
        <ele>48.80068</ele>
        <time>2020-08-09T12:35:47.742Z</time>
      </trkpt>
      <trkpt lat="64.28096" lon="10.40613">
        <ele>48.659184</ele>
        <time>2020-08-09T12:35:49.744Z</time>
      </trkpt>
      <trkpt lat="64.28111" lon="10.4061">
        <ele>48.524017</ele>
        <time>2020-08-09T12:35:51.757Z</time>
      </trkpt>
      <trkpt lat="64.28124" lon="10.40608">
        <ele>48.411576</ele>
        <time>2020-08-09T12:35:53.703Z</time>
      </trkpt>
      <trkpt lat="64.28134" lon="10.40608">
        <ele>48.316354</ele>
        <time>2020-08-09T12:35:55.741Z</time>
      </trkpt>
      <trkpt lat="64.28146" lon="10.40609">
        <ele>48.210291</ele>
        <time>2020-08-09T12:35:58.747Z</time>
      </trkpt>
      <trkpt lat="64.28156" lon="10.40611">
        <ele>48.122938</ele>
        <time>2020-08-09T12:36:01.709Z</time>
      </trkpt>
      <trkpt lat="64.28165" lon="10.40614">
        <ele>48.03678</ele>
        <time>2020-08-09T12:36:06.717Z</time>
      </trkpt>
      <trkpt lat="64.28175" lon="10.40621">
        <ele>47.9471</ele>
        <time>2020-08-09T12:36:12.735Z</time>
      </trkpt>
      <trkpt lat="64.28185" lon="10.40628">
        <ele>47.85497</ele>
        <time>2020-08-09T12:36:16.723Z</time>
      </trkpt>
      <trkpt lat="64.28195" lon="10.40637">
        <ele>47.885369</ele>
        <time>2020-08-09T12:36:21.712Z</time>
      </trkpt>
      <trkpt lat="64.28203" lon="10.40647">
        <ele>47.918654</ele>
        <time>2020-08-09T12:36:24.711Z</time>
      </trkpt>
      <trkpt lat="64.28211" lon="10.40659">
        <ele>47.950717</ele>
        <time>2020-08-09T12:36:27.737Z</time>
      </trkpt>
      <trkpt lat="64.2822" lon="10.40671">
        <ele>47.986665</ele>
        <time>2020-08-09T12:36:29.702Z</time>
      </trkpt>
      <trkpt lat="64.2823" lon="10.40686">
        <ele>48.027728</ele>
        <time>2020-08-09T12:36:31.720Z</time>
      </trkpt>
      <trkpt lat="64.28239" lon="10.40699">
        <ele>48.064229</ele>
        <time>2020-08-09T12:36:33.733Z</time>
      </trkpt>
      <trkpt lat="64.28247" lon="10.40711">
        <ele>48.097666</ele>
        <time>2020-08-09T12:36:35.718Z</time>
      </trkpt>
      <trkpt lat="64.28256" lon="10.40724">
        <ele>48.135075</ele>
        <time>2020-08-09T12:36:37.742Z</time>
      </trkpt>
      <trkpt lat="64.28265" lon="10.40738">
        <ele>48.172943</ele>
        <time>2020-08-09T12:36:39.716Z</time>
      </trkpt>
      <trkpt lat="64.28273" lon="10.40752">
        <ele>48.208308</ele>
        <time>2020-08-09T12:36:41.696Z</time>
      </trkpt>
      <trkpt lat="64.28282" lon="10.40765">
        <ele>48.24439</ele>
        <time>2020-08-09T12:36:43.712Z</time>
      </trkpt>
      <trkpt lat="64.28291" lon="10.40778">
        <ele>48.280651</ele>
        <time>2020-08-09T12:36:45.695Z</time>
      </trkpt>
      <trkpt lat="64.283" lon="10.4079">
        <ele>48.31562</ele>
        <time>2020-08-09T12:36:47.703Z</time>
      </trkpt>
      <trkpt lat="64.28308" lon="10.40801">
        <ele>48.349014</ele>
        <time>2020-08-09T12:36:49.718Z</time>
      </trkpt>
      <trkpt lat="64.28316" lon="10.40813">
        <ele>48.383782</ele>
        <time>2020-08-09T12:36:51.726Z</time>
      </trkpt>
      <trkpt lat="64.28325" lon="10.40826">
        <ele>48.420338</ele>
        <time>2020-08-09T12:36:53.716Z</time>
      </trkpt>
      <trkpt lat="64.28334" lon="10.40839">
        <ele>48.455511</ele>
        <time>2020-08-09T12:36:55.708Z</time>
      </trkpt>
      <trkpt lat="64.28346" lon="10.40854">
        <ele>48.280127</ele>
        <time>2020-08-09T12:36:58.709Z</time>
      </trkpt>
      <trkpt lat="64.28358" lon="10.40864">
        <ele>47.986289</ele>
        <time>2020-08-09T12:37:00.726Z</time>
      </trkpt>
      <trkpt lat="64.28368" lon="10.40869">
        <ele>47.762543</ele>
        <time>2020-08-09T12:37:02.736Z</time>
      </trkpt>
      <trkpt lat="64.28379" lon="10.4087">
        <ele>47.520562</ele>
        <time>2020-08-09T12:37:04.705Z</time>
      </trkpt>
      <trkpt lat="64.28391" lon="10.4086">
        <ele>47.234176</ele>
        <time>2020-08-09T12:37:07.716Z</time>
      </trkpt>
      <trkpt lat="64.28401" lon="10.40847">
        <ele>46.965292</ele>
        <time>2020-08-09T12:37:09.753Z</time>
      </trkpt>
      <trkpt lat="64.28411" lon="10.40833">
        <ele>46.712233</ele>
        <time>2020-08-09T12:37:11.709Z</time>
      </trkpt>
      <trkpt lat="64.28417" lon="10.40816">
        <ele>46.497934</ele>
        <time>2020-08-09T12:37:13.708Z</time>
      </trkpt>
      <trkpt lat="64.28422" lon="10.40797">
        <ele>46.284393</ele>
        <time>2020-08-09T12:37:15.709Z</time>
      </trkpt>
      <trkpt lat="64.28424" lon="10.40775">
        <ele>46.066487</ele>
        <time>2020-08-09T12:37:17.736Z</time>
      </trkpt>
      <trkpt lat="64.28424" lon="10.4075">
        <ele>45.828075</ele>
        <time>2020-08-09T12:37:19.721Z</time>
      </trkpt>
      <trkpt lat="64.28424" lon="10.40728">
        <ele>45.606548</ele>
        <time>2020-08-09T12:37:21.722Z</time>
      </trkpt>
      <trkpt lat="64.28424" lon="10.40705">
        <ele>45.385031</ele>
        <time>2020-08-09T12:37:23.722Z</time>
      </trkpt>
      <trkpt lat="64.28425" lon="10.40682">
        <ele>45.164319</ele>
        <time>2020-08-09T12:37:25.702Z</time>
      </trkpt>
      <trkpt lat="64.28428" lon="10.4066">
        <ele>44.937512</ele>
        <time>2020-08-09T12:37:27.718Z</time>
      </trkpt>
      <trkpt lat="64.28431" lon="10.40637">
        <ele>44.709768</ele>
        <time>2020-08-09T12:37:29.718Z</time>
      </trkpt>
      <trkpt lat="64.28434" lon="10.40616">
        <ele>44.492878</ele>
        <time>2020-08-09T12:37:31.709Z</time>
      </trkpt>
      <trkpt lat="64.28437" lon="10.40596">
        <ele>44.68971</ele>
        <time>2020-08-09T12:37:33.737Z</time>
      </trkpt>
      <trkpt lat="64.28441" lon="10.40576">
        <ele>45.006061</ele>
        <time>2020-08-09T12:37:35.712Z</time>
      </trkpt>
      <trkpt lat="64.28445" lon="10.40557">
        <ele>45.318362</ele>
        <time>2020-08-09T12:37:37.755Z</time>
      </trkpt>
      <trkpt lat="64.28449" lon="10.40538">
        <ele>45.624398</ele>
        <time>2020-08-09T12:37:39.719Z</time>
      </trkpt>
      <trkpt lat="64.28454" lon="10.40521">
        <ele>45.928101</ele>
        <time>2020-08-09T12:37:41.708Z</time>
      </trkpt>
      <trkpt lat="64.28462" lon="10.40496">
        <ele>46.369289</ele>
        <time>2020-08-09T12:37:44.731Z</time>
      </trkpt>
      <trkpt lat="64.2847" lon="10.40474">
        <ele>46.790035</ele>
        <time>2020-08-09T12:37:47.701Z</time>
      </trkpt>
      <trkpt lat="64.28477" lon="10.40451">
        <ele>47.196127</ele>
        <time>2020-08-09T12:37:50.705Z</time>
      </trkpt>
      <trkpt lat="64.28484" lon="10.40428">
        <ele>47.612447</ele>
        <time>2020-08-09T12:37:53.735Z</time>
      </trkpt>
      <trkpt lat="64.28491" lon="10.40406">
        <ele>48.012329</ele>
        <time>2020-08-09T12:37:56.719Z</time>
      </trkpt>
      <trkpt lat="64.28498" lon="10.40386">
        <ele>48.396353</ele>
        <time>2020-08-09T12:37:59.736Z</time>
      </trkpt>
      <trkpt lat="64.28506" lon="10.40369">
        <ele>48.760842</ele>
        <time>2020-08-09T12:38:02.708Z</time>
      </trkpt>
      <trkpt lat="64.28515" lon="10.40354">
        <ele>49.117741</ele>
        <time>2020-08-09T12:38:05.715Z</time>
      </trkpt>
      <trkpt lat="64.28524" lon="10.40338">
        <ele>49.49956</ele>
        <time>2020-08-09T12:38:09.706Z</time>
      </trkpt>
      <trkpt lat="64.28532" lon="10.40324">
        <ele>49.848478</ele>
        <time>2020-08-09T12:38:13.723Z</time>
      </trkpt>
      <trkpt lat="64.2854" lon="10.4031">
        <ele>50.169781</ele>
        <time>2020-08-09T12:38:18.702Z</time>
      </trkpt>
      <trkpt lat="64.28547" lon="10.40297">
        <ele>50.481379</ele>
        <time>2020-08-09T12:38:25.730Z</time>
      </trkpt>
      <trkpt lat="64.28554" lon="10.40284">
        <ele>50.980764</ele>
        <time>2020-08-09T12:38:32.714Z</time>
      </trkpt>
      <trkpt lat="64.28563" lon="10.40272">
        <ele>51.514331</ele>
        <time>2020-08-09T12:38:39.750Z</time>
      </trkpt>
      <trkpt lat="64.28572" lon="10.40258">
        <ele>52.105936</ele>
        <time>2020-08-09T12:38:45.746Z</time>
      </trkpt>
      <trkpt lat="64.28581" lon="10.40249">
        <ele>52.644079</ele>
        <time>2020-08-09T12:38:53.706Z</time>
      </trkpt>
      <trkpt lat="64.2859" lon="10.4024">
        <ele>53.190609</ele>
        <time>2020-08-09T12:39:01.712Z</time>
      </trkpt>
      <trkpt lat="64.28599" lon="10.40238">
        <ele>53.693437</ele>
        <time>2020-08-09T12:39:08.716Z</time>
      </trkpt>
      <trkpt lat="64.28609" lon="10.40239">
        <ele>54.243802</ele>
        <time>2020-08-09T12:39:15.700Z</time>
      </trkpt>
      <trkpt lat="64.28618" lon="10.40248">
        <ele>54.760306</ele>
        <time>2020-08-09T12:39:22.703Z</time>
      </trkpt>
      <trkpt lat="64.28626" lon="10.40261">
        <ele>55.282212</ele>
        <time>2020-08-09T12:39:28.708Z</time>
      </trkpt>
      <trkpt lat="64.28632" lon="10.40276">
        <ele>55.778031</ele>
        <time>2020-08-09T12:39:34.716Z</time>
      </trkpt>
      <trkpt lat="64.28639" lon="10.40292">
        <ele>56.309017</ele>
        <time>2020-08-09T12:39:40.720Z</time>
      </trkpt>
      <trkpt lat="64.28646" lon="10.40309">
        <ele>56.858095</ele>
        <time>2020-08-09T12:39:46.720Z</time>
      </trkpt>
      <trkpt lat="64.28653" lon="10.40327">
        <ele>57.426667</ele>
        <time>2020-08-09T12:39:52.726Z</time>
      </trkpt>
      <trkpt lat="64.28659" lon="10.40345">
        <ele>57.976172</ele>
        <time>2020-08-09T12:39:57.740Z</time>
      </trkpt>
      <trkpt lat="64.28665" lon="10.40365">
        <ele>58.551634</ele>
        <time>2020-08-09T12:40:02.706Z</time>
      </trkpt>
      <trkpt lat="64.2867" lon="10.40385">
        <ele>59.091327</ele>
        <time>2020-08-09T12:40:07.715Z</time>
      </trkpt>
      <trkpt lat="64.28675" lon="10.40405">
        <ele>59.631111</ele>
        <time>2020-08-09T12:40:12.720Z</time>
      </trkpt>
      <trkpt lat="64.28679" lon="10.40427">
        <ele>60.193692</ele>
        <time>2020-08-09T12:40:17.718Z</time>
      </trkpt>
      <trkpt lat="64.28683" lon="10.40448">
        <ele>60.376762</ele>
        <time>2020-08-09T12:40:21.719Z</time>
      </trkpt>
      <trkpt lat="64.28686" lon="10.40469">
        <ele>60.487442</ele>
        <time>2020-08-09T12:40:25.744Z</time>
      </trkpt>
      <trkpt lat="64.2869" lon="10.4049">
        <ele>60.605048</ele>
        <time>2020-08-09T12:40:29.708Z</time>
      </trkpt>
      <trkpt lat="64.28695" lon="10.40511">
        <ele>60.722205</ele>
        <time>2020-08-09T12:40:33.707Z</time>
      </trkpt>
      <trkpt lat="64.28699" lon="10.40532">
        <ele>60.835171</ele>
        <time>2020-08-09T12:40:37.703Z</time>
      </trkpt>
      <trkpt lat="64.28703" lon="10.40552">
        <ele>60.944027</ele>
        <time>2020-08-09T12:40:41.705Z</time>
      </trkpt>
      <trkpt lat="64.28707" lon="10.40574">
        <ele>61.070486</ele>
        <time>2020-08-09T12:40:46.758Z</time>
      </trkpt>
      <trkpt lat="64.28712" lon="10.40593">
        <ele>61.179598</ele>
        <time>2020-08-09T12:40:50.741Z</time>
      </trkpt>
      <trkpt lat="64.28717" lon="10.40612">
        <ele>61.292738</ele>
        <time>2020-08-09T12:40:54.708Z</time>
      </trkpt>
      <trkpt lat="64.28723" lon="10.40628">
        <ele>61.39913</ele>
        <time>2020-08-09T12:40:58.714Z</time>
      </trkpt>
      <trkpt lat="64.28729" lon="10.40646">
        <ele>61.513207</ele>
        <time>2020-08-09T12:41:02.715Z</time>
      </trkpt>
      <trkpt lat="64.28735" lon="10.40663">
        <ele>61.624076</ele>
        <time>2020-08-09T12:41:06.700Z</time>
      </trkpt>
      <trkpt lat="64.28741" lon="10.4068">
        <ele>61.730368</ele>
        <time>2020-08-09T12:41:10.722Z</time>
      </trkpt>
      <trkpt lat="64.28748" lon="10.40699">
        <ele>61.854492</ele>
        <time>2020-08-09T12:41:14.703Z</time>
      </trkpt>
      <trkpt lat="64.28755" lon="10.40717">
        <ele>61.976337</ele>
        <time>2020-08-09T12:41:18.716Z</time>
      </trkpt>
      <trkpt lat="64.28761" lon="10.40734">
        <ele>62.086036</ele>
        <time>2020-08-09T12:41:22.760Z</time>
      </trkpt>
      <trkpt lat="64.28768" lon="10.40753">
        <ele>62.210205</ele>
        <time>2020-08-09T12:41:27.732Z</time>
      </trkpt>
      <trkpt lat="64.28774" lon="10.4077">
        <ele>62.32446</ele>
        <time>2020-08-09T12:41:32.707Z</time>
      </trkpt>
      <trkpt lat="64.28781" lon="10.40788">
        <ele>62.750175</ele>
        <time>2020-08-09T12:41:39.723Z</time>
      </trkpt>
      <trkpt lat="64.28788" lon="10.40806">
        <ele>63.274303</ele>
        <time>2020-08-09T12:41:45.747Z</time>
      </trkpt>
      <trkpt lat="64.28794" lon="10.40823">
        <ele>63.801905</ele>
        <time>2020-08-09T12:41:52.728Z</time>
      </trkpt>
      <trkpt lat="64.28801" lon="10.4084">
        <ele>64.345266</ele>
        <time>2020-08-09T12:41:59.711Z</time>
      </trkpt>
      <trkpt lat="64.28807" lon="10.40857">
        <ele>64.85206</ele>
        <time>2020-08-09T12:42:06.716Z</time>
      </trkpt>
      <trkpt lat="64.28814" lon="10.40876">
        <ele>65.395499</ele>
        <time>2020-08-09T12:42:14.725Z</time>
      </trkpt>
      <trkpt lat="64.28821" lon="10.40891">
        <ele>65.929733</ele>
        <time>2020-08-09T12:42:21.725Z</time>
      </trkpt>
      <trkpt lat="64.28826" lon="10.40912">
        <ele>66.47156</ele>
        <time>2020-08-09T12:42:28.728Z</time>
      </trkpt>
      <trkpt lat="64.28833" lon="10.40931">
        <ele>67.021909</ele>
        <time>2020-08-09T12:42:35.703Z</time>
      </trkpt>
      <trkpt lat="64.28839" lon="10.40947">
        <ele>67.514842</ele>
        <time>2020-08-09T12:42:42.733Z</time>
      </trkpt>
      <trkpt lat="64.28845" lon="10.40964">
        <ele>68.044461</ele>
        <time>2020-08-09T12:42:49.728Z</time>
      </trkpt>
      <trkpt lat="64.28851" lon="10.40983">
        <ele>68.579449</ele>
        <time>2020-08-09T12:42:56.737Z</time>
      </trkpt>
      <trkpt lat="64.28857" lon="10.40999">
        <ele>69.060803</ele>
        <time>2020-08-09T12:43:01.743Z</time>
      </trkpt>
      <trkpt lat="64.28863" lon="10.41017">
        <ele>69.570046</ele>
        <time>2020-08-09T12:43:07.759Z</time>
      </trkpt>
      <trkpt lat="64.28868" lon="10.41035">
        <ele>70.07201</ele>
        <time>2020-08-09T12:43:13.722Z</time>
      </trkpt>
      <trkpt lat="64.28874" lon="10.41053">
        <ele>70.572986</ele>
        <time>2020-08-09T12:43:19.741Z</time>
      </trkpt>
      <trkpt lat="64.28879" lon="10.41071">
        <ele>71.086222</ele>
        <time>2020-08-09T12:43:24.784Z</time>
      </trkpt>
      <trkpt lat="64.28884" lon="10.41092">
        <ele>71.637279</ele>
        <time>2020-08-09T12:43:29.726Z</time>
      </trkpt>
      <trkpt lat="64.2889" lon="10.41114">
        <ele>72.132519</ele>
        <time>2020-08-09T12:43:34.728Z</time>
      </trkpt>
      <trkpt lat="64.28896" lon="10.41137">
        <ele>72.555594</ele>
        <time>2020-08-09T12:43:39.717Z</time>
      </trkpt>
      <trkpt lat="64.289" lon="10.41158">
        <ele>72.935956</ele>
        <time>2020-08-09T12:43:43.721Z</time>
      </trkpt>
      <trkpt lat="64.28904" lon="10.41179">
        <ele>73.328158</ele>
        <time>2020-08-09T12:43:47.760Z</time>
      </trkpt>
      <trkpt lat="64.28908" lon="10.41201">
        <ele>73.711342</ele>
        <time>2020-08-09T12:43:51.743Z</time>
      </trkpt>
      <trkpt lat="64.28911" lon="10.41223">
        <ele>74.085555</ele>
        <time>2020-08-09T12:43:55.697Z</time>
      </trkpt>
      <trkpt lat="64.28915" lon="10.41246">
        <ele>74.490426</ele>
        <time>2020-08-09T12:43:59.726Z</time>
      </trkpt>
      <trkpt lat="64.28918" lon="10.41268">
        <ele>74.867751</ele>
        <time>2020-08-09T12:44:03.747Z</time>
      </trkpt>
      <trkpt lat="64.28921" lon="10.4129">
        <ele>75.248186</ele>
        <time>2020-08-09T12:44:07.714Z</time>
      </trkpt>
      <trkpt lat="64.28923" lon="10.41313">
        <ele>75.642253</ele>
        <time>2020-08-09T12:44:11.719Z</time>
      </trkpt>
      <trkpt lat="64.28926" lon="10.41335">
        <ele>76.013176</ele>
        <time>2020-08-09T12:44:15.712Z</time>
      </trkpt>
      <trkpt lat="64.28928" lon="10.41357">
        <ele>76.381567</ele>
        <time>2020-08-09T12:44:19.713Z</time>
      </trkpt>
      <trkpt lat="64.2893" lon="10.41379">
        <ele>76.741486</ele>
        <time>2020-08-09T12:44:23.741Z</time>
      </trkpt>
      <trkpt lat="64.28931" lon="10.41402">
        <ele>77.128928</ele>
        <time>2020-08-09T12:44:27.726Z</time>
      </trkpt>
      <trkpt lat="64.28933" lon="10.41426">
        <ele>77.51475</ele>
        <time>2020-08-09T12:44:31.717Z</time>
      </trkpt>
      <trkpt lat="64.28934" lon="10.41449">
        <ele>77.911127</ele>
        <time>2020-08-09T12:44:35.745Z</time>
      </trkpt>
      <trkpt lat="64.28936" lon="10.41471">
        <ele>78.270607</ele>
        <time>2020-08-09T12:44:39.752Z</time>
      </trkpt>
      <trkpt lat="64.28936" lon="10.41492">
        <ele>78.616214</ele>
        <time>2020-08-09T12:44:43.734Z</time>
      </trkpt>
      <trkpt lat="64.28936" lon="10.41514">
        <ele>78.552026</ele>
        <time>2020-08-09T12:44:47.709Z</time>
      </trkpt>
      <trkpt lat="64.28936" lon="10.41538">
        <ele>78.380539</ele>
        <time>2020-08-09T12:44:51.709Z</time>
      </trkpt>
      <trkpt lat="64.28936" lon="10.41559">
        <ele>78.229245</ele>
        <time>2020-08-09T12:44:54.714Z</time>
      </trkpt>
      <trkpt lat="64.28934" lon="10.41582">
        <ele>78.060928</ele>
        <time>2020-08-09T12:44:57.751Z</time>
      </trkpt>
      <trkpt lat="64.28934" lon="10.41606">
        <ele>77.883798</ele>
        <time>2020-08-09T12:45:00.705Z</time>
      </trkpt>
      <trkpt lat="64.28931" lon="10.41635">
        <ele>77.677386</ele>
        <time>2020-08-09T12:45:03.725Z</time>
      </trkpt>
      <trkpt lat="64.2893" lon="10.41656">
        <ele>77.520764</ele>
        <time>2020-08-09T12:45:05.745Z</time>
      </trkpt>
      <trkpt lat="64.28928" lon="10.41681">
        <ele>77.338714</ele>
        <time>2020-08-09T12:45:07.740Z</time>
      </trkpt>
      <trkpt lat="64.28926" lon="10.41714">
        <ele>77.097092</ele>
        <time>2020-08-09T12:45:09.744Z</time>
      </trkpt>
      <trkpt lat="64.28924" lon="10.41748">
        <ele>76.85268</ele>
        <time>2020-08-09T12:45:11.720Z</time>
      </trkpt>
      <trkpt lat="64.28921" lon="10.41784">
        <ele>76.584789</ele>
        <time>2020-08-09T12:45:13.746Z</time>
      </trkpt>
      <trkpt lat="64.28918" lon="10.41825">
        <ele>76.287923</ele>
        <time>2020-08-09T12:45:15.721Z</time>
      </trkpt>
      <trkpt lat="64.28916" lon="10.41845">
        <ele>76.136907</ele>
        <time>2020-08-09T12:45:16.721Z</time>
      </trkpt>
      <trkpt lat="64.28912" lon="10.41886">
        <ele>75.839805</ele>
        <time>2020-08-09T12:45:18.724Z</time>
      </trkpt>
      <trkpt lat="64.28911" lon="10.41907">
        <ele>75.697729</ele>
        <time>2020-08-09T12:45:19.706Z</time>
      </trkpt>
      <trkpt lat="64.28909" lon="10.41928">
        <ele>75.792772</ele>
        <time>2020-08-09T12:45:20.702Z</time>
      </trkpt>
      <trkpt lat="64.28907" lon="10.41948">
        <ele>75.887377</ele>
        <time>2020-08-09T12:45:21.733Z</time>
      </trkpt>
      <trkpt lat="64.28905" lon="10.41969">
        <ele>75.983999</ele>
        <time>2020-08-09T12:45:22.704Z</time>
      </trkpt>
      <trkpt lat="64.28902" lon="10.4199">
        <ele>76.078631</ele>
        <time>2020-08-09T12:45:23.723Z</time>
      </trkpt>
      <trkpt lat="64.28899" lon="10.42028">
        <ele>76.256431</ele>
        <time>2020-08-09T12:45:25.715Z</time>
      </trkpt>
      <trkpt lat="64.28895" lon="10.42067">
        <ele>76.433811</ele>
        <time>2020-08-09T12:45:27.725Z</time>
      </trkpt>
      <trkpt lat="64.28893" lon="10.42102">
        <ele>76.593486</ele>
        <time>2020-08-09T12:45:29.714Z</time>
      </trkpt>
      <trkpt lat="64.2889" lon="10.42134">
        <ele>76.740257</ele>
        <time>2020-08-09T12:45:31.739Z</time>
      </trkpt>
      <trkpt lat="64.28887" lon="10.42161">
        <ele>76.861802</ele>
        <time>2020-08-09T12:45:33.714Z</time>
      </trkpt>
      <trkpt lat="64.28886" lon="10.42184">
        <ele>76.966354</ele>
        <time>2020-08-09T12:45:35.714Z</time>
      </trkpt>
      <trkpt lat="64.28884" lon="10.42205">
        <ele>77.062045</ele>
        <time>2020-08-09T12:45:37.728Z</time>
      </trkpt>
      <trkpt lat="64.28881" lon="10.42233">
        <ele>77.191068</ele>
        <time>2020-08-09T12:45:40.739Z</time>
      </trkpt>
      <trkpt lat="64.28878" lon="10.42261">
        <ele>77.319631</ele>
        <time>2020-08-09T12:45:43.715Z</time>
      </trkpt>
      <trkpt lat="64.28876" lon="10.4229">
        <ele>77.451928</ele>
        <time>2020-08-09T12:45:46.741Z</time>
      </trkpt>
      <trkpt lat="64.28874" lon="10.42319">
        <ele>77.672611</ele>
        <time>2020-08-09T12:45:49.719Z</time>
      </trkpt>
      <trkpt lat="64.28871" lon="10.4235">
        <ele>78.140496</ele>
        <time>2020-08-09T12:45:52.747Z</time>
      </trkpt>
      <trkpt lat="64.28869" lon="10.4237">
        <ele>78.455483</ele>
        <time>2020-08-09T12:45:54.704Z</time>
      </trkpt>
      <trkpt lat="64.28867" lon="10.424">
        <ele>78.918873</ele>
        <time>2020-08-09T12:45:57.758Z</time>
      </trkpt>
      <trkpt lat="64.28865" lon="10.42429">
        <ele>79.365315</ele>
        <time>2020-08-09T12:46:00.756Z</time>
      </trkpt>
      <trkpt lat="64.28864" lon="10.42456">
        <ele>79.784246</ele>
        <time>2020-08-09T12:46:03.709Z</time>
      </trkpt>
      <trkpt lat="64.28863" lon="10.4248">
        <ele>80.157742</ele>
        <time>2020-08-09T12:46:06.722Z</time>
      </trkpt>
      <trkpt lat="64.28862" lon="10.42504">
        <ele>80.512707</ele>
        <time>2020-08-09T12:46:09.710Z</time>
      </trkpt>
      <trkpt lat="64.28861" lon="10.42525">
        <ele>80.834292</ele>
        <time>2020-08-09T12:46:12.732Z</time>
      </trkpt>
      <trkpt lat="64.28862" lon="10.42546">
        <ele>81.160426</ele>
        <time>2020-08-09T12:46:15.737Z</time>
      </trkpt>
      <trkpt lat="64.28862" lon="10.42567">
        <ele>81.48672</ele>
        <time>2020-08-09T12:46:18.711Z</time>
      </trkpt>
      <trkpt lat="64.28862" lon="10.42591">
        <ele>81.845121</ele>
        <time>2020-08-09T12:46:22.716Z</time>
      </trkpt>
      <trkpt lat="64.28864" lon="10.42613">
        <ele>82.182606</ele>
        <time>2020-08-09T12:46:26.720Z</time>
      </trkpt>
      <trkpt lat="64.28857" lon="10.42657">
        <ele>82.896323</ele>
        <time>2020-08-09T12:51:37.725Z</time>
      </trkpt>
      <trkpt lat="64.28857" lon="10.42679">
        <ele>83.222919</ele>
        <time>2020-08-09T12:51:41.723Z</time>
      </trkpt>
      <trkpt lat="64.28856" lon="10.42702">
        <ele>83.581321</ele>
        <time>2020-08-09T12:51:45.747Z</time>
      </trkpt>
      <trkpt lat="64.28856" lon="10.42728">
        <ele>83.907081</ele>
        <time>2020-08-09T12:51:49.725Z</time>
      </trkpt>
      <trkpt lat="64.28856" lon="10.42752">
        <ele>84.05209</ele>
        <time>2020-08-09T12:51:53.703Z</time>
      </trkpt>
      <trkpt lat="64.28855" lon="10.42779">
        <ele>84.208335</ele>
        <time>2020-08-09T12:51:57.719Z</time>
      </trkpt>
      <trkpt lat="64.28855" lon="10.42803">
        <ele>84.353292</ele>
        <time>2020-08-09T12:52:01.716Z</time>
      </trkpt>
      <trkpt lat="64.28854" lon="10.4283">
        <ele>84.516367</ele>
        <time>2020-08-09T12:52:05.725Z</time>
      </trkpt>
      <trkpt lat="64.28853" lon="10.42857">
        <ele>84.671272</ele>
        <time>2020-08-09T12:52:09.705Z</time>
      </trkpt>
      <trkpt lat="64.28852" lon="10.4288">
        <ele>84.812878</ele>
        <time>2020-08-09T12:52:13.747Z</time>
      </trkpt>
      <trkpt lat="64.28851" lon="10.42903">
        <ele>84.949191</ele>
        <time>2020-08-09T12:52:17.737Z</time>
      </trkpt>
      <trkpt lat="64.28851" lon="10.42925">
        <ele>85.077584</ele>
        <time>2020-08-09T12:52:21.742Z</time>
      </trkpt>
      <trkpt lat="64.2885" lon="10.42947">
        <ele>85.207331</ele>
        <time>2020-08-09T12:52:25.719Z</time>
      </trkpt>
      <trkpt lat="64.2885" lon="10.42973">
        <ele>85.359682</ele>
        <time>2020-08-09T12:52:30.732Z</time>
      </trkpt>
      <trkpt lat="64.28849" lon="10.42997">
        <ele>85.507629</ele>
        <time>2020-08-09T12:52:35.722Z</time>
      </trkpt>
      <trkpt lat="64.28848" lon="10.43022">
        <ele>85.65251</ele>
        <time>2020-08-09T12:52:40.729Z</time>
      </trkpt>
      <trkpt lat="64.28847" lon="10.43044">
        <ele>85.781481</ele>
        <time>2020-08-09T12:52:45.729Z</time>
      </trkpt>
      <trkpt lat="64.28846" lon="10.43066">
        <ele>85.914941</ele>
        <time>2020-08-09T12:52:50.720Z</time>
      </trkpt>
      <trkpt lat="64.28846" lon="10.4309">
        <ele>86.056579</ele>
        <time>2020-08-09T12:52:55.722Z</time>
      </trkpt>
      <trkpt lat="64.28845" lon="10.43114">
        <ele>86.197627</ele>
        <time>2020-08-09T12:53:00.722Z</time>
      </trkpt>
      <trkpt lat="64.28845" lon="10.43139">
        <ele>86.209977</ele>
        <time>2020-08-09T12:53:05.732Z</time>
      </trkpt>
      <trkpt lat="64.28845" lon="10.43164">
        <ele>85.556631</ele>
        <time>2020-08-09T12:53:10.749Z</time>
      </trkpt>
      <trkpt lat="64.28845" lon="10.43186">
        <ele>85.003989</ele>
        <time>2020-08-09T12:53:14.734Z</time>
      </trkpt>
      <trkpt lat="64.28844" lon="10.43211">
        <ele>84.345264</ele>
        <time>2020-08-09T12:53:18.709Z</time>
      </trkpt>
      <trkpt lat="64.28844" lon="10.43233">
        <ele>83.774299</ele>
        <time>2020-08-09T12:53:22.717Z</time>
      </trkpt>
      <trkpt lat="64.28845" lon="10.43255">
        <ele>83.221412</ele>
        <time>2020-08-09T12:53:26.710Z</time>
      </trkpt>
      <trkpt lat="64.28847" lon="10.43275">
        <ele>82.671263</ele>
        <time>2020-08-09T12:53:29.723Z</time>
      </trkpt>
      <trkpt lat="64.28849" lon="10.43299">
        <ele>82.054389</ele>
        <time>2020-08-09T12:53:32.717Z</time>
      </trkpt>
      <trkpt lat="64.2885" lon="10.43326">
        <ele>81.357534</ele>
        <time>2020-08-09T12:53:35.705Z</time>
      </trkpt>
      <trkpt lat="64.28852" lon="10.43346">
        <ele>80.821647</ele>
        <time>2020-08-09T12:53:37.718Z</time>
      </trkpt>
      <trkpt lat="64.28854" lon="10.43372">
        <ele>80.153525</ele>
        <time>2020-08-09T12:53:39.707Z</time>
      </trkpt>
      <trkpt lat="64.28856" lon="10.43402">
        <ele>79.363241</ele>
        <time>2020-08-09T12:53:41.705Z</time>
      </trkpt>
      <trkpt lat="64.28859" lon="10.43432">
        <ele>78.57186</ele>
        <time>2020-08-09T12:53:43.706Z</time>
      </trkpt>
      <trkpt lat="64.28861" lon="10.43456">
        <ele>77.92456</ele>
        <time>2020-08-09T12:53:45.742Z</time>
      </trkpt>
      <trkpt lat="64.28863" lon="10.4348">
        <ele>77.289712</ele>
        <time>2020-08-09T12:53:47.748Z</time>
      </trkpt>
      <trkpt lat="64.28867" lon="10.43509">
        <ele>76.514095</ele>
        <time>2020-08-09T12:53:49.735Z</time>
      </trkpt>
      <trkpt lat="64.2887" lon="10.43544">
        <ele>75.558991</ele>
        <time>2020-08-09T12:53:51.716Z</time>
      </trkpt>
      <trkpt lat="64.28873" lon="10.43577">
        <ele>74.08064</ele>
        <time>2020-08-09T12:53:53.719Z</time>
      </trkpt>
      <trkpt lat="64.28876" lon="10.43607">
        <ele>72.720824</ele>
        <time>2020-08-09T12:53:55.762Z</time>
      </trkpt>
      <trkpt lat="64.28878" lon="10.43636">
        <ele>71.387292</ele>
        <time>2020-08-09T12:53:57.727Z</time>
      </trkpt>
      <trkpt lat="64.2888" lon="10.43669">
        <ele>69.900241</ele>
        <time>2020-08-09T12:53:59.723Z</time>
      </trkpt>
      <trkpt lat="64.28883" lon="10.43704">
        <ele>68.341278</ele>
        <time>2020-08-09T12:54:01.758Z</time>
      </trkpt>
      <trkpt lat="64.28886" lon="10.43741">
        <ele>66.692142</ele>
        <time>2020-08-09T12:54:03.733Z</time>
      </trkpt>
      <trkpt lat="64.28887" lon="10.43761">
        <ele>65.764438</ele>
        <time>2020-08-09T12:54:04.743Z</time>
      </trkpt>
      <trkpt lat="64.28888" lon="10.43782">
        <ele>64.838267</ele>
        <time>2020-08-09T12:54:05.734Z</time>
      </trkpt>
      <trkpt lat="64.28891" lon="10.43821">
        <ele>63.077795</ele>
        <time>2020-08-09T12:54:07.726Z</time>
      </trkpt>
      <trkpt lat="64.28893" lon="10.43859">
        <ele>61.376541</ele>
        <time>2020-08-09T12:54:09.719Z</time>
      </trkpt>
      <trkpt lat="64.28896" lon="10.43896">
        <ele>59.669351</ele>
        <time>2020-08-09T12:54:11.760Z</time>
      </trkpt>
      <trkpt lat="64.28899" lon="10.43933">
        <ele>58.015165</ele>
        <time>2020-08-09T12:54:13.757Z</time>
      </trkpt>
      <trkpt lat="64.28902" lon="10.43968">
        <ele>56.727047</ele>
        <time>2020-08-09T12:54:15.716Z</time>
      </trkpt>
      <trkpt lat="64.28905" lon="10.44004">
        <ele>55.740945</ele>
        <time>2020-08-09T12:54:17.720Z</time>
      </trkpt>
      <trkpt lat="64.28908" lon="10.44037">
        <ele>54.830073</ele>
        <time>2020-08-09T12:54:19.723Z</time>
      </trkpt>
      <trkpt lat="64.2891" lon="10.44072">
        <ele>53.863806</ele>
        <time>2020-08-09T12:54:21.717Z</time>
      </trkpt>
      <trkpt lat="64.28913" lon="10.44108">
        <ele>52.877868</ele>
        <time>2020-08-09T12:54:23.727Z</time>
      </trkpt>
      <trkpt lat="64.28916" lon="10.44144">
        <ele>51.876921</ele>
        <time>2020-08-09T12:54:25.735Z</time>
      </trkpt>
      <trkpt lat="64.28919" lon="10.4418">
        <ele>50.891522</ele>
        <time>2020-08-09T12:54:27.754Z</time>
      </trkpt>
      <trkpt lat="64.28921" lon="10.4421">
        <ele>50.070347</ele>
        <time>2020-08-09T12:54:29.734Z</time>
      </trkpt>
      <trkpt lat="64.28924" lon="10.44237">
        <ele>49.331092</ele>
        <time>2020-08-09T12:54:31.722Z</time>
      </trkpt>
      <trkpt lat="64.28927" lon="10.44266">
        <ele>48.513956</ele>
        <time>2020-08-09T12:54:33.705Z</time>
      </trkpt>
      <trkpt lat="64.28929" lon="10.44297">
        <ele>47.665913</ele>
        <time>2020-08-09T12:54:35.715Z</time>
      </trkpt>
      <trkpt lat="64.28931" lon="10.44327">
        <ele>46.84396</ele>
        <time>2020-08-09T12:54:37.726Z</time>
      </trkpt>
      <trkpt lat="64.28934" lon="10.44353">
        <ele>46.127111</ele>
        <time>2020-08-09T12:54:39.718Z</time>
      </trkpt>
      <trkpt lat="64.28936" lon="10.44382">
        <ele>45.873647</ele>
        <time>2020-08-09T12:54:42.734Z</time>
      </trkpt>
      <trkpt lat="64.28937" lon="10.44404">
        <ele>45.781709</ele>
        <time>2020-08-09T12:54:44.732Z</time>
      </trkpt>
      <trkpt lat="64.28939" lon="10.44426">
        <ele>45.690603</ele>
        <time>2020-08-09T12:54:46.732Z</time>
      </trkpt>
      <trkpt lat="64.28942" lon="10.44448">
        <ele>45.597388</ele>
        <time>2020-08-09T12:54:48.718Z</time>
      </trkpt>
      <trkpt lat="64.28945" lon="10.44472">
        <ele>45.500237</ele>
        <time>2020-08-09T12:54:50.722Z</time>
      </trkpt>
      <trkpt lat="64.28948" lon="10.44494">
        <ele>45.40452</ele>
        <time>2020-08-09T12:54:52.718Z</time>
      </trkpt>
      <trkpt lat="64.28952" lon="10.44516">
        <ele>45.305554</ele>
        <time>2020-08-09T12:54:54.719Z</time>
      </trkpt>
      <trkpt lat="64.28956" lon="10.44537">
        <ele>45.21107</ele>
        <time>2020-08-09T12:54:56.742Z</time>
      </trkpt>
      <trkpt lat="64.28961" lon="10.44557">
        <ele>45.121296</ele>
        <time>2020-08-09T12:54:58.707Z</time>
      </trkpt>
      <trkpt lat="64.28965" lon="10.44576">
        <ele>45.03485</ele>
        <time>2020-08-09T12:55:00.739Z</time>
      </trkpt>
      <trkpt lat="64.28969" lon="10.44597">
        <ele>44.938772</ele>
        <time>2020-08-09T12:55:02.723Z</time>
      </trkpt>
      <trkpt lat="64.28974" lon="10.44617">
        <ele>44.846622</ele>
        <time>2020-08-09T12:55:04.706Z</time>
      </trkpt>
      <trkpt lat="64.28979" lon="10.44638">
        <ele>44.752368</ele>
        <time>2020-08-09T12:55:06.729Z</time>
      </trkpt>
      <trkpt lat="64.28983" lon="10.44657">
        <ele>44.662958</ele>
        <time>2020-08-09T12:55:08.706Z</time>
      </trkpt>
      <trkpt lat="64.28987" lon="10.44677">
        <ele>44.574274</ele>
        <time>2020-08-09T12:55:10.721Z</time>
      </trkpt>
      <trkpt lat="64.28991" lon="10.44696">
        <ele>44.48674</ele>
        <time>2020-08-09T12:55:12.725Z</time>
      </trkpt>
      <trkpt lat="64.28996" lon="10.44716">
        <ele>44.396967</ele>
        <time>2020-08-09T12:55:14.742Z</time>
      </trkpt>
      <trkpt lat="64.29" lon="10.44735">
        <ele>44.309487</ele>
        <time>2020-08-09T12:55:16.699Z</time>
      </trkpt>
      <trkpt lat="64.29004" lon="10.44754">
        <ele>44.425976</ele>
        <time>2020-08-09T12:55:18.735Z</time>
      </trkpt>
      <trkpt lat="64.29008" lon="10.44774">
        <ele>44.637406</ele>
        <time>2020-08-09T12:55:20.720Z</time>
      </trkpt>
      <trkpt lat="64.29012" lon="10.44792">
        <ele>44.845729</ele>
        <time>2020-08-09T12:55:22.713Z</time>
      </trkpt>
      <trkpt lat="64.29016" lon="10.44812">
        <ele>45.055492</ele>
        <time>2020-08-09T12:55:24.734Z</time>
      </trkpt>
      <trkpt lat="64.29021" lon="10.4483">
        <ele>45.263642</ele>
        <time>2020-08-09T12:55:26.749Z</time>
      </trkpt>
      <trkpt lat="64.29025" lon="10.44849">
        <ele>45.468309</ele>
        <time>2020-08-09T12:55:28.725Z</time>
      </trkpt>
      <trkpt lat="64.29029" lon="10.4487">
        <ele>45.693272</ele>
        <time>2020-08-09T12:55:30.735Z</time>
      </trkpt>
      <trkpt lat="64.29034" lon="10.4489">
        <ele>45.916725</ele>
        <time>2020-08-09T12:55:32.726Z</time>
      </trkpt>
      <trkpt lat="64.29038" lon="10.44911">
        <ele>46.14557</ele>
        <time>2020-08-09T12:55:34.727Z</time>
      </trkpt>
      <trkpt lat="64.29043" lon="10.44931">
        <ele>46.367279</ele>
        <time>2020-08-09T12:55:36.722Z</time>
      </trkpt>
      <trkpt lat="64.29047" lon="10.44952">
        <ele>46.596753</ele>
        <time>2020-08-09T12:55:38.716Z</time>
      </trkpt>
      <trkpt lat="64.29051" lon="10.44971">
        <ele>46.808275</ele>
        <time>2020-08-09T12:55:40.736Z</time>
      </trkpt>
      <trkpt lat="64.29055" lon="10.44991">
        <ele>47.017857</ele>
        <time>2020-08-09T12:55:42.723Z</time>
      </trkpt>
      <trkpt lat="64.2906" lon="10.45009">
        <ele>47.222108</ele>
        <time>2020-08-09T12:55:44.709Z</time>
      </trkpt>
      <trkpt lat="64.29068" lon="10.45032">
        <ele>47.5112</ele>
        <time>2020-08-09T12:55:47.738Z</time>
      </trkpt>
      <trkpt lat="64.29077" lon="10.45051">
        <ele>47.78462</ele>
        <time>2020-08-09T12:55:50.708Z</time>
      </trkpt>
      <trkpt lat="64.29086" lon="10.45066">
        <ele>48.036134</ele>
        <time>2020-08-09T12:55:53.707Z</time>
      </trkpt>
      <trkpt lat="64.29095" lon="10.45077">
        <ele>48.267398</ele>
        <time>2020-08-09T12:55:56.718Z</time>
      </trkpt>
      <trkpt lat="64.29106" lon="10.45085">
        <ele>48.647619</ele>
        <time>2020-08-09T12:56:00.714Z</time>
      </trkpt>
      <trkpt lat="64.29116" lon="10.45091">
        <ele>49.031714</ele>
        <time>2020-08-09T12:56:04.723Z</time>
      </trkpt>
      <trkpt lat="64.29126" lon="10.45096">
        <ele>49.409398</ele>
        <time>2020-08-09T12:56:08.721Z</time>
      </trkpt>
      <trkpt lat="64.29136" lon="10.45098">
        <ele>49.749686</ele>
        <time>2020-08-09T12:56:12.725Z</time>
      </trkpt>
      <trkpt lat="64.29145" lon="10.45096">
        <ele>50.089974</ele>
        <time>2020-08-09T12:56:16.718Z</time>
      </trkpt>
      <trkpt lat="64.29155" lon="10.45096">
        <ele>50.437342</ele>
        <time>2020-08-09T12:56:21.724Z</time>
      </trkpt>
      <trkpt lat="64.29163" lon="10.4509">
        <ele>50.765212</ele>
        <time>2020-08-09T12:56:26.725Z</time>
      </trkpt>
      <trkpt lat="64.29172" lon="10.45081">
        <ele>51.098348</ele>
        <time>2020-08-09T12:56:31.710Z</time>
      </trkpt>
      <trkpt lat="64.2918" lon="10.45072">
        <ele>51.438721</ele>
        <time>2020-08-09T12:56:36.706Z</time>
      </trkpt>
      <trkpt lat="64.2919" lon="10.45059">
        <ele>51.828854</ele>
        <time>2020-08-09T12:56:42.728Z</time>
      </trkpt>
      <trkpt lat="64.29198" lon="10.45043">
        <ele>52.211461</ele>
        <time>2020-08-09T12:56:48.726Z</time>
      </trkpt>
      <trkpt lat="64.29205" lon="10.45028">
        <ele>52.569217</ele>
        <time>2020-08-09T12:56:53.709Z</time>
      </trkpt>
      <trkpt lat="64.29211" lon="10.45008">
        <ele>52.946776</ele>
        <time>2020-08-09T12:56:59.723Z</time>
      </trkpt>
      <trkpt lat="64.29216" lon="10.4499">
        <ele>53.285945</ele>
        <time>2020-08-09T12:57:04.709Z</time>
      </trkpt>
      <trkpt lat="64.29221" lon="10.44968">
        <ele>53.674072</ele>
        <time>2020-08-09T12:57:09.713Z</time>
      </trkpt>
      <trkpt lat="64.29226" lon="10.44948">
        <ele>54.03978</ele>
        <time>2020-08-09T12:57:14.707Z</time>
      </trkpt>
      <trkpt lat="64.2923" lon="10.44929">
        <ele>54.372591</ele>
        <time>2020-08-09T12:57:19.716Z</time>
      </trkpt>
      <trkpt lat="64.29234" lon="10.44908">
        <ele>54.735178</ele>
        <time>2020-08-09T12:57:24.704Z</time>
      </trkpt>
      <trkpt lat="64.29239" lon="10.44888">
        <ele>55.100515</ele>
        <time>2020-08-09T12:57:29.722Z</time>
      </trkpt>
      <trkpt lat="64.29243" lon="10.44868">
        <ele>55.488696</ele>
        <time>2020-08-09T12:57:34.725Z</time>
      </trkpt>
      <trkpt lat="64.29248" lon="10.44846">
        <ele>55.916783</ele>
        <time>2020-08-09T12:57:40.728Z</time>
      </trkpt>
      <trkpt lat="64.29252" lon="10.44826">
        <ele>56.302681</ele>
        <time>2020-08-09T12:57:45.734Z</time>
      </trkpt>
      <trkpt lat="64.29255" lon="10.44806">
        <ele>56.667932</ele>
        <time>2020-08-09T12:57:50.734Z</time>
      </trkpt>
      <trkpt lat="64.29259" lon="10.44786">
        <ele>57.057015</ele>
        <time>2020-08-09T12:57:55.729Z</time>
      </trkpt>
      <trkpt lat="64.29263" lon="10.44765">
        <ele>57.452591</ele>
        <time>2020-08-09T12:58:00.724Z</time>
      </trkpt>
      <trkpt lat="64.29268" lon="10.44743">
        <ele>57.873624</ele>
        <time>2020-08-09T12:58:06.702Z</time>
      </trkpt>
      <trkpt lat="64.29272" lon="10.44724">
        <ele>58.252909</ele>
        <time>2020-08-09T12:58:11.714Z</time>
      </trkpt>
      <trkpt lat="64.29277" lon="10.44705">
        <ele>58.626055</ele>
        <time>2020-08-09T12:58:16.719Z</time>
      </trkpt>
      <trkpt lat="64.29282" lon="10.44685">
        <ele>59.031163</ele>
        <time>2020-08-09T12:58:22.727Z</time>
      </trkpt>
      <trkpt lat="64.29289" lon="10.44665">
        <ele>59.459501</ele>
        <time>2020-08-09T12:58:28.710Z</time>
      </trkpt>
      <trkpt lat="64.29296" lon="10.44647">
        <ele>59.871557</ele>
        <time>2020-08-09T12:58:34.743Z</time>
      </trkpt>
      <trkpt lat="64.29303" lon="10.44633">
        <ele>60.27887</ele>
        <time>2020-08-09T12:58:39.724Z</time>
      </trkpt>
      <trkpt lat="64.29311" lon="10.4462">
        <ele>60.655677</ele>
        <time>2020-08-09T12:58:44.764Z</time>
      </trkpt>
      <trkpt lat="64.29319" lon="10.44609">
        <ele>61.033481</ele>
        <time>2020-08-09T12:58:49.742Z</time>
      </trkpt>
      <trkpt lat="64.29328" lon="10.446">
        <ele>61.427767</ele>
        <time>2020-08-09T12:58:54.711Z</time>
      </trkpt>
      <trkpt lat="64.29338" lon="10.44591">
        <ele>61.84311</ele>
        <time>2020-08-09T12:58:59.745Z</time>
      </trkpt>
      <trkpt lat="64.29349" lon="10.44585">
        <ele>62.265821</ele>
        <time>2020-08-09T12:59:04.731Z</time>
      </trkpt>
      <trkpt lat="64.29359" lon="10.44578">
        <ele>62.669948</ele>
        <time>2020-08-09T12:59:08.730Z</time>
      </trkpt>
      <trkpt lat="64.2937" lon="10.44571">
        <ele>63.074076</ele>
        <time>2020-08-09T12:59:12.707Z</time>
      </trkpt>
      <trkpt lat="64.2938" lon="10.44567">
        <ele>63.449558</ele>
        <time>2020-08-09T12:59:16.706Z</time>
      </trkpt>
      <trkpt lat="64.29388" lon="10.44562">
        <ele>63.788021</ele>
        <time>2020-08-09T12:59:20.717Z</time>
      </trkpt>
      <trkpt lat="64.29399" lon="10.44558">
        <ele>64.178186</ele>
        <time>2020-08-09T12:59:25.707Z</time>
      </trkpt>
      <trkpt lat="64.29407" lon="10.44553">
        <ele>64.510773</ele>
        <time>2020-08-09T12:59:29.744Z</time>
      </trkpt>
      <trkpt lat="64.29417" lon="10.44549">
        <ele>64.871591</ele>
        <time>2020-08-09T12:59:33.706Z</time>
      </trkpt>
      <trkpt lat="64.29428" lon="10.44545">
        <ele>65.287493</ele>
        <time>2020-08-09T12:59:38.745Z</time>
      </trkpt>
      <trkpt lat="64.29437" lon="10.44541">
        <ele>65.621158</ele>
        <time>2020-08-09T12:59:42.714Z</time>
      </trkpt>
      <trkpt lat="64.29447" lon="10.44536">
        <ele>66.022802</ele>
        <time>2020-08-09T12:59:47.751Z</time>
      </trkpt>
      <trkpt lat="64.29458" lon="10.44531">
        <ele>66.422089</ele>
        <time>2020-08-09T12:59:51.724Z</time>
      </trkpt>
      <trkpt lat="64.2947" lon="10.44526">
        <ele>66.872439</ele>
        <time>2020-08-09T12:59:55.707Z</time>
      </trkpt>
      <trkpt lat="64.29481" lon="10.44522">
        <ele>67.306501</ele>
        <time>2020-08-09T12:59:59.715Z</time>
      </trkpt>
      <trkpt lat="64.29492" lon="10.44518">
        <ele>67.73713</ele>
        <time>2020-08-09T13:00:03.704Z</time>
      </trkpt>
      <trkpt lat="64.29503" lon="10.44515">
        <ele>68.146411</ele>
        <time>2020-08-09T13:00:07.742Z</time>
      </trkpt>
      <trkpt lat="64.29512" lon="10.44516">
        <ele>68.486098</ele>
        <time>2020-08-09T13:00:10.727Z</time>
      </trkpt>
      <trkpt lat="64.29523" lon="10.44516">
        <ele>68.649253</ele>
        <time>2020-08-09T13:00:13.723Z</time>
      </trkpt>
      <trkpt lat="64.29533" lon="10.44518">
        <ele>68.395822</ele>
        <time>2020-08-09T13:00:16.726Z</time>
      </trkpt>
      <trkpt lat="64.29544" lon="10.44521">
        <ele>68.14167</ele>
        <time>2020-08-09T13:00:19.751Z</time>
      </trkpt>
      <trkpt lat="64.29554" lon="10.44523">
        <ele>67.897102</ele>
        <time>2020-08-09T13:00:22.732Z</time>
      </trkpt>
      <trkpt lat="64.29564" lon="10.44528">
        <ele>67.64794</ele>
        <time>2020-08-09T13:00:25.720Z</time>
      </trkpt>
      <trkpt lat="64.29575" lon="10.44533">
        <ele>67.400491</ele>
        <time>2020-08-09T13:00:28.711Z</time>
      </trkpt>
      <trkpt lat="64.29585" lon="10.44542">
        <ele>67.145151</ele>
        <time>2020-08-09T13:00:31.740Z</time>
      </trkpt>
      <trkpt lat="64.29595" lon="10.4455">
        <ele>66.875899</ele>
        <time>2020-08-09T13:00:34.729Z</time>
      </trkpt>
      <trkpt lat="64.29606" lon="10.44561">
        <ele>66.594501</ele>
        <time>2020-08-09T13:00:37.712Z</time>
      </trkpt>
      <trkpt lat="64.29617" lon="10.44572">
        <ele>66.308961</ele>
        <time>2020-08-09T13:00:40.726Z</time>
      </trkpt>
      <trkpt lat="64.29627" lon="10.44584">
        <ele>66.042767</ele>
        <time>2020-08-09T13:00:43.713Z</time>
      </trkpt>
      <trkpt lat="64.29637" lon="10.44595">
        <ele>65.770159</ele>
        <time>2020-08-09T13:00:46.762Z</time>
      </trkpt>
      <trkpt lat="64.29649" lon="10.44608">
        <ele>65.47193</ele>
        <time>2020-08-09T13:00:49.746Z</time>
      </trkpt>
      <trkpt lat="64.2966" lon="10.44621">
        <ele>65.160858</ele>
        <time>2020-08-09T13:00:52.716Z</time>
      </trkpt>
      <trkpt lat="64.29672" lon="10.44634">
        <ele>64.859573</ele>
        <time>2020-08-09T13:00:55.715Z</time>
      </trkpt>
      <trkpt lat="64.29683" lon="10.44647">
        <ele>64.549294</ele>
        <time>2020-08-09T13:00:58.720Z</time>
      </trkpt>
      <trkpt lat="64.29695" lon="10.44661">
        <ele>64.404471</ele>
        <time>2020-08-09T13:01:01.716Z</time>
      </trkpt>
      <trkpt lat="64.29703" lon="10.44669">
        <ele>64.358134</ele>
        <time>2020-08-09T13:01:03.728Z</time>
      </trkpt>
      <trkpt lat="64.29712" lon="10.44679">
        <ele>64.30899</ele>
        <time>2020-08-09T13:01:05.733Z</time>
      </trkpt>
      <trkpt lat="64.2972" lon="10.44689">
        <ele>64.260861</ele>
        <time>2020-08-09T13:01:07.727Z</time>
      </trkpt>
      <trkpt lat="64.29729" lon="10.44699">
        <ele>64.212532</ele>
        <time>2020-08-09T13:01:09.716Z</time>
      </trkpt>
      <trkpt lat="64.29737" lon="10.44709">
        <ele>64.163339</ele>
        <time>2020-08-09T13:01:11.740Z</time>
      </trkpt>
      <trkpt lat="64.29746" lon="10.44719">
        <ele>64.11439</ele>
        <time>2020-08-09T13:01:13.728Z</time>
      </trkpt>
      <trkpt lat="64.29755" lon="10.44729">
        <ele>64.063629</ele>
        <time>2020-08-09T13:01:15.730Z</time>
      </trkpt>
      <trkpt lat="64.29764" lon="10.44741">
        <ele>64.012027</ele>
        <time>2020-08-09T13:01:17.729Z</time>
      </trkpt>
      <trkpt lat="64.29772" lon="10.44754">
        <ele>63.958223</ele>
        <time>2020-08-09T13:01:19.716Z</time>
      </trkpt>
      <trkpt lat="64.29781" lon="10.44772">
        <ele>63.900374</ele>
        <time>2020-08-09T13:01:21.739Z</time>
      </trkpt>
      <trkpt lat="64.29787" lon="10.44793">
        <ele>63.843166</ele>
        <time>2020-08-09T13:01:23.721Z</time>
      </trkpt>
      <trkpt lat="64.29793" lon="10.44818">
        <ele>63.779734</ele>
        <time>2020-08-09T13:01:25.720Z</time>
      </trkpt>
      <trkpt lat="64.29795" lon="10.44843">
        <ele>63.723929</ele>
        <time>2020-08-09T13:01:27.737Z</time>
      </trkpt>
      <trkpt lat="64.29797" lon="10.44867">
        <ele>63.668144</ele>
        <time>2020-08-09T13:01:29.713Z</time>
      </trkpt>
      <trkpt lat="64.29798" lon="10.44893">
        <ele>63.610488</ele>
        <time>2020-08-09T13:01:31.710Z</time>
      </trkpt>
      <trkpt lat="64.29797" lon="10.44919">
        <ele>63.554017</ele>
        <time>2020-08-09T13:01:33.708Z</time>
      </trkpt>
      <trkpt lat="64.29796" lon="10.44945">
        <ele>63.617299</ele>
        <time>2020-08-09T13:01:35.739Z</time>
      </trkpt>
      <trkpt lat="64.29793" lon="10.44969">
        <ele>63.76492</ele>
        <time>2020-08-09T13:01:37.748Z</time>
      </trkpt>
      <trkpt lat="64.2979" lon="10.44995">
        <ele>63.919543</ele>
        <time>2020-08-09T13:01:39.713Z</time>
      </trkpt>
      <trkpt lat="64.29786" lon="10.4502">
        <ele>64.07474</ele>
        <time>2020-08-09T13:01:41.718Z</time>
      </trkpt>
      <trkpt lat="64.29783" lon="10.45045">
        <ele>64.227205</ele>
        <time>2020-08-09T13:01:43.710Z</time>
      </trkpt>
      <trkpt lat="64.29778" lon="10.45071">
        <ele>64.389024</ele>
        <time>2020-08-09T13:01:45.706Z</time>
      </trkpt>
      <trkpt lat="64.29775" lon="10.45096">
        <ele>64.541046</ele>
        <time>2020-08-09T13:01:47.761Z</time>
      </trkpt>
      <trkpt lat="64.29771" lon="10.45122">
        <ele>64.705929</ele>
        <time>2020-08-09T13:01:49.714Z</time>
      </trkpt>
      <trkpt lat="64.29767" lon="10.45145">
        <ele>64.84581</ele>
        <time>2020-08-09T13:01:51.730Z</time>
      </trkpt>
      <trkpt lat="64.29763" lon="10.45171">
        <ele>65.005277</ele>
        <time>2020-08-09T13:01:53.744Z</time>
      </trkpt>
      <trkpt lat="64.29759" lon="10.45194">
        <ele>65.151517</ele>
        <time>2020-08-09T13:01:55.718Z</time>
      </trkpt>
      <trkpt lat="64.29756" lon="10.45217">
        <ele>65.289931</ele>
        <time>2020-08-09T13:01:57.742Z</time>
      </trkpt>
      <trkpt lat="64.29756" lon="10.4524">
        <ele>65.423321</ele>
        <time>2020-08-09T13:01:59.707Z</time>
      </trkpt>
      <trkpt lat="64.29756" lon="10.45264">
        <ele>65.562967</ele>
        <time>2020-08-09T13:02:01.700Z</time>
      </trkpt>
      <trkpt lat="64.29758" lon="10.45285">
        <ele>65.686102</ele>
        <time>2020-08-09T13:02:03.716Z</time>
      </trkpt>
      <trkpt lat="64.2976" lon="10.45306">
        <ele>65.814083</ele>
        <time>2020-08-09T13:02:05.718Z</time>
      </trkpt>
      <trkpt lat="64.29763" lon="10.45327">
        <ele>65.940632</ele>
        <time>2020-08-09T13:02:07.728Z</time>
      </trkpt>
      <trkpt lat="64.2977" lon="10.45352">
        <ele>65.963031</ele>
        <time>2020-08-09T13:02:10.716Z</time>
      </trkpt>
      <trkpt lat="64.29778" lon="10.45377">
        <ele>65.984219</ele>
        <time>2020-08-09T13:02:13.742Z</time>
      </trkpt>
      <trkpt lat="64.29785" lon="10.45398">
        <ele>66.002806</ele>
        <time>2020-08-09T13:02:16.701Z</time>
      </trkpt>
      <trkpt lat="64.29794" lon="10.45414">
        <ele>66.020522</ele>
        <time>2020-08-09T13:02:19.707Z</time>
      </trkpt>
      <trkpt lat="64.29804" lon="10.45427">
        <ele>66.039807</ele>
        <time>2020-08-09T13:02:22.729Z</time>
      </trkpt>
      <trkpt lat="64.29816" lon="10.45438">
        <ele>66.060361</ele>
        <time>2020-08-09T13:02:25.723Z</time>
      </trkpt>
      <trkpt lat="64.29829" lon="10.45444">
        <ele>66.081539</ele>
        <time>2020-08-09T13:02:28.717Z</time>
      </trkpt>
      <trkpt lat="64.29842" lon="10.45449">
        <ele>66.103219</ele>
        <time>2020-08-09T13:02:31.718Z</time>
      </trkpt>
      <trkpt lat="64.29852" lon="10.45451">
        <ele>66.118724</ele>
        <time>2020-08-09T13:02:33.721Z</time>
      </trkpt>
      <trkpt lat="64.29861" lon="10.45453">
        <ele>66.133729</ele>
        <time>2020-08-09T13:02:35.722Z</time>
      </trkpt>
      <trkpt lat="64.2987" lon="10.45454">
        <ele>66.148222</ele>
        <time>2020-08-09T13:02:37.734Z</time>
      </trkpt>
      <trkpt lat="64.29879" lon="10.45456">
        <ele>66.162889</ele>
        <time>2020-08-09T13:02:39.722Z</time>
      </trkpt>
      <trkpt lat="64.29889" lon="10.45458">
        <ele>66.177717</ele>
        <time>2020-08-09T13:02:41.708Z</time>
      </trkpt>
      <trkpt lat="64.29897" lon="10.45459">
        <ele>66.192049</ele>
        <time>2020-08-09T13:02:43.703Z</time>
      </trkpt>
      <trkpt lat="64.29907" lon="10.45461">
        <ele>66.206734</ele>
        <time>2020-08-09T13:02:45.746Z</time>
      </trkpt>
      <trkpt lat="64.29916" lon="10.45462">
        <ele>66.221242</ele>
        <time>2020-08-09T13:02:47.717Z</time>
      </trkpt>
      <trkpt lat="64.29929" lon="10.45465">
        <ele>65.985971</ele>
        <time>2020-08-09T13:02:50.728Z</time>
      </trkpt>
      <trkpt lat="64.29942" lon="10.45467">
        <ele>65.516821</ele>
        <time>2020-08-09T13:02:53.739Z</time>
      </trkpt>
      <trkpt lat="64.29955" lon="10.45469">
        <ele>65.044</ele>
        <time>2020-08-09T13:02:56.762Z</time>
      </trkpt>
      <trkpt lat="64.29964" lon="10.4547">
        <ele>64.714714</ele>
        <time>2020-08-09T13:02:58.727Z</time>
      </trkpt>
      <trkpt lat="64.29973" lon="10.45471">
        <ele>64.38177</ele>
        <time>2020-08-09T13:03:00.715Z</time>
      </trkpt>
      <trkpt lat="64.29983" lon="10.45473">
        <ele>64.041269</ele>
        <time>2020-08-09T13:03:02.728Z</time>
      </trkpt>
      <trkpt lat="64.29992" lon="10.45475">
        <ele>63.715139</ele>
        <time>2020-08-09T13:03:04.741Z</time>
      </trkpt>
      <trkpt lat="64.30002" lon="10.45476">
        <ele>63.356821</ele>
        <time>2020-08-09T13:03:06.719Z</time>
      </trkpt>
      <trkpt lat="64.30012" lon="10.45479">
        <ele>62.985828</ele>
        <time>2020-08-09T13:03:08.709Z</time>
      </trkpt>
      <trkpt lat="64.30023" lon="10.45484">
        <ele>62.612316</ele>
        <time>2020-08-09T13:03:10.708Z</time>
      </trkpt>
      <trkpt lat="64.30033" lon="10.45489">
        <ele>62.228867</ele>
        <time>2020-08-09T13:03:12.737Z</time>
      </trkpt>
      <trkpt lat="64.30044" lon="10.45495">
        <ele>61.808848</ele>
        <time>2020-08-09T13:03:14.726Z</time>
      </trkpt>
      <trkpt lat="64.30057" lon="10.45505">
        <ele>61.340935</ele>
        <time>2020-08-09T13:03:16.741Z</time>
      </trkpt>
      <trkpt lat="64.3007" lon="10.45516">
        <ele>60.846096</ele>
        <time>2020-08-09T13:03:18.719Z</time>
      </trkpt>
      <trkpt lat="64.30083" lon="10.4553">
        <ele>60.314508</ele>
        <time>2020-08-09T13:03:20.718Z</time>
      </trkpt>
      <trkpt lat="64.30097" lon="10.45545">
        <ele>59.76276</ele>
        <time>2020-08-09T13:03:22.717Z</time>
      </trkpt>
      <trkpt lat="64.30112" lon="10.45562">
        <ele>58.941223</ele>
        <time>2020-08-09T13:03:24.713Z</time>
      </trkpt>
      <trkpt lat="64.30127" lon="10.4558">
        <ele>58.093019</ele>
        <time>2020-08-09T13:03:26.737Z</time>
      </trkpt>
      <trkpt lat="64.30143" lon="10.456">
        <ele>57.22302</ele>
        <time>2020-08-09T13:03:28.704Z</time>
      </trkpt>
      <trkpt lat="64.30151" lon="10.45611">
        <ele>56.775749</ele>
        <time>2020-08-09T13:03:29.717Z</time>
      </trkpt>
      <trkpt lat="64.30158" lon="10.45622">
        <ele>56.334875</ele>
        <time>2020-08-09T13:03:30.723Z</time>
      </trkpt>
      <trkpt lat="64.30166" lon="10.45632">
        <ele>55.896181</ele>
        <time>2020-08-09T13:03:31.718Z</time>
      </trkpt>
      <trkpt lat="64.30174" lon="10.45643">
        <ele>55.448911</ele>
        <time>2020-08-09T13:03:32.728Z</time>
      </trkpt>
      <trkpt lat="64.30182" lon="10.45655">
        <ele>54.996039</ele>
        <time>2020-08-09T13:03:33.729Z</time>
      </trkpt>
      <trkpt lat="64.30189" lon="10.45666">
        <ele>54.54499</ele>
        <time>2020-08-09T13:03:34.705Z</time>
      </trkpt>
      <trkpt lat="64.30197" lon="10.45678">
        <ele>54.088672</ele>
        <time>2020-08-09T13:03:35.763Z</time>
      </trkpt>
      <trkpt lat="64.30213" lon="10.457">
        <ele>53.184406</ele>
        <time>2020-08-09T13:03:37.715Z</time>
      </trkpt>
      <trkpt lat="64.30221" lon="10.45712">
        <ele>52.721244</ele>
        <time>2020-08-09T13:03:38.729Z</time>
      </trkpt>
      <trkpt lat="64.30229" lon="10.45724">
        <ele>52.244975</ele>
        <time>2020-08-09T13:03:39.720Z</time>
      </trkpt>
      <trkpt lat="64.30237" lon="10.45735">
        <ele>51.770972</ele>
        <time>2020-08-09T13:03:40.768Z</time>
      </trkpt>
      <trkpt lat="64.30246" lon="10.45748">
        <ele>51.291255</ele>
        <time>2020-08-09T13:03:41.729Z</time>
      </trkpt>
      <trkpt lat="64.30254" lon="10.4576">
        <ele>50.853247</ele>
        <time>2020-08-09T13:03:42.758Z</time>
      </trkpt>
      <trkpt lat="64.30262" lon="10.45772">
        <ele>50.51518</ele>
        <time>2020-08-09T13:03:43.714Z</time>
      </trkpt>
      <trkpt lat="64.3027" lon="10.45784">
        <ele>50.16409</ele>
        <time>2020-08-09T13:03:44.732Z</time>
      </trkpt>
      <trkpt lat="64.30278" lon="10.45795">
        <ele>49.813817</ele>
        <time>2020-08-09T13:03:45.712Z</time>
      </trkpt>
      <trkpt lat="64.30287" lon="10.45807">
        <ele>49.466612</ele>
        <time>2020-08-09T13:03:46.716Z</time>
      </trkpt>
      <trkpt lat="64.30295" lon="10.45818">
        <ele>49.125738</ele>
        <time>2020-08-09T13:03:47.728Z</time>
      </trkpt>
      <trkpt lat="64.30303" lon="10.4583">
        <ele>48.785975</ele>
        <time>2020-08-09T13:03:48.710Z</time>
      </trkpt>
      <trkpt lat="64.30311" lon="10.45842">
        <ele>48.444035</ele>
        <time>2020-08-09T13:03:49.717Z</time>
      </trkpt>
      <trkpt lat="64.30319" lon="10.45853">
        <ele>48.108477</ele>
        <time>2020-08-09T13:03:50.703Z</time>
      </trkpt>
      <trkpt lat="64.30326" lon="10.45865">
        <ele>47.768714</ele>
        <time>2020-08-09T13:03:51.721Z</time>
      </trkpt>
      <trkpt lat="64.30334" lon="10.45877">
        <ele>47.437543</ele>
        <time>2020-08-09T13:03:52.712Z</time>
      </trkpt>
      <trkpt lat="64.30349" lon="10.45898">
        <ele>46.814083</ele>
        <time>2020-08-09T13:03:54.735Z</time>
      </trkpt>
      <trkpt lat="64.30363" lon="10.45918">
        <ele>46.226041</ele>
        <time>2020-08-09T13:03:56.710Z</time>
      </trkpt>
      <trkpt lat="64.30376" lon="10.45938">
        <ele>45.662067</ele>
        <time>2020-08-09T13:03:58.719Z</time>
      </trkpt>
      <trkpt lat="64.30387" lon="10.45957">
        <ele>45.143867</ele>
        <time>2020-08-09T13:04:00.733Z</time>
      </trkpt>
      <trkpt lat="64.30397" lon="10.45975">
        <ele>44.695661</ele>
        <time>2020-08-09T13:04:02.715Z</time>
      </trkpt>
      <trkpt lat="64.30407" lon="10.45993">
        <ele>44.517268</ele>
        <time>2020-08-09T13:04:04.714Z</time>
      </trkpt>
      <trkpt lat="64.30415" lon="10.4601">
        <ele>44.534809</ele>
        <time>2020-08-09T13:04:06.715Z</time>
      </trkpt>
      <trkpt lat="64.30422" lon="10.46026">
        <ele>44.550492</ele>
        <time>2020-08-09T13:04:08.746Z</time>
      </trkpt>
      <trkpt lat="64.30429" lon="10.46042">
        <ele>44.565237</ele>
        <time>2020-08-09T13:04:10.726Z</time>
      </trkpt>
      <trkpt lat="64.30438" lon="10.46064">
        <ele>44.585952</ele>
        <time>2020-08-09T13:04:13.721Z</time>
      </trkpt>
      <trkpt lat="64.30446" lon="10.46085">
        <ele>44.605419</ele>
        <time>2020-08-09T13:04:16.722Z</time>
      </trkpt>
      <trkpt lat="64.30454" lon="10.46109">
        <ele>44.626032</ele>
        <time>2020-08-09T13:04:19.748Z</time>
      </trkpt>
      <trkpt lat="64.30462" lon="10.46134">
        <ele>44.646882</ele>
        <time>2020-08-09T13:04:22.714Z</time>
      </trkpt>
      <trkpt lat="64.30468" lon="10.46152">
        <ele>44.661794</ele>
        <time>2020-08-09T13:04:24.708Z</time>
      </trkpt>
      <trkpt lat="64.30473" lon="10.46169">
        <ele>44.67656</ele>
        <time>2020-08-09T13:04:26.715Z</time>
      </trkpt>
      <trkpt lat="64.30479" lon="10.46189">
        <ele>44.692306</ele>
        <time>2020-08-09T13:04:28.716Z</time>
      </trkpt>
      <trkpt lat="64.30484" lon="10.46209">
        <ele>44.708282</ele>
        <time>2020-08-09T13:04:30.710Z</time>
      </trkpt>
      <trkpt lat="64.3049" lon="10.46228">
        <ele>44.724294</ele>
        <time>2020-08-09T13:04:32.755Z</time>
      </trkpt>
      <trkpt lat="64.30496" lon="10.46249">
        <ele>44.740838</ele>
        <time>2020-08-09T13:04:34.726Z</time>
      </trkpt>
      <trkpt lat="64.30502" lon="10.46269">
        <ele>44.757237</ele>
        <time>2020-08-09T13:04:36.729Z</time>
      </trkpt>
      <trkpt lat="64.30507" lon="10.46289">
        <ele>44.773443</ele>
        <time>2020-08-09T13:04:38.728Z</time>
      </trkpt>
      <trkpt lat="64.30513" lon="10.4631">
        <ele>44.823607</ele>
        <time>2020-08-09T13:04:40.706Z</time>
      </trkpt>
      <trkpt lat="64.30518" lon="10.46332">
        <ele>45.076851</ele>
        <time>2020-08-09T13:04:42.720Z</time>
      </trkpt>
      <trkpt lat="64.30524" lon="10.46353">
        <ele>45.330955</ele>
        <time>2020-08-09T13:04:44.745Z</time>
      </trkpt>
      <trkpt lat="64.30529" lon="10.46374">
        <ele>45.57572</ele>
        <time>2020-08-09T13:04:46.733Z</time>
      </trkpt>
      <trkpt lat="64.30535" lon="10.46396">
        <ele>45.832083</ele>
        <time>2020-08-09T13:04:48.764Z</time>
      </trkpt>
      <trkpt lat="64.3054" lon="10.46417">
        <ele>46.085833</ele>
        <time>2020-08-09T13:04:50.773Z</time>
      </trkpt>
      <trkpt lat="64.30545" lon="10.46439">
        <ele>46.329787</ele>
        <time>2020-08-09T13:04:52.720Z</time>
      </trkpt>
      <trkpt lat="64.3055" lon="10.4646">
        <ele>46.573261</ele>
        <time>2020-08-09T13:04:54.744Z</time>
      </trkpt>
      <trkpt lat="64.30554" lon="10.46482">
        <ele>46.814603</ele>
        <time>2020-08-09T13:04:56.715Z</time>
      </trkpt>
      <trkpt lat="64.30558" lon="10.46504">
        <ele>47.049671</ele>
        <time>2020-08-09T13:04:58.724Z</time>
      </trkpt>
      <trkpt lat="64.30561" lon="10.46526">
        <ele>47.280107</ele>
        <time>2020-08-09T13:05:00.713Z</time>
      </trkpt>
      <trkpt lat="64.30563" lon="10.46546">
        <ele>47.496894</ele>
        <time>2020-08-09T13:05:02.730Z</time>
      </trkpt>
      <trkpt lat="64.30565" lon="10.46567">
        <ele>47.710557</ele>
        <time>2020-08-09T13:05:04.713Z</time>
      </trkpt>
      <trkpt lat="64.30567" lon="10.46587">
        <ele>47.920188</ele>
        <time>2020-08-09T13:05:06.706Z</time>
      </trkpt>
      <trkpt lat="64.30569" lon="10.46615">
        <ele>48.207434</ele>
        <time>2020-08-09T13:05:09.703Z</time>
      </trkpt>
      <trkpt lat="64.30572" lon="10.46641">
        <ele>48.478877</ele>
        <time>2020-08-09T13:05:12.725Z</time>
      </trkpt>
      <trkpt lat="64.30574" lon="10.46667">
        <ele>48.73994</ele>
        <time>2020-08-09T13:05:15.704Z</time>
      </trkpt>
      <trkpt lat="64.30576" lon="10.46691">
        <ele>48.990062</ele>
        <time>2020-08-09T13:05:18.709Z</time>
      </trkpt>
      <trkpt lat="64.30578" lon="10.46715">
        <ele>49.126639</ele>
        <time>2020-08-09T13:05:21.728Z</time>
      </trkpt>
      <trkpt lat="64.3058" lon="10.46737">
        <ele>49.254703</ele>
        <time>2020-08-09T13:05:24.714Z</time>
      </trkpt>
      <trkpt lat="64.30582" lon="10.4676">
        <ele>49.383873</ele>
        <time>2020-08-09T13:05:27.724Z</time>
      </trkpt>
      <trkpt lat="64.30584" lon="10.46782">
        <ele>49.513043</ele>
        <time>2020-08-09T13:05:30.733Z</time>
      </trkpt>
      <trkpt lat="64.30586" lon="10.46804">
        <ele>49.639719</ele>
        <time>2020-08-09T13:05:33.710Z</time>
      </trkpt>
      <trkpt lat="64.30588" lon="10.46825">
        <ele>49.759514</ele>
        <time>2020-08-09T13:05:36.716Z</time>
      </trkpt>
      <trkpt lat="64.30591" lon="10.4685">
        <ele>49.907859</ele>
        <time>2020-08-09T13:05:40.726Z</time>
      </trkpt>
      <trkpt lat="64.30594" lon="10.46874">
        <ele>50.046821</ele>
        <time>2020-08-09T13:05:44.738Z</time>
      </trkpt>
      <trkpt lat="64.30595" lon="10.46897">
        <ele>50.176515</ele>
        <time>2020-08-09T13:05:48.704Z</time>
      </trkpt>
      <trkpt lat="64.3059" lon="10.46918">
        <ele>50.310837</ele>
        <time>2020-08-09T13:05:52.721Z</time>
      </trkpt>
      <trkpt lat="64.3058" lon="10.46933">
        <ele>50.466181</ele>
        <time>2020-08-09T13:05:55.728Z</time>
      </trkpt>
      <trkpt lat="64.30568" lon="10.46943">
        <ele>50.625308</ele>
        <time>2020-08-09T13:05:58.722Z</time>
      </trkpt>
      <trkpt lat="64.30556" lon="10.46954">
        <ele>50.794946</ele>
        <time>2020-08-09T13:06:01.719Z</time>
      </trkpt>
      <trkpt lat="64.30543" lon="10.46967">
        <ele>50.975532</ele>
        <time>2020-08-09T13:06:04.717Z</time>
      </trkpt>
      <trkpt lat="64.30535" lon="10.46975">
        <ele>51.099001</ele>
        <time>2020-08-09T13:06:06.726Z</time>
      </trkpt>
      <trkpt lat="64.30527" lon="10.46984">
        <ele>51.216076</ele>
        <time>2020-08-09T13:06:08.722Z</time>
      </trkpt>
      <trkpt lat="64.30518" lon="10.46993">
        <ele>51.301704</ele>
        <time>2020-08-09T13:06:10.707Z</time>
      </trkpt>
      <trkpt lat="64.30509" lon="10.47002">
        <ele>51.138738</ele>
        <time>2020-08-09T13:06:12.726Z</time>
      </trkpt>
      <trkpt lat="64.30501" lon="10.47011">
        <ele>50.973869</ele>
        <time>2020-08-09T13:06:14.758Z</time>
      </trkpt>
      <trkpt lat="64.30492" lon="10.47019">
        <ele>50.809925</ele>
        <time>2020-08-09T13:06:16.720Z</time>
      </trkpt>
      <trkpt lat="64.30484" lon="10.47028">
        <ele>50.646583</ele>
        <time>2020-08-09T13:06:18.711Z</time>
      </trkpt>
      <trkpt lat="64.30475" lon="10.47037">
        <ele>50.477533</ele>
        <time>2020-08-09T13:06:20.731Z</time>
      </trkpt>
      <trkpt lat="64.30466" lon="10.47045">
        <ele>50.314781</ele>
        <time>2020-08-09T13:06:22.718Z</time>
      </trkpt>
      <trkpt lat="64.30458" lon="10.47053">
        <ele>50.152321</ele>
        <time>2020-08-09T13:06:24.708Z</time>
      </trkpt>
      <trkpt lat="64.30449" lon="10.47061">
        <ele>49.993441</ele>
        <time>2020-08-09T13:06:26.751Z</time>
      </trkpt>
      <trkpt lat="64.3044" lon="10.47069">
        <ele>49.82965</ele>
        <time>2020-08-09T13:06:28.707Z</time>
      </trkpt>
      <trkpt lat="64.30432" lon="10.47076">
        <ele>49.670935</ele>
        <time>2020-08-09T13:06:30.732Z</time>
      </trkpt>
      <trkpt lat="64.30423" lon="10.47082">
        <ele>49.505599</ele>
        <time>2020-08-09T13:06:32.716Z</time>
      </trkpt>
      <trkpt lat="64.30414" lon="10.47089">
        <ele>49.339947</ele>
        <time>2020-08-09T13:06:34.768Z</time>
      </trkpt>
      <trkpt lat="64.30404" lon="10.47094">
        <ele>49.173836</ele>
        <time>2020-08-09T13:06:36.720Z</time>
      </trkpt>
      <trkpt lat="64.30396" lon="10.47099">
        <ele>49.014609</ele>
        <time>2020-08-09T13:06:38.718Z</time>
      </trkpt>
      <trkpt lat="64.30386" lon="10.47103">
        <ele>48.851307</ele>
        <time>2020-08-09T13:06:40.722Z</time>
      </trkpt>
      <trkpt lat="64.30377" lon="10.47107">
        <ele>48.692864</ele>
        <time>2020-08-09T13:06:42.715Z</time>
      </trkpt>
      <trkpt lat="64.30368" lon="10.47109">
        <ele>48.533205</ele>
        <time>2020-08-09T13:06:44.732Z</time>
      </trkpt>
      <trkpt lat="64.30359" lon="10.47111">
        <ele>48.37181</ele>
        <time>2020-08-09T13:06:46.712Z</time>
      </trkpt>
      <trkpt lat="64.3035" lon="10.47112">
        <ele>48.212539</ele>
        <time>2020-08-09T13:06:48.724Z</time>
      </trkpt>
      <trkpt lat="64.30337" lon="10.47115">
        <ele>48.381599</ele>
        <time>2020-08-09T13:06:51.703Z</time>
      </trkpt>
      <trkpt lat="64.30324" lon="10.47118">
        <ele>48.592869</ele>
        <time>2020-08-09T13:06:54.719Z</time>
      </trkpt>
      <trkpt lat="64.30314" lon="10.47119">
        <ele>48.764593</ele>
        <time>2020-08-09T13:06:57.718Z</time>
      </trkpt>
      <trkpt lat="64.30305" lon="10.47121">
        <ele>48.921209</ele>
        <time>2020-08-09T13:07:00.704Z</time>
      </trkpt>
      <trkpt lat="64.30296" lon="10.47124">
        <ele>49.080298</ele>
        <time>2020-08-09T13:07:03.703Z</time>
      </trkpt>
      <trkpt lat="64.30287" lon="10.47127">
        <ele>49.231528</ele>
        <time>2020-08-09T13:07:06.704Z</time>
      </trkpt>
      <trkpt lat="64.30278" lon="10.47132">
        <ele>49.391208</ele>
        <time>2020-08-09T13:07:09.724Z</time>
      </trkpt>
      <trkpt lat="64.30268" lon="10.47137">
        <ele>49.555178</ele>
        <time>2020-08-09T13:07:12.726Z</time>
      </trkpt>
      <trkpt lat="64.30259" lon="10.47144">
        <ele>49.724125</ele>
        <time>2020-08-09T13:07:15.722Z</time>
      </trkpt>
      <trkpt lat="64.30249" lon="10.47152">
        <ele>49.902556</ele>
        <time>2020-08-09T13:07:18.715Z</time>
      </trkpt>
      <trkpt lat="64.30239" lon="10.47162">
        <ele>50.081603</ele>
        <time>2020-08-09T13:07:21.723Z</time>
      </trkpt>
      <trkpt lat="64.30229" lon="10.47173">
        <ele>50.268006</ele>
        <time>2020-08-09T13:07:24.727Z</time>
      </trkpt>
      <trkpt lat="64.30219" lon="10.47184">
        <ele>50.45531</ele>
        <time>2020-08-09T13:07:27.752Z</time>
      </trkpt>
      <trkpt lat="64.3021" lon="10.47196">
        <ele>50.642313</ele>
        <time>2020-08-09T13:07:30.715Z</time>
      </trkpt>
      <trkpt lat="64.302" lon="10.47209">
        <ele>50.832277</ele>
        <time>2020-08-09T13:07:33.741Z</time>
      </trkpt>
      <trkpt lat="64.30191" lon="10.47223">
        <ele>51.020262</ele>
        <time>2020-08-09T13:07:36.714Z</time>
      </trkpt>
      <trkpt lat="64.30182" lon="10.47236">
        <ele>51.20218</ele>
        <time>2020-08-09T13:07:39.732Z</time>
      </trkpt>
      <trkpt lat="64.30173" lon="10.47251">
        <ele>51.221377</ele>
        <time>2020-08-09T13:07:42.722Z</time>
      </trkpt>
      <trkpt lat="64.30164" lon="10.47268">
        <ele>51.205903</ele>
        <time>2020-08-09T13:07:45.735Z</time>
      </trkpt>
      <trkpt lat="64.30156" lon="10.47284">
        <ele>51.191995</ele>
        <time>2020-08-09T13:07:48.722Z</time>
      </trkpt>
      <trkpt lat="64.30147" lon="10.47301">
        <ele>51.177386</ele>
        <time>2020-08-09T13:07:51.751Z</time>
      </trkpt>
      <trkpt lat="64.30139" lon="10.4732">
        <ele>51.162171</ele>
        <time>2020-08-09T13:07:54.724Z</time>
      </trkpt>
      <trkpt lat="64.30132" lon="10.47338">
        <ele>51.147427</ele>
        <time>2020-08-09T13:07:57.720Z</time>
      </trkpt>
      <trkpt lat="64.30124" lon="10.47357">
        <ele>51.133183</ele>
        <time>2020-08-09T13:08:00.708Z</time>
      </trkpt>
      <trkpt lat="64.30117" lon="10.47376">
        <ele>51.118637</ele>
        <time>2020-08-09T13:08:03.730Z</time>
      </trkpt>
      <trkpt lat="64.3011" lon="10.47396">
        <ele>51.10412</ele>
        <time>2020-08-09T13:08:06.708Z</time>
      </trkpt>
      <trkpt lat="64.30105" lon="10.47416">
        <ele>51.090428</ele>
        <time>2020-08-09T13:08:09.723Z</time>
      </trkpt>
      <trkpt lat="64.301" lon="10.47438">
        <ele>51.076434</ele>
        <time>2020-08-09T13:08:12.759Z</time>
      </trkpt>
      <trkpt lat="64.30096" lon="10.47464">
        <ele>51.060589</ele>
        <time>2020-08-09T13:08:15.702Z</time>
      </trkpt>
      <trkpt lat="64.30094" lon="10.47485">
        <ele>51.048377</ele>
        <time>2020-08-09T13:08:17.722Z</time>
      </trkpt>
      <trkpt lat="64.30091" lon="10.47514">
        <ele>51.031169</ele>
        <time>2020-08-09T13:08:20.707Z</time>
      </trkpt>
      <trkpt lat="64.30091" lon="10.47545">
        <ele>51.01366</ele>
        <time>2020-08-09T13:08:23.747Z</time>
      </trkpt>
      <trkpt lat="64.3009" lon="10.47566">
        <ele>51.001441</ele>
        <time>2020-08-09T13:08:25.719Z</time>
      </trkpt>
      <trkpt lat="64.30089" lon="10.47588">
        <ele>50.915834</ele>
        <time>2020-08-09T13:08:27.721Z</time>
      </trkpt>
      <trkpt lat="64.30089" lon="10.47611">
        <ele>50.769088</ele>
        <time>2020-08-09T13:08:29.710Z</time>
      </trkpt>
      <trkpt lat="64.30088" lon="10.47635">
        <ele>50.616897</ele>
        <time>2020-08-09T13:08:31.722Z</time>
      </trkpt>
      <trkpt lat="64.30088" lon="10.47659">
        <ele>50.462964</ele>
        <time>2020-08-09T13:08:33.727Z</time>
      </trkpt>
      <trkpt lat="64.30088" lon="10.47684">
        <ele>50.302163</ele>
        <time>2020-08-09T13:08:35.717Z</time>
      </trkpt>
      <trkpt lat="64.30088" lon="10.47709">
        <ele>50.144551</ele>
        <time>2020-08-09T13:08:37.734Z</time>
      </trkpt>
      <trkpt lat="64.30088" lon="10.47734">
        <ele>49.98244</ele>
        <time>2020-08-09T13:08:39.720Z</time>
      </trkpt>
      <trkpt lat="64.30088" lon="10.47759">
        <ele>49.824828</ele>
        <time>2020-08-09T13:08:41.714Z</time>
      </trkpt>
      <trkpt lat="64.30088" lon="10.47784">
        <ele>49.663309</ele>
        <time>2020-08-09T13:08:43.723Z</time>
      </trkpt>
      <trkpt lat="64.30089" lon="10.4781">
        <ele>49.498922</ele>
        <time>2020-08-09T13:08:45.732Z</time>
      </trkpt>
      <trkpt lat="64.3009" lon="10.47836">
        <ele>49.33557</ele>
        <time>2020-08-09T13:08:47.745Z</time>
      </trkpt>
      <trkpt lat="64.30091" lon="10.47861">
        <ele>49.172218</ele>
        <time>2020-08-09T13:08:49.730Z</time>
      </trkpt>
      <trkpt lat="64.30093" lon="10.47887">
        <ele>49.004001</ele>
        <time>2020-08-09T13:08:51.724Z</time>
      </trkpt>
      <trkpt lat="64.30095" lon="10.47915">
        <ele>48.82371</ele>
        <time>2020-08-09T13:08:53.719Z</time>
      </trkpt>
      <trkpt lat="64.30098" lon="10.47944">
        <ele>48.630055</ele>
        <time>2020-08-09T13:08:55.744Z</time>
      </trkpt>
      <trkpt lat="64.30102" lon="10.47975">
        <ele>48.427184</ele>
        <time>2020-08-09T13:08:57.730Z</time>
      </trkpt>
      <trkpt lat="64.30107" lon="10.48005">
        <ele>48.227686</ele>
        <time>2020-08-09T13:08:59.740Z</time>
      </trkpt>
      <trkpt lat="64.30112" lon="10.48035">
        <ele>48.030044</ele>
        <time>2020-08-09T13:09:01.746Z</time>
      </trkpt>
      <trkpt lat="64.30118" lon="10.48063">
        <ele>47.831517</ele>
        <time>2020-08-09T13:09:03.731Z</time>
      </trkpt>
      <trkpt lat="64.30125" lon="10.48091">
        <ele>47.633829</ele>
        <time>2020-08-09T13:09:05.718Z</time>
      </trkpt>
      <trkpt lat="64.30132" lon="10.4812">
        <ele>47.430265</ele>
        <time>2020-08-09T13:09:07.733Z</time>
      </trkpt>
      <trkpt lat="64.3014" lon="10.48146">
        <ele>47.234942</ele>
        <time>2020-08-09T13:09:09.714Z</time>
      </trkpt>
      <trkpt lat="64.30147" lon="10.48173">
        <ele>47.037047</ele>
        <time>2020-08-09T13:09:11.749Z</time>
      </trkpt>
      <trkpt lat="64.30154" lon="10.482">
        <ele>46.842697</ele>
        <time>2020-08-09T13:09:13.736Z</time>
      </trkpt>
      <trkpt lat="64.30161" lon="10.48226">
        <ele>46.658013</ele>
        <time>2020-08-09T13:09:15.741Z</time>
      </trkpt>
      <trkpt lat="64.30168" lon="10.48251">
        <ele>46.473317</ele>
        <time>2020-08-09T13:09:17.717Z</time>
      </trkpt>
      <trkpt lat="64.30175" lon="10.48275">
        <ele>46.299474</ele>
        <time>2020-08-09T13:09:19.736Z</time>
      </trkpt>
      <trkpt lat="64.30181" lon="10.48297">
        <ele>46.134661</ele>
        <time>2020-08-09T13:09:21.728Z</time>
      </trkpt>
      <trkpt lat="64.30187" lon="10.48319">
        <ele>45.974495</ele>
        <time>2020-08-09T13:09:23.713Z</time>
      </trkpt>
      <trkpt lat="64.30192" lon="10.48339">
        <ele>45.827308</ele>
        <time>2020-08-09T13:09:25.732Z</time>
      </trkpt>
      <trkpt lat="64.30198" lon="10.48362">
        <ele>45.9545</ele>
        <time>2020-08-09T13:09:27.724Z</time>
      </trkpt>
      <trkpt lat="64.30204" lon="10.48384">
        <ele>46.164909</ele>
        <time>2020-08-09T13:09:29.720Z</time>
      </trkpt>
      <trkpt lat="64.3021" lon="10.48404">
        <ele>46.36755</ele>
        <time>2020-08-09T13:09:31.702Z</time>
      </trkpt>
      <trkpt lat="64.30216" lon="10.48425">
        <ele>46.564384</ele>
        <time>2020-08-09T13:09:33.727Z</time>
      </trkpt>
      <trkpt lat="64.30221" lon="10.48445">
        <ele>46.758078</ele>
        <time>2020-08-09T13:09:35.730Z</time>
      </trkpt>
      <trkpt lat="64.30227" lon="10.48465">
        <ele>46.941678</ele>
        <time>2020-08-09T13:09:37.723Z</time>
      </trkpt>
      <trkpt lat="64.30232" lon="10.48483">
        <ele>47.118491</ele>
        <time>2020-08-09T13:09:39.745Z</time>
      </trkpt>
      <trkpt lat="64.30237" lon="10.48501">
        <ele>47.290555</ele>
        <time>2020-08-09T13:09:41.735Z</time>
      </trkpt>
      <trkpt lat="64.30244" lon="10.48527">
        <ele>47.537656</ele>
        <time>2020-08-09T13:09:44.723Z</time>
      </trkpt>
      <trkpt lat="64.30249" lon="10.48544">
        <ele>47.705695</ele>
        <time>2020-08-09T13:09:46.711Z</time>
      </trkpt>
      <trkpt lat="64.30256" lon="10.48569">
        <ele>47.949362</ele>
        <time>2020-08-09T13:09:49.737Z</time>
      </trkpt>
      <trkpt lat="64.30263" lon="10.48591">
        <ele>48.169644</ele>
        <time>2020-08-09T13:09:52.727Z</time>
      </trkpt>
      <trkpt lat="64.3027" lon="10.4861">
        <ele>48.369816</ele>
        <time>2020-08-09T13:09:55.763Z</time>
      </trkpt>
      <trkpt lat="64.30277" lon="10.48631">
        <ele>48.59009</ele>
        <time>2020-08-09T13:09:58.724Z</time>
      </trkpt>
      <trkpt lat="64.30285" lon="10.48651">
        <ele>48.801729</ele>
        <time>2020-08-09T13:10:01.720Z</time>
      </trkpt>
      <trkpt lat="64.30293" lon="10.48669">
        <ele>49.008913</ele>
        <time>2020-08-09T13:10:04.723Z</time>
      </trkpt>
      <trkpt lat="64.30301" lon="10.48688">
        <ele>49.082958</ele>
        <time>2020-08-09T13:10:07.715Z</time>
      </trkpt>
      <trkpt lat="64.30311" lon="10.48709">
        <ele>48.885732</ele>
        <time>2020-08-09T13:10:10.726Z</time>
      </trkpt>
      <trkpt lat="64.30319" lon="10.48725">
        <ele>48.736891</ele>
        <time>2020-08-09T13:10:12.717Z</time>
      </trkpt>
      <trkpt lat="64.30326" lon="10.48741">
        <ele>48.584589</ele>
        <time>2020-08-09T13:10:14.724Z</time>
      </trkpt>
      <trkpt lat="64.30335" lon="10.48759">
        <ele>48.411985</ele>
        <time>2020-08-09T13:10:16.707Z</time>
      </trkpt>
      <trkpt lat="64.30344" lon="10.48777">
        <ele>48.235816</ele>
        <time>2020-08-09T13:10:18.744Z</time>
      </trkpt>
      <trkpt lat="64.30353" lon="10.48796">
        <ele>48.056288</ele>
        <time>2020-08-09T13:10:20.784Z</time>
      </trkpt>
      <trkpt lat="64.30362" lon="10.48814">
        <ele>47.878704</ele>
        <time>2020-08-09T13:10:22.764Z</time>
      </trkpt>
      <trkpt lat="64.30371" lon="10.48834">
        <ele>47.694434</ele>
        <time>2020-08-09T13:10:24.707Z</time>
      </trkpt>
      <trkpt lat="64.30381" lon="10.48854">
        <ele>47.503661</ele>
        <time>2020-08-09T13:10:26.709Z</time>
      </trkpt>
      <trkpt lat="64.30391" lon="10.48874">
        <ele>47.313984</ele>
        <time>2020-08-09T13:10:28.754Z</time>
      </trkpt>
      <trkpt lat="64.304" lon="10.48894">
        <ele>47.121937</ele>
        <time>2020-08-09T13:10:30.731Z</time>
      </trkpt>
      <trkpt lat="64.3041" lon="10.48913">
        <ele>46.938755</ele>
        <time>2020-08-09T13:10:32.748Z</time>
      </trkpt>
      <trkpt lat="64.30419" lon="10.48933">
        <ele>46.753394</ele>
        <time>2020-08-09T13:10:34.728Z</time>
      </trkpt>
      <trkpt lat="64.30427" lon="10.48951">
        <ele>46.582277</ele>
        <time>2020-08-09T13:10:36.770Z</time>
      </trkpt>
      <trkpt lat="64.30436" lon="10.4897">
        <ele>46.476813</ele>
        <time>2020-08-09T13:10:38.734Z</time>
      </trkpt>
      <trkpt lat="64.30444" lon="10.48989">
        <ele>46.426797</ele>
        <time>2020-08-09T13:10:40.711Z</time>
      </trkpt>
      <trkpt lat="64.30452" lon="10.49007">
        <ele>46.377559</ele>
        <time>2020-08-09T13:10:42.753Z</time>
      </trkpt>
      <trkpt lat="64.3046" lon="10.49024">
        <ele>46.330716</ele>
        <time>2020-08-09T13:10:44.724Z</time>
      </trkpt>
      <trkpt lat="64.30468" lon="10.49043">
        <ele>46.279911</ele>
        <time>2020-08-09T13:10:46.739Z</time>
      </trkpt>
      <trkpt lat="64.30476" lon="10.49062">
        <ele>46.231867</ele>
        <time>2020-08-09T13:10:48.707Z</time>
      </trkpt>
      <trkpt lat="64.30483" lon="10.49081">
        <ele>46.184885</ele>
        <time>2020-08-09T13:10:50.722Z</time>
      </trkpt>
      <trkpt lat="64.3049" lon="10.491">
        <ele>46.137452</ele>
        <time>2020-08-09T13:10:52.757Z</time>
      </trkpt>
      <trkpt lat="64.30496" lon="10.4912">
        <ele>46.092732</ele>
        <time>2020-08-09T13:10:54.738Z</time>
      </trkpt>
      <trkpt lat="64.30502" lon="10.49141">
        <ele>46.04446</ele>
        <time>2020-08-09T13:10:56.733Z</time>
      </trkpt>
      <trkpt lat="64.30508" lon="10.49162">
        <ele>45.998266</ele>
        <time>2020-08-09T13:10:58.708Z</time>
      </trkpt>
      <trkpt lat="64.30513" lon="10.49185">
        <ele>45.950567</ele>
        <time>2020-08-09T13:11:00.703Z</time>
      </trkpt>
      <trkpt lat="64.30517" lon="10.49207">
        <ele>45.904716</ele>
        <time>2020-08-09T13:11:02.722Z</time>
      </trkpt>
      <trkpt lat="64.30521" lon="10.49231">
        <ele>45.856714</ele>
        <time>2020-08-09T13:11:04.726Z</time>
      </trkpt>
      <trkpt lat="64.30524" lon="10.49255">
        <ele>45.809949</ele>
        <time>2020-08-09T13:11:06.728Z</time>
      </trkpt>
      <trkpt lat="64.30527" lon="10.49278">
        <ele>45.764886</ele>
        <time>2020-08-09T13:11:08.721Z</time>
      </trkpt>
      <trkpt lat="64.30529" lon="10.493">
        <ele>45.721625</ele>
        <time>2020-08-09T13:11:10.748Z</time>
      </trkpt>
      <trkpt lat="64.30532" lon="10.49323">
        <ele>45.680044</ele>
        <time>2020-08-09T13:11:12.739Z</time>
      </trkpt>
      <trkpt lat="64.30534" lon="10.49347">
        <ele>45.638386</ele>
        <time>2020-08-09T13:11:14.707Z</time>
      </trkpt>
      <trkpt lat="64.30536" lon="10.4937">
        <ele>45.596541</ele>
        <time>2020-08-09T13:11:16.725Z</time>
      </trkpt>
      <trkpt lat="64.30538" lon="10.49393">
        <ele>45.555285</ele>
        <time>2020-08-09T13:11:18.720Z</time>
      </trkpt>
      <trkpt lat="64.30539" lon="10.49417">
        <ele>45.51358</ele>
        <time>2020-08-09T13:11:20.734Z</time>
      </trkpt>
      <trkpt lat="64.30541" lon="10.4944">
        <ele>45.471923</ele>
        <time>2020-08-09T13:11:22.719Z</time>
      </trkpt>
      <trkpt lat="64.30543" lon="10.49464">
        <ele>45.429072</ele>
        <time>2020-08-09T13:11:24.746Z</time>
      </trkpt>
      <trkpt lat="64.30544" lon="10.49488">
        <ele>45.388393</ele>
        <time>2020-08-09T13:11:26.724Z</time>
      </trkpt>
      <trkpt lat="64.30546" lon="10.4951">
        <ele>45.348481</ele>
        <time>2020-08-09T13:11:28.735Z</time>
      </trkpt>
      <trkpt lat="64.30547" lon="10.49533">
        <ele>45.308452</ele>
        <time>2020-08-09T13:11:30.718Z</time>
      </trkpt>
      <trkpt lat="64.30548" lon="10.49556">
        <ele>45.267641</ele>
        <time>2020-08-09T13:11:32.726Z</time>
      </trkpt>
      <trkpt lat="64.30549" lon="10.49579">
        <ele>45.227391</ele>
        <time>2020-08-09T13:11:34.709Z</time>
      </trkpt>
      <trkpt lat="64.3055" lon="10.49602">
        <ele>45.187408</ele>
        <time>2020-08-09T13:11:36.732Z</time>
      </trkpt>
      <trkpt lat="64.30551" lon="10.49625">
        <ele>45.145552</ele>
        <time>2020-08-09T13:11:38.720Z</time>
      </trkpt>
      <trkpt lat="64.30552" lon="10.4965">
        <ele>45.102172</ele>
        <time>2020-08-09T13:11:40.744Z</time>
      </trkpt>
      <trkpt lat="64.30554" lon="10.49674">
        <ele>45.058975</ele>
        <time>2020-08-09T13:11:42.722Z</time>
      </trkpt>
      <trkpt lat="64.30556" lon="10.49698">
        <ele>45.016407</ele>
        <time>2020-08-09T13:11:44.746Z</time>
      </trkpt>
      <trkpt lat="64.30558" lon="10.49722">
        <ele>44.979238</ele>
        <time>2020-08-09T13:11:46.711Z</time>
      </trkpt>
      <trkpt lat="64.3056" lon="10.49746">
        <ele>44.946202</ele>
        <time>2020-08-09T13:11:48.736Z</time>
      </trkpt>
      <trkpt lat="64.30561" lon="10.49769">
        <ele>44.914059</ele>
        <time>2020-08-09T13:11:50.725Z</time>
      </trkpt>
      <trkpt lat="64.30563" lon="10.49793">
        <ele>44.881191</ele>
        <time>2020-08-09T13:11:52.723Z</time>
      </trkpt>
      <trkpt lat="64.30564" lon="10.49817">
        <ele>44.847596</ele>
        <time>2020-08-09T13:11:54.721Z</time>
      </trkpt>
      <trkpt lat="64.30566" lon="10.49841">
        <ele>44.815214</ele>
        <time>2020-08-09T13:11:56.708Z</time>
      </trkpt>
      <trkpt lat="64.30568" lon="10.49863">
        <ele>44.78356</ele>
        <time>2020-08-09T13:11:58.724Z</time>
      </trkpt>
      <trkpt lat="64.3057" lon="10.49885">
        <ele>44.753578</ele>
        <time>2020-08-09T13:12:00.720Z</time>
      </trkpt>
      <trkpt lat="64.30571" lon="10.49906">
        <ele>44.724135</ele>
        <time>2020-08-09T13:12:02.711Z</time>
      </trkpt>
      <trkpt lat="64.30574" lon="10.49935">
        <ele>44.68374</ele>
        <time>2020-08-09T13:12:05.712Z</time>
      </trkpt>
      <trkpt lat="64.30576" lon="10.49964">
        <ele>44.643916</ele>
        <time>2020-08-09T13:12:08.706Z</time>
      </trkpt>
      <trkpt lat="64.30578" lon="10.49993">
        <ele>44.603386</ele>
        <time>2020-08-09T13:12:11.761Z</time>
      </trkpt>
      <trkpt lat="64.3058" lon="10.50023">
        <ele>44.562296</ele>
        <time>2020-08-09T13:12:14.751Z</time>
      </trkpt>
      <trkpt lat="64.30582" lon="10.50043">
        <ele>44.533527</ele>
        <time>2020-08-09T13:12:16.726Z</time>
      </trkpt>
      <trkpt lat="64.30584" lon="10.50066">
        <ele>44.502222</ele>
        <time>2020-08-09T13:12:18.733Z</time>
      </trkpt>
      <trkpt lat="64.30586" lon="10.50088">
        <ele>44.470796</ele>
        <time>2020-08-09T13:12:20.711Z</time>
      </trkpt>
      <trkpt lat="64.30588" lon="10.50113">
        <ele>44.436563</ele>
        <time>2020-08-09T13:12:22.720Z</time>
      </trkpt>
      <trkpt lat="64.30591" lon="10.50139">
        <ele>44.427915</ele>
        <time>2020-08-09T13:12:24.740Z</time>
      </trkpt>
      <trkpt lat="64.30594" lon="10.50165">
        <ele>44.42318</ele>
        <time>2020-08-09T13:12:26.714Z</time>
      </trkpt>
      <trkpt lat="64.30598" lon="10.50191">
        <ele>44.418352</ele>
        <time>2020-08-09T13:12:28.710Z</time>
      </trkpt>
      <trkpt lat="64.30602" lon="10.50218">
        <ele>44.413291</ele>
        <time>2020-08-09T13:12:30.760Z</time>
      </trkpt>
      <trkpt lat="64.30606" lon="10.50246">
        <ele>44.408197</ele>
        <time>2020-08-09T13:12:32.723Z</time>
      </trkpt>
      <trkpt lat="64.3061" lon="10.50273">
        <ele>44.403216</ele>
        <time>2020-08-09T13:12:34.759Z</time>
      </trkpt>
      <trkpt lat="64.30614" lon="10.503">
        <ele>44.3983</ele>
        <time>2020-08-09T13:12:36.714Z</time>
      </trkpt>
      <trkpt lat="64.30618" lon="10.50327">
        <ele>44.393256</ele>
        <time>2020-08-09T13:12:38.722Z</time>
      </trkpt>
      <trkpt lat="64.30622" lon="10.50354">
        <ele>44.388214</ele>
        <time>2020-08-09T13:12:40.739Z</time>
      </trkpt>
      <trkpt lat="64.30626" lon="10.50381">
        <ele>44.383391</ele>
        <time>2020-08-09T13:12:42.719Z</time>
      </trkpt>
      <trkpt lat="64.30629" lon="10.50406">
        <ele>44.378675</ele>
        <time>2020-08-09T13:12:44.746Z</time>
      </trkpt>
      <trkpt lat="64.30633" lon="10.50432">
        <ele>44.373962</ele>
        <time>2020-08-09T13:12:46.718Z</time>
      </trkpt>
      <trkpt lat="64.30636" lon="10.50459">
        <ele>44.368989</ele>
        <time>2020-08-09T13:12:48.720Z</time>
      </trkpt>
      <trkpt lat="64.30639" lon="10.50487">
        <ele>44.364005</ele>
        <time>2020-08-09T13:12:50.714Z</time>
      </trkpt>
      <trkpt lat="64.30642" lon="10.50515">
        <ele>44.371794</ele>
        <time>2020-08-09T13:12:52.731Z</time>
      </trkpt>
      <trkpt lat="64.30644" lon="10.50541">
        <ele>44.478107</ele>
        <time>2020-08-09T13:12:54.741Z</time>
      </trkpt>
      <trkpt lat="64.30646" lon="10.50568">
        <ele>44.582413</ele>
        <time>2020-08-09T13:12:56.719Z</time>
      </trkpt>
      <trkpt lat="64.30646" lon="10.50593">
        <ele>44.682828</ele>
        <time>2020-08-09T13:12:58.734Z</time>
      </trkpt>
      <trkpt lat="64.30647" lon="10.50617">
        <ele>44.778416</ele>
        <time>2020-08-09T13:13:00.702Z</time>
      </trkpt>
      <trkpt lat="64.30647" lon="10.50641">
        <ele>44.872501</ele>
        <time>2020-08-09T13:13:02.730Z</time>
      </trkpt>
      <trkpt lat="64.30648" lon="10.50665">
        <ele>44.965338</ele>
        <time>2020-08-09T13:13:04.767Z</time>
      </trkpt>
      <trkpt lat="64.30647" lon="10.50687">
        <ele>45.053814</ele>
        <time>2020-08-09T13:13:06.711Z</time>
      </trkpt>
      <trkpt lat="64.30647" lon="10.50709">
        <ele>45.137218</ele>
        <time>2020-08-09T13:13:08.730Z</time>
      </trkpt>
      <trkpt lat="64.30647" lon="10.5073">
        <ele>45.220976</ele>
        <time>2020-08-09T13:13:10.711Z</time>
      </trkpt>
      <trkpt lat="64.30647" lon="10.50751">
        <ele>45.303161</ele>
        <time>2020-08-09T13:13:12.719Z</time>
      </trkpt>
      <trkpt lat="64.30647" lon="10.50781">
        <ele>45.423093</ele>
        <time>2020-08-09T13:13:15.716Z</time>
      </trkpt>
      <trkpt lat="64.30647" lon="10.50811">
        <ele>45.541086</ele>
        <time>2020-08-09T13:13:18.719Z</time>
      </trkpt>
      <trkpt lat="64.30647" lon="10.5084">
        <ele>45.653547</ele>
        <time>2020-08-09T13:13:21.724Z</time>
      </trkpt>
      <trkpt lat="64.30647" lon="10.50869">
        <ele>45.767183</ele>
        <time>2020-08-09T13:13:24.756Z</time>
      </trkpt>
      <trkpt lat="64.30646" lon="10.50897">
        <ele>45.879673</ele>
        <time>2020-08-09T13:13:27.733Z</time>
      </trkpt>
      <trkpt lat="64.30646" lon="10.50925">
        <ele>45.989805</ele>
        <time>2020-08-09T13:13:30.732Z</time>
      </trkpt>
      <trkpt lat="64.30645" lon="10.50954">
        <ele>46.825705</ele>
        <time>2020-08-09T13:13:33.726Z</time>
      </trkpt>
      <trkpt lat="64.30645" lon="10.5098">
        <ele>47.594241</ele>
        <time>2020-08-09T13:13:36.716Z</time>
      </trkpt>
      <trkpt lat="64.30644" lon="10.51004">
        <ele>48.299153</ele>
        <time>2020-08-09T13:13:39.711Z</time>
      </trkpt>
      <trkpt lat="64.30643" lon="10.51029">
        <ele>49.019161</ele>
        <time>2020-08-09T13:13:43.733Z</time>
      </trkpt>
      <trkpt lat="64.30642" lon="10.51052">
        <ele>49.712591</ele>
        <time>2020-08-09T13:13:49.742Z</time>
      </trkpt>
      <trkpt lat="64.30641" lon="10.51074">
        <ele>50.344425</ele>
        <time>2020-08-09T13:13:56.720Z</time>
      </trkpt>
      <trkpt lat="64.3064" lon="10.51098">
        <ele>51.054181</ele>
        <time>2020-08-09T13:14:03.764Z</time>
      </trkpt>
      <trkpt lat="64.30637" lon="10.51122">
        <ele>51.791659</ele>
        <time>2020-08-09T13:14:11.732Z</time>
      </trkpt>
      <trkpt lat="64.30636" lon="10.51144">
        <ele>52.426933</ele>
        <time>2020-08-09T13:14:18.713Z</time>
      </trkpt>
      <trkpt lat="64.30633" lon="10.51163">
        <ele>53.043433</ele>
        <time>2020-08-09T13:14:25.708Z</time>
      </trkpt>
      <trkpt lat="64.30629" lon="10.51184">
        <ele>53.686033</ele>
        <time>2020-08-09T13:14:32.741Z</time>
      </trkpt>
      <trkpt lat="64.30625" lon="10.51202">
        <ele>54.293903</ele>
        <time>2020-08-09T13:14:38.722Z</time>
      </trkpt>
      <trkpt lat="64.3062" lon="10.51222">
        <ele>54.985493</ele>
        <time>2020-08-09T13:14:45.718Z</time>
      </trkpt>
      <trkpt lat="64.30614" lon="10.51242">
        <ele>55.661099</ele>
        <time>2020-08-09T13:14:52.724Z</time>
      </trkpt>
      <trkpt lat="64.30609" lon="10.51261">
        <ele>56.325656</ele>
        <time>2020-08-09T13:14:59.746Z</time>
      </trkpt>
      <trkpt lat="64.30603" lon="10.51278">
        <ele>56.975847</ele>
        <time>2020-08-09T13:15:06.732Z</time>
      </trkpt>
      <trkpt lat="64.30597" lon="10.51293">
        <ele>57.585763</ele>
        <time>2020-08-09T13:15:12.712Z</time>
      </trkpt>
      <trkpt lat="64.3059" lon="10.51309">
        <ele>58.161611</ele>
        <time>2020-08-09T13:15:18.718Z</time>
      </trkpt>
      <trkpt lat="64.30583" lon="10.51324">
        <ele>58.304741</ele>
        <time>2020-08-09T13:15:25.759Z</time>
      </trkpt>
      <trkpt lat="64.30575" lon="10.51338">
        <ele>58.440569</ele>
        <time>2020-08-09T13:15:31.712Z</time>
      </trkpt>
      <trkpt lat="64.30567" lon="10.51349">
        <ele>58.56738</ele>
        <time>2020-08-09T13:15:36.735Z</time>
      </trkpt>
      <trkpt lat="64.30558" lon="10.51362">
        <ele>58.714827</ele>
        <time>2020-08-09T13:15:42.737Z</time>
      </trkpt>
      <trkpt lat="64.30549" lon="10.51372">
        <ele>58.86272</ele>
        <time>2020-08-09T13:15:47.724Z</time>
      </trkpt>
      <trkpt lat="64.30539" lon="10.51379">
        <ele>59.008318</ele>
        <time>2020-08-09T13:15:51.724Z</time>
      </trkpt>
      <trkpt lat="64.30527" lon="10.51387">
        <ele>59.173575</ele>
        <time>2020-08-09T13:15:55.704Z</time>
      </trkpt>
      <trkpt lat="64.30518" lon="10.51392">
        <ele>59.308717</ele>
        <time>2020-08-09T13:15:58.743Z</time>
      </trkpt>
      <trkpt lat="64.30508" lon="10.51396">
        <ele>59.450779</ele>
        <time>2020-08-09T13:16:01.723Z</time>
      </trkpt>
      <trkpt lat="64.30496" lon="10.51399">
        <ele>59.616571</ele>
        <time>2020-08-09T13:16:04.719Z</time>
      </trkpt>
      <trkpt lat="64.30483" lon="10.51402">
        <ele>59.794479</ele>
        <time>2020-08-09T13:16:07.721Z</time>
      </trkpt>
      <trkpt lat="64.30471" lon="10.51403">
        <ele>59.970595</ele>
        <time>2020-08-09T13:16:10.715Z</time>
      </trkpt>
      <trkpt lat="64.30458" lon="10.51403">
        <ele>60.156341</ele>
        <time>2020-08-09T13:16:13.736Z</time>
      </trkpt>
      <trkpt lat="64.30448" lon="10.51402">
        <ele>60.28629</ele>
        <time>2020-08-09T13:16:15.716Z</time>
      </trkpt>
      <trkpt lat="64.30438" lon="10.514">
        <ele>60.425027</ele>
        <time>2020-08-09T13:16:17.720Z</time>
      </trkpt>
      <trkpt lat="64.30428" lon="10.51398">
        <ele>60.566765</ele>
        <time>2020-08-09T13:16:19.716Z</time>
      </trkpt>
      <trkpt lat="64.30417" lon="10.51394">
        <ele>60.50265</ele>
        <time>2020-08-09T13:16:21.746Z</time>
      </trkpt>
      <trkpt lat="64.30406" lon="10.51389">
        <ele>60.075017</ele>
        <time>2020-08-09T13:16:23.751Z</time>
      </trkpt>
      <trkpt lat="64.30395" lon="10.51384">
        <ele>59.654642</ele>
        <time>2020-08-09T13:16:25.718Z</time>
      </trkpt>
      <trkpt lat="64.30384" lon="10.51379">
        <ele>59.234651</ele>
        <time>2020-08-09T13:16:27.735Z</time>
      </trkpt>
      <trkpt lat="64.30372" lon="10.51372">
        <ele>58.80639</ele>
        <time>2020-08-09T13:16:29.733Z</time>
      </trkpt>
      <trkpt lat="64.30361" lon="10.51366">
        <ele>58.366621</ele>
        <time>2020-08-09T13:16:31.726Z</time>
      </trkpt>
      <trkpt lat="64.30349" lon="10.51359">
        <ele>57.910628</ele>
        <time>2020-08-09T13:16:33.728Z</time>
      </trkpt>
      <trkpt lat="64.30337" lon="10.51353">
        <ele>57.451051</ele>
        <time>2020-08-09T13:16:35.726Z</time>
      </trkpt>
      <trkpt lat="64.30324" lon="10.51346">
        <ele>56.977845</ele>
        <time>2020-08-09T13:16:37.729Z</time>
      </trkpt>
      <trkpt lat="64.30311" lon="10.51339">
        <ele>56.48337</ele>
        <time>2020-08-09T13:16:39.727Z</time>
      </trkpt>
      <trkpt lat="64.30298" lon="10.51332">
        <ele>55.979958</ele>
        <time>2020-08-09T13:16:41.726Z</time>
      </trkpt>
      <trkpt lat="64.30285" lon="10.51325">
        <ele>55.48386</ele>
        <time>2020-08-09T13:16:43.739Z</time>
      </trkpt>
      <trkpt lat="64.30273" lon="10.51318">
        <ele>55.030062</ele>
        <time>2020-08-09T13:16:45.728Z</time>
      </trkpt>
      <trkpt lat="64.3026" lon="10.51312">
        <ele>54.562842</ele>
        <time>2020-08-09T13:16:47.740Z</time>
      </trkpt>
      <trkpt lat="64.30248" lon="10.51306">
        <ele>54.094288</ele>
        <time>2020-08-09T13:16:49.725Z</time>
      </trkpt>
      <trkpt lat="64.30236" lon="10.513">
        <ele>53.673247</ele>
        <time>2020-08-09T13:16:51.744Z</time>
      </trkpt>
      <trkpt lat="64.30224" lon="10.51293">
        <ele>53.255889</ele>
        <time>2020-08-09T13:16:53.726Z</time>
      </trkpt>
      <trkpt lat="64.30212" lon="10.51287">
        <ele>52.856221</ele>
        <time>2020-08-09T13:16:55.756Z</time>
      </trkpt>
      <trkpt lat="64.30201" lon="10.51282">
        <ele>52.465511</ele>
        <time>2020-08-09T13:16:57.765Z</time>
      </trkpt>
      <trkpt lat="64.3019" lon="10.51276">
        <ele>52.075693</ele>
        <time>2020-08-09T13:16:59.706Z</time>
      </trkpt>
      <trkpt lat="64.30179" lon="10.51271">
        <ele>51.706531</ele>
        <time>2020-08-09T13:17:01.724Z</time>
      </trkpt>
      <trkpt lat="64.30169" lon="10.51266">
        <ele>51.369144</ele>
        <time>2020-08-09T13:17:03.709Z</time>
      </trkpt>
      <trkpt lat="64.3016" lon="10.51261">
        <ele>51.051456</ele>
        <time>2020-08-09T13:17:05.715Z</time>
      </trkpt>
      <trkpt lat="64.30151" lon="10.51256">
        <ele>50.726884</ele>
        <time>2020-08-09T13:17:07.715Z</time>
      </trkpt>
      <trkpt lat="64.30141" lon="10.51252">
        <ele>50.394268</ele>
        <time>2020-08-09T13:17:09.728Z</time>
      </trkpt>
      <trkpt lat="64.30131" lon="10.51247">
        <ele>50.070958</ele>
        <time>2020-08-09T13:17:11.736Z</time>
      </trkpt>
      <trkpt lat="64.30123" lon="10.51242">
        <ele>49.76704</ele>
        <time>2020-08-09T13:17:13.720Z</time>
      </trkpt>
      <trkpt lat="64.30114" lon="10.51237">
        <ele>49.45626</ele>
        <time>2020-08-09T13:17:15.768Z</time>
      </trkpt>
      <trkpt lat="64.30104" lon="10.51232">
        <ele>49.123069</ele>
        <time>2020-08-09T13:17:17.737Z</time>
      </trkpt>
      <trkpt lat="64.30095" lon="10.51227">
        <ele>48.799758</ele>
        <time>2020-08-09T13:17:19.707Z</time>
      </trkpt>
      <trkpt lat="64.30085" lon="10.51222">
        <ele>48.465021</ele>
        <time>2020-08-09T13:17:21.752Z</time>
      </trkpt>
      <trkpt lat="64.30075" lon="10.51217">
        <ele>48.134206</ele>
        <time>2020-08-09T13:17:23.719Z</time>
      </trkpt>
      <trkpt lat="64.30065" lon="10.51212">
        <ele>48.131517</ele>
        <time>2020-08-09T13:17:25.756Z</time>
      </trkpt>
      <trkpt lat="64.30055" lon="10.51207">
        <ele>48.428507</ele>
        <time>2020-08-09T13:17:27.724Z</time>
      </trkpt>
      <trkpt lat="64.30044" lon="10.51201">
        <ele>48.73911</ele>
        <time>2020-08-09T13:17:29.715Z</time>
      </trkpt>
      <trkpt lat="64.30033" lon="10.51193">
        <ele>49.070341</ele>
        <time>2020-08-09T13:17:31.720Z</time>
      </trkpt>
      <trkpt lat="64.30022" lon="10.51186">
        <ele>49.407718</ele>
        <time>2020-08-09T13:17:33.721Z</time>
      </trkpt>
      <trkpt lat="64.3001" lon="10.51176">
        <ele>49.775009</ele>
        <time>2020-08-09T13:17:35.722Z</time>
      </trkpt>
      <trkpt lat="64.29998" lon="10.51165">
        <ele>50.142139</ele>
        <time>2020-08-09T13:17:37.744Z</time>
      </trkpt>
      <trkpt lat="64.29986" lon="10.51153">
        <ele>50.510413</ele>
        <time>2020-08-09T13:17:39.755Z</time>
      </trkpt>
      <trkpt lat="64.29975" lon="10.51143">
        <ele>50.843024</ele>
        <time>2020-08-09T13:17:41.753Z</time>
      </trkpt>
      <trkpt lat="64.29965" lon="10.51136">
        <ele>51.129275</ele>
        <time>2020-08-09T13:17:43.762Z</time>
      </trkpt>
      <trkpt lat="64.29954" lon="10.51131">
        <ele>51.442449</ele>
        <time>2020-08-09T13:17:46.738Z</time>
      </trkpt>
      <trkpt lat="64.29944" lon="10.51128">
        <ele>51.72899</ele>
        <time>2020-08-09T13:17:50.704Z</time>
      </trkpt>
      <trkpt lat="64.29935" lon="10.51125">
        <ele>52.007931</ele>
        <time>2020-08-09T13:17:55.715Z</time>
      </trkpt>
      <trkpt lat="64.29925" lon="10.51125">
        <ele>52.295101</ele>
        <time>2020-08-09T13:18:00.746Z</time>
      </trkpt>
      <trkpt lat="64.29914" lon="10.51126">
        <ele>52.588306</ele>
        <time>2020-08-09T13:18:05.727Z</time>
      </trkpt>
      <trkpt lat="64.29904" lon="10.51127">
        <ele>52.870372</ele>
        <time>2020-08-09T13:18:10.717Z</time>
      </trkpt>
      <trkpt lat="64.29894" lon="10.5113">
        <ele>53.240822</ele>
        <time>2020-08-09T13:18:15.721Z</time>
      </trkpt>
      <trkpt lat="64.29883" lon="10.51133">
        <ele>53.741458</ele>
        <time>2020-08-09T13:18:20.717Z</time>
      </trkpt>
      <trkpt lat="64.29873" lon="10.51136">
        <ele>54.229901</ele>
        <time>2020-08-09T13:18:26.733Z</time>
      </trkpt>
      <trkpt lat="64.29863" lon="10.51137">
        <ele>54.698088</ele>
        <time>2020-08-09T13:18:32.738Z</time>
      </trkpt>
      <trkpt lat="64.29853" lon="10.51139">
        <ele>55.161153</ele>
        <time>2020-08-09T13:18:37.731Z</time>
      </trkpt>
      <trkpt lat="64.29843" lon="10.5114">
        <ele>55.637695</ele>
        <time>2020-08-09T13:18:43.724Z</time>
      </trkpt>
      <trkpt lat="64.29833" lon="10.51137">
        <ele>56.11634</ele>
        <time>2020-08-09T13:18:49.735Z</time>
      </trkpt>
      <trkpt lat="64.29824" lon="10.51131">
        <ele>56.542525</ele>
        <time>2020-08-09T13:18:54.743Z</time>
      </trkpt>
      <trkpt lat="64.29816" lon="10.51122">
        <ele>56.980288</ele>
        <time>2020-08-09T13:18:59.722Z</time>
      </trkpt>
      <trkpt lat="64.29808" lon="10.5111">
        <ele>57.432145</ele>
        <time>2020-08-09T13:19:04.703Z</time>
      </trkpt>
      <trkpt lat="64.29801" lon="10.51097">
        <ele>57.862164</ele>
        <time>2020-08-09T13:19:09.724Z</time>
      </trkpt>
      <trkpt lat="64.29793" lon="10.51083">
        <ele>58.335811</ele>
        <time>2020-08-09T13:19:14.732Z</time>
      </trkpt>
      <trkpt lat="64.29785" lon="10.51072">
        <ele>58.761926</ele>
        <time>2020-08-09T13:19:19.724Z</time>
      </trkpt>
      <trkpt lat="64.29777" lon="10.51063">
        <ele>59.187762</ele>
        <time>2020-08-09T13:19:24.731Z</time>
      </trkpt>
      <trkpt lat="64.29769" lon="10.51053">
        <ele>59.614992</ele>
        <time>2020-08-09T13:19:29.716Z</time>
      </trkpt>
      <trkpt lat="64.29767" lon="10.5103">
        <ele>60.095774</ele>
        <time>2020-08-09T13:19:34.751Z</time>
      </trkpt>
      <trkpt lat="64.29766" lon="10.51001">
        <ele>60.697571</ele>
        <time>2020-08-09T13:19:37.754Z</time>
      </trkpt>
      <trkpt lat="64.29766" lon="10.50979">
        <ele>61.149989</ele>
        <time>2020-08-09T13:19:39.704Z</time>
      </trkpt>
      <trkpt lat="64.29764" lon="10.50947">
        <ele>61.27316</ele>
        <time>2020-08-09T13:19:41.723Z</time>
      </trkpt>
      <trkpt lat="64.29762" lon="10.50915">
        <ele>60.442226</ele>
        <time>2020-08-09T13:19:43.718Z</time>
      </trkpt>
      <trkpt lat="64.2976" lon="10.50881">
        <ele>59.541457</ele>
        <time>2020-08-09T13:19:45.723Z</time>
      </trkpt>
      <trkpt lat="64.29762" lon="10.50848">
        <ele>58.693566</ele>
        <time>2020-08-09T13:19:47.708Z</time>
      </trkpt>
      <trkpt lat="64.29767" lon="10.5082">
        <ele>57.895103</ele>
        <time>2020-08-09T13:19:49.718Z</time>
      </trkpt>
      <trkpt lat="64.29779" lon="10.50789">
        <ele>56.818513</ele>
        <time>2020-08-09T13:19:51.726Z</time>
      </trkpt>
      <trkpt lat="64.29786" lon="10.50774">
        <ele>56.232822</ele>
        <time>2020-08-09T13:19:52.716Z</time>
      </trkpt>
      <trkpt lat="64.29794" lon="10.50761">
        <ele>55.683469</ele>
        <time>2020-08-09T13:19:53.718Z</time>
      </trkpt>
      <trkpt lat="64.29801" lon="10.50748">
        <ele>55.14177</ele>
        <time>2020-08-09T13:19:54.730Z</time>
      </trkpt>
      <trkpt lat="64.29808" lon="10.50733">
        <ele>54.546396</ele>
        <time>2020-08-09T13:19:55.733Z</time>
      </trkpt>
      <trkpt lat="64.29821" lon="10.50708">
        <ele>53.544572</ele>
        <time>2020-08-09T13:19:57.717Z</time>
      </trkpt>
      <trkpt lat="64.29833" lon="10.50682">
        <ele>52.559386</ele>
        <time>2020-08-09T13:19:59.705Z</time>
      </trkpt>
      <trkpt lat="64.29845" lon="10.50657">
        <ele>51.618162</ele>
        <time>2020-08-09T13:20:01.728Z</time>
      </trkpt>
      <trkpt lat="64.29855" lon="10.50632">
        <ele>50.773709</ele>
        <time>2020-08-09T13:20:03.735Z</time>
      </trkpt>
      <trkpt lat="64.29864" lon="10.50605">
        <ele>50.309114</ele>
        <time>2020-08-09T13:20:05.723Z</time>
      </trkpt>
      <trkpt lat="64.29873" lon="10.50575">
        <ele>49.832853</ele>
        <time>2020-08-09T13:20:07.738Z</time>
      </trkpt>
      <trkpt lat="64.2988" lon="10.50546">
        <ele>49.384135</ele>
        <time>2020-08-09T13:20:09.720Z</time>
      </trkpt>
      <trkpt lat="64.29886" lon="10.50515">
        <ele>48.924487</ele>
        <time>2020-08-09T13:20:11.723Z</time>
      </trkpt>
      <trkpt lat="64.29892" lon="10.50485">
        <ele>48.499388</ele>
        <time>2020-08-09T13:20:13.764Z</time>
      </trkpt>
      <trkpt lat="64.29897" lon="10.50457">
        <ele>48.085327</ele>
        <time>2020-08-09T13:20:15.755Z</time>
      </trkpt>
      <trkpt lat="64.29901" lon="10.50431">
        <ele>47.719859</ele>
        <time>2020-08-09T13:20:17.720Z</time>
      </trkpt>
      <trkpt lat="64.29905" lon="10.50404">
        <ele>47.345731</ele>
        <time>2020-08-09T13:20:19.769Z</time>
      </trkpt>
      <trkpt lat="64.29908" lon="10.5038">
        <ele>47.003325</ele>
        <time>2020-08-09T13:20:21.723Z</time>
      </trkpt>
      <trkpt lat="64.29912" lon="10.50356">
        <ele>46.662975</ele>
        <time>2020-08-09T13:20:23.748Z</time>
      </trkpt>
      <trkpt lat="64.29915" lon="10.50333">
        <ele>46.343526</ele>
        <time>2020-08-09T13:20:25.751Z</time>
      </trkpt>
      <trkpt lat="64.29917" lon="10.50311">
        <ele>46.038235</ele>
        <time>2020-08-09T13:20:27.757Z</time>
      </trkpt>
      <trkpt lat="64.2992" lon="10.5029">
        <ele>45.750479</ele>
        <time>2020-08-09T13:20:29.735Z</time>
      </trkpt>
      <trkpt lat="64.29923" lon="10.5027">
        <ele>45.467907</ele>
        <time>2020-08-09T13:20:31.721Z</time>
      </trkpt>
      <trkpt lat="64.29925" lon="10.5025">
        <ele>45.283532</ele>
        <time>2020-08-09T13:20:33.716Z</time>
      </trkpt>
      <trkpt lat="64.29926" lon="10.50229">
        <ele>45.271607</ele>
        <time>2020-08-09T13:20:35.728Z</time>
      </trkpt>
      <trkpt lat="64.29927" lon="10.50209">
        <ele>45.259817</ele>
        <time>2020-08-09T13:20:37.732Z</time>
      </trkpt>
      <trkpt lat="64.29928" lon="10.50187">
        <ele>45.247386</ele>
        <time>2020-08-09T13:20:39.725Z</time>
      </trkpt>
      <trkpt lat="64.29929" lon="10.50165">
        <ele>45.235107</ele>
        <time>2020-08-09T13:20:41.714Z</time>
      </trkpt>
      <trkpt lat="64.29931" lon="10.50144">
        <ele>45.223166</ele>
        <time>2020-08-09T13:20:43.745Z</time>
      </trkpt>
      <trkpt lat="64.29932" lon="10.50117">
        <ele>45.207411</ele>
        <time>2020-08-09T13:20:46.724Z</time>
      </trkpt>
      <trkpt lat="64.29933" lon="10.50089">
        <ele>45.191821</ele>
        <time>2020-08-09T13:20:49.758Z</time>
      </trkpt>
      <trkpt lat="64.29933" lon="10.50062">
        <ele>45.17624</ele>
        <time>2020-08-09T13:20:52.708Z</time>
      </trkpt>
      <trkpt lat="64.29932" lon="10.50036">
        <ele>45.161354</ele>
        <time>2020-08-09T13:20:55.721Z</time>
      </trkpt>
      <trkpt lat="64.29931" lon="10.50011">
        <ele>45.147277</ele>
        <time>2020-08-09T13:20:58.755Z</time>
      </trkpt>
      <trkpt lat="64.2993" lon="10.49987">
        <ele>45.133959</ele>
        <time>2020-08-09T13:21:01.725Z</time>
      </trkpt>
      <trkpt lat="64.29929" lon="10.49962">
        <ele>45.11967</ele>
        <time>2020-08-09T13:21:04.724Z</time>
      </trkpt>
      <trkpt lat="64.29929" lon="10.49937">
        <ele>45.105047</ele>
        <time>2020-08-09T13:21:07.719Z</time>
      </trkpt>
      <trkpt lat="64.29928" lon="10.49911">
        <ele>45.090669</ele>
        <time>2020-08-09T13:21:10.744Z</time>
      </trkpt>
      <trkpt lat="64.29927" lon="10.49885">
        <ele>45.075901</ele>
        <time>2020-08-09T13:21:13.733Z</time>
      </trkpt>
      <trkpt lat="64.29925" lon="10.49855">
        <ele>45.058765</ele>
        <time>2020-08-09T13:21:16.728Z</time>
      </trkpt>
      <trkpt lat="64.29926" lon="10.49834">
        <ele>45.052677</ele>
        <time>2020-08-09T13:21:19.724Z</time>
      </trkpt>
      <trkpt lat="64.29935" lon="10.49817">
        <ele>45.052677</ele>
        <time>2020-08-09T13:21:23.729Z</time>
      </trkpt>
      <trkpt lat="64.29943" lon="10.49802">
        <ele>45.052677</ele>
        <time>2020-08-09T13:21:27.719Z</time>
      </trkpt>
      <trkpt lat="64.29953" lon="10.49796">
        <ele>45.052677</ele>
        <time>2020-08-09T13:33:25.726Z</time>
      </trkpt>
      <trkpt lat="64.29962" lon="10.49794">
        <ele>45.052677</ele>
        <time>2020-08-09T13:33:31.766Z</time>
      </trkpt>
      <trkpt lat="64.29971" lon="10.49803">
        <ele>45.052677</ele>
        <time>2020-08-09T13:33:35.760Z</time>
      </trkpt>
      <trkpt lat="64.2998" lon="10.4982">
        <ele>45.052677</ele>
        <time>2020-08-09T13:33:40.738Z</time>
      </trkpt>
      <trkpt lat="64.29987" lon="10.49839">
        <ele>45.052677</ele>
        <time>2020-08-09T13:33:44.727Z</time>
      </trkpt>
      <trkpt lat="64.29994" lon="10.49855">
        <ele>45.052677</ele>
        <time>2020-08-09T13:33:47.714Z</time>
      </trkpt>
      <trkpt lat="64.30002" lon="10.49869">
        <ele>45.052677</ele>
        <time>2020-08-09T13:33:51.747Z</time>
      </trkpt>
      <trkpt lat="64.3001" lon="10.49878">
        <ele>45.052677</ele>
        <time>2020-08-09T13:33:55.714Z</time>
      </trkpt>
      <trkpt lat="64.30022" lon="10.49888">
        <ele>45.052677</ele>
        <time>2020-08-09T13:34:00.734Z</time>
      </trkpt>
      <trkpt lat="64.3003" lon="10.49896">
        <ele>45.052677</ele>
        <time>2020-08-09T13:34:03.744Z</time>
      </trkpt>
      <trkpt lat="64.30039" lon="10.49905">
        <ele>45.052677</ele>
        <time>2020-08-09T13:34:06.735Z</time>
      </trkpt>
      <trkpt lat="64.30048" lon="10.49918">
        <ele>45.052677</ele>
        <time>2020-08-09T13:34:09.716Z</time>
      </trkpt>
      <trkpt lat="64.30056" lon="10.49929">
        <ele>45.052677</ele>
        <time>2020-08-09T13:34:12.724Z</time>
      </trkpt>
      <trkpt lat="64.30064" lon="10.49938">
        <ele>45.052677</ele>
        <time>2020-08-09T13:34:16.719Z</time>
      </trkpt>
      <trkpt lat="64.30066" lon="10.4996">
        <ele>45.052677</ele>
        <time>2020-08-09T13:34:20.719Z</time>
      </trkpt>
      <trkpt lat="64.30068" lon="10.49981">
        <ele>45.052677</ele>
        <time>2020-08-09T13:34:24.720Z</time>
      </trkpt>
      <trkpt lat="64.30074" lon="10.50006">
        <ele>45.052677</ele>
        <time>2020-08-09T13:34:28.727Z</time>
      </trkpt>
      <trkpt lat="64.30075" lon="10.5003">
        <ele>45.052677</ele>
        <time>2020-08-09T13:34:34.730Z</time>
      </trkpt>
      <trkpt lat="64.30051" lon="10.50031">
        <ele>45.052677</ele>
        <time>2020-08-09T15:11:04.361Z</time>
      </trkpt>
    </trkseg>
  </trk>
</gpx>